<<back to data home page

    Month/Day/Year       Maximum   Minimum    Rel    Dew       Rainfall  Seasonal  Soil     Soil      Baro       Wind    Wind        Peak    Peak Gust  Evap     Leaf     Net
    and                  Air Temp  Air Temp   Hum    Point     Inches    Rainfall  Temp     Moisture  Pressure   Speed   Direction   Gust    Direction  Pan      Wetness  Radiation
    Local Time           Deg F     Deg F      %      Deg F               Inches    Deg F    dS/m      mbar       knots   comp deg    knots   comp deg   Inches   mV       W_m2
----------------------------------------------------------------------------------------------------------------------------------------------------------------------------------
   07/29/2016 06:50      70.4      69.6       59     55.1      0.00      0.00      88.2     0.47      1010.0     1       152         2       151        8.80     270      -27.9
   07/29/2016 06:40      69.8      68.9       61     55.1      0.00      0.00      88.4     0.47      1010.0     2       148         2       140        8.81     270      -34.4
   07/29/2016 06:30      69.0      68.6       61     54.9      0.00      0.00      88.6     0.48      1010.0     2       158         2       141        8.80     268      -39.6
   07/29/2016 06:20      68.9      68.6       62     55.1      0.00      0.00      88.6     0.48      1010.0     2       163         2       132        8.81     268      -43.6
   07/29/2016 06:10      68.8      68.5       62     55.0      0.00      0.00      88.7     0.48      1010.0     1       145         1       164        8.81     267      -46.9
   07/29/2016 06:00      69.1      68.6       61     54.9      0.00      0.00      88.6     0.48      1010.0     1       126         2       127        8.81     267      -48.7
   07/29/2016 05:50      69.1      68.8       60     54.5      0.00      0.00      89.3     0.48      1010.0     1       148         1       130        8.81     267      -49.2
   07/29/2016 05:40      69.1      68.6       61     54.8      0.00      0.00      89.1     0.48      1010.0     0       213         1       249        8.81     266      -50.0
   07/29/2016 05:30      68.9      68.6       62     55.1      0.00      0.00      88.8     0.48      1010.0     0       206         1       224        8.81     265      -51.0
   07/29/2016 05:20      68.8      68.6       61     54.9      0.00      0.00      88.9     0.48      1010.0     1       179         2       162        8.81     266      -52.2
   07/29/2016 05:10      69.4      68.9       61     54.9      0.00      0.00      89.3     0.48      1010.0     2       150         2       135        8.81     265      -53.1
   07/29/2016 05:00      69.6      69.4       60     55.1      0.00      0.00      89.2     0.48      1010.0     1       137         1       124        8.81     265      -52.7
   07/29/2016 04:50      69.7      69.5       60     55.3      0.00      0.00      89.0     0.48      1010.0     0       198         1       217        8.81     264      -53.4
   07/29/2016 04:40      70.0      69.6       60     55.1      0.00      0.00      88.9     0.48      1010.0     2       154         2       149        8.81     265      -54.0
   07/29/2016 04:30      70.0      69.6       60     55.2      0.00      0.00      88.9     0.48      1010.0     2       150         3       153        8.82     265      -54.2
   07/29/2016 04:20      70.2      70.0       60     55.4      0.00      0.00      89.2     0.48      1010.0     2       148         3       151        8.82     265      -54.3
   07/29/2016 04:10      70.1      69.5       60     55.1      0.00      0.00      89.4     0.48      1010.0     2       145         3       139        8.82     264      -54.6
   07/29/2016 04:00      69.8      69.5       60     55.1      0.00      0.00      89.6     0.48      1010.0     2       157         2       143        8.82     264      -54.7
   07/29/2016 03:50      70.3      69.8       58     54.8      0.00      0.00      89.6     0.48      1010.0     2       177         2       167        8.82     264      -55.0
   07/29/2016 03:40      70.5      70.2       58     54.8      0.00      0.00      89.4     0.48      1010.0     1       168         2       178        8.82     264      -55.4
   07/29/2016 03:30      70.7      70.5       58     54.9      0.00      0.00      89.4     0.48      1010.0     2       158         2       145        8.82     263      -55.8
   07/29/2016 03:20      71.0      70.6       57     54.8      0.00      0.00      89.4     0.48      1010.0     2       151         2       159        8.82     263      -56.7
   07/29/2016 03:10      71.3      71.0       56     54.9      0.00      0.00      89.4     0.48      1010.0     1       143         2       126        8.82     263      -57.5
   07/29/2016 03:00      71.7      71.3       56     54.8      0.00      0.00      89.5     0.48      1010.0     1       140         2       122        8.82     263      -58.0
   07/29/2016 02:50      72.4      71.7       54     54.8      0.00      0.00      89.8     0.48      1010.0     2       121         2       107        8.82     263      -58.7
   07/29/2016 02:40      72.6      72.3       54     54.9      0.00      0.00      89.8     0.48      1010.0     1       113         3       109        8.83     264      -59.3
   07/29/2016 02:30      73.0      72.6       53     54.6      0.00      0.00      89.4     0.48      1010.0     2        83         3        91        8.83     264      -59.7
   07/29/2016 02:20      73.4      73.1       51     54.3      0.00      0.00      89.8     0.48      1010.0     1        62         2        63        8.83     264      -60.3
   07/29/2016 02:10      73.7      73.5       51     54.1      0.00      0.00      89.6     0.48      1010.0     2        53         4        27        8.83     264      -60.8
   07/29/2016 02:00      74.2      73.7       52     55.0      0.00      0.00      89.9     0.48      1010.0     2        53         4        82        8.83     265      -61.0
   07/29/2016 01:50      74.3      74.1       52     55.3      0.00      0.00      89.7     0.48      1010.0     2        59         3        59        8.83     265      -61.5
   07/29/2016 01:40      74.3      74.2       49     54.0      0.00      0.00      89.8     0.48      1010.0     2        69         3        81        8.83     265      -60.9
   07/29/2016 01:30      74.3      74.0       51     55.0      0.00      0.00      90.2     0.48      1010.0     2        52         2        75        8.83     264      -59.8
   07/29/2016 01:20      74.2      73.7       55     56.5      0.00      0.00      90.0     0.48      1010.0     1        50         1        27        8.83     264      -59.8
   07/29/2016 01:10      73.7      73.4       54     55.8      0.00      0.00      90.0     0.48      1010.0     1        77         2        79        8.83     265      -59.6
   07/29/2016 01:00      74.3      73.7       53     55.6      0.00      0.00      90.1     0.48      1010.0     1       118         1       106        8.83     265      -59.1
   07/29/2016 00:50      74.6      74.4       52     55.9      0.00      0.00      90.0     0.48      1010.0     0       110         1        54        8.84     265      -59.4
   07/29/2016 00:40      74.5      74.2       52     55.8      0.00      0.00      90.0     0.48      1010.0     0        78         1        87        8.84     265      -59.9
   07/29/2016 00:30      74.8      74.4       51     55.5      0.00      0.00      89.9     0.48      1010.0     1       124         1       136        8.84     265      -61.1
   07/29/2016 00:20      75.2      74.8       51     55.7      0.00      0.00      90.5     0.48      1011.0     1       132         2       128        8.84     265      -61.0
   07/29/2016 00:10      75.4      75.0       51     55.8      0.00      0.00      89.9     0.48      1010.0     1       143         2       152        8.84     266      -61.3
   07/29/2016 00:00      75.3      75.2       50     55.4      0.00      0.00      90.2     0.48      1010.0     2       159         2       138        8.84     266      -61.5
   07/28/2016 23:50      75.9      75.5       49     55.2      0.00      0.00      90.1     0.48      1010.0     2       151         2       162        8.84     266      -61.9
   07/28/2016 23:40      76.5      76.0       47     54.8      0.00      0.00      90.0     0.48      1010.0     1       150         2       178        8.84     266      -62.4
   07/28/2016 23:30      76.8      76.4       47     55.0      0.00      0.00      90.1     0.48      1010.0     1       169         2       176        8.85     266      -62.0
   07/28/2016 23:20      77.0      76.6       47     55.1      0.00      0.00      90.3     0.48      1011.0     1       163         1       169        8.85     266      -63.3
   07/28/2016 23:10      77.4      77.1       46     55.2      0.00      0.00      90.3     0.48      1011.0     1       107         1        77        8.85     266      -64.6
   07/28/2016 23:00      77.9      77.6       46     55.6      0.00      0.00      90.2     0.48      1011.0     1        86         2        61        8.85     266      -65.7
   07/28/2016 22:50      78.4      77.9       46     55.5      0.00      0.00      90.2     0.48      1011.0     1        77         1        62        8.85     266      -66.4
   07/28/2016 22:40      78.7      78.3       45     55.1      0.00      0.00      90.3     0.48      1011.0     1        63         2        64        8.85     266      -66.6
   07/28/2016 22:30      79.0      78.6       44     55.1      0.00      0.00      90.4     0.48      1011.0     1        60         2        69        8.85     267      -67.1
   07/28/2016 22:20      79.6      79.2       43     55.0      0.00      0.00      90.3     0.48      1011.0     1        97         2         7        8.86     267      -68.0
   07/28/2016 22:10      80.0      79.7       42     54.8      0.00      0.00      90.2     0.48      1011.0     2        53         3        66        8.86     267      -68.1
   07/28/2016 22:00      80.6      80.1       41     54.3      0.00      0.00      90.2     0.48      1011.0     2        66         3        98        8.86     267      -68.4
   07/28/2016 21:50      81.4      80.6       39     54.1      0.00      0.00      90.1     0.48      1011.0     2        53         3        72        8.86     267      -68.7
   07/28/2016 21:40      82.4      81.4       39     54.6      0.00      0.00      90.2     0.48      1011.0     3        75         4        80        8.87     267      -68.7
   07/28/2016 21:30      82.9      82.5       35     52.5      0.00      0.00      90.3     0.48      1010.0     1       310         1       146        8.87     267      -69.3
   07/28/2016 21:20      83.4      83.0       34     52.0      0.00      0.00      90.1     0.48      1010.0     1       192         2       175        8.87     267      -70.4
   07/28/2016 21:10      83.7      83.4       33     51.6      0.00      0.00      90.1     0.48      1010.0     2       214         3       217        8.87     267      -71.1
   07/28/2016 21:00      84.1      83.7       32     51.1      0.00      0.00      90.0     0.48      1010.0     2       194         3       219        8.87     267      -72.3
   07/28/2016 20:50      84.7      84.1       33     52.5      0.00      0.00      90.1     0.48      1010.0     2       110         3        73        8.88     267      -73.6
   07/28/2016 20:40      85.3      84.9       31     50.7      0.00      0.00      90.2     0.48      1010.0     1       121         2       161        8.88     267      -75.2
   07/28/2016 20:30      85.8      85.3       30     50.4      0.00      0.00      90.3     0.48      1010.0     3       224         4       224        8.88     267      -76.2
   07/28/2016 20:20      86.7      86.0       30     51.0      0.00      0.00      90.2     0.48      1010.0     3       233         5       248        8.88     267      -77.5
   07/28/2016 20:10      87.7      86.7       29     51.2      0.00      0.00      90.2     0.48      1010.0     3       238         4       245        8.88     267      -77.8
   07/28/2016 20:00      88.3      87.7       29     51.4      0.00      0.00      90.1     0.48      1010.0     4       251         5       254        8.89     267      -76.2
   07/28/2016 19:50      89.0      88.4       29     52.4      0.00      0.00      90.0     0.48      1010.0     3       285         4       253        8.89     267      -74.0
   07/28/2016 19:40      89.4      88.9       29     52.9      0.00      0.00      89.9     0.48      1009.0     4       283         5       254        8.89     267      -67.8
   07/28/2016 19:30      89.3      88.8       31     54.5      0.00      0.00      89.9     0.48      1009.0     4       258         5       228        8.89     266      -56.1
   07/28/2016 19:20      89.9      89.4       33     56.6      0.00      0.00      89.8     0.48      1009.0     5       252         8       252        8.90     266      -43.9
   07/28/2016 19:10      92.0      90.1       32     57.2      0.00      0.00      89.9     0.48      1009.0     6       236         8       241        8.90     267      -27.3
   07/28/2016 19:00      92.4      92.0       30     55.9      0.00      0.00      89.8     0.48      1009.0     4       274         5       268        8.90     267       -9.6
   07/28/2016 18:50      92.8      92.3       30     56.9      0.00      0.00      89.8     0.48      1009.0     5       280         6       250        8.91     267        7.5
   07/28/2016 18:40      92.9      92.4       31     57.3      0.00      0.00      89.7     0.48      1009.0     3       220         6       226        8.91     267       27.7
   07/28/2016 18:30      93.2      92.3       30     57.1      0.00      0.00      89.7     0.48      1009.0     5       230         8       245        8.91     266       47.9
   07/28/2016 18:20      93.7      93.1       30     57.1      0.00      0.00      89.8     0.48      1009.0     5       200         7       223        8.92     266       68.0
   07/28/2016 18:10      93.4      92.7       29     55.9      0.00      0.00      89.5     0.48      1009.0     5       146         8       142        8.93     266       89.2
   07/28/2016 18:00      94.3      92.9       28     55.5      0.00      0.00      89.5     0.48      1009.0     7       144         9       157        8.93     267      110.7
   07/28/2016 17:50      95.2      94.3       27     55.8      0.00      0.00      89.6     0.48      1009.0     5       135         7       133        8.94     267      132.6
   07/28/2016 17:40      96.0      95.3       27     55.9      0.00      0.00      89.4     0.47      1009.0     5       147         9       144        8.94     267      155.5
   07/28/2016 17:30      98.3      96.5       26     56.6      0.00      0.00      89.3     0.47      1009.0     4       139         5       153        8.95     267      177.6
   07/28/2016 17:20      98.7      97.7       24     55.4      0.00      0.00      89.3     0.47      1009.0     5        83         9        67        8.95     267      199.9
   07/28/2016 17:10      99.7      99.1       23     54.6      0.00      0.00      89.3     0.47      1009.0     4        29         8        84        8.95     267      217.7
   07/28/2016 17:00     100.1      99.4       23     55.1      0.00      0.00      89.2     0.47      1009.0     3        47         6        32        8.95     267      238.6
   07/28/2016 16:50     100.6      99.9       23     55.4      0.00      0.00      89.1     0.47      1009.0     4        43         6       340        8.95     267      259.3
   07/28/2016 16:40     100.7      99.8       23     55.2      0.00      0.00      89.0     0.47      1009.0     4        48         5        27        8.95     268      277.9
   07/28/2016 16:30     100.4      99.8       23     55.1      0.00      0.00      89.2     0.47      1009.0     4        54         6        49        8.95     267      296.3
   07/28/2016 16:20     101.6     100.1       21     54.3      0.00      0.00      89.0     0.47      1009.0     4        28         6        34        8.95     268      313.3
   07/28/2016 16:10     101.3     100.7       20     52.4      0.00      0.00      89.0     0.47      1009.0     2        32         4       359        8.95     268      330.6
   07/28/2016 16:00     101.3     100.3       20     52.6      0.00      0.00      88.9     0.47      1009.0     3        57         7       109        8.95     268      348.6
   07/28/2016 15:50     102.1     100.5       18     50.8      0.00      0.00      88.9     0.47      1009.0     3        68         6        73        8.95     268      364.3
   07/28/2016 15:40     101.2     100.2       18     49.5      0.00      0.00      88.9     0.47      1009.0     3        32         5        72        8.95     268      378.8
   07/28/2016 15:30      99.9      99.3       18     49.2      0.00      0.00      88.7     0.47      1009.0     4         8         5       359        8.95     269      394.5
   07/28/2016 15:20     100.2      99.1       18     48.8      0.00      0.00      88.5     0.47      1009.0     3        29         5         9        8.95     269      409.7
   07/28/2016 15:10      99.7      97.5       18     48.1      0.00      0.00      88.5     0.47      1010.0     3       118         5        98        8.95     268      428.3
   07/28/2016 15:00     100.0      99.3       17     47.6      0.00      0.00      88.6     0.47      1010.0     3        46         6        70        8.95     269      438.3
   07/28/2016 14:50     100.3      99.3       17     47.9      0.00      0.00      88.5     0.47      1010.0     3        38         5        71        8.95     269      450.2
   07/28/2016 14:40      99.2      98.1       18     47.5      0.00      0.00      88.3     0.47      1010.0     3       359         4         2        8.95     270      462.9
   07/28/2016 14:30      98.0      97.2       18     46.8      0.00      0.00      88.4     0.47      1010.0     3        30         5        29        8.95     270      474.7
   07/28/2016 14:20      98.6      97.0       18     46.7      0.00      0.00      88.4     0.47      1010.0     4         2         6        11        8.95     271      484.2
   07/28/2016 14:10      98.5      97.0       18     46.9      0.00      0.00      88.2     0.47      1011.0     3       359         6       356        8.95     271      491.1
   07/28/2016 14:00      97.2      95.7       18     46.5      0.00      0.00      88.3     0.47      1011.0     3        78         6        38        8.95     271      504.8
   07/28/2016 13:50      96.0      94.7       19     46.1      0.00      0.00      88.2     0.47      1011.0     4       133         6       156        8.95     275      514.5
   07/28/2016 13:40      95.7      95.1       18     45.7      0.00      0.00      88.3     0.47      1011.0     4        81         9        74        8.95     308      517.9
   07/28/2016 13:30      95.7      94.9       19     46.2      0.00      0.00      88.2     0.47      1011.0     5        82         8        87        8.95     335      524.8
   07/28/2016 13:20      96.6      96.0       18     45.5      0.00      0.00      88.1     0.47      1012.0     5        30         8        34        8.95     353      524.2
   07/28/2016 13:10      96.2      95.0       18     45.6      0.00      0.00      88.1     0.47      1012.0     4        50         7        70        8.95     369      528.8
   07/28/2016 13:00      94.9      94.0       19     45.6      0.00      0.00      88.2     0.47      1012.0     5        41         8        71        8.95     384      531.2
   07/28/2016 12:50      94.1      93.2       19     45.1      0.00      0.00      88.1     0.47      1012.0     5        56         9        77        8.95     394      532.9
   07/28/2016 12:40      93.9      92.9       22     48.4      0.00      0.00      88.2     0.47      1012.0     4        42         6        37        8.95     402      530.6
   07/28/2016 12:30      93.5      92.1       23     49.4      0.00      0.00      88.2     0.47      1012.0     4        32         6        45        8.95     407      529.9
   07/28/2016 12:20      93.0      92.3       27     53.8      0.00      0.00      88.0     0.47      1012.0     4        28         6        30        8.95     411      528.4
   07/28/2016 12:10      92.6      91.7       27     53.6      0.00      0.00      88.1     0.47      1012.0     4        58         6        75        8.95     412      526.2
   07/28/2016 12:00      92.4      91.4       26     51.8      0.00      0.00      88.1     0.47      1012.0     4        38         8        35        8.95     413      522.2
   07/28/2016 11:50      91.9      91.1       24     49.6      0.00      0.00      88.2     0.47      1012.0     4        45         6        59        8.95     416      517.6
   07/28/2016 11:40      91.8      91.2       23     48.5      0.00      0.00      87.7     0.47      1012.0     4        35         6        41        8.95     420      509.4
   07/28/2016 11:30      91.6      90.4       24     48.6      0.00      0.00      88.1     0.47      1012.0     4        30         6       359        8.95     420      504.0
   07/28/2016 11:20      90.5      89.7       24     48.7      0.00      0.00      88.2     0.47      1013.0     4        42         6        65        8.95     420      496.9
   07/28/2016 11:10      90.0      88.2       26     49.8      0.00      0.00      87.7     0.47      1013.0     3        43         5        73        8.95     422      489.6
   07/28/2016 11:00      88.7      88.2       31     54.0      0.00      0.00      88.4     0.48      1013.0     4        64         6        87        8.95     417      479.8
   07/28/2016 10:50      88.5      86.8       35     56.7      0.00      0.00      88.1     0.48      1013.0     4        18         6        72        8.95     418      468.5
   07/28/2016 10:40      87.0      85.9       34     54.7      0.00      0.00      88.4     0.48      1013.0     3        25         5        34        8.95     408      460.4
   07/28/2016 10:30      86.2      85.4       33     53.8      0.00      0.00      88.7     0.48      1013.0     3        26         5        20        8.95     416      450.0
   07/28/2016 10:20      85.9      84.6       34     53.2      0.00      0.00      88.7     0.48      1013.0     4        38         6        21        8.95     420      441.1
   07/28/2016 10:10      84.7      83.5       37     54.7      0.00      0.00      89.2     0.48      1013.0     4        50         5       122        8.95     421      432.4
   07/28/2016 10:00      84.0      82.8       40     56.4      0.00      0.00      88.9     0.48      1013.0     3        23         6        74        8.95     426      420.7
   07/28/2016 09:50      83.4      82.9       40     56.6      0.00      0.00      88.6     0.48      1013.0     3        35         5        25        8.95     433      416.2
   07/28/2016 09:40      83.1      83.1       41     57.1      0.00      0.00      88.9     0.45      1013.0     2        48         2        48        8.95     265      354.6
   07/28/2016 09:30      82.7      81.5       43     57.7      0.00      0.00      88.9     0.45      1013.0     2        74         5        75        8.94     266      330.0
   07/28/2016 09:20      81.7      81.0       45     57.9      0.00      0.00      88.7     0.46      1013.0     2        37         5        78        8.94     266      315.5
   07/28/2016 09:10      79.8      78.5       47     57.4      0.00      0.00      89.1     0.46      1013.0     2        24         3        23        8.73     265      300.3
   07/28/2016 09:00      78.4      77.2       50     57.8      0.00      0.00      89.0     0.46      1013.0     2       349         3       350        6.78     265      294.1
   07/28/2016 08:50      77.2      76.3       52     57.9      0.00      0.00      88.6     0.46      1013.0     1        38         3        21        6.78     265      207.8
   07/28/2016 08:30      75.7      74.9       55     58.2      0.00      0.00      89.2     0.46      1013.0     2       338         4       340        6.79     266      -10.2
   07/28/2016 08:20      75.1      75.0       55     57.8      0.00      0.00      89.2     0.46      1013.0     2       316         3       306        6.79     266       -7.8
   07/28/2016 08:10      75.0      74.1       55     57.5      0.00      0.00      88.7     0.46      1014.0     1        50         2        32        6.79     266      -10.4
   07/28/2016 08:00      74.1      73.8       56     57.3      0.00      0.00      89.3     0.46      1014.0     1        34         2        20        6.79     266      -13.4
   07/28/2016 07:50      73.5      72.8       57     57.0      0.00      0.00      89.3     0.46      1013.0     2       136         3       130        6.79     266      -12.9
   07/28/2016 07:40      72.9      72.4       58     56.9      0.00      0.00      89.2     0.46      1013.0     2        70         2       108        6.79     266      -17.7
   07/28/2016 07:30      72.5      71.9       60     57.4      0.00      0.00      89.5     0.46      1013.0     2       135         3       133        6.79     266      -20.9
   07/28/2016 07:20      71.9      71.3       62     57.9      0.00      0.00      89.2     0.46      1013.0     2        89         3        97        6.79     266      -23.2
   07/28/2016 07:10      71.4      70.8       62     57.5      0.00      0.00      89.4     0.46      1013.0     1       100         3        69        6.79     265      -26.6
   07/28/2016 07:00      70.8      70.1       63     57.1      0.00      0.00      89.2     0.46      1013.0     1        84         2        86        6.79     265      -30.0
   07/28/2016 06:50      70.0      68.9       63     56.4      0.00      0.00      89.5     0.46      1013.0     1       108         2        83        6.79     266      -32.1
   07/28/2016 06:40      69.1      68.6       63     55.7      0.00      0.00      89.5     0.46      1013.0     1        69         1        79        6.79     265      -38.0
   07/28/2016 06:30      68.8      68.2       64     55.6      0.00      0.00      89.5     0.46      1013.0     1       149         1       127        6.79     265      -42.3
   07/28/2016 06:20      68.4      68.0       65     55.8      0.00      0.00      89.2     0.46      1013.0     1       118         2        93        6.79     265      -46.8
   07/28/2016 06:10      68.2      67.9       65     55.8      0.00      0.00      89.5     0.46      1013.0     2       142         3       144        6.79     265      -51.0
   07/28/2016 06:00      68.0      67.8       65     55.9      0.00      0.00      89.8     0.46      1013.0     2       156         3       157        6.79     265      -53.0
   07/28/2016 05:50      68.0      67.8       65     55.5      0.00      0.00      89.5     0.46      1013.0     2       143         2       144        6.79     265      -54.0
   07/28/2016 05:40      68.4      68.2       63     55.2      0.00      0.00      89.7     0.46      1013.0     1       105         1       131        6.79     265      -54.3
   07/28/2016 05:30      68.7      68.5       64     55.7      0.00      0.00      89.8     0.46      1012.0     1       186         1       168        6.79     265      -54.2
   07/28/2016 05:20      68.9      68.8       63     55.9      0.00      0.00      89.7     0.46      1013.0     1       142         2       143        6.79     265      -54.8
   07/28/2016 05:10      68.9      68.6       63     55.8      0.00      0.00      89.8     0.46      1012.0     1       125         2       126        6.79     265      -55.5
   07/28/2016 05:00      68.9      68.6       63     55.9      0.00      0.00      90.0     0.46      1012.0     1       141         2       147        6.79     265      -56.1
   07/28/2016 04:50      69.1      68.8       62     55.3      0.00      0.00      89.8     0.46      1012.0     1       124         2       109        6.79     265      -56.1
   07/28/2016 04:40      69.3      68.9       62     55.5      0.00      0.00      89.8     0.46      1012.0     2       148         2       153        6.79     265      -56.1
   07/28/2016 04:30      69.8      69.3       62     55.9      0.00      0.00      89.9     0.46      1012.0     1       140         2       156        6.79     265      -56.2
   07/28/2016 04:20      70.0      69.8       60     55.6      0.00      0.00      90.0     0.46      1012.0     1       154         1       172        6.79     265      -56.5
   07/28/2016 04:10      70.3      69.9       59     55.2      0.00      0.00      90.2     0.46      1012.0     1       146         1       130        6.79     265      -57.1
   07/28/2016 04:00      70.5      70.2       59     55.3      0.00      0.00      89.8     0.46      1012.0     1       146         1       141        6.79     265      -56.8
   07/28/2016 03:50      70.5      70.3       58     54.9      0.00      0.00      90.1     0.46      1012.0     1       125         1       125        6.79     265      -57.0
   07/28/2016 03:40      70.8      70.3       56     54.3      0.00      0.00      90.2     0.46      1012.0     1        64         1       115        6.79     265      -58.5
   07/28/2016 03:30      71.4      70.8       55     54.3      0.00      0.00      90.0     0.46      1012.0     1       130         2       141        6.79     265      -58.6
   07/28/2016 03:20      72.2      71.5       54     54.3      0.00      0.00      90.2     0.46      1012.0     1       104         1       135        6.79     265      -59.1
   07/28/2016 03:10      72.6      72.2       54     54.6      0.00      0.00      90.1     0.46      1012.0     1        70         3        81        6.79     265      -59.7
   07/28/2016 03:00      72.7      72.5       54     55.0      0.00      0.00      90.2     0.46      1012.0     1        75         2        74        6.79     265      -60.1
   07/28/2016 02:50      72.8      72.5       55     55.6      0.00      0.00      90.2     0.46      1012.0     2       100         2       102        6.80     265      -60.5
   07/28/2016 02:40      72.8      72.7       56     56.1      0.00      0.00      90.4     0.46      1012.0     2        87         2        89        6.81     265      -60.2
   07/28/2016 02:30      73.1      72.6       55     55.9      0.00      0.00      90.5     0.46      1013.0     2        98         3        73        6.81     265      -60.7
   07/28/2016 02:20      73.1      72.9       55     56.1      0.00      0.00      90.3     0.46      1013.0     1       108         2        78        6.81     265      -61.4
   07/28/2016 02:10      73.5      73.1       55     56.2      0.00      0.00      90.4     0.46      1012.0     2       118         2       126        6.81     265      -61.4
   07/28/2016 02:00      73.8      73.3       55     56.1      0.00      0.00      90.7     0.46      1012.0     2       107         3       125        6.81     265      -62.0
   07/28/2016 01:50      74.2      73.7       53     56.0      0.00      0.00      90.7     0.46      1012.0     1       106         1        86        6.81     264      -63.4
   07/28/2016 01:40      74.5      74.3       53     56.1      0.00      0.00      90.4     0.46      1012.0     1       101         3        84        6.81     264      -64.0
   07/28/2016 01:30      74.7      74.6       52     56.0      0.00      0.00      90.4     0.46      1012.0     2        74         4        70        6.81     264      -64.3
   07/28/2016 01:20      74.9      74.6       54     57.1      0.00      0.00      90.6     0.46      1012.0     2        77         3        91        6.81     264      -64.7
   07/28/2016 01:10      75.1      74.9       54     57.3      0.00      0.00      90.7     0.46      1012.0     1        79         2        77        6.82     264      -64.8
   07/28/2016 01:00      75.2      74.9       56     58.2      0.00      0.00      90.5     0.46      1013.0     1        83         4        62        6.82     264      -64.7
   07/28/2016 00:50      75.6      75.2       56     58.7      0.00      0.00      90.9     0.46      1013.0     1        79         2        95        6.82     264      -64.8
   07/28/2016 00:40      75.9      75.6       56     58.9      0.00      0.00      90.5     0.46      1013.0     1        64         2         9        6.82     264      -65.4
   07/28/2016 00:30      76.4      75.9       56     59.2      0.00      0.00      90.5     0.46      1013.0     1        66         2       128        6.82     264      -65.7
   07/28/2016 00:20      76.7      76.4       56     59.5      0.00      0.00      90.8     0.46      1013.0     2        52         3        89        6.83     264      -66.3
   07/28/2016 00:10      77.4      76.9       54     59.1      0.00      0.00      90.7     0.46      1013.0     1        57         2        68        6.85     264      -66.4
   07/28/2016 00:00      77.7      77.4       53     59.1      0.00      0.00      90.7     0.46      1013.0     1        17         3         4        6.86     264      -66.4
   07/27/2016 23:50      77.9      77.4       51     58.0      0.00      0.00      90.6     0.46      1012.0     1        40         2        37        6.86     264      -65.2
   07/27/2016 23:40      78.2      77.8       50     57.7      0.00      0.00      90.8     0.46      1012.0     1        94         2        80        6.87     264      -65.5
   07/27/2016 23:30      78.6      78.3       48     57.1      0.00      0.00      90.7     0.46      1012.0     1        85         3        91        6.87     263      -65.3
   07/27/2016 23:20      78.6      78.4       43     54.4      0.00      0.00      90.8     0.46      1012.0     1        80         2        80        6.87     263      -65.6
   07/27/2016 23:10      78.5      78.2       34     47.7      0.00      0.00      90.6     0.46      1012.0     1        55         3        75        6.87     263      -65.6
   07/27/2016 23:00      79.0      78.5       30     44.6      0.00      0.00      90.7     0.46      1012.0     1        77         2        44        6.88     263      -65.8
   07/27/2016 22:50      80.1      79.2       28     44.1      0.00      0.00      90.7     0.46      1012.0     1       142         2       122        6.88     263      -65.7
   07/27/2016 22:40      80.8      80.1       28     44.0      0.00      0.00      90.9     0.46      1012.0     1       205         1       219        6.88     263      -65.7
   07/27/2016 22:30      81.1      80.8       27     44.2      0.00      0.00      90.7     0.46      1012.0     2       165         2       168        6.88     263      -67.7
   07/27/2016 22:20      81.3      81.0       27     43.6      0.00      0.00      90.7     0.46      1012.0     2       163         3       161        6.88     263      -67.9
   07/27/2016 22:10      82.3      81.4       25     42.5      0.00      0.00      90.6     0.46      1012.0     2       188         3       183        6.89     262      -68.7
   07/27/2016 22:00      83.1      82.5       23     41.8      0.00      0.00      90.6     0.46      1012.0     3       197         3       202        6.89     263      -70.2
   07/27/2016 21:50      83.6      83.4       23     41.9      0.00      0.00      90.7     0.46      1012.0     2       231         4       235        6.89     262      -71.6
   07/27/2016 21:40      83.8      83.3       23     42.4      0.00      0.00      90.6     0.46      1012.0     2       265         3       260        6.89     262      -72.2
   07/27/2016 21:30      83.4      83.0       24     42.8      0.00      0.00      90.6     0.46      1012.0     2       228         2       220        6.89     262      -72.7
   07/27/2016 21:20      83.4      83.1       24     42.9      0.00      0.00      90.5     0.46      1012.0     2       239         3       223        6.89     262      -73.9
   07/27/2016 21:10      84.0      83.1       25     43.9      0.00      0.00      90.5     0.46      1012.0     1       268         2       303        6.89     262      -75.2
   07/27/2016 21:00      84.7      84.1       24     44.2      0.00      0.00      90.5     0.46      1012.0     1       200         2       228        6.90     262      -77.0
   07/27/2016 20:50      85.0      84.8       24     44.1      0.00      0.00      90.5     0.46      1012.0     3       264         5       288        6.90     262      -78.7
   07/27/2016 20:40      85.3      85.0       24     44.0      0.00      0.00      90.4     0.46      1012.0     3       273         5       294        6.90     262      -80.0
   07/27/2016 20:30      85.8      85.3       23     43.9      0.00      0.00      90.6     0.46      1012.0     3       290         5       264        6.90     262      -81.5
   07/27/2016 20:20      86.5      85.7       23     44.0      0.00      0.00      90.4     0.46      1012.0     3       292         5       312        6.91     262      -82.9
   07/27/2016 20:10      86.8      86.4       23     44.7      0.00      0.00      90.5     0.46      1012.0     5       306         7       298        6.91     262      -83.4
   07/27/2016 20:00      87.7      87.1       23     45.0      0.00      0.00      90.5     0.46      1011.0     4       302         7       313        6.91     262      -82.4
   07/27/2016 19:50      88.7      88.0       22     44.8      0.00      0.00      90.5     0.46      1011.0     5       302         8       295        6.91     262      -81.2
   07/27/2016 19:40      89.8      88.8       21     44.8      0.00      0.00      90.3     0.46      1011.0     4       302         8       317        6.91     262      -78.7
   07/27/2016 19:30      91.0      90.0       20     44.1      0.00      0.00      90.2     0.46      1011.0     5       294         8       301        6.92     262      -63.5
   07/27/2016 19:20      92.2      91.0       19     43.2      0.00      0.00      90.2     0.46      1011.0     5       303         7       313        6.92     262      -49.8
   07/27/2016 19:10      93.4      92.0       18     42.8      0.00      0.00      90.0     0.46      1011.0     6       311        10       322        6.92     262      -32.8
   07/27/2016 19:00      94.5      93.4       18     43.4      0.00      0.00      90.4     0.46      1011.0     4       287         7       289        6.93     262      -13.0
   07/27/2016 18:50      94.7      94.4       17     43.2      0.00      0.00      90.1     0.46      1011.0     5       313         6       301        6.93     262        5.8
   07/27/2016 18:40      95.5      94.7       16     42.6      0.00      0.00      89.9     0.46      1011.0     5       311         6       292        6.93     262       24.6
   07/27/2016 18:30      96.3      95.6       15     41.4      0.00      0.00      90.3     0.46      1011.0     4       296         7       306        6.94     262       44.3
   07/27/2016 18:20      97.5      96.5       15     41.2      0.00      0.00      89.9     0.46      1011.0     5       303         8       309        6.94     262       65.1
   07/27/2016 18:10      98.1      96.9       14     40.7      0.00      0.00      89.9     0.46      1011.0     6       324         8       347        6.94     262       87.6
   07/27/2016 18:00      98.3      97.8       15     43.0      0.00      0.00      89.8     0.46      1011.0     5       295        11       242        6.94     262      112.2
   07/27/2016 17:50      98.9      98.3       16     45.0      0.00      0.00      89.7     0.45      1011.0     6       275         9       288        6.95     262      135.0
   07/27/2016 17:40      98.5      97.7       16     44.9      0.00      0.00      89.5     0.45      1011.0     6       257         9       258        6.95     262      158.0
   07/27/2016 17:30      99.4      98.9       16     45.7      0.00      0.00      89.6     0.45      1011.0     5       256         9       280        6.96     262      178.6
   07/27/2016 17:20      99.2      98.7       16     45.6      0.00      0.00      89.5     0.45      1011.0     5       271         8       296        6.96     262      203.2
   07/27/2016 17:10      99.6      98.9       16     45.6      0.00      0.00      89.7     0.45      1011.0     6       253         9       254        6.96     262      223.2
   07/27/2016 17:00      99.8      98.5       16     45.3      0.00      0.00      89.3     0.45      1011.0     5       243         7       247        6.97     263      243.7
   07/27/2016 16:50      99.3      98.8       17     46.1      0.00      0.00      89.3     0.45      1011.0     5       220         8       212        6.97     262      266.3
   07/27/2016 16:40      99.7      98.8       17     46.2      0.00      0.00      89.3     0.45      1011.0     6       232        11       225        6.98     263      286.7
   07/27/2016 16:30     100.5      99.4       17     47.1      0.00      0.00      89.3     0.45      1011.0     5       232        10       250        6.98     262      305.5
   07/27/2016 16:20     100.6      99.7       17     48.3      0.00      0.00      89.1     0.45      1011.0     7       250        10       268        6.99     263      323.6
   07/27/2016 16:10     101.2      99.7       18     48.9      0.00      0.00      89.0     0.45      1011.0     5       252         7       279        6.99     263      339.2
   07/27/2016 16:00     101.7     100.4       18     50.2      0.00      0.00      89.0     0.45      1011.0     5       276         9       278        7.00     263      357.4
   07/27/2016 15:50     102.1     101.2       18     50.8      0.00      0.00      88.9     0.45      1011.0     5       272         9       260        7.00     263      371.7
   07/27/2016 15:40     102.8     101.7       19     51.5      0.00      0.00      88.8     0.45      1011.0     5       283        10       283        7.01     263      388.3
   07/27/2016 15:30     103.2     102.3       16     48.2      0.00      0.00      88.6     0.45      1011.0     7       312        10       326        7.02     264      398.9
   07/27/2016 15:20     102.7     101.9       16     48.3      0.00      0.00      88.8     0.45      1011.0     3       356         7       342        7.02     264      408.9
   07/27/2016 15:10     103.1     101.1       16     47.4      0.00      0.00      88.7     0.45      1011.0     4        74         5        73        7.03     263      423.2
   07/27/2016 15:00     102.8     101.7       16     47.2      0.00      0.00      88.7     0.45      1011.0     5       350         7        11        7.03     264      434.4
   07/27/2016 14:50     103.3     102.2       16     47.3      0.00      0.00      88.6     0.45      1011.0     4        65         5        37        7.04     264      447.2
   07/27/2016 14:40     103.0     101.5       16     47.7      0.00      0.00      88.6     0.45      1011.0     4        66         7        44        7.04     265      460.5
   07/27/2016 14:30     102.6     101.2       16     48.0      0.00      0.00      88.4     0.45      1012.0     4        72         7        89        7.05     265      470.1
   07/27/2016 14:20     102.5     101.7       17     49.0      0.00      0.00      88.2     0.45      1012.0     3        67         4        33        7.05     265      477.5
   07/27/2016 14:10     102.0     101.3       18     50.0      0.00      0.00      88.2     0.45      1012.0     4        19         7        10        7.05     265      484.5
   07/27/2016 14:00     101.9     100.6       18     50.2      0.00      0.00      88.4     0.45      1012.0     4        22         5         2        7.05     265      492.2
   07/27/2016 13:50     102.4     100.4       18     50.5      0.00      0.00      88.2     0.44      1012.0     3        50         4        98        7.06     265      502.0
   07/27/2016 13:40     100.1      99.5       19     50.2      0.00      0.00      88.1     0.44      1012.0     3        96         5        89        7.06     265      511.7
   07/27/2016 13:30      99.8      98.3       19     50.3      0.00      0.00      88.1     0.44      1012.0     3       105         4       262        7.06     265      513.9
   07/27/2016 13:20     100.4      99.4       19     50.7      0.00      0.00      87.9     0.44      1012.0     3        30         5        32        7.06     264      514.7
   07/27/2016 13:10     100.1      97.4       20     50.8      0.00      0.00      88.0     0.44      1012.0     4        19         6        28        7.07     265      519.0
   07/27/2016 13:00      98.6      97.2       21     51.3      0.00      0.00      88.1     0.44      1012.0     4        34         6        82        7.07     264      520.3
   07/27/2016 12:50      97.8      97.1       21     51.7      0.00      0.00      88.0     0.44      1013.0     4        27         7         4        7.07     264      521.7
   07/27/2016 12:40      98.2      96.9       22     52.5      0.00      0.00      88.1     0.44      1013.0     4        22         7         3        7.07     264      518.1
   07/27/2016 12:30      97.1      96.1       23     52.4      0.00      0.00      88.0     0.44      1013.0     4         5         7       344        7.07     265      516.6
   07/27/2016 12:20      96.6      95.9       23     52.6      0.00      0.00      87.8     0.44      1013.0     4        41         6        29        7.08     265      516.5
   07/27/2016 12:10      96.3      95.0       24     52.5      0.00      0.00      87.9     0.44      1013.0     4        68         5       124        7.08     264      515.2
   07/27/2016 12:00      95.7      94.2       24     53.0      0.00      0.00      87.9     0.44      1013.0     4        23         7        74        7.08     265      505.4
   07/27/2016 11:50      95.1      94.3       24     52.3      0.00      0.00      88.0     0.44      1013.0     4        12         5        14        7.08     265      499.5
   07/27/2016 11:40      94.3      93.7       24     51.3      0.00      0.00      88.0     0.45      1013.0     4        57         6        64        7.08     265      495.4
   07/27/2016 11:30      94.6      93.0       24     51.1      0.00      0.00      87.9     0.44      1013.0     3        14         5       354        7.08     265      487.3
   07/27/2016 11:20      93.6      92.6       24     50.9      0.00      0.00      88.1     0.45      1013.0     3        34         5        62        7.09     265      478.1
   07/27/2016 11:10      92.1      91.5       25     50.6      0.00      0.00      88.0     0.45      1013.0     3       358         5         8        7.09     266      466.0
   07/27/2016 11:00      91.7      90.9       26     51.2      0.00      0.00      88.1     0.45      1013.0     2        38         5         3        7.09     265      459.1
   07/27/2016 10:50      91.3      90.1       25     50.2      0.00      0.00      88.2     0.45      1013.0     3       357         4        10        7.09     265      446.6
   07/27/2016 10:40      90.6      89.8       25     50.0      0.00      0.00      88.3     0.45      1013.0     2        60         3       100        7.09     265      436.9
   07/27/2016 10:30      89.9      88.3       26     49.7      0.00      0.00      88.1     0.45      1013.0     2       350         3       333        7.09     266      422.4
   07/27/2016 10:20      88.5      87.7       28     50.9      0.00      0.00      88.1     0.45      1013.0     2        26         4         7        7.09     266      411.1
   07/27/2016 10:10      88.4      87.1       30     53.0      0.00      0.00      88.1     0.45      1013.0     2        33         3        70        7.10     266      398.7
   07/27/2016 10:00      87.0      85.9       32     53.4      0.00      0.00      88.2     0.45      1014.0     2       341         3       309        7.10     266      382.4
   07/27/2016 09:50      86.0      84.6       34     53.6      0.00      0.00      88.1     0.45      1014.0     2        14         4       354        7.10     266      367.8
   07/27/2016 09:40      84.3      83.6       36     54.0      0.00      0.00      88.2     0.45      1013.0     1         3         2        18        7.10     266      351.8
   07/27/2016 09:30      84.7      83.2       36     54.1      0.00      0.00      88.4     0.45      1013.0     2        52         3        14        7.11     266      334.7
   07/27/2016 09:20      83.0      81.5       38     53.8      0.00      0.00      88.4     0.45      1013.0     2        49         2        31        7.11     266      319.3
   07/27/2016 09:10      82.2      80.3       39     54.1      0.00      0.00      88.4     0.46      1014.0     2        44         3         3        7.11     266      307.6
   07/27/2016 09:00      80.2      78.6       42     54.1      0.00      0.00      88.5     0.46      1014.0     2       350         3       335        7.12     266      301.9
   07/27/2016 08:50      78.8      77.8       44     54.6      0.00      0.00      88.3     0.46      1014.0     2       297         3         1        7.12     266      150.5
   07/27/2016 08:40      77.8      77.3       46     55.1      0.00      0.00      88.3     0.46      1014.0     1       329         3       328        7.13     266      -13.6
   07/27/2016 08:30      77.5      77.1       46     55.2      0.00      0.00      88.4     0.46      1014.0     2        23         3        12        7.13     266      -14.5
   07/27/2016 08:20      77.1      76.0       47     55.0      0.00      0.00      88.5     0.46      1014.0     1        75         2       127        7.14     266      -12.8
   07/27/2016 08:10      76.2      75.7       50     55.9      0.00      0.00      88.6     0.46      1013.0     1        38         2        20        7.14     266      -10.9
   07/27/2016 08:00      76.0      75.1       50     55.6      0.00      0.00      88.8     0.46      1013.0     2        95         2        55        7.14     266      -11.1
   07/27/2016 07:50      75.1      74.5       50     54.9      0.00      0.00      88.5     0.46      1013.0     1       311         2        60        7.14     266      -12.6
   07/27/2016 07:40      74.6      74.2       50     54.7      0.00      0.00      88.5     0.46      1013.0     1       200         1       137        7.14     266      -17.7
   07/27/2016 07:30      74.2      73.4       52     55.1      0.00      0.00      88.6     0.46      1013.0     1        84         2        80        7.14     266      -20.0
   07/27/2016 07:20      73.5      72.8       56     56.3      0.00      0.00      88.5     0.46      1013.0     1        52         2        62        7.14     266      -22.6
   07/27/2016 07:10      72.8      71.8       57     56.2      0.00      0.00      88.8     0.46      1013.0     1        38         1        88        7.14     266      -24.4
   07/27/2016 07:00      71.9      70.4       61     56.9      0.00      0.00      88.4     0.46      1013.0     1       183         1       194        7.14     266      -29.4
   07/27/2016 06:50      70.5      69.5       64     57.1      0.00      0.00      88.8     0.46      1013.0     1       135         2       129        7.15     266      -30.8
   07/27/2016 06:40      69.5      69.1       65     56.9      0.00      0.00      88.8     0.46      1013.0     1       132         1       128        7.15     266      -38.0
   07/27/2016 06:30      69.1      68.8       65     56.6      0.00      0.00      88.9     0.46      1013.0     1       147         1       129        7.15     266      -41.3
   07/27/2016 06:20      69.1      68.8       64     56.4      0.00      0.00      89.3     0.46      1013.0     1       174         1       199        7.15     266      -45.6
   07/27/2016 06:10      68.9      68.6       65     56.5      0.00      0.00      89.1     0.46      1013.0     1       181         1       148        7.15     266      -48.8
   07/27/2016 06:00      69.1      68.7       63     56.0      0.00      0.00      89.0     0.46      1013.0     1       170         1       158        7.15     266      -51.1
   07/27/2016 05:50      68.8      68.6       65     56.3      0.00      0.00      89.1     0.46      1012.0     1       160         1       134        7.15     265      -52.1
   07/27/2016 05:40      69.2      68.8       62     55.6      0.00      0.00      89.1     0.46      1012.0     1       131         2       128        7.15     266      -53.0
   07/27/2016 05:30      69.4      69.0       61     55.3      0.00      0.00      89.1     0.46      1012.0     1       170         1       148        7.15     265      -52.6
   07/27/2016 05:20      69.4      69.2       62     55.6      0.00      0.00      89.1     0.46      1012.0     1       151         1       143        7.15     265      -52.6
   07/27/2016 05:10      69.6      69.4       62     56.0      0.00      0.00      89.4     0.46      1012.0     1       157         1       127        7.15     265      -52.8
   07/27/2016 05:00      69.6      69.4       62     55.8      0.00      0.00      89.3     0.46      1012.0     1       129         2       144        7.15     265      -53.5
   07/27/2016 04:50      69.7      69.4       62     56.0      0.00      0.00      89.4     0.46      1012.0     1       251         2       138        7.15     265      -53.6
   07/27/2016 04:40      70.0      69.6       63     56.6      0.00      0.00      89.1     0.46      1012.0     1       153         2       134        7.15     265      -54.0
   07/27/2016 04:30      70.0      69.8       61     56.0      0.00      0.00      89.1     0.46      1012.0     2       152         3       161        7.15     265      -54.9
   07/27/2016 04:20      70.5      70.3       61     56.1      0.00      0.00      89.6     0.46      1012.0     1       133         3       159        7.15     265      -54.2
   07/27/2016 04:10      70.4      70.3       61     56.5      0.00      0.00      89.5     0.46      1012.0     1       214         1       143        7.15     265      -54.3
   07/27/2016 04:00      70.4      70.3       62     56.7      0.00      0.00      89.3     0.46      1012.0     1       163         2       166        7.15     265      -54.8
   07/27/2016 03:50      70.5      70.2       60     55.8      0.00      0.00      89.7     0.46      1012.0     1       133         2       146        7.15     265      -55.5
   07/27/2016 03:40      70.8      70.4       61     56.4      0.00      0.00      89.4     0.46      1012.0     1       134         2       139        7.15     265      -56.0
   07/27/2016 03:30      70.6      70.3       61     56.2      0.00      0.00      89.5     0.46      1012.0     2       165         2       181        7.15     265      -56.3
   07/27/2016 03:20      71.0      70.4       59     55.9      0.00      0.00      89.6     0.46      1012.0     2       164         2       176        7.15     265      -56.9
   07/27/2016 03:10      71.0      70.8       60     56.5      0.00      0.00      89.7     0.46      1012.0     1       151         2       139        7.16     265      -57.2
   07/27/2016 03:00      71.5      70.9       58     55.8      0.00      0.00      89.7     0.46      1012.0     1       164         2       127        7.16     265      -58.0
   07/27/2016 02:50      71.9      71.5       57     55.5      0.00      0.00      89.9     0.46      1012.0     1       134         2       136        7.16     265      -58.0
   07/27/2016 02:40      72.2      71.8       56     55.7      0.00      0.00      89.7     0.46      1012.0     1       195         1       174        7.16     265      -57.6
   07/27/2016 02:30      72.5      72.3       55     55.5      0.00      0.00      89.6     0.46      1012.0     1       230         1       241        7.16     265      -57.0
   07/27/2016 02:20      72.6      72.4       56     55.9      0.00      0.00      89.6     0.46      1012.0     1       223         1       201        7.16     265      -57.2
   07/27/2016 02:10      72.9      72.3       56     55.9      0.00      0.00      89.7     0.46      1012.0     1       118         1       143        7.16     265      -58.5
   07/27/2016 02:00      73.2      72.9       55     55.8      0.00      0.00      89.9     0.46      1012.0     1       110         1       107        7.16     265      -58.7
   07/27/2016 01:50      73.5      73.2       54     55.8      0.00      0.00      89.8     0.46      1012.0     1       113         2       131        7.16     265      -59.4
   07/27/2016 01:40      73.5      73.4       54     55.7      0.00      0.00      89.9     0.46      1012.0     1       122         2       133        7.16     265      -60.3
   07/27/2016 01:30      73.5      73.1       53     55.4      0.00      0.00      89.8     0.46      1012.0     2       118         3       119        7.16     265      -60.3
   07/27/2016 01:20      73.6      73.4       53     55.2      0.00      0.00      89.7     0.46      1012.0     2       121         2       118        7.16     264      -60.1
   07/27/2016 01:10      73.7      73.5       53     55.5      0.00      0.00      90.0     0.46      1012.0     0       119         1       120        7.16     264      -59.9
   07/27/2016 01:00      74.1      73.8       53     55.7      0.00      0.00      90.2     0.46      1012.0     1        88         1        92        7.16     264      -60.4
   07/27/2016 00:50      74.4      73.9       54     56.3      0.00      0.00      89.8     0.46      1012.0     0       150         1       153        7.16     264      -60.6
   07/27/2016 00:40      74.4      74.3       53     56.4      0.00      0.00      89.8     0.46      1012.0     1       119         1        81        7.16     264      -61.8
   07/27/2016 00:30      75.0      74.5       53     56.3      0.00      0.00      89.9     0.46      1012.0     1       117         1        75        7.17     264      -62.9
   07/27/2016 00:20      75.4      75.2       53     57.0      0.00      0.00      90.0     0.46      1012.0     1        58         1        34        7.17     264      -63.6
   07/27/2016 00:10      75.6      75.3       53     57.4      0.00      0.00      89.9     0.46      1012.0     1        38         1        38        7.17     264      -64.8
   07/27/2016 00:00      75.6      75.5       53     57.4      0.00      0.00      90.0     0.46      1012.0     1        52         2        50        7.17     264      -65.0
   07/26/2016 23:50      76.2      75.7       52     57.2      0.00      0.00      90.1     0.46      1012.0     2        78         3        73        7.17     264      -65.3
   07/26/2016 23:40      76.4      76.1       51     56.8      0.00      0.00      89.9     0.46      1012.0     2        54         3        71        7.17     264      -65.6
   07/26/2016 23:30      76.6      76.4       50     56.3      0.00      0.00      89.9     0.46      1012.0     2        70         4        72        7.17     264      -66.1
   07/26/2016 23:20      77.0      76.5       49     56.4      0.00      0.00      89.8     0.46      1012.0     2        58         3        72        7.17     264      -66.7
   07/26/2016 23:10      77.3      77.0       50     56.9      0.00      0.00      90.1     0.46      1012.0     2        39         3        36        7.17     264      -67.6
   07/26/2016 23:00      78.0      77.5       50     57.5      0.00      0.00      90.0     0.46      1012.0     2        67         4        78        7.17     263      -67.9
   07/26/2016 22:50      78.9      78.2       48     57.1      0.00      0.00      90.0     0.46      1012.0     2        49         3        83        7.17     263      -68.9
   07/26/2016 22:40      79.7      79.0       45     56.5      0.00      0.00      90.0     0.46      1012.0     2        47         3        69        7.17     263      -69.1
   07/26/2016 22:30      80.5      80.0       42     55.4      0.00      0.00      90.1     0.46      1012.0     2        40         3        48        7.17     263      -69.6
   07/26/2016 22:20      81.3      80.7       38     52.7      0.00      0.00      90.0     0.46      1012.0     1        43         2        36        7.17     263      -70.0
   07/26/2016 22:10      82.0      81.4       28     45.6      0.00      0.00      90.0     0.46      1012.0     1        43         2        34        7.17     263      -69.8
   07/26/2016 22:00      83.0      81.9       20     36.5      0.00      0.00      90.1     0.46      1012.0     1        50         2       106        7.17     263      -69.8
   07/26/2016 21:50      84.0      83.0       16     32.7      0.00      0.00      90.1     0.46      1012.0     1        95         2        78        7.18     263      -69.8
   07/26/2016 21:40      84.6      84.2       16     32.9      0.00      0.00      89.9     0.46      1012.0     2       217         2       217        7.18     262      -70.0
   07/26/2016 21:30      84.8      84.6       14     29.6      0.00      0.00      90.1     0.46      1012.0     2       222         2       219        7.18     262      -71.3
   07/26/2016 21:20      85.4      84.6       13     29.0      0.00      0.00      89.9     0.46      1011.0     2       200         3       186        7.18     262      -73.2
   07/26/2016 21:10      86.5      85.8       12     28.4      0.00      0.00      90.0     0.46      1011.0     2       253         3       290        7.18     262      -75.1
   07/26/2016 21:00      86.9      86.6       12     28.3      0.00      0.00      89.9     0.46      1011.0     2       269         3       280        7.18     262      -76.3
   07/26/2016 20:50      86.9      86.8       12     29.0      0.00      0.00      89.9     0.46      1011.0     2       273         4       272        7.19     262      -77.0
   07/26/2016 20:40      87.1      86.8       13     29.5      0.00      0.00      90.0     0.46      1011.0     3       294         5       315        7.19     262      -78.2
   07/26/2016 20:30      87.8      87.2       12     29.3      0.00      0.00      89.8     0.46      1011.0     3       307         5       305        7.19     262      -80.1
   07/26/2016 20:20      88.2      87.8       12     28.9      0.00      0.00      89.8     0.46      1011.0     2       311         4       298        7.20     262      -81.2
   07/26/2016 20:10      88.8      88.2       12     29.1      0.00      0.00      89.7     0.46      1011.0     3       308         5       310        7.20     262      -81.9
   07/26/2016 20:00      89.7      88.9       12     30.7      0.00      0.00      89.7     0.46      1011.0     4       309         8       301        7.20     262      -80.8
   07/26/2016 19:50      90.2      89.8       13     32.0      0.00      0.00      89.7     0.46      1010.0     3       308         4       304        7.20     262      -77.8
   07/26/2016 19:40      91.5      90.5       12     32.1      0.00      0.00      89.7     0.46      1010.0     4       308         7       309        7.20     262      -72.0
   07/26/2016 19:30      92.2      91.7       13     33.1      0.00      0.00      89.9     0.46      1010.0     4       313         6       324        7.21     262      -59.0
   07/26/2016 19:20      93.0      92.3       13     34.1      0.00      0.00      89.7     0.46      1010.0     6       309         8       326        7.21     262      -45.7
   07/26/2016 19:10      93.5      93.1       13     35.0      0.00      0.00      89.7     0.46      1010.0     5       298         7       258        7.22     262      -28.1
   07/26/2016 19:00      94.1      93.2       13     34.9      0.00      0.00      89.6     0.46      1010.0     5       303         7       286        7.23     262       -8.9
   07/26/2016 18:50      94.8      94.4       12     34.1      0.00      0.00      89.5     0.46      1010.0     4       303         6       311        7.25     262       11.2
   07/26/2016 18:40      95.4      95.1       11     32.4      0.00      0.00      89.3     0.46      1010.0     5       316         9       304        7.26     262       30.3
   07/26/2016 18:30      95.7      95.4       11     32.3      0.00      0.00      89.3     0.46      1010.0     6       300         9       305        7.26     262       49.9
   07/26/2016 18:20      96.0      95.8       11     32.5      0.00      0.00      89.3     0.46      1010.0     6       307         8       300        7.27     262       69.5
   07/26/2016 18:10      97.6      96.2       11     34.2      0.00      0.00      89.4     0.46      1010.0     7       315         9       321        7.28     262       92.7
   07/26/2016 18:00      98.1      97.3       12     36.6      0.00      0.00      89.3     0.46      1010.0     5       327         8       345        7.29     263      115.4
   07/26/2016 17:50      98.4      97.8       12     36.2      0.00      0.00      89.3     0.46      1010.0     6       321         9       354        7.30     263      137.9
   07/26/2016 17:40      98.8      98.2       12     37.5      0.00      0.00      89.1     0.46      1010.0     7       320        11       322        7.30     263      159.9
   07/26/2016 17:30      98.9      98.7       12     38.2      0.00      0.00      89.0     0.46      1010.0     6       316         9       314        7.31     263      182.4
   07/26/2016 17:20      99.5      98.8       12     38.4      0.00      0.00      88.8     0.46      1010.0     7       317        11       306        7.31     263      202.7
   07/26/2016 17:10      99.5      98.6       13     38.6      0.00      0.00      88.8     0.45      1010.0     5       309         8       297        7.32     263      224.6
   07/26/2016 17:00      99.9      98.7       13     39.5      0.00      0.00      89.0     0.45      1010.0     6       305        10       325        7.32     263      246.2
   07/26/2016 16:50      99.3      98.4       13     40.0      0.00      0.00      89.0     0.45      1010.0     7       317        11       324        7.33     263      266.2
   07/26/2016 16:40      99.4      98.4       13     40.0      0.00      0.00      88.9     0.45      1010.0     7       316        10       324        7.34     263      286.8
   07/26/2016 16:30      99.1      98.2       14     40.9      0.00      0.00      88.7     0.45      1010.0     7       304         9       285        7.36     263      306.7
   07/26/2016 16:20     100.1      99.3       14     42.3      0.00      0.00      88.7     0.45      1010.0     7       315        10       319        7.37     263      320.8
   07/26/2016 16:10     100.2      99.4       15     43.4      0.00      0.00      88.5     0.45      1010.0     6       306        10       299        7.38     263      340.2
   07/26/2016 16:00     100.8      99.9       14     43.0      0.00      0.00      88.5     0.45      1010.0     9       321        11       324        7.38     263      357.8
   07/26/2016 15:50     101.7     100.6       14     43.1      0.00      0.00      88.3     0.45      1010.0     8       332        10       340        7.39     263      372.1
   07/26/2016 15:40     101.9     101.3       14     43.7      0.00      0.00      88.2     0.45      1010.0     7       320        11       320        7.39     264      386.8
   07/26/2016 15:30     103.4     101.9       14     44.4      0.00      0.00      88.2     0.45      1010.0     6       298         8       293        7.40     263      401.9
   07/26/2016 15:20     102.7     101.7       15     45.8      0.00      0.00      88.2     0.45      1010.0     7       304         8       306        7.40     264      415.1
   07/26/2016 15:10     102.5     101.1       16     47.5      0.00      0.00      88.1     0.45      1010.0     6       287         9       260        7.41     263      429.1
   07/26/2016 15:00     102.4     101.2       18     50.6      0.00      0.00      87.9     0.45      1010.0     4       281         8       331        7.41     264      438.1
   07/26/2016 14:50     101.7     101.0       19     51.3      0.00      0.00      88.0     0.45      1010.0     4        17         6        10        7.42     264      449.3
   07/26/2016 14:40     101.3     100.6       19     51.0      0.00      0.00      88.0     0.45      1010.0     3         9         6       358        7.42     265      460.3
   07/26/2016 14:30     101.3     100.8       19     51.1      0.00      0.00      87.8     0.45      1010.0     4        19         7       357        7.42     265      472.2
   07/26/2016 14:20     101.5     100.3       19     50.8      0.00      0.00      87.7     0.45      1011.0     4        29         7        29        7.42     265      482.0
   07/26/2016 14:10     101.9     101.1       19     51.4      0.00      0.00      87.7     0.45      1011.0     4        27         6        37        7.43     265      489.2
   07/26/2016 14:00     101.0      99.3       20     51.5      0.00      0.00      87.7     0.45      1011.0     6         7         9         0        7.43     265      496.7
   07/26/2016 13:50      99.7      99.0       20     51.9      0.00      0.00      87.6     0.45      1011.0     6         3         8        15        7.43     265      504.5
   07/26/2016 13:40      99.6      98.6       21     52.4      0.00      0.00      87.4     0.45      1011.0     5        15         8         3        7.43     265      510.7
   07/26/2016 13:30      99.5      98.1       21     51.7      0.00      0.00      87.5     0.44      1011.0     4        45         5        54        7.43     265      518.0
   07/26/2016 13:20      99.2      98.8       21     52.0      0.00      0.00      87.5     0.44      1011.0     5        51         8        69        7.44     264      520.1
   07/26/2016 13:10      99.7      98.7       21     51.9      0.00      0.00      87.5     0.44      1011.0     5        38         8        87        7.44     264      522.2
   07/26/2016 13:00      99.2      98.8       21     52.5      0.00      0.00      87.4     0.44      1011.0     4        43         6        88        7.44     264      523.4
   07/26/2016 12:50      98.9      97.0       23     53.5      0.00      0.00      87.3     0.44      1011.0     4        25         6       358        7.44     264      530.5
   07/26/2016 12:40      97.4      96.5       24     53.7      0.00      0.00      87.6     0.44      1011.0     4        79         6       100        7.44     264      526.1
   07/26/2016 12:30      97.1      96.4       24     54.0      0.00      0.00      87.5     0.45      1012.0     4        80         6        67        7.44     265      523.6
   07/26/2016 12:20      97.0      96.1       24     53.8      0.00      0.00      87.3     0.45      1012.0     4        44         7        83        7.44     265      518.1
   07/26/2016 12:10      96.8      95.8       24     53.5      0.00      0.00      87.2     0.44      1012.0     5        58         8        68        7.44     265      513.0
   07/26/2016 12:00      96.3      95.4       24     53.9      0.00      0.00      87.5     0.45      1012.0     4        32         6        30        7.44     265      507.6
   07/26/2016 11:50      96.7      95.7       25     54.4      0.00      0.00      87.5     0.45      1012.0     4        42         6       102        7.44     265      502.8
   07/26/2016 11:40      96.4      96.0       25     54.7      0.00      0.00      87.5     0.45      1012.0     4        31         6        36        7.45     265      493.3
   07/26/2016 11:30      97.0      95.9       23     52.0      0.00      0.00      87.4     0.45      1012.0     4        27         5        15        7.45     265      484.2
   07/26/2016 11:20      96.9      96.0       20     49.5      0.00      0.00      87.4     0.45      1012.0     4        38         5        59        7.45     265      477.2
   07/26/2016 11:10      96.4      95.1       20     48.0      0.00      0.00      87.6     0.45      1012.0     3        31         4        17        7.45     265      467.4
   07/26/2016 11:00      95.3      94.7       20     48.2      0.00      0.00      87.6     0.45      1012.0     2        57         3       105        7.45     265      456.8
   07/26/2016 10:50      95.1      93.2       22     48.9      0.00      0.00      87.5     0.45      1012.0     2        81         5        74        7.45     265      448.0
   07/26/2016 10:40      93.2      91.7       25     51.7      0.00      0.00      87.6     0.45      1012.0     2        21         4        42        7.45     265      437.4
   07/26/2016 10:30      91.9      90.8       26     52.0      0.00      0.00      87.5     0.45      1012.0     3        38         5        83        7.45     266      425.4
   07/26/2016 10:20      91.0      89.2       28     52.2      0.00      0.00      87.5     0.45      1012.0     3        14         5        12        7.45     266      409.8
   07/26/2016 10:10      89.8      89.0       29     53.0      0.00      0.00      87.6     0.45      1012.0     3         4         5        10        7.46     266      394.8
   07/26/2016 10:00      89.4      89.1       30     53.4      0.00      0.00      87.7     0.45      1012.0     3       352         4         1        7.46     266      381.5
   07/26/2016 09:50      89.2      87.7       30     52.8      0.00      0.00      87.6     0.45      1012.0     2        30         3        73        7.46     266      367.7
   07/26/2016 09:40      88.1      87.0       32     54.3      0.00      0.00      87.9     0.45      1013.0     2        16         5        21        7.46     266      354.5
   07/26/2016 09:30      86.8      85.7       34     54.9      0.00      0.00      87.7     0.45      1013.0     2        59         3        78        7.46     266      338.5
   07/26/2016 09:20      85.8      85.0       35     54.9      0.00      0.00      87.8     0.45      1013.0     2       358         3        89        7.47     266      323.3
   07/26/2016 09:10      84.9      83.1       37     55.2      0.00      0.00      87.8     0.46      1013.0     2       317         3       338        7.47     266      311.8
   07/26/2016 09:00      83.0      81.5       40     55.8      0.00      0.00      88.0     0.46      1013.0     2       340         3       305        7.47     266      307.4
   07/26/2016 08:50      81.5      81.0       42     56.0      0.00      0.00      87.9     0.46      1013.0     2         2         3        14        7.47     266      132.1
   07/26/2016 08:40      80.9      80.4       43     55.9      0.00      0.00      87.8     0.46      1013.0     1       301         1       355        7.47     266      -18.4
   07/26/2016 08:30      80.4      79.4       44     56.3      0.00      0.00      88.0     0.46      1013.0     1       148         2       116        7.47     266      -20.4
   07/26/2016 08:20      79.5      78.8       47     57.0      0.00      0.00      88.0     0.46      1013.0     2       127         3       134        7.48     266      -19.3
   07/26/2016 08:10      78.6      77.1       49     57.1      0.00      0.00      87.9     0.46      1013.0     3       140         4       137        7.48     266      -18.3
   07/26/2016 08:00      77.0      76.0       51     57.3      0.00      0.00      88.2     0.46      1013.0     2       151         4       125        7.48     266      -20.2
   07/26/2016 07:50      75.9      75.4       51     56.5      0.00      0.00      88.0     0.46      1013.0     1       235         2       205        7.48     266      -19.9
   07/26/2016 07:40      75.6      74.8       51     55.8      0.00      0.00      88.1     0.46      1013.0     1       220         2       207        7.48     266      -22.8
   07/26/2016 07:30      74.7      73.8       52     55.3      0.00      0.00      87.8     0.46      1013.0     2       138         2       139        7.48     266      -27.4
   07/26/2016 07:20      73.8      73.4       52     55.0      0.00      0.00      88.2     0.46      1013.0     2       131         3       128        7.48     266      -29.8
   07/26/2016 07:10      73.4      72.0       53     54.7      0.00      0.00      88.4     0.46      1013.0     2       152         2       161        7.48     266      -30.6
   07/26/2016 07:00      72.0      70.7       56     54.8      0.00      0.00      88.4     0.46      1013.0     2       163         2       155        7.48     266      -35.0
   07/26/2016 06:50      70.8      69.5       58     54.8      0.00      0.00      88.1     0.46      1013.0     1       158         2       153        7.48     265      -36.9
   07/26/2016 06:40      69.5      69.1       59     54.6      0.00      0.00      88.3     0.46      1013.0     1       160         1       140        7.48     266      -43.5
   07/26/2016 06:30      69.1      68.9       60     54.4      0.00      0.00      88.2     0.46      1013.0     2       138         2       141        7.48     266      -45.9
   07/26/2016 06:20      69.0      68.6       59     54.1      0.00      0.00      88.4     0.46      1013.0     1       182         1       220        7.48     266      -47.9
   07/26/2016 06:10      68.9      68.6       60     54.3      0.00      0.00      88.2     0.46      1013.0     1       168         2       142        7.48     265      -50.8
   07/26/2016 06:00      68.9      68.8       59     53.9      0.00      0.00      88.1     0.46      1013.0     1       154         3       142        7.49     265      -52.6
   07/26/2016 05:50      69.4      69.0       57     53.5      0.00      0.00      88.6     0.46      1013.0     2       142         2       135        7.49     265      -52.5
   07/26/2016 05:40      69.6      69.2       57     53.5      0.00      0.00      88.4     0.46      1013.0     2       161         3       141        7.49     265      -49.1
   07/26/2016 05:30      69.6      69.2       56     53.1      0.00      0.00      88.3     0.46      1013.0     1       190         1       189        7.49     265      -46.3
   07/26/2016 05:20      69.5      69.4       57     53.5      0.00      0.00      88.4     0.46      1013.0     1       182         1       188        7.49     265      -42.8
   07/26/2016 05:10      69.7      69.3       58     54.0      0.00      0.00      88.6     0.46      1013.0     1       136         1       162        7.49     265      -42.0
   07/26/2016 05:00      69.6      69.3       59     54.6      0.00      0.00      88.7     0.46      1013.0     2       133         2       138        7.49     265      -46.0
   07/26/2016 04:50      69.5      69.2       59     54.3      0.00      0.00      88.8     0.46      1013.0     2       135         2       133        7.49     265      -51.0
   07/26/2016 04:40      69.6      69.2       57     53.3      0.00      0.00      88.6     0.46      1013.0     2       189         2       190        7.49     265      -52.9
   07/26/2016 04:30      69.8      69.4       57     53.8      0.00      0.00      88.6     0.46      1013.0     1       141         2       141        7.49     265      -54.7
   07/26/2016 04:20      70.0      69.8       57     53.8      0.00      0.00      88.5     0.46      1013.0     1       186         1       185        7.49     265      -55.5
   07/26/2016 04:10      70.3      69.8       56     53.7      0.00      0.00      89.0     0.46      1013.0     1       183         2       169        7.50     265      -56.8
   07/26/2016 04:00      70.4      70.3       57     54.2      0.00      0.00      88.8     0.46      1013.0     2       146         2       144        7.51     265      -57.7
   07/26/2016 03:50      70.7      70.4       55     53.5      0.00      0.00      89.2     0.46      1013.0     1       148         2       156        7.53     265      -57.7
   07/26/2016 03:40      71.1      70.7       53     52.8      0.00      0.00      88.8     0.46      1013.0     1       156         1       134        7.53     265      -57.6
   07/26/2016 03:30      71.5      71.3       53     53.3      0.00      0.00      89.0     0.46      1013.0     1       152         1       143        7.53     265      -58.6
   07/26/2016 03:20      71.9      71.4       52     53.0      0.00      0.00      88.9     0.46      1013.0     1       118         1       107        7.54     265      -59.5
   07/26/2016 03:10      72.0      71.8       51     52.6      0.00      0.00      88.8     0.46      1013.0     1       113         2       104        7.54     265      -59.9
   07/26/2016 03:00      72.9      72.3       49     52.5      0.00      0.00      88.7     0.46      1013.0     1       115         2       119        7.54     265      -60.2
   07/26/2016 02:50      73.7      73.0       48     52.4      0.00      0.00      89.0     0.46      1013.0     1        99         2       135        7.54     265      -60.3
   07/26/2016 02:40      74.0      73.8       48     52.7      0.00      0.00      89.2     0.46      1013.0     1        56         2        80        7.54     265      -60.3
   07/26/2016 02:30      74.1      73.9       48     53.0      0.00      0.00      88.8     0.46      1013.0     2        93         3        87        7.54     265      -56.4
   07/26/2016 02:20      74.3      73.9       48     53.2      0.00      0.00      89.0     0.46      1013.0     1        95         2        75        7.54     264      -50.9
   07/26/2016 02:10      74.4      74.3       47     52.6      0.00      0.00      89.0     0.46      1013.0     1        87         2        72        7.54     264      -47.6
   07/26/2016 02:00      74.6      74.4       46     52.2      0.00      0.00      89.3     0.46      1013.0     1        79         2        81        7.54     264      -45.2
   07/26/2016 01:50      74.8      74.6       45     52.2      0.00      0.00      89.0     0.46      1013.0     1        73         2        95        7.54     264      -44.2
   07/26/2016 01:40      75.0      74.8       46     52.5      0.00      0.00      89.1     0.46      1013.0     1        52         2        66        7.55     264      -43.2
   07/26/2016 01:30      74.9      74.8       46     52.7      0.00      0.00      89.2     0.46      1013.0     1        73         2        73        7.55     264      -42.4
   07/26/2016 01:20      75.2      74.9       46     52.7      0.00      0.00      89.2     0.46      1013.0     2        84         3        87        7.55     264      -41.1
   07/26/2016 01:10      75.3      75.0       46     53.1      0.00      0.00      89.2     0.46      1013.0     2        87         3        84        7.55     264      -40.4
   07/26/2016 01:00      75.4      75.2       47     53.7      0.00      0.00      89.1     0.46      1013.0     2        93         3        79        7.55     264      -41.5
   07/26/2016 00:50      75.5      75.2       49     54.9      0.00      0.00      89.2     0.46      1013.0     2        80         2        94        7.55     265      -43.6
   07/26/2016 00:40      75.7      75.4       48     54.7      0.00      0.00      89.1     0.46      1013.0     2        79         2        76        7.55     264      -44.1
   07/26/2016 00:30      75.7      75.4       46     53.1      0.00      0.00      89.3     0.46      1013.0     2        62         4        79        7.55     264      -40.7
   07/26/2016 00:20      75.5      75.2       44     52.2      0.00      0.00      89.2     0.46      1013.0     1        76         2        86        7.55     264      -39.7
   07/26/2016 00:10      75.3      75.0       44     52.0      0.00      0.00      89.3     0.46      1013.0     1        93         2        84        7.55     264      -43.5
   07/26/2016 00:00      75.3      75.0       44     51.5      0.00      0.00      89.2     0.46      1013.0     1        83         1       128        7.55     264      -49.0
   07/25/2016 23:50      75.2      75.0       44     51.8      0.00      0.00      89.3     0.46      1013.0     1       125         1        99        7.55     264      -52.9
   07/25/2016 23:40      75.4      74.9       45     52.1      0.00      0.00      89.3     0.46      1013.0     1        85         2        75        7.56     264      -55.0
   07/25/2016 23:30      75.1      74.8       44     51.5      0.00      0.00      89.3     0.46      1013.0     2        84         2        75        7.56     264      -59.3
   07/25/2016 23:20      75.5      75.2       43     51.5      0.00      0.00      89.3     0.46      1013.0     1        95         2        74        7.56     264      -63.4
   07/25/2016 23:10      75.6      75.3       42     51.1      0.00      0.00      89.5     0.46      1013.0     1       150         1       139        7.56     264      -64.8
   07/25/2016 23:00      76.1      75.8       42     51.5      0.00      0.00      89.4     0.46      1013.0     1       134         1       126        7.56     264      -66.4
   07/25/2016 22:50      76.3      76.1       42     51.7      0.00      0.00      89.3     0.46      1013.0     1       149         1       148        7.56     264      -66.9
   07/25/2016 22:40      77.0      76.2       42     51.8      0.00      0.00      89.4     0.46      1013.0     1       141         1       129        7.56     263      -68.0
   07/25/2016 22:30      77.4      76.8       41     51.9      0.00      0.00      89.4     0.46      1013.0     1       132         1       132        7.56     263      -69.3
   07/25/2016 22:20      78.0      77.6       40     51.8      0.00      0.00      89.3     0.46      1013.0     1       119         2       131        7.56     263      -70.2
   07/25/2016 22:10      79.1      78.2       40     52.0      0.00      0.00      89.4     0.46      1013.0     1       105         2       112        7.56     263      -70.4
   07/25/2016 22:00      79.1      78.8       38     51.5      0.00      0.00      89.3     0.46      1013.0     1        30         2        36        7.56     263      -70.9
   07/25/2016 21:50      79.4      78.9       39     52.4      0.00      0.00      89.6     0.46      1013.0     1        39         2        24        7.56     263      -71.1
   07/25/2016 21:40      79.9      79.4       39     52.7      0.00      0.00      89.2     0.46      1013.0     1        39         2        39        7.56     263      -71.8
   07/25/2016 21:30      80.2      79.9       39     53.1      0.00      0.00      89.1     0.46      1013.0     1        21         3       346        7.56     263      -72.8
   07/25/2016 21:20      80.6      80.3       39     53.5      0.00      0.00      89.2     0.46      1013.0     3         9         4       353        7.56     263      -73.9
   07/25/2016 21:10      81.0      80.6       39     53.5      0.00      0.00      89.3     0.46      1013.0     2        51         4        71        7.57     263      -74.3
   07/25/2016 21:00      82.3      81.1       38     53.5      0.00      0.00      89.3     0.46      1012.0     2        50         2        43        7.57     262      -75.9
   07/25/2016 20:50      83.2      82.4       35     52.5      0.00      0.00      89.2     0.46      1012.0     2        34         2        15        7.57     262      -77.2
   07/25/2016 20:40      84.6      83.5       30     49.6      0.00      0.00      89.0     0.46      1012.0     2        64         4        69        7.57     262      -77.9
   07/25/2016 20:30      85.5      84.8       28     48.5      0.00      0.00      88.9     0.46      1012.0     2        27         3        57        7.57     262      -78.4
   07/25/2016 20:20      86.4      85.7       26     46.8      0.00      0.00      89.0     0.46      1012.0     2       183         2       186        7.57     262      -77.8
   07/25/2016 20:10      86.9      86.4       26     47.4      0.00      0.00      88.9     0.46      1012.0     2       205         3       194        7.57     262      -77.4
   07/25/2016 20:00      87.3      86.9       26     47.8      0.00      0.00      88.8     0.46      1012.0     3       206         5       195        7.57     262      -75.0
   07/25/2016 19:50      87.6      87.2       25     47.8      0.00      0.00      88.8     0.46      1011.0     3       188         5       182        7.58     262      -71.8
   07/25/2016 19:40      88.3      87.8       25     48.2      0.00      0.00      88.9     0.46      1011.0     3       173         4       169        7.58     262      -65.6
   07/25/2016 19:30      88.7      88.4       25     48.5      0.00      0.00      88.9     0.46      1011.0     3       179         5       172        7.58     262      -53.4
   07/25/2016 19:20      89.9      88.7       25     49.0      0.00      0.00      89.0     0.46      1011.0     4       185         6       183        7.58     261      -39.3
   07/25/2016 19:10      90.0      89.6       24     48.7      0.00      0.00      88.8     0.46      1011.0     4       184         5       188        7.59     261      -25.1
   07/25/2016 19:00      90.4      90.0       25     49.4      0.00      0.00      88.8     0.46      1011.0     5       176         6       167        7.59     261      -16.0
   07/25/2016 18:50      90.7      90.3       24     49.3      0.00      0.00      88.6     0.46      1011.0     5       169         9       166        7.60     262       -2.4
   07/25/2016 18:40      91.5      90.9       24     49.9      0.00      0.00      88.7     0.46      1011.0     6       172         9       145        7.60     261       28.5
   07/25/2016 18:30      91.5      90.8       24     49.8      0.00      0.00      88.5     0.46      1011.0     6       165         8       156        7.61     262       64.2
   07/25/2016 18:20      91.5      91.1       25     50.8      0.00      0.00      88.4     0.46      1010.0     7       158        12       163        7.62     262       89.8
   07/25/2016 18:10      93.5      91.5       25     51.5      0.00      0.00      88.4     0.46      1010.0     9       161        12       165        7.63     261      109.4
   07/25/2016 18:00      94.2      93.5       25     53.0      0.00      0.00      88.1     0.46      1010.0     7       166        10       156        7.64     262      128.7
   07/25/2016 17:50      95.6      93.9       25     53.2      0.00      0.00      88.1     0.46      1010.0     8       167        11       154        7.64     262      150.3
   07/25/2016 17:40      98.2      95.7       23     53.1      0.00      0.00      88.0     0.46      1010.0     7       171        11       178        7.65     262      170.0
   07/25/2016 17:30      98.5      97.1       22     52.0      0.00      0.00      88.1     0.45      1010.0     6       179         9       195        7.65     262      191.3
   07/25/2016 17:20      98.5      98.0       21     51.2      0.00      0.00      87.9     0.45      1010.0     6       161         8       160        7.66     262      209.1
   07/25/2016 17:10      99.0      98.7       20     50.7      0.00      0.00      87.9     0.45      1010.0     6       170         9       171        7.67     262      229.9
   07/25/2016 17:00     102.7      99.5       18     50.1      0.00      0.00      87.7     0.45      1010.0     7       170         8       143        7.67     262      248.4
   07/25/2016 16:50     104.1     102.9       12     41.1      0.00      0.00      87.8     0.45      1010.0     3       126         7       174        7.68     263      259.0
   07/25/2016 16:40     104.1     102.1       12     39.4      0.00      0.00      87.7     0.45      1010.0     3       233         6       250        7.69     263      278.1
   07/25/2016 16:30     103.0     101.8       11     38.5      0.00      0.00      87.6     0.45      1011.0     3       210         5       126        7.69     263      297.6
   07/25/2016 16:20     102.7     101.6       11     37.8      0.00      0.00      87.7     0.45      1011.0     3       258         6       250        7.70     263      315.4
   07/25/2016 16:10     103.8     102.6       11     37.7      0.00      0.00      87.5     0.45      1011.0     3       279         5       223        7.70     263      332.9
   07/25/2016 16:00     103.3     102.3       11     38.0      0.00      0.00      87.2     0.45      1011.0     2       300         5       273        7.70     263      349.5
   07/25/2016 15:50     102.8     101.5       11     38.2      0.00      0.00      87.2     0.45      1011.0     3       352         4         0        7.71     263      365.6
   07/25/2016 15:40     102.7     101.6       11     38.0      0.00      0.00      87.1     0.45      1011.0     3        32         7       340        7.71     263      385.1
   07/25/2016 15:30     101.4      99.7       12     37.8      0.00      0.00      87.3     0.45      1012.0     2       170         4       123        7.72     263      401.2
   07/25/2016 15:20     101.0     100.2       12     37.7      0.00      0.00      87.3     0.45      1012.0     4       239         5       235        7.72     263      415.6
   07/25/2016 15:10     101.7     100.5       11     38.0      0.00      0.00      87.0     0.45      1012.0     2       245         6       224        7.72     263      424.7
   07/25/2016 15:00     102.1     101.2       11     37.6      0.00      0.00      86.8     0.45      1012.0     3        17         5        11        7.73     264      435.8
   07/25/2016 14:50     101.6     100.5       12     38.6      0.00      0.00      86.9     0.45      1012.0     3       101         8        79        7.74     264      452.8
   07/25/2016 14:40     100.1      99.0       12     38.0      0.00      0.00      86.8     0.45      1012.0     2        81         4       129        7.74     264      464.7
   07/25/2016 14:30     100.9      98.7       12     37.7      0.00      0.00      86.8     0.45      1012.0     4       242         7       230        7.75     264      474.7
   07/25/2016 14:20     100.4      98.6       11     36.5      0.00      0.00      86.8     0.45      1013.0     2       164         4       304        7.76     265      482.2
   07/25/2016 14:10      99.5      98.1       11     36.3      0.00      0.00      86.6     0.45      1013.0     2        43         3         8        7.76     265      490.7
   07/25/2016 14:00      99.2      96.9       12     36.0      0.00      0.00      86.7     0.45      1013.0     3       321         5       322        7.77     265      498.5
   07/25/2016 13:50      98.5      96.5       12     35.8      0.00      0.00      86.7     0.45      1013.0     3       151         5       127        7.77     264      508.9
   07/25/2016 13:40      97.8      96.5       12     35.2      0.00      0.00      86.6     0.44      1013.0     3       111         6        83        7.78     264      515.0
   07/25/2016 13:30      98.2      96.2       12     36.4      0.00      0.00      86.5     0.44      1014.0     3        61         6       106        7.78     264      519.7
   07/25/2016 13:20      95.9      94.9       13     35.9      0.00      0.00      86.3     0.44      1014.0     5       123         8       155        7.79     264      527.3
   07/25/2016 13:10      97.6      95.6       13     37.8      0.00      0.00      86.5     0.44      1014.0     4       112         7       168        7.79     264      526.1
   07/25/2016 13:00      97.4      96.3       14     39.6      0.00      0.00      86.5     0.44      1014.0     2       243         4       132        7.79     264      525.0
   07/25/2016 12:50      96.9      95.3       14     39.4      0.00      0.00      86.4     0.44      1014.0     4        46         5        60        7.80     264      537.9
   07/25/2016 12:40      96.8      95.5       14     39.6      0.00      0.00      86.4     0.44      1014.0     3        52         5        37        7.80     263      524.2
   07/25/2016 12:30      95.5      94.6       15     39.6      0.00      0.00      86.5     0.44      1014.0     2        94         6        70        7.80     265      525.5
   07/25/2016 12:20      95.1      94.4       16     41.1      0.00      0.00      86.3     0.44      1014.0     3        40         7        67        7.80     265      521.2
   07/25/2016 12:10      94.2      92.6       16     41.4      0.00      0.00      86.3     0.45      1014.0     3        11         5        31        7.81     264      519.2
   07/25/2016 12:00      93.7      92.7       17     41.2      0.00      0.00      86.3     0.45      1014.0     3        71         7        67        7.81     265      517.4
   07/25/2016 11:50      92.6      92.0       17     40.6      0.00      0.00      86.5     0.45      1015.0     4       100         8        72        7.82     264      514.7
   07/25/2016 11:40      92.2      91.0       16     39.8      0.00      0.00      86.5     0.45      1015.0     3        74         7        95        7.82     267      508.8
   07/25/2016 11:30      91.7      90.8       16     38.8      0.00      0.00      86.4     0.45      1015.0     5        77         7        88        7.82     267      501.6
   07/25/2016 11:20      91.7      90.4       16     39.0      0.00      0.00      86.4     0.45      1015.0     4        70        10        76        7.83     267      492.6
   07/25/2016 11:10      91.7      90.6       17     40.9      0.00      0.00      86.1     0.45      1015.0     4        48         6         6        7.83     268      480.0
   07/25/2016 11:00      90.5      89.1       16     37.5      0.00      0.00      86.5     0.45      1015.0     3       110         5        67        7.83     268      470.0
   07/25/2016 10:50      89.6      89.0       16     37.9      0.00      0.00      86.7     0.45      1015.0     4        76         6        64        7.84     268      459.8
   07/25/2016 10:40      89.3      88.3       19     41.4      0.00      0.00      86.4     0.45      1015.0     4        59         6        61        7.84     268      447.7
   07/25/2016 10:30      88.8      87.5       20     42.4      0.00      0.00      86.5     0.45      1015.0     2        54         4       138        7.84     268      435.1
   07/25/2016 10:20      87.6      86.5       21     43.1      0.00      0.00      86.5     0.45      1015.0     5        36         8        65        7.84     268      421.8
   07/25/2016 10:10      86.9      85.7       23     44.6      0.00      0.00      86.6     0.45      1015.0     4        56         5        70        7.85     268      409.2
   07/25/2016 10:00      85.8      84.6       25     45.3      0.00      0.00      86.9     0.45      1015.0     4        38         8         5        7.85     268      394.6
   07/25/2016 09:50      85.2      84.9       25     45.5      0.00      0.00      86.8     0.45      1015.0     3        51         5        39        7.85     268      379.6
   07/25/2016 09:40      85.0      83.9       25     45.0      0.00      0.00      86.7     0.45      1015.0     4        48         5        73        7.85     268      363.5
   07/25/2016 09:30      83.9      82.9       26     45.3      0.00      0.00      86.8     0.45      1015.0     3        49         4        28        7.86     268      348.0
   07/25/2016 09:20      83.5      81.5       29     47.1      0.00      0.00      86.7     0.46      1015.0     3        59         5        45        7.86     269      334.4
   07/25/2016 09:10      81.3      79.9       42     55.1      0.00      0.00      86.7     0.46      1015.0     3        44         4        26        7.86     269      323.5
   07/25/2016 09:00      79.9      77.4       49     57.9      0.00      0.00      86.7     0.46      1016.0     3        84         6        85        7.86     269      321.8
   07/25/2016 08:50      77.5      76.4       53     59.0      0.00      0.00      86.3     0.46      1015.0     3        53         4         9        7.86     269       85.6
   07/25/2016 08:40      76.4      75.2       60     60.8      0.00      0.00      86.9     0.46      1015.0     3        31         4        76        7.86     269      -32.6
   07/25/2016 08:30      75.1      74.2       66     62.3      0.00      0.00      86.6     0.46      1015.0     2        26         3         0        7.86     269      -26.6
   07/25/2016 08:20      74.3      73.3       69     62.9      0.00      0.00      86.7     0.46      1015.0     2         7         4         7        7.86     269      -26.1
   07/25/2016 08:10      73.5      72.7       75     64.6      0.00      0.00      86.6     0.46      1015.0     2       352         3       315        7.86     269      -25.1
   07/25/2016 08:00      72.7      71.8       77     64.6      0.00      0.00      86.9     0.46      1015.0     1       354         2       336        7.86     269      -26.6
   07/25/2016 07:50      71.7      71.0       79     64.5      0.00      0.00      87.0     0.46      1015.0     1       170         2       100        7.87     269      -21.3
   07/25/2016 07:40      71.0      70.3       80     64.3      0.00      0.00      87.0     0.46      1015.0     1       302         2       343        7.87     269       -7.3
   07/25/2016 07:30      70.4      69.6       82     64.1      0.00      0.00      87.2     0.46      1015.0     1       214         1       208        7.87     269      -11.1
   07/25/2016 07:20      69.6      68.5       82     63.5      0.00      0.00      87.1     0.46      1015.0     1       237         1       227        7.87     269      -10.6
   07/25/2016 07:10      68.5      67.6       82     62.4      0.00      0.00      87.0     0.46      1014.0     1       165         1       137        7.87     269      -11.8
   07/25/2016 07:00      67.6      66.6       83     61.8      0.00      0.00      87.4     0.46      1014.0     0       155         1       170        7.87     268      -16.8
   07/25/2016 06:50      66.7      66.3       84     61.4      0.00      0.00      86.9     0.46      1014.0     1       133         1       130        7.87     268      -18.9
   07/25/2016 06:40      66.5      65.9       87     62.0      0.00      0.00      87.2     0.46      1014.0     0        54         1       134        7.87     268      -24.1
   07/25/2016 06:30      66.2      65.7       87     61.7      0.00      0.00      87.0     0.46      1014.0     1       180         2       152        7.87     268      -28.6
   07/25/2016 06:20      65.7      65.2       88     61.8      0.00      0.00      87.4     0.46      1014.0     2       148         2       149        7.87     268      -32.7
   07/25/2016 06:10      65.3      64.9       87     61.2      0.00      0.00      87.2     0.46      1014.0     2       162         3       155        7.87     268      -38.5
   07/25/2016 06:00      65.8      65.5       89     62.3      0.00      0.00      87.5     0.46      1014.0     1       158         2       155        7.87     268      -38.9
   07/25/2016 05:50      65.7      65.4       88     61.9      0.00      0.00      87.8     0.46      1014.0     1       156         2       143        7.87     268      -42.8
   07/25/2016 05:40      65.8      65.7       88     62.2      0.00      0.00      87.5     0.46      1014.0     1       176         2       129        7.87     268      -45.0
   07/25/2016 05:30      65.8      65.5       87     61.9      0.00      0.00      86.8     0.46      1014.0     0       214         1       138        7.87     268      -51.1
   07/25/2016 05:20      65.8      65.4       86     61.3      0.00      0.00      87.5     0.46      1014.0     2       162         3       155        7.87     268      -56.5
   07/25/2016 05:10      65.5      65.2       84     60.4      0.00      0.00      87.6     0.46      1014.0     2       153         3       152        7.87     268      -59.3
   07/25/2016 05:00      66.0      65.7       84     60.9      0.00      0.00      87.8     0.46      1014.0     1       150         1       156        7.87     268      -58.2
   07/25/2016 04:50      66.4      65.7       83     60.8      0.00      0.00      87.7     0.46      1014.0     1       148         2       142        7.87     268      -58.9
   07/25/2016 04:40      66.6      66.2       84     61.4      0.00      0.00      87.5     0.46      1014.0     1       177         2       139        7.87     268      -58.8
   07/25/2016 04:30      66.8      66.3       83     61.2      0.00      0.00      87.7     0.46      1014.0     2       156         2       162        7.87     268      -59.0
   07/25/2016 04:20      67.0      66.8       81     61.0      0.00      0.00      87.8     0.46      1014.0     1       186         1       143        7.87     268      -58.5
   07/25/2016 04:10      67.2      67.1       80     61.0      0.00      0.00      87.8     0.46      1014.0     1       197         1       219        7.87     267      -58.1
   07/25/2016 04:00      67.3      67.2       79     60.5      0.00      0.00      87.7     0.46      1014.0     1       154         1       147        7.87     267      -59.0
   07/25/2016 03:50      67.4      67.3       78     60.3      0.00      0.00      88.0     0.46      1014.0     1       144         2       130        7.87     267      -60.6
   07/25/2016 03:40      68.0      67.4       79     60.8      0.00      0.00      87.9     0.46      1014.0     1       136         2       132        7.87     267      -60.9
   07/25/2016 03:30      68.9      68.2       79     61.8      0.00      0.00      87.9     0.46      1014.0     1       137         2       161        7.87     267      -62.5
   07/25/2016 03:20      69.5      69.2       82     63.7      0.00      0.00      87.8     0.46      1014.0     1       111         2        80        7.87     267      -62.8
   07/25/2016 03:10      69.7      69.4       82     63.9      0.00      0.00      87.7     0.46      1014.0     2        92         3        99        7.87     267      -63.4
   07/25/2016 03:00      69.8      69.7       81     63.9      0.00      0.00      87.9     0.46      1014.0     2        78         3        68        7.87     267      -62.2
   07/25/2016 02:50      70.0      69.8       80     63.6      0.00      0.00      88.0     0.46      1014.0     1        56         2        95        7.88     267      -62.3
   07/25/2016 02:40      70.1      69.9       80     63.5      0.00      0.00      88.2     0.46      1014.0     1        77         2        76        7.88     267      -63.7
   07/25/2016 02:30      70.4      70.2       79     63.5      0.00      0.00      87.8     0.46      1013.0     2        78         2        74        7.88     267      -64.8
   07/25/2016 02:20      70.9      70.5       78     63.3      0.00      0.00      88.2     0.46      1013.0     2        77         3        68        7.88     267      -65.0
   07/25/2016 02:10      71.2      70.8       76     63.2      0.00      0.00      88.0     0.46      1013.0     1        56         3        75        7.88     267      -65.4
   07/25/2016 02:00      71.5      71.1       75     63.0      0.00      0.00      88.0     0.46      1014.0     1        56         2        58        7.88     266      -65.2
   07/25/2016 01:50      71.9      71.5       74     62.9      0.00      0.00      88.0     0.46      1014.0     2        56         5        82        7.88     266      -65.4
   07/25/2016 01:40      72.1      71.8       73     63.0      0.00      0.00      88.2     0.46      1013.0     2        50         3        76        7.88     266      -65.8
   07/25/2016 01:30      72.3      72.1       71     62.5      0.00      0.00      88.4     0.46      1013.0     2        50         3        34        7.88     266      -65.9
   07/25/2016 01:20      72.4      72.2       70     61.9      0.00      0.00      88.2     0.46      1013.0     2        55         2        50        7.88     266      -66.0
   07/25/2016 01:10      72.2      71.7       65     59.7      0.00      0.00      88.3     0.46      1013.0     1        56         2        54        7.88     266      -65.3
   07/25/2016 01:00      72.4      71.7       56     55.4      0.00      0.00      88.1     0.46      1013.0     1        88         1       107        7.88     266      -64.3
   07/25/2016 00:50      72.6      72.2       54     54.7      0.00      0.00      88.2     0.46      1013.0     1       131         1       119        7.88     266      -65.4
   07/25/2016 00:40      73.5      72.9       53     54.9      0.00      0.00      88.3     0.46      1013.0     1       136         2       129        7.88     266      -65.1
   07/25/2016 00:30      74.0      73.7       52     55.4      0.00      0.00      88.4     0.46      1013.0     1       119         2       119        7.88     266      -66.8
   07/25/2016 00:20      73.9      73.2       50     53.9      0.00      0.00      88.5     0.46      1013.0     2       115         3       105        7.88     266      -66.3
   07/25/2016 00:10      73.8      73.1       49     53.4      0.00      0.00      88.4     0.46      1013.0     2       105         2       108        7.88     266      -65.8
   07/25/2016 00:00      74.2      73.8       49     53.8      0.00      0.00      88.7     0.46      1013.0     1        99         2       108        7.89     265      -67.6
   07/24/2016 23:50      74.5      74.3       49     53.8      0.00      0.00      88.5     0.46      1013.0     1       110         2        93        7.88     266      -69.1
   07/24/2016 23:40      75.2      74.6       48     54.0      0.00      0.00      88.4     0.46      1013.0     2       119         2       130        7.88     265      -69.9
   07/24/2016 23:30      75.5      75.3       48     54.5      0.00      0.00      88.6     0.46      1013.0     2       118         3       127        7.88     265      -70.7
   07/24/2016 23:20      75.5      75.3       50     55.3      0.00      0.00      88.6     0.46      1013.0     2        89         4       127        7.89     265      -70.1
   07/24/2016 23:10      75.9      75.4       50     55.5      0.00      0.00      88.5     0.46      1013.0     1       105         2        96        7.89     265      -70.8
   07/24/2016 23:00      76.7      76.0       51     56.7      0.00      0.00      88.5     0.46      1013.0     1       129         2       163        7.89     265      -71.3
   07/24/2016 22:50      77.0      76.7       51     57.4      0.00      0.00      88.6     0.46      1013.0     1        89         3        81        7.89     265      -71.0
   07/24/2016 22:40      77.2      76.9       49     56.2      0.00      0.00      88.5     0.46      1013.0     2       101         3       112        7.89     265      -71.3
   07/24/2016 22:30      77.8      77.3       46     55.3      0.00      0.00      88.5     0.46      1013.0     1       100         2        85        7.89     265      -71.2
   07/24/2016 22:20      78.7      77.8       44     54.7      0.00      0.00      88.6     0.46      1013.0     2        84         2        79        7.89     265      -72.5
   07/24/2016 22:10      78.6      78.3       43     54.1      0.00      0.00      88.4     0.46      1013.0     2       105         3       113        7.89     264      -73.1
   07/24/2016 22:00      78.7      78.5       40     52.1      0.00      0.00      88.5     0.46      1013.0     1        92         1        84        7.89     264      -73.1
   07/24/2016 21:50      78.9      78.5       36     49.7      0.00      0.00      88.6     0.46      1013.0     1        69         2        78        7.89     264      -74.0
   07/24/2016 21:40      79.8      79.0       33     47.6      0.00      0.00      88.7     0.46      1013.0     0        82         1       131        7.89     264      -75.1
   07/24/2016 21:30      80.5      79.8       32     47.7      0.00      0.00      88.6     0.46      1013.0     1        67         1         5        7.89     264      -77.0
   07/24/2016 21:20      81.0      80.5       31     47.0      0.00      0.00      88.4     0.46      1013.0     2       147         3       153        7.89     264      -78.7
   07/24/2016 21:10      81.2      80.5       31     47.1      0.00      0.00      88.5     0.46      1012.0     2       169         3       147        7.89     264      -79.1
   07/24/2016 21:00      82.3      81.4       29     46.6      0.00      0.00      88.3     0.46      1012.0     1       160         2       170        7.90     264      -80.2
   07/24/2016 20:50      83.3      82.5       27     45.1      0.00      0.00      88.2     0.46      1012.0     2       156         2       156        7.90     264      -82.2
   07/24/2016 20:40      84.0      83.2       25     44.1      0.00      0.00      88.4     0.46      1012.0     2       155         3       146        7.90     264      -83.2
   07/24/2016 20:30      84.7      84.0       24     43.5      0.00      0.00      88.2     0.46      1012.0     3       135         4       131        7.90     264      -85.4
   07/24/2016 20:20      85.4      84.9       22     42.2      0.00      0.00      88.2     0.46      1012.0     2       126         4       135        7.90     264      -86.7
   07/24/2016 20:10      85.9      85.5       21     42.0      0.00      0.00      88.3     0.46      1012.0     2       133         3       106        7.90     264      -86.9
   07/24/2016 20:00      86.6      86.0       23     43.6      0.00      0.00      88.3     0.46      1012.0     3       147         5       170        7.92     264      -85.6
   07/24/2016 19:50      87.0      86.5       23     44.8      0.00      0.00      88.2     0.46      1012.0     4       128         5       114        7.96     264      -83.5
   07/24/2016 19:40      87.9      87.2       23     44.7      0.00      0.00      88.1     0.46      1012.0     4       123         6       141        7.96     264      -78.8
   07/24/2016 19:30      88.9      87.9       22     45.0      0.00      0.00      88.2     0.46      1012.0     4       117         6       100        7.97     264      -67.4
   07/24/2016 19:20      89.0      88.7       21     43.7      0.00      0.00      88.1     0.46      1012.0     5       127         6       136        7.97     264      -50.6
   07/24/2016 19:10      89.9      89.3       19     41.9      0.00      0.00      87.9     0.46      1012.0     6       131        10       139        7.98     264      -28.4
   07/24/2016 19:00      90.9      90.0       19     42.3      0.00      0.00      87.9     0.46      1011.0     5       137         8       136        7.99     263       -5.7
   07/24/2016 18:50      91.8      90.9       19     42.8      0.00      0.00      88.0     0.46      1011.0     5       131         8       119        7.99     263       15.3
   07/24/2016 18:40      92.9      92.0       18     43.2      0.00      0.00      88.0     0.46      1011.0     5       124         7       121        7.99     263       33.5
   07/24/2016 18:30      93.0      92.2       19     44.2      0.00      0.00      88.0     0.46      1011.0     3       101         4        74        7.99     263       53.2
   07/24/2016 18:20      92.7      92.4       18     42.9      0.00      0.00      87.9     0.46      1011.0     5       133         7       137        8.00     263       76.7
   07/24/2016 18:10      92.5      91.8       17     41.3      0.00      0.00      87.8     0.46      1011.0     5       145         8       135        8.00     263      100.7
   07/24/2016 18:00      93.1      92.5       16     39.8      0.00      0.00      87.7     0.46      1011.0     7       139         8       133        8.00     263      122.6
   07/24/2016 17:50      94.0      93.2       15     39.8      0.00      0.00      87.5     0.46      1011.0     5       139         7       142        8.02     263      144.9
   07/24/2016 17:40      94.6      93.1       14     37.9      0.00      0.00      87.5     0.46      1011.0     7       136        10       141        8.03     263      166.7
   07/24/2016 17:30      94.9      94.3       14     38.6      0.00      0.00      87.5     0.46      1011.0     6       116         8       126        8.03     263      186.5
   07/24/2016 17:20      95.1      94.2       13     36.0      0.00      0.00      87.6     0.46      1012.0     5       113         7       123        8.04     263      209.1
   07/24/2016 17:10      94.6      94.1       13     36.9      0.00      0.00      87.4     0.46      1012.0     5       133         8       141        8.04     263      231.5
   07/24/2016 17:00      95.3      93.7       14     37.4      0.00      0.00      87.3     0.46      1012.0     5       134         7       148        8.05     263      254.9
   07/24/2016 16:50      94.3      94.0       15     39.4      0.00      0.00      87.1     0.46      1012.0     5       122         7       127        8.06     263      273.1
   07/24/2016 16:40      94.1      93.4       16     40.6      0.00      0.00      87.3     0.46      1012.0     5       136         8       135        8.06     263      293.7
   07/24/2016 16:30      94.2      93.2       16     40.6      0.00      0.00      87.0     0.46      1012.0     4       135         9       105        8.07     263      313.2
   07/24/2016 16:20      94.3      93.5       18     43.7      0.00      0.00      87.2     0.46      1012.0     5       130         8       129        8.08     263      331.5
   07/24/2016 16:10      94.4      94.0       15     39.5      0.00      0.00      87.1     0.46      1012.0     7       139        10       173        8.09     263      351.6
   07/24/2016 16:00      94.0      92.7       17     41.8      0.00      0.00      86.8     0.45      1012.0     6       127        11       128        8.10     264      372.3
   07/24/2016 15:50      94.6      93.5       15     40.1      0.00      0.00      86.9     0.45      1012.0     7       146        10       138        8.10     264      389.3
   07/24/2016 15:40      93.9      93.1       15     39.0      0.00      0.00      86.8     0.45      1012.0     7       132        13       143        8.11     264      408.0
   07/24/2016 15:30      93.8      93.0       16     40.2      0.00      0.00      86.5     0.45      1012.0     7       130         9       132        8.12     264      420.9
   07/24/2016 15:20      94.2      93.5       15     39.9      0.00      0.00      86.5     0.45      1012.0     6       129         8       146        8.12     264      435.0
   07/24/2016 15:10      93.8      92.9       16     39.8      0.00      0.00      86.5     0.45      1013.0     8       138        10       159        8.13     264      449.4
   07/24/2016 15:00      93.5      92.7       15     39.3      0.00      0.00      86.6     0.45      1013.0     8       141         9       128        8.13     264      463.2
   07/24/2016 14:50      94.1      92.7       15     39.2      0.00      0.00      86.6     0.45      1013.0     8       138        11       131        8.14     264      477.3
   07/24/2016 14:40      95.1      93.3       15     39.5      0.00      0.00      86.7     0.45      1013.0     6       142         9       144        8.14     265      489.4
   07/24/2016 14:30      94.0      93.3       14     37.9      0.00      0.00      86.4     0.45      1013.0     8       156        12       148        8.15     265      499.8
   07/24/2016 14:20      94.2      93.0       15     38.2      0.00      0.00      86.5     0.45      1013.0     7       148        10       123        8.16     265      511.0
   07/24/2016 14:10      94.2      93.1       16     40.3      0.00      0.00      86.4     0.45      1013.0     9       161        14       128        8.17     265      516.9
   07/24/2016 14:00      94.5      93.4       16     40.8      0.00      0.00      86.2     0.45      1013.0     8       153        12       117        8.18     266      524.4
   07/24/2016 13:50      93.0      92.4       15     38.9      0.00      0.00      86.3     0.45      1013.0     7       142        13       161        8.19     265      529.6
   07/24/2016 13:40      94.3      92.6       16     40.9      0.00      0.00      86.1     0.45      1013.0     8       161        12       150        8.20     265      533.5
   07/24/2016 13:30      93.4      92.6       16     40.8      0.00      0.00      86.1     0.45      1013.0     8       152        14       152        8.20     265      536.5
   07/24/2016 13:20      92.9      92.0       25     51.3      0.00      0.00      86.2     0.45      1013.0     4        71         6        73        8.20     266      534.5
   07/24/2016 13:10      92.5      90.5       26     52.0      0.00      0.00      86.0     0.45      1013.0     6        77        11        74        8.20     266      545.1
   07/24/2016 13:00      92.8      92.0       26     52.1      0.00      0.00      86.2     0.45      1013.0     5        86         8       114        8.21     266      545.0
   07/24/2016 12:50      93.1      91.9       26     52.6      0.00      0.00      86.1     0.45      1013.0     6        94         8        66        8.21     266      546.9
   07/24/2016 12:40      94.5      93.7       21     48.3      0.00      0.00      86.0     0.45      1013.0     5       113         7       176        8.21     265      536.2
   07/24/2016 12:30      93.9      92.5       20     46.0      0.00      0.00      86.1     0.45      1013.0     5       115         6        90        8.21     266      537.5
   07/24/2016 12:20      92.6      91.8       23     48.9      0.00      0.00      86.2     0.45      1013.0     5       128         8        59        8.21     266      538.4
   07/24/2016 12:10      93.1      91.9       28     54.6      0.00      0.00      86.0     0.45      1013.0     4        69        11       111        8.21     266      534.0
   07/24/2016 12:00      92.1      90.6       25     50.6      0.00      0.00      86.2     0.45      1013.0     5       130         8       184        8.21     266      533.2
   07/24/2016 11:50      91.3      90.8       27     52.5      0.00      0.00      86.3     0.45      1013.0     6        83        10       134        8.21     267      528.3
   07/24/2016 11:40      91.5      90.8       31     56.0      0.00      0.00      85.9     0.45      1013.0     4        50         7        52        8.21     267      517.8
   07/24/2016 11:30      91.2      90.0       30     55.1      0.00      0.00      85.9     0.45      1013.0     4        52         7        57        8.21     267      508.7
   07/24/2016 11:20      90.0      89.7       31     54.9      0.00      0.00      86.2     0.45      1013.0     4        53         8        71        8.21     267      497.0
   07/24/2016 11:10      90.5      89.5       30     54.2      0.00      0.00      86.0     0.45      1013.0     3        32         4        31        8.22     268      484.2
   07/24/2016 11:00      90.4      88.9       30     53.7      0.00      0.00      86.2     0.45      1013.0     3        12         5         4        8.22     268      470.6
   07/24/2016 10:50      89.3      88.9       29     52.8      0.00      0.00      86.3     0.45      1013.0     2        13         4        36        8.22     268      457.7
   07/24/2016 10:40      89.1      88.4       29     52.3      0.00      0.00      86.1     0.45      1013.0     3        31         4        42        8.22     268      446.4
   07/24/2016 10:30      88.2      87.1       29     51.7      0.00      0.00      86.2     0.45      1013.0     3       358         5       339        8.22     268      432.3
   07/24/2016 10:20      87.2      86.7       30     51.6      0.00      0.00      86.1     0.45      1013.0     3        17         3       355        8.22     269      417.9
   07/24/2016 10:10      86.9      85.7       30     51.2      0.00      0.00      86.1     0.45      1013.0     3       342         4         0        8.22     269      404.2
   07/24/2016 10:00      85.8      85.2       31     51.5      0.00      0.00      86.3     0.45      1013.0     2        27         3        21        8.22     269      389.5
   07/24/2016 09:50      85.6      84.0       32     51.6      0.00      0.00      86.5     0.46      1013.0     2         8         4         0        8.22     269      374.8
   07/24/2016 09:40      83.8      83.6       32     51.1      0.00      0.00      86.2     0.46      1013.0     2       345         4       343        8.22     269      361.2
   07/24/2016 09:30      83.8      83.3       33     51.3      0.00      0.00      86.7     0.46      1013.0     2         9         3       322        8.23     269      347.4
   07/24/2016 09:20      83.4      81.4       35     52.0      0.00      0.00      86.3     0.46      1013.0     1        17         2        91        8.23     269      332.2
   07/24/2016 09:10      81.5      79.5       38     52.6      0.00      0.00      86.6     0.46      1013.0     2       332         2         6        8.23     269      322.0
   07/24/2016 09:00      79.6      77.5       41     52.8      0.00      0.00      86.7     0.46      1013.0     1       359         2       337        8.23     269      319.3
   07/24/2016 08:50      77.6      76.6       44     53.3      0.00      0.00      86.6     0.46      1013.0     2       332         3       321        8.23     269       73.1
   07/24/2016 08:40      76.7      75.8       45     53.5      0.00      0.00      86.5     0.46      1013.0     1       336         2       346        8.24     269      -30.0
   07/24/2016 08:30      75.8      75.0       48     54.1      0.00      0.00      86.6     0.46      1013.0     2       324         3       307        8.24     269      -26.3
   07/24/2016 08:20      75.0      74.3       49     54.5      0.00      0.00      86.6     0.46      1013.0     1        40         2        58        8.24     269      -22.6
   07/24/2016 08:10      74.4      73.7       51     54.5      0.00      0.00      86.8     0.46      1013.0     1        36         2       352        8.24     269      -22.2
   07/24/2016 08:00      73.7      72.7       53     54.9      0.00      0.00      86.6     0.46      1012.0     1        20         2       359        8.24     269      -19.9
   07/24/2016 07:50      72.4      71.5       56     55.3      0.00      0.00      86.6     0.46      1012.0     1       347         2        15        8.24     269      -25.9
   07/24/2016 07:40      71.4      70.4       59     56.0      0.00      0.00      86.6     0.46      1012.0     1       344         1         4        8.24     269      -21.9
   07/24/2016 07:30      70.4      69.3       62     56.0      0.00      0.00      87.0     0.46      1012.0     1       303         1       354        8.24     269      -29.2
   07/24/2016 07:20      69.2      67.8       66     56.5      0.00      0.00      87.3     0.46      1012.0     0       342         1       333        8.24     269      -26.9
   07/24/2016 07:10      67.8      66.7       69     56.7      0.00      0.00      87.2     0.46      1012.0     0       100         1       131        8.24     269      -31.0
   07/24/2016 07:00      66.8      65.9       70     56.4      0.00      0.00      87.0     0.46      1012.0     1       126         1       112        8.24     269      -37.2
   07/24/2016 06:50      65.8      65.0       72     56.0      0.00      0.00      86.8     0.46      1012.0     2       134         2       129        8.25     269      -40.0
   07/24/2016 06:40      65.0      63.9       74     55.8      0.00      0.00      86.8     0.46      1012.0     2       137         2       128        8.25     269      -46.7
   07/24/2016 06:30      64.1      63.3       75     55.5      0.00      0.00      86.9     0.46      1012.0     2       141         2       130        8.25     269      -50.1
   07/24/2016 06:20      63.4      63.0       76     55.4      0.00      0.00      87.1     0.46      1012.0     1       157         2       134        8.25     269      -51.6
   07/24/2016 06:10      63.4      63.2       75     55.3      0.00      0.00      87.2     0.46      1012.0     2       137         2       127        8.25     269      -55.8
   07/24/2016 06:00      63.6      63.3       76     55.6      0.00      0.00      87.3     0.46      1012.0     1       173         2       130        8.25     269      -57.9
   07/24/2016 05:50      63.9      63.6       76     56.2      0.00      0.00      87.2     0.46      1011.0     2       131         2       141        8.25     269      -59.9
   07/24/2016 05:40      63.9      63.5       76     56.0      0.00      0.00      87.2     0.46      1011.0     1       174         2       134        8.25     269      -60.0
   07/24/2016 05:30      64.3      64.0       78     57.1      0.00      0.00      87.4     0.46      1011.0     1       156         2       140        8.25     269      -59.9
   07/24/2016 05:20      64.3      63.9       78     57.2      0.00      0.00      87.3     0.46      1011.0     1       170         1       145        8.26     269      -60.4
   07/24/2016 05:10      64.5      64.3       79     57.9      0.00      0.00      87.3     0.46      1011.0     1       173         1       125        8.26     269      -60.9
   07/24/2016 05:00      64.7      64.3       81     58.5      0.00      0.00      87.2     0.46      1011.0     1       170         1       143        8.26     269      -59.2
   07/24/2016 04:50      65.0      64.5       80     58.5      0.00      0.00      87.6     0.46      1011.0     1        30         1       337        8.26     269      -60.0
   07/24/2016 04:40      65.3      65.0       80     58.8      0.00      0.00      87.8     0.47      1011.0     1        87         2       131        8.26     269      -60.5
   07/24/2016 04:30      65.5      65.0       81     59.1      0.00      0.00      87.7     0.47      1011.0     1       169         1       162        8.26     269      -60.4
   07/24/2016 04:20      65.4      65.1       81     59.1      0.00      0.00      87.4     0.47      1011.0     2       153         2       140        8.26     269      -60.1
   07/24/2016 04:10      65.6      65.4       81     59.5      0.00      0.00      87.6     0.47      1010.0     1       139         1       142        8.26     268      -59.6
   07/24/2016 04:00      65.7      65.3       80     59.1      0.00      0.00      87.8     0.47      1010.0     1       139         2       147        8.26     268      -61.1
   07/24/2016 03:50      66.0      65.7       79     59.2      0.00      0.00      87.9     0.47      1010.0     1       154         2       140        8.26     268      -61.5
   07/24/2016 03:40      66.0      65.7       78     58.8      0.00      0.00      87.8     0.47      1010.0     0       151         1       142        8.26     268      -62.5
   07/24/2016 03:30      66.1      65.8       78     59.0      0.00      0.00      87.8     0.46      1010.0     1       218         2       127        8.26     269      -62.5
   07/24/2016 03:20      66.5      66.0       78     59.1      0.00      0.00      87.8     0.47      1010.0     1       147         2       141        8.26     268      -63.3
   07/24/2016 03:10      66.9      66.5       77     59.1      0.00      0.00      87.8     0.47      1010.0     1       126         2       135        8.26     268      -63.7
   07/24/2016 03:00      67.0      66.8       77     59.3      0.00      0.00      88.1     0.47      1010.0     1       158         2       132        8.26     268      -63.0
   07/24/2016 02:50      67.2      66.8       77     59.6      0.00      0.00      88.2     0.47      1010.0     0       113         0       127        8.26     268      -63.4
   07/24/2016 02:40      67.4      67.0       78     60.2      0.00      0.00      87.8     0.47      1010.0     1       187         2       154        8.27     268      -63.4
   07/24/2016 02:30      67.3      66.9       77     59.7      0.00      0.00      88.3     0.47      1010.0     1       137         2       152        8.27     268      -64.7
   07/24/2016 02:20      67.8      67.4       76     59.6      0.00      0.00      88.0     0.47      1010.0     1       134         2       138        8.27     268      -64.9
   07/24/2016 02:10      67.8      67.6       76     59.8      0.00      0.00      88.0     0.47      1010.0     1       178         1       133        8.27     268      -65.0
   07/24/2016 02:00      68.1      67.7       77     60.2      0.00      0.00      88.1     0.47      1010.0     1       140         2       130        8.27     268      -65.5
   07/24/2016 01:50      68.3      67.9       77     60.5      0.00      0.00      88.3     0.47      1010.0     1       146         2       130        8.27     268      -65.3
   07/24/2016 01:40      68.8      68.2       75     60.2      0.00      0.00      88.3     0.47      1010.0     1       140         2       126        8.27     268      -65.9
   07/24/2016 01:30      68.9      68.4       74     60.2      0.00      0.00      88.2     0.47      1010.0     0       145         1       150        8.27     268      -65.8
   07/24/2016 01:20      69.0      68.5       72     59.5      0.00      0.00      88.1     0.47      1011.0     1       135         2       132        8.27     267      -66.5
   07/24/2016 01:10      69.3      68.9       71     59.3      0.00      0.00      88.2     0.47      1011.0     1       149         2       137        8.27     268      -66.9
   07/24/2016 01:00      69.4      68.6       71     59.2      0.00      0.00      88.4     0.47      1011.0     2       161         2       145        8.28     267      -68.0
   07/24/2016 00:50      69.4      69.1       70     58.9      0.00      0.00      88.3     0.47      1011.0     2       148         3       143        8.28     267      -66.9
   07/24/2016 00:40      69.4      69.1       70     59.0      0.00      0.00      88.2     0.47      1011.0     0       143         1       130        8.28     267      -66.6
   07/24/2016 00:30      69.6      69.2       69     58.6      0.00      0.00      88.4     0.47      1011.0     2       156         3       134        8.28     267      -67.9
   07/24/2016 00:20      70.0      69.5       67     58.5      0.00      0.00      88.8     0.47      1011.0     2       142         2       129        8.28     268      -68.8
   07/24/2016 00:10      70.2      69.8       67     58.7      0.00      0.00      88.9     0.47      1011.0     2       157         3       142        8.28     267      -70.5
   07/24/2016 00:00      70.1      69.7       68     58.8      0.00      0.00      88.6     0.47      1011.0     2       164         3       141        8.28     267      -70.4
   07/23/2016 23:50      70.4      69.8       67     58.8      0.00      0.00      88.5     0.47      1011.0     2       147         3       159        8.28     267      -70.6
   07/23/2016 23:40      70.9      70.5       68     59.5      0.00      0.00      88.9     0.47      1011.0     2       150         3       139        8.28     267      -70.9
   07/23/2016 23:30      70.9      70.6       66     58.8      0.00      0.00      88.8     0.47      1011.0     1       195         2       154        8.28     267      -72.0
   07/23/2016 23:20      71.7      71.2       66     59.4      0.00      0.00      88.5     0.47      1011.0     2       164         2       164        8.28     267      -71.1
   07/23/2016 23:10      72.6      71.8       65     59.6      0.00      0.00      88.8     0.47      1011.0     1       151         2       152        8.28     267      -70.9
   07/23/2016 23:00      73.1      72.7       64     60.0      0.00      0.00      88.6     0.47      1011.0     1       152         1       148        8.28     267      -71.0
   07/23/2016 22:50      73.5      73.1       63     59.8      0.00      0.00      88.8     0.47      1011.0     1       148         1       150        8.28     267      -71.2
   07/23/2016 22:40      74.0      73.5       62     59.8      0.00      0.00      88.8     0.47      1011.0     1        69         1       107        8.29     267      -72.4
   07/23/2016 22:30      74.2      73.8       61     59.6      0.00      0.00      88.6     0.47      1011.0     1        57         2       357        8.28     266      -74.6
   07/23/2016 22:20      74.7      74.1       59     59.2      0.00      0.00      88.8     0.47      1011.0     1        64         1        86        8.28     266      -76.0
   07/23/2016 22:10      75.4      74.8       58     59.3      0.00      0.00      88.8     0.47      1011.0     1        34         2        33        8.29     266      -77.4
   07/23/2016 22:00      75.8      75.3       57     59.4      0.00      0.00      88.6     0.47      1011.0     1        55         2        39        8.29     266      -77.7
   07/23/2016 21:50      76.1      75.9       56     59.4      0.00      0.00      88.7     0.47      1011.0     2        45         3        69        8.29     266      -78.5
   07/23/2016 21:40      76.4      76.2       55     59.2      0.00      0.00      88.7     0.47      1011.0     2        45         3        80        8.29     266      -78.9
   07/23/2016 21:30      76.8      76.5       54     58.8      0.00      0.00      88.7     0.47      1011.0     2        43         3        53        8.29     266      -79.8
   07/23/2016 21:20      77.0      76.8       52     57.8      0.00      0.00      88.5     0.47      1011.0     2        48         3        40        8.29     266      -80.0
   07/23/2016 21:10      77.4      77.0       49     56.4      0.00      0.00      88.6     0.47      1011.0     3        59         5        69        8.30     266      -80.4
   07/23/2016 21:00      77.9      77.4       45     54.5      0.00      0.00      88.8     0.46      1011.0     2        64         4        82        8.30     266      -81.6
   07/23/2016 20:50      78.4      77.9       45     55.2      0.00      0.00      88.6     0.46      1010.0     1        50         2        36        8.31     265      -82.9
   07/23/2016 20:40      78.7      78.5       45     55.6      0.00      0.00      88.5     0.46      1010.0     2        51         2        71        8.31     266      -83.3
   07/23/2016 20:30      79.2      78.8       45     55.9      0.00      0.00      88.7     0.46      1010.0     2        55         3        58        8.31     265      -84.3
   07/23/2016 20:20      79.5      79.2       45     56.3      0.00      0.00      88.4     0.46      1010.0     2        59         3        50        8.31     265      -85.1
   07/23/2016 20:10      80.2      79.6       44     56.4      0.00      0.00      88.7     0.46      1010.0     2        61         3        76        8.31     265      -84.5
   07/23/2016 20:00      81.2      80.4       43     56.1      0.00      0.00      88.6     0.46      1010.0     2        35         3        39        8.32     265      -81.3
   07/23/2016 19:50      81.6      81.3       42     56.0      0.00      0.00      88.6     0.46      1010.0     2        41         3         6        8.32     265      -75.2
   07/23/2016 19:40      81.9      81.6       42     56.4      0.00      0.00      88.5     0.46      1010.0     2        38         3        37        8.32     265      -64.0
   07/23/2016 19:30      82.6      81.8       42     56.7      0.00      0.00      88.5     0.46      1010.0     3        31         3        32        8.32     265      -49.7
   07/23/2016 19:20      82.6      82.3       42     56.8      0.00      0.00      88.4     0.46      1010.0     3        48         4        30        8.33     265      -35.2
   07/23/2016 19:10      83.0      82.6       42     57.4      0.00      0.00      88.4     0.46      1009.0     3        43         5        34        8.33     265      -17.5
   07/23/2016 19:00      83.8      83.2       41     57.0      0.00      0.00      88.4     0.46      1009.0     3        54         5        64        8.34     265       -5.8
   07/23/2016 18:50      84.8      83.8       40     57.1      0.00      0.00      88.4     0.46      1009.0     4        50         5        41        8.34     265        5.0
   07/23/2016 18:40      85.0      84.8       40     58.3      0.00      0.00      88.2     0.46      1009.0     3        35         6        79        8.34     265       21.2
   07/23/2016 18:30      85.4      85.2       40     58.1      0.00      0.00      88.2     0.46      1009.0     3        44         5        61        8.34     265       37.7
   07/23/2016 18:20      86.0      85.6       39     57.9      0.00      0.00      88.2     0.46      1009.0     3        36         5        44        8.35     265       49.4
   07/23/2016 18:10      87.1      86.4       36     56.6      0.00      0.00      88.3     0.46      1009.0     3        35         4        16        8.35     265       46.6
   07/23/2016 18:00      88.0      87.0       34     55.5      0.00      0.00      88.1     0.46      1009.0     3        37         4        20        8.35     265       46.8
   07/23/2016 17:50      88.1      87.7       29     52.1      0.00      0.00      88.0     0.46      1009.0     3        60         5        66        8.36     265       52.5
   07/23/2016 17:40      88.8      87.9       28     50.9      0.00      0.00      88.0     0.46      1009.0     4        80         6        71        8.36     264       70.5
   07/23/2016 17:30      88.9      88.6       27     50.6      0.00      0.00      88.0     0.46      1009.0     3        99         5       132        8.36     264       95.9
   07/23/2016 17:20      89.6      88.6       27     51.1      0.00      0.00      87.8     0.46      1009.0     6       124         8       142        8.37     265      117.7
   07/23/2016 17:10      90.1      89.5       31     55.3      0.00      0.00      88.0     0.46      1009.0     3        55         5        55        8.38     264      105.3
   07/23/2016 17:00      91.7      89.9       31     55.5      0.00      0.00      88.0     0.46      1009.0     3        52         4        76        8.39     264      110.1
   07/23/2016 16:50      91.8      91.0       28     53.7      0.00      0.00      87.8     0.46      1009.0     4        84         6        55        8.39     264      129.9
   07/23/2016 16:40      92.1      91.5       27     52.9      0.00      0.00      87.7     0.46      1009.0     3        68         4       132        8.40     264       95.6
   07/23/2016 16:30      93.6      91.6       26     52.7      0.00      0.00      87.7     0.46      1009.0     4        51         6        64        8.40     264       40.5
   07/23/2016 16:20      94.7      94.0       21     47.8      0.00      0.00      87.5     0.46      1009.0     3        47         4        30        8.41     264       26.0
   07/23/2016 16:10      95.0      94.4       18     44.6      0.00      0.00      87.5     0.46      1009.0     4        94         7        67        8.41     264       35.4
   07/23/2016 16:00      96.2      95.2       18     44.8      0.00      0.00      87.4     0.46      1009.0     5       110         8       121        8.41     264       16.3
   07/23/2016 15:50      99.5      96.8       17     46.4      0.00      0.00      87.3     0.46      1009.0     6        75         9        86        8.42     264       58.1
   07/23/2016 15:40      99.8      99.4       18     47.8      0.00      0.00      87.3     0.46      1009.0     4        75         6        83        8.43     264      217.3
   07/23/2016 15:30     100.1      99.3       18     48.0      0.00      0.00      87.4     0.46      1009.0     6        96         9        80        8.43     265      344.9
   07/23/2016 15:20     101.5      99.8       16     46.8      0.00      0.00      87.3     0.46      1009.0     8       122        11       134        8.43     265      358.6
   07/23/2016 15:10     102.3     101.7       14     44.4      0.00      0.00      87.3     0.46      1009.0     7        94        10       100        8.43     265      341.0
   07/23/2016 15:00     103.8     102.2       14     44.7      0.00      0.00      87.1     0.46      1009.0     6       110         7        60        8.43     265      337.1
   07/23/2016 14:50     103.3     102.4       14     43.9      0.00      0.00      87.1     0.46      1009.0     6       106         9        84        8.44     265      351.7
   07/23/2016 14:40     103.6     102.7       13     43.8      0.00      0.00      87.1     0.46      1009.0     6       110        10       133        8.44     265      382.6
   07/23/2016 14:30     103.9     103.1       12     41.1      0.00      0.00      87.2     0.46      1009.0     5       113         8        69        8.44     265      402.6
   07/23/2016 14:20     103.6     103.0       12     40.7      0.00      0.00      87.2     0.45      1009.0     5       119         7        72        8.44     265      319.4
   07/23/2016 14:10     103.9     103.1       12     40.3      0.00      0.00      87.0     0.45      1009.0     7       142        11       145        8.44     265      345.9
   07/23/2016 14:00     105.0     103.3       12     42.2      0.00      0.00      87.0     0.45      1009.0     6       133         8       138        8.44     266      423.3
   07/23/2016 13:50     105.5     104.6       14     46.3      0.00      0.00      86.9     0.45      1009.0     4        63         6        81        8.45     266      396.3
   07/23/2016 13:40     105.2     104.2       14     45.4      0.00      0.00      86.9     0.45      1009.0     3        74         5        71        8.45     266      369.5
   07/23/2016 13:30     104.5     103.7       14     45.0      0.00      0.00      87.1     0.45      1009.0     4        69         8        95        8.45     266      382.9
   07/23/2016 13:20     104.2     103.9       13     44.4      0.00      0.00      87.0     0.45      1009.0     2        34         3        25        8.45     266      377.4
   07/23/2016 13:10     104.2     103.2       13     43.6      0.00      0.00      86.7     0.45      1009.0     3        41         5        32        8.45     266      382.5
   07/23/2016 13:00     103.7     103.1       14     44.1      0.00      0.00      86.9     0.45      1009.0     3        72         5       155        8.45     266      399.6
   07/23/2016 12:50     103.3     102.5       14     45.0      0.00      0.00      86.9     0.45      1009.0     3       352         4       357        8.45     266      393.2
   07/23/2016 12:40     102.6     101.1       13     42.7      0.00      0.00      86.8     0.45      1009.0     3         3         4         1        8.45     266      389.0
   07/23/2016 12:30     101.0      99.6       14     42.5      0.00      0.00      86.8     0.45      1009.0     3        39         5        15        8.45     266      401.4
   07/23/2016 12:20     100.2      99.4       15     43.3      0.00      0.00      87.0     0.45      1010.0     2        44         4         3        8.45     266      398.3
   07/23/2016 12:10     100.0      99.0       16     44.5      0.00      0.00      86.9     0.45      1010.0     2        37         4        91        8.45     266      402.8
   07/23/2016 12:00      98.8      96.8       18     46.5      0.00      0.00      86.9     0.45      1010.0     2        60         3        52        8.45     266      384.8
   07/23/2016 11:50      96.9      96.1       18     46.0      0.00      0.00      86.9     0.45      1010.0     2        41         4        64        8.45     266      336.7
   07/23/2016 11:40      96.4      96.0       18     45.8      0.00      0.00      86.8     0.45      1010.0     3        40         4        81        8.45     266      321.3
   07/23/2016 11:30      96.2      95.5       18     46.1      0.00      0.00      87.1     0.45      1010.0     2        15         4        25        8.45     267      321.3
   07/23/2016 11:20      95.7      94.6       18     45.2      0.00      0.00      86.9     0.46      1010.0     3        27         4       351        8.46     266      330.4
   07/23/2016 11:10      94.8      94.2       19     45.6      0.00      0.00      86.9     0.46      1010.0     2        29         4        30        8.46     267      324.5
   07/23/2016 11:00      94.2      93.9       21     47.9      0.00      0.00      87.0     0.46      1010.0     3        33         5        27        8.46     267      350.0
   07/23/2016 10:50      93.9      92.8       22     48.5      0.00      0.00      87.0     0.46      1010.0     2        28         4        27        8.46     267      328.7
   07/23/2016 10:40      92.8      91.7       22     47.2      0.00      0.00      87.1     0.46      1010.0     2        27         5         7        8.46     267      300.1
   07/23/2016 10:30      93.0      92.2       22     48.6      0.00      0.00      87.1     0.46      1010.0     3        41         5        80        8.46     267      314.0
   07/23/2016 10:20      92.5      90.9       22     48.2      0.00      0.00      86.9     0.46      1011.0     3        49         4       115        8.46     267      326.3
   07/23/2016 10:10      90.8      89.3       27     51.4      0.00      0.00      87.1     0.46      1011.0     2        53         3        45        8.46     267      269.4
   07/23/2016 10:00      90.0      89.3       26     50.3      0.00      0.00      87.0     0.46      1011.0     3        27         3        16        8.46     267      230.5
   07/23/2016 09:50      89.7      88.9       26     50.0      0.00      0.00      87.1     0.46      1011.0     2        16         3       358        8.46     267      265.4
   07/23/2016 09:40      89.2      87.5       26     49.5      0.00      0.00      87.1     0.46      1011.0     2        50         3        69        8.46     267      305.1
   07/23/2016 09:30      87.5      86.0       27     48.8      0.00      0.00      87.3     0.46      1010.0     2       345         3       306        8.46     267      286.3
   07/23/2016 09:20      85.9      84.3       28     48.7      0.00      0.00      87.4     0.46      1011.0     2       313         3       322        8.47     267      256.5
   07/23/2016 09:10      84.3      82.5       31     49.3      0.00      0.00      87.4     0.46      1011.0     2       283         3       282        8.47     267      230.1
   07/23/2016 09:00      82.5      80.5       34     50.2      0.00      0.00      87.3     0.46      1011.0     1       340         2       354        8.47     267      230.7
   07/23/2016 08:50      80.5      79.4       34     49.0      0.00      0.00      87.4     0.46      1011.0     1       336         1       332        8.47     267      109.8
   07/23/2016 08:40      79.6      78.6       36     49.6      0.00      0.00      87.5     0.46      1011.0     1        13         1        31        8.47     267       16.3
   07/23/2016 08:30      78.6      77.9       37     50.0      0.00      0.00      87.6     0.46      1011.0     1        75         2        71        8.47     267        7.8
   07/23/2016 08:20      77.9      76.9       39     50.1      0.00      0.00      87.7     0.46      1011.0     1         5         1        45        8.48     267        4.9
   07/23/2016 08:10      76.8      75.9       41     51.0      0.00      0.00      87.7     0.46      1011.0     1       343         2       311        8.47     267        0.7
   07/23/2016 08:00      75.8      74.2       41     49.5      0.00      0.00      87.5     0.47      1011.0     1        81         1       125        8.48     267        0.8
   07/23/2016 07:50      74.0      72.8       41     48.2      0.00      0.00      87.6     0.47      1011.0     0         0         1       160        8.48     267       -4.8
   07/23/2016 07:40      72.9      71.6       42     47.7      0.00      0.00      87.8     0.47      1011.0     1        14         1       335        8.48     267      -15.9
   07/23/2016 07:30      71.7      71.1       43     48.0      0.00      0.00      87.6     0.47      1011.0     1        77         1       124        8.48     267      -33.0
   07/23/2016 07:20      71.0      69.6       44     47.3      0.00      0.00      87.8     0.47      1011.0     2        73         3       131        8.48     267      -36.0
   07/23/2016 07:10      69.4      68.4       44     46.2      0.00      0.00      87.9     0.47      1011.0     1       170         2       143        8.48     267      -42.3
   07/23/2016 07:00      68.4      67.8       44     45.2      0.00      0.00      88.0     0.47      1011.0     1       153         2       147        8.48     267      -48.0
   07/23/2016 06:50      68.2      67.4       42     43.7      0.00      0.00      87.9     0.47      1010.0     1       200         1       163        8.48     267      -50.8
   07/23/2016 06:40      68.0      67.7       41     43.2      0.00      0.00      88.0     0.47      1010.0     1       139         2       125        8.48     267      -54.5
   07/23/2016 06:30      68.2      67.6       41     43.7      0.00      0.00      87.9     0.47      1010.0     1       157         2       146        8.49     266      -57.7
   07/23/2016 06:20      69.0      68.0       39     42.7      0.00      0.00      88.1     0.47      1010.0     1       206         2       257        8.49     266      -61.2
   07/23/2016 06:10      69.1      68.6       37     41.6      0.00      0.00      88.2     0.47      1010.0     1       287         1       239        8.49     266      -63.7
   07/23/2016 06:00      69.4      69.2       36     40.9      0.00      0.00      88.5     0.47      1010.0     1       184         1       195        8.49     266      -66.3
   07/23/2016 05:50      69.7      68.8       34     40.0      0.00      0.00      88.3     0.47      1010.0     2       180         2       136        8.49     266      -66.7
   07/23/2016 05:40      70.0      69.7       32     38.9      0.00      0.00      88.2     0.47      1010.0     1       207         2       190        8.49     266      -65.1
   07/23/2016 05:30      70.8      70.2       30     37.9      0.00      0.00      88.4     0.47      1010.0     1       167         2       135        8.49     266      -64.4
   07/23/2016 05:20      70.9      70.4       29     37.3      0.00      0.00      88.2     0.47      1010.0     1       260         1       352        8.49     266      -64.8
   07/23/2016 05:10      71.3      70.6       29     37.1      0.00      0.00      88.3     0.47      1010.0     1         2         1       350        8.49     266      -68.2
   07/23/2016 05:00      71.7      70.8       28     36.8      0.00      0.00      88.4     0.47      1010.0     1       121         1       125        8.49     266      -69.0
   07/23/2016 04:50      73.6      71.9       26     35.9      0.00      0.00      88.2     0.47      1010.0     2       118         3       135        8.49     266      -69.4
   07/23/2016 04:40      75.0      74.0       24     35.4      0.00      0.00      88.6     0.47      1010.0     1        82         1        82        8.50     266      -70.4
   07/23/2016 04:30      75.1      74.8       23     35.0      0.00      0.00      88.5     0.47      1009.0     2       142         3       125        8.50     266      -70.9
   07/23/2016 04:20      75.2      74.8       22     33.9      0.00      0.00      88.3     0.47      1009.0     2       133         3       137        8.50     266      -71.5
   07/23/2016 04:10      75.6      75.4       21     32.8      0.00      0.00      88.5     0.47      1010.0     2       137         3       148        8.50     266      -71.1
   07/23/2016 04:00      75.6      74.0       21     32.0      0.00      0.00      88.6     0.47      1010.0     3       142         3       142        8.50     266      -71.0
   07/23/2016 03:50      73.8      72.8       22     32.0      0.00      0.00      88.6     0.47      1010.0     3       143         4       154        8.50     266      -71.6
   07/23/2016 03:40      73.6      72.9       22     32.0      0.00      0.00      88.6     0.47      1010.0     2       148         3       159        8.50     266      -71.5
   07/23/2016 03:30      73.5      73.1       22     32.4      0.00      0.00      88.7     0.47      1010.0     2       154         3       146        8.50     266      -71.7
   07/23/2016 03:20      74.3      73.5       21     31.5      0.00      0.00      88.7     0.47      1010.0     1        90         3       241        8.50     266      -73.8
   07/23/2016 03:10      73.4      73.1       23     33.5      0.00      0.00      88.8     0.47      1010.0     3       156         4       132        8.50     266      -74.7
   07/23/2016 03:00      74.6      72.9       22     32.1      0.00      0.00      88.8     0.47      1010.0     2       140         4       134        8.50     266      -75.7
   07/23/2016 02:50      74.8      74.2       21     32.1      0.00      0.00      89.0     0.47      1010.0     1       179         3       119        8.50     266      -77.0
   07/23/2016 02:40      75.9      74.7       20     31.2      0.00      0.00      88.9     0.47      1010.0     1       131         2       140        8.51     266      -76.0
   07/23/2016 02:30      76.4      75.6       21     32.8      0.00      0.00      88.9     0.47      1010.0     1       296         2       317        8.51     266      -77.3
   07/23/2016 02:20      76.4      75.8       20     31.6      0.00      0.00      88.9     0.47      1010.0     1       178         3       143        8.51     266      -76.4
   07/23/2016 02:10      78.1      75.9       19     31.8      0.00      0.00      89.0     0.47      1010.0     2       129         3       147        8.51     265      -77.8
   07/23/2016 02:00      79.9      78.0       18     31.5      0.00      0.00      89.1     0.47      1010.0     2       144         2       171        8.51     266      -78.9
   07/23/2016 01:50      80.5      80.0       18     32.9      0.00      0.00      89.1     0.47      1010.0     3       248         5       292        8.51     265      -80.5
   07/23/2016 01:40      83.6      80.1       15     28.9      0.00      0.00      89.1     0.47      1010.0     2       142         4       322        8.51     265      -79.6
   07/23/2016 01:30      84.6      84.1       12     26.4      0.00      0.00      89.1     0.47      1010.0     2       211         2       276        8.51     265      -79.7
   07/23/2016 01:20      84.8      83.9       12     26.8      0.00      0.00      89.0     0.47      1010.0     3       130         5       120        8.52     266      -80.5
   07/23/2016 01:10      83.8      81.2       14     28.0      0.00      0.00      89.1     0.47      1010.0     3       126         5       128        8.52     266      -80.7
   07/23/2016 01:00      82.5      81.5       15     29.3      0.00      0.00      89.2     0.47      1010.0     2       137         5       130        8.52     265      -79.3
   07/23/2016 00:50      86.2      83.0       13     27.7      0.00      0.00      89.1     0.47      1010.0     3       150         5       136        8.52     266      -78.1
   07/23/2016 00:40      86.4      85.6       11     26.1      0.00      0.00      89.1     0.47      1010.0     1       139         1       276        8.52     265      -78.6
   07/23/2016 00:30      87.3      85.8       12     28.3      0.00      0.00      89.1     0.47      1011.0     2        52         3        73        8.52     265      -81.7
   07/23/2016 00:20      88.1      87.0       12     28.6      0.00      0.00      89.2     0.47      1011.0     3       357         8        23        8.52     265      -81.5
   07/23/2016 00:10      88.7      87.6       12     28.6      0.00      0.00      89.0     0.47      1011.0     3        31         5        36        8.52     266      -81.4
   07/23/2016 00:00      88.4      86.6       12     27.8      0.00      0.00      89.3     0.47      1011.0     3       352         5        40        8.53     265      -80.1
   07/22/2016 23:50      89.7      86.9       11     27.5      0.00      0.00      89.2     0.47      1011.0     1       170         3        83        8.53     265      -79.5
   07/22/2016 23:40      91.7      90.1        9     25.0      0.00      0.00      89.2     0.47      1011.0     3        38         6         2        8.53     265      -81.5
   07/22/2016 23:30      90.1      86.5       11     27.5      0.00      0.00      89.3     0.47      1011.0     3       359         5       344        8.53     265      -80.2
   07/22/2016 23:20      86.1      84.1       16     34.3      0.00      0.00      89.2     0.47      1011.0     2       316         4       333        8.54     265      -79.7
   07/22/2016 23:10      86.1      84.9       17     35.7      0.00      0.00      89.3     0.47      1011.0     2       114         2       134        8.54     265      -79.5
   07/22/2016 23:00      86.3      85.8       17     36.4      0.00      0.00      89.1     0.47      1011.0     1       107         2       116        8.54     265      -80.5
   07/22/2016 22:50      86.8      85.9       17     37.3      0.00      0.00      89.0     0.47      1011.0     1        93         3       113        8.54     265      -82.7
   07/22/2016 22:40      87.4      86.1       18     38.3      0.00      0.00      89.2     0.47      1011.0     3       106         4        83        8.54     265      -83.6
   07/22/2016 22:30      87.9      87.3       18     39.6      0.00      0.00      89.2     0.47      1011.0     2        71         5        14        8.54     265      -84.0
   07/22/2016 22:20      87.8      85.3       21     41.2      0.00      0.00      89.3     0.47      1011.0     2        55         4       309        8.55     265      -84.1
   07/22/2016 22:10      85.8      85.1       25     45.6      0.00      0.00      89.1     0.47      1011.0     2       152         3       144        8.55     265      -85.4
   07/22/2016 22:00      86.8      85.8       25     46.2      0.00      0.00      89.0     0.47      1011.0     2       131         3       132        8.55     265      -85.4
   07/22/2016 21:50      87.1      85.8       27     48.2      0.00      0.00      89.1     0.47      1011.0     2       102         3       138        8.55     265      -86.1
   07/22/2016 21:40      87.0      86.3       27     48.4      0.00      0.00      89.3     0.47      1010.0     2       156         2       233        8.56     265      -86.6
   07/22/2016 21:30      87.2      86.8       29     51.0      0.00      0.00      89.1     0.47      1010.0     2       162         3       126        8.56     265      -87.9
   07/22/2016 21:20      87.7      87.5       28     50.8      0.00      0.00      89.0     0.47      1010.0     2       158         3       133        8.56     265      -87.9
   07/22/2016 21:10      88.4      87.7       28     51.1      0.00      0.00      89.1     0.47      1010.0     1       167         2       153        8.57     265      -88.4
   07/22/2016 21:00      89.3      88.4       29     52.2      0.00      0.00      89.1     0.47      1010.0     2       134         3       137        8.58     265      -89.4
   07/22/2016 20:50      89.6      89.0       28     51.6      0.00      0.00      89.1     0.46      1010.0     1       183         3       190        8.58     265      -90.0
   07/22/2016 20:40      90.4      89.6       27     51.6      0.00      0.00      89.0     0.46      1010.0     1       143         2       133        8.59     265      -91.2
   07/22/2016 20:30      91.2      90.5       26     51.2      0.00      0.00      88.8     0.46      1010.0     1       185         1       158        8.59     264      -93.0
   07/22/2016 20:20      93.1      91.4       25     51.7      0.00      0.00      88.9     0.46      1010.0     1       153         2       138        8.60     264      -93.7
   07/22/2016 20:10      95.8      93.2       23     51.4      0.00      0.00      88.8     0.46      1010.0     1       114         2       130        8.60     264      -95.3
   07/22/2016 20:00      97.8      96.3       22     51.4      0.00      0.00      88.8     0.46      1010.0     0        85         1       200        8.60     264      -95.6
   07/22/2016 19:50     100.2      98.3       20     51.3      0.00      0.00      88.9     0.46      1010.0     1        33         2        70        8.61     264      -94.8
   07/22/2016 19:40     101.2     100.2       19     51.6      0.00      0.00      88.7     0.46      1010.0     1        83         3        76        8.61     264      -86.3
   07/22/2016 19:30     102.6     101.5       16     47.9      0.00      0.00      88.6     0.46      1010.0     1        55         3        67        8.61     264      -74.9
   07/22/2016 19:20     103.0     102.4       15     46.2      0.00      0.00      88.9     0.46      1010.0     2       316         4       312        8.61     264      -59.0
   07/22/2016 19:10     103.6     103.3       16     48.5      0.00      0.00      88.6     0.46      1010.0     2       333         4       352        8.62     264      -38.4
   07/22/2016 19:00     103.6     103.0       17     50.6      0.00      0.00      88.6     0.46      1010.0     2       349         2       352        8.62     264      -16.6
   07/22/2016 18:50     103.9     103.2       14     44.9      0.00      0.00      88.4     0.46      1010.0     4       329         6       293        8.63     264        3.6
   07/22/2016 18:40     104.1     103.8       13     43.8      0.00      0.00      88.3     0.46      1010.0     4       295         6       320        8.63     264       22.6
   07/22/2016 18:30     104.4     103.8       13     43.6      0.00      0.00      88.4     0.46      1009.0     5       282         7       302        8.64     264       44.2
   07/22/2016 18:20     104.1     103.7       13     44.1      0.00      0.00      88.3     0.46      1009.0     5       294         9       295        8.65     264       68.0
   07/22/2016 18:10     104.6     104.2       14     45.1      0.00      0.00      88.2     0.46      1009.0     6       309        11       303        8.66     264       91.2
   07/22/2016 18:00     105.0     104.5       14     45.9      0.00      0.00      88.1     0.46      1009.0     6       304         8       306        8.67     264      111.1
   07/22/2016 17:50     106.2     104.9       14     46.0      0.00      0.00      88.1     0.46      1009.0     6       286        10       291        8.68     264      136.7
   07/22/2016 17:40     106.8     106.2       13     45.9      0.00      0.00      87.9     0.46      1010.0     6       291         7       301        8.69     264      157.5
   07/22/2016 17:30     107.7     106.3       13     45.8      0.00      0.00      87.9     0.46      1010.0     6       308         9       262        8.69     264      178.2
   07/22/2016 17:20     108.6     107.6       12     45.3      0.00      0.00      87.7     0.46      1010.0     6       315        11       294        8.70     264      202.8
   07/22/2016 17:10     109.1     108.4       12     44.8      0.00      0.00      87.6     0.46      1010.0     6       314         9       314        8.70     264      225.1
   07/22/2016 17:00     108.9     108.2       11     42.3      0.00      0.00      87.6     0.46      1010.0     6       274         9       280        8.71     264      247.4
   07/22/2016 16:50     108.6     108.0       11     41.7      0.00      0.00      87.5     0.46      1010.0     6       286         9       279        8.72     264      266.6
   07/22/2016 16:40     109.3     108.3       10     39.9      0.00      0.00      87.5     0.46      1010.0     6       260        10       259        8.73     264      288.6
   07/22/2016 16:30     108.2     107.6        9     38.4      0.00      0.00      87.5     0.46      1010.0     7       240        10       229        8.74     264      310.5
   07/22/2016 16:20     108.5     107.8        9     38.4      0.00      0.00      87.2     0.46      1010.0     7       231        10       217        8.75     264      326.1
   07/22/2016 16:10     108.8     107.6        9     38.2      0.00      0.00      87.1     0.46      1010.0     5       231         8       190        8.76     264      342.7
   07/22/2016 16:00     109.0     108.0       10     38.8      0.00      0.00      87.2     0.45      1010.0     5       259         9       248        8.77     264      358.7
   07/22/2016 15:50     109.5     108.6       10     39.2      0.00      0.00      87.1     0.46      1010.0     6       251        10       294        8.78     265      376.0
   07/22/2016 15:40     109.3     108.8       10     40.9      0.00      0.00      86.7     0.45      1011.0     6       308        10       318        8.78     265      389.2
   07/22/2016 15:30     109.4     108.3       10     40.9      0.00      0.00      86.9     0.45      1011.0     6       309        10       293        8.79     265      402.9
   07/22/2016 15:20     109.9     108.3       10     41.2      0.00      0.00      86.7     0.45      1011.0     6       319         8       300        8.79     265      416.7
   07/22/2016 15:10     109.6     108.3       11     42.5      0.00      0.00      86.6     0.45      1011.0     6       320         9       310        8.80     265      429.2
   07/22/2016 15:00     109.6     108.0       11     43.5      0.00      0.00      86.5     0.45      1011.0     7       321        11       302        8.80     265      439.7
   07/22/2016 14:50     109.4     108.7       11     44.1      0.00      0.00      86.5     0.45      1011.0     5       318         7       350        8.80     265      451.5
   07/22/2016 14:40     111.0     109.2       12     45.8      0.00      0.00      86.3     0.45      1011.0     5       324        10       325        8.81     266      462.4
   07/22/2016 14:30     111.0     108.8       12     46.5      0.00      0.00      86.3     0.45      1011.0     5       325        10       301        8.81     266      467.4
   07/22/2016 14:20     109.3     108.2       13     47.0      0.00      0.00      86.2     0.45      1011.0     4        71         7        74        8.81     266      482.6
   07/22/2016 14:10     109.1     108.1       15     50.1      0.00      0.00      86.1     0.45      1011.0     4        24         6         1        8.81     267      488.0
   07/22/2016 14:00     108.3     107.2       15     49.9      0.00      0.00      86.2     0.45      1012.0     4        43         7        83        8.82     267      496.8
   07/22/2016 13:50     108.4     107.2       15     50.0      0.00      0.00      86.0     0.45      1012.0     4        22         7       349        8.82     267      500.5
   07/22/2016 13:40     108.7     107.5       13     47.3      0.00      0.00      85.8     0.45      1012.0     4        26         6        17        8.82     267      507.8
   07/22/2016 13:30     108.6     107.6       14     48.0      0.00      0.00      85.9     0.45      1012.0     4        39         7        59        8.82     267      513.8
   07/22/2016 13:20     108.7     107.6       13     47.5      0.00      0.00      86.1     0.45      1012.0     3        37         5        63        8.82     267      515.4
   07/22/2016 13:10     108.6     107.8       13     47.4      0.00      0.00      85.9     0.45      1012.0     4        33         5        22        8.83     267      520.3
   07/22/2016 13:00     108.5     106.8       13     46.0      0.00      0.00      85.7     0.45      1013.0     3        62         5        76        8.83     267      521.3
   07/22/2016 12:50     106.6     105.6       13     45.2      0.00      0.00      85.8     0.45      1013.0     4        43         7        17        8.83     267      528.2
   07/22/2016 12:40     106.7     106.2       11     42.0      0.00      0.00      85.6     0.45      1013.0     3        64         5        89        8.83     266      521.9
   07/22/2016 12:30     107.0     104.8       12     42.1      0.00      0.00      85.9     0.45      1013.0     2        65         4        53        8.83     267      522.1
   07/22/2016 12:20     104.9     103.6       12     41.8      0.00      0.00      85.7     0.45      1013.0     4       231         7       252        8.83     267      524.4
   07/22/2016 12:10     104.9     103.6       12     41.7      0.00      0.00      85.7     0.45      1013.0     3       247         6       308        8.83     267      519.9
   07/22/2016 12:00     105.1     103.4       13     44.1      0.00      0.00      85.8     0.45      1013.0     3       307         6       229        8.83     267      513.0
   07/22/2016 11:50     103.3     101.3       14     43.9      0.00      0.00      85.5     0.45      1014.0     3        22         4        17        8.83     267      509.6
   07/22/2016 11:40     101.8     101.3       14     43.9      0.00      0.00      85.5     0.45      1014.0     2       156         4       136        8.83     267      504.8
   07/22/2016 11:30     101.5     100.7       16     46.2      0.00      0.00      85.7     0.45      1014.0     3       352         4       334        8.83     268      495.8
   07/22/2016 11:20     101.3      99.0       16     46.7      0.00      0.00      85.8     0.45      1014.0     3         2         4       304        8.83     267      488.1
   07/22/2016 11:10      99.3      98.4       18     48.8      0.00      0.00      85.6     0.45      1014.0     2       106         4        31        8.83     268      481.3
   07/22/2016 11:00      99.2      97.6       20     50.0      0.00      0.00      85.7     0.45      1014.0     2        11         3       340        8.84     268      468.5
   07/22/2016 10:50      97.2      96.0       21     50.0      0.00      0.00      85.6     0.45      1014.0     2         5         4        12        8.84     269      459.4
   07/22/2016 10:40      97.0      94.2       22     50.2      0.00      0.00      85.8     0.45      1014.0     3         0         5       336        8.84     269      447.8
   07/22/2016 10:30      94.5      93.0       23     49.8      0.00      0.00      85.9     0.45      1014.0     3       353         3       341        8.84     268      436.0
   07/22/2016 10:20      92.7      92.1       23     49.4      0.00      0.00      86.0     0.45      1014.0     2       297         4       290        8.84     269      422.8
   07/22/2016 10:10      92.5      90.7       24     49.2      0.00      0.00      85.8     0.45      1014.0     2        33         2       341        8.84     269      408.5
   07/22/2016 10:00      91.2      90.0       24     49.4      0.00      0.00      85.9     0.46      1015.0     2       355         3       329        8.84     269      395.6
   07/22/2016 09:50      89.7      89.2       27     50.9      0.00      0.00      86.0     0.46      1015.0     2         6         3        10        8.84     269      379.6
   07/22/2016 09:40      89.2      88.3       28     51.3      0.00      0.00      86.1     0.46      1015.0     2        27         4        16        8.84     269      365.8
   07/22/2016 09:30      88.3      86.4       29     51.3      0.00      0.00      86.1     0.46      1015.0     1       356         2        25        8.84     269      350.6
   07/22/2016 09:20      86.4      85.7       31     51.8      0.00      0.00      86.1     0.46      1015.0     3       342         5       348        8.84     269      337.4
   07/22/2016 09:10      85.7      84.4       32     51.7      0.00      0.00      85.8     0.46      1015.0     2        20         3        13        8.85     269      329.0
   07/22/2016 09:00      84.2      82.1       34     52.0      0.00      0.00      86.3     0.46      1015.0     2       344         3         9        8.85     269      335.4
   07/22/2016 08:50      82.0      81.0       36     52.3      0.00      0.00      86.3     0.46      1015.0     2         7         4         0        8.85     269      179.7
   07/22/2016 08:40      81.0      79.9       39     53.0      0.00      0.00      86.2     0.46      1015.0     2       356         3         2        8.85     269      -41.1
   07/22/2016 08:30      80.1      79.3       41     53.8      0.00      0.00      86.3     0.46      1015.0     2       354         3       333        8.85     269      -36.0
   07/22/2016 08:20      79.2      78.2       43     54.4      0.00      0.00      86.2     0.46      1015.0     2         5         3       349        8.85     269      -31.6
   07/22/2016 08:10      78.3      77.3       46     55.1      0.00      0.00      86.4     0.46      1015.0     2        23         2        27        8.85     269      -36.8
   07/22/2016 08:00      77.4      75.8       47     54.8      0.00      0.00      86.4     0.46      1015.0     2        53         2        25        8.85     269      -12.5
   07/22/2016 07:50      75.7      74.6       47     53.5      0.00      0.00      86.4     0.46      1015.0     2        47         3        24        8.85     269      -34.4
   07/22/2016 07:40      74.5      73.3       48     53.1      0.00      0.00      86.4     0.46      1014.0     1        31         2        34        8.85     269      -34.5
   07/22/2016 07:30      73.5      72.3       49     52.8      0.00      0.00      86.4     0.46      1014.0     0       357         1        27        8.85     269      -36.6
   07/22/2016 07:20      72.3      71.1       50     52.3      0.00      0.00      86.5     0.47      1014.0     1        37         1        16        8.85     269      -32.5
   07/22/2016 07:10      70.7      69.3       52     51.6      0.00      0.00      86.6     0.47      1014.0     1       191         2        25        8.86     269      -38.1
   07/22/2016 07:00      69.3      68.3       55     51.8      0.00      0.00      86.9     0.47      1014.0     1       177         1       194        8.86     269      -43.7
   07/22/2016 06:50      68.3      67.3       58     52.4      0.00      0.00      86.5     0.47      1014.0     1       120         2       159        8.86     269      -46.4
   07/22/2016 06:40      67.5      67.1       58     51.8      0.00      0.00      86.6     0.47      1014.0     1        62         1       116        8.86     269      -52.1
   07/22/2016 06:30      67.1      66.5       58     51.5      0.00      0.00      86.9     0.47      1014.0     0       173         1       186        8.86     269      -53.6
   07/22/2016 06:20      66.6      66.0       58     51.0      0.00      0.00      86.8     0.47      1014.0     1       147         2       125        8.86     269      -51.2
   07/22/2016 06:10      66.4      66.0       57     50.5      0.00      0.00      86.8     0.47      1014.0     1       124         1       130        8.86     268      -55.9
   07/22/2016 06:00      66.5      66.0       56     50.3      0.00      0.00      87.0     0.47      1014.0     1       264         2       301        8.86     269      -57.9
   07/22/2016 05:50      66.1      65.8       59     51.3      0.00      0.00      87.0     0.47      1014.0     1       119         1       135        8.86     268      -60.6
   07/22/2016 05:40      66.3      66.0       57     50.8      0.00      0.00      87.0     0.47      1014.0     1       115         2       102        8.86     268      -62.5
   07/22/2016 05:30      66.7      66.3       57     51.0      0.00      0.00      87.0     0.47      1014.0     1       147         2       137        8.86     268      -62.2
   07/22/2016 05:20      67.1      66.8       57     51.3      0.00      0.00      87.0     0.47      1013.0     2       151         3       133        8.86     268      -62.8
   07/22/2016 05:10      67.3      66.8       57     51.5      0.00      0.00      87.3     0.47      1013.0     1       156         3       143        8.86     268      -63.2
   07/22/2016 05:00      67.3      67.0       57     51.3      0.00      0.00      87.0     0.47      1013.0     1       172         2       148        8.87     268      -63.0
   07/22/2016 04:50      67.4      67.3       57     51.6      0.00      0.00      87.2     0.47      1013.0     1       167         2       131        8.87     268      -63.4
   07/22/2016 04:40      68.0      67.4       56     51.3      0.00      0.00      87.3     0.47      1013.0     1       157         2       141        8.87     268      -63.7
   07/22/2016 04:30      68.4      68.0       53     50.7      0.00      0.00      87.3     0.47      1013.0     2       148         2       145        8.87     268      -63.7
   07/22/2016 04:20      68.8      68.2       52     50.3      0.00      0.00      87.3     0.47      1013.0     1       209         2       206        8.87     268      -62.9
   07/22/2016 04:10      68.5      68.2       54     50.9      0.00      0.00      87.6     0.47      1013.0     1       160         1       180        8.87     268      -64.0
   07/22/2016 04:00      68.5      68.2       54     51.0      0.00      0.00      87.4     0.47      1013.0     1       152         2       162        8.87     268      -64.2
   07/22/2016 03:50      69.0      68.5       53     50.6      0.00      0.00      87.2     0.47      1013.0     2       129         2       115        8.88     268      -64.3
   07/22/2016 03:40      69.4      69.1       53     51.2      0.00      0.00      87.3     0.47      1013.0     1        94         1       116        8.88     268      -64.3
   07/22/2016 03:30      69.9      69.4       52     51.3      0.00      0.00      87.4     0.47      1013.0     1       126         1       123        8.88     268      -64.3
   07/22/2016 03:20      70.5      70.1       50     50.9      0.00      0.00      87.5     0.47      1013.0     1       152         1       128        8.88     268      -64.0
   07/22/2016 03:10      70.5      70.3       50     51.1      0.00      0.00      87.5     0.47      1013.0     1       230         2       193        8.89     268      -64.1
   07/22/2016 03:00      70.6      70.2       52     52.2      0.00      0.00      87.7     0.47      1013.0     1       186         2       190        8.89     268      -64.8
   07/22/2016 02:50      70.7      70.4       53     52.3      0.00      0.00      87.6     0.47      1013.0     1       166         2       131        8.89     268      -65.3
   07/22/2016 02:40      71.5      70.8       51     52.2      0.00      0.00      87.5     0.47      1013.0     1       146         2       121        8.89     267      -65.7
   07/22/2016 02:30      71.6      71.2       51     52.2      0.00      0.00      87.8     0.47      1013.0     1       232         1       226        8.89     267      -64.7
   07/22/2016 02:20      71.5      71.2       50     51.8      0.00      0.00      87.7     0.47      1013.0     1       209         1       204        8.90     267      -64.8
   07/22/2016 02:10      71.8      71.2       48     51.1      0.00      0.00      87.8     0.47      1013.0     1       155         2       136        8.90     267      -65.5
   07/22/2016 02:00      72.0      71.7       48     50.9      0.00      0.00      87.8     0.47      1013.0     1       272         1       253        8.90     267      -65.2
   07/22/2016 01:50      72.2      71.9       48     51.2      0.00      0.00      87.9     0.47      1014.0     1       145         2       124        8.90     267      -65.7
   07/22/2016 01:40      72.5      71.9       47     50.8      0.00      0.00      87.8     0.47      1014.0     1       146         2       138        8.90     267      -66.2
   07/22/2016 01:30      72.9      72.5       46     50.5      0.00      0.00      87.9     0.47      1014.0     1       133         2       127        8.90     267      -66.8
   07/22/2016 01:20      73.8      73.2       44     50.3      0.00      0.00      88.1     0.47      1014.0     1       134         2       126        8.90     267      -67.0
   07/22/2016 01:10      73.8      73.4       44     50.3      0.00      0.00      87.9     0.47      1014.0     1       153         1       129        8.90     267      -66.8
   07/22/2016 01:00      74.2      73.7       43     50.1      0.00      0.00      88.0     0.47      1014.0     1        90         2       314        8.90     267      -68.2
   07/22/2016 00:50      74.7      74.3       43     50.3      0.00      0.00      88.0     0.47      1014.0     1       127         3       139        8.90     267      -68.2
   07/22/2016 00:40      75.2      74.7       42     50.2      0.00      0.00      88.0     0.47      1014.0     1       146         2       127        8.90     267      -68.7
   07/22/2016 00:30      75.7      75.0       41     49.9      0.00      0.00      88.1     0.47      1014.0     1       141         2       116        8.90     267      -68.7
   07/22/2016 00:20      75.9      75.4       41     50.2      0.00      0.00      88.0     0.47      1014.0     2       137         3       136        8.91     267      -69.0
   07/22/2016 00:10      75.5      75.3       42     50.4      0.00      0.00      87.9     0.47      1014.0     1       161         2       199        8.91     267      -69.3
   07/22/2016 00:00      75.8      75.5       42     50.7      0.00      0.00      88.0     0.47      1014.0     1       153         2       161        8.91     267      -69.9
   07/21/2016 23:50      76.4      75.6       40     50.1      0.00      0.00      87.9     0.47      1014.0     2       143         3       139        8.91     266      -70.4
   07/21/2016 23:40      77.0      76.5       38     49.5      0.00      0.00      88.1     0.47      1014.0     1       188         2       240        8.91     266      -70.8
   07/21/2016 23:30      77.5      77.1       38     49.5      0.00      0.00      88.1     0.47      1014.0     1       195         2       155        8.91     266      -71.7
   07/21/2016 23:20      78.1      77.5       37     49.2      0.00      0.00      88.2     0.47      1014.0     1       175         2       197        8.91     266      -72.1
   07/21/2016 23:10      78.3      77.7       36     49.2      0.00      0.00      88.0     0.47      1014.0     1       152         2       162        8.91     266      -72.6
   07/21/2016 23:00      79.0      78.4       35     48.7      0.00      0.00      88.0     0.47      1014.0     1       149         1       149        8.91     266      -73.5
   07/21/2016 22:50      79.4      78.9       35     48.8      0.00      0.00      88.0     0.47      1014.0     1       143         2       147        8.92     266      -74.2
   07/21/2016 22:40      81.1      79.7       33     48.6      0.00      0.00      88.1     0.47      1014.0     2       197         2       225        8.92     266      -74.5
   07/21/2016 22:30      81.9      80.7       33     49.0      0.00      0.00      88.2     0.47      1014.0     1       229         2       223        8.92     266      -76.4
   07/21/2016 22:20      82.1      81.8       32     49.5      0.00      0.00      88.1     0.47      1014.0     2         3         3         3        8.92     266      -79.3
   07/21/2016 22:10      81.9      81.4       32     49.3      0.00      0.00      88.0     0.47      1014.0     2       174         3       177        8.92     266      -79.5
   07/21/2016 22:00      82.2      81.9       32     49.3      0.00      0.00      88.0     0.47      1014.0     4       166         5       161        8.92     266      -80.8
   07/21/2016 21:50      82.7      82.0       31     48.6      0.00      0.00      88.3     0.47      1014.0     4       184         5       182        8.92     266      -81.3
   07/21/2016 21:40      82.3      81.3       30     47.6      0.00      0.00      88.0     0.47      1014.0     2       148         4       187        8.92     266      -82.2
   07/21/2016 21:30      83.5      82.5       29     47.1      0.00      0.00      87.8     0.46      1014.0     1       108         2        36        8.93     265      -84.1
   07/21/2016 21:20      84.7      83.8       28     47.3      0.00      0.00      88.0     0.46      1014.0     2        83         2        89        8.93     265      -86.8
   07/21/2016 21:10      85.2      84.8       27     47.1      0.00      0.00      88.1     0.46      1013.0     3       207         6       174        8.93     265      -89.2
   07/21/2016 21:00      85.8      85.3       26     46.6      0.00      0.00      88.1     0.46      1013.0     3       199         5       230        8.93     265      -91.8
   07/21/2016 20:50      86.0      85.6       25     46.4      0.00      0.00      87.9     0.46      1013.0     3       214         7       213        8.94     265      -93.7
   07/21/2016 20:40      86.9      86.1       24     45.7      0.00      0.00      87.9     0.46      1013.0     4       223         6       217        8.94     265      -95.7
   07/21/2016 20:30      87.8      87.2       23     45.0      0.00      0.00      87.9     0.46      1013.0     4       236         6       244        8.95     265      -96.8
   07/21/2016 20:20      88.4      87.8       23     45.3      0.00      0.00      87.7     0.46      1013.0     4       232         5       245        8.95     265      -98.1
   07/21/2016 20:10      89.4      88.6       22     45.4      0.00      0.00      87.9     0.46      1013.0     3       238         6       228        8.96     265      -98.8
   07/21/2016 20:00      90.7      89.5       21     45.3      0.00      0.00      87.7     0.46      1013.0     3       292         7       274        8.96     265      -98.1
   07/21/2016 19:50      92.2      91.1       21     45.8      0.00      0.00      87.5     0.46      1013.0     4       279         7       262        8.97     265      -95.2
   07/21/2016 19:40      93.2      92.3       21     47.3      0.00      0.00      87.5     0.46      1013.0     5       281         7       289        8.97     264      -84.4
   07/21/2016 19:30      94.1      93.2       21     47.4      0.00      0.00      87.7     0.46      1013.0     5       251         9       259        8.98     264      -70.4
   07/21/2016 19:20      94.8      94.0       19     46.2      0.00      0.00      87.5     0.46      1012.0     5       272         7       247        8.98     264      -52.3
   07/21/2016 19:10      95.9      94.6       18     45.5      0.00      0.00      87.4     0.46      1012.0     4       266         7       307        8.99     264      -33.2
   07/21/2016 19:00      97.7      96.4       17     44.5      0.00      0.00      87.4     0.46      1012.0     4       273         8       288        8.99     264      -14.7
   07/21/2016 18:50      98.8      97.8       13     39.9      0.00      0.00      87.5     0.46      1012.0     4       274         7       276        8.99     264        6.6
   07/21/2016 18:40      99.1      98.6       10     33.3      0.00      0.00      87.4     0.46      1012.0     5       246         8       256        9.00     264       28.4
   07/21/2016 18:30     100.3      99.5       11     35.4      0.00      0.00      87.3     0.46      1012.0     5       234         7       243        9.01     264       49.3
   07/21/2016 18:20     100.4      99.9       12     38.6      0.00      0.00      87.5     0.46      1012.0     4       233         6       235        9.01     265       71.3
   07/21/2016 18:10     100.3     100.0       12     38.3      0.00      0.00      87.2     0.46      1012.0     5       226         7       198        9.02     265       94.5
   07/21/2016 18:00     101.2     100.4       12     38.9      0.00      0.00      87.1     0.46      1012.0     5       218         8       228        9.03     264      116.7
   07/21/2016 17:50     101.9     100.7       12     39.2      0.00      0.00      87.1     0.46      1012.0     4       240         6       231        9.04     265      138.5
   07/21/2016 17:40     101.9     101.3       12     39.1      0.00      0.00      87.1     0.46      1012.0     4       283         8       245        9.04     265      159.9
   07/21/2016 17:30     102.2     101.7       11     37.9      0.00      0.00      86.8     0.46      1012.0     4       295         8       310        9.05     265      183.1
   07/21/2016 17:20     102.2     101.6       11     38.0      0.00      0.00      87.1     0.46      1012.0     7       316         9       315        9.05     265      206.5
   07/21/2016 17:10     102.9     101.8       12     39.3      0.00      0.00      86.7     0.46      1012.0     6       302        10       286        9.06     265      228.0
   07/21/2016 17:00     103.2     102.1       12     40.0      0.00      0.00      86.6     0.46      1012.0     6       317         7       281        9.06     265      248.9
   07/21/2016 16:50     102.8     101.8       13     41.5      0.00      0.00      86.3     0.46      1012.0     4       321         7       319        9.06     265      271.3
   07/21/2016 16:40     102.1     101.3       13     41.6      0.00      0.00      86.6     0.46      1012.0     7       299        12       303        9.06     265      292.7
   07/21/2016 16:30     102.1     101.5       13     41.7      0.00      0.00      86.4     0.46      1013.0     6       313         9       346        9.06     265      312.5
   07/21/2016 16:20     102.7     101.6       13     42.6      0.00      0.00      86.3     0.46      1013.0     7       289        12       317        9.06     265      330.3
   07/21/2016 16:10     102.5     101.6       14     43.9      0.00      0.00      86.2     0.46      1013.0     6       314        11       319        9.06     265      348.4
   07/21/2016 16:00     103.0     101.4       15     46.0      0.00      0.00      86.1     0.46      1013.0     8       300        12       301        9.06     265      366.0
   07/21/2016 15:50     104.1     102.8       15     47.2      0.00      0.00      86.1     0.46      1013.0     7       284        12       305        9.06     265      380.5
   07/21/2016 15:40     104.5     103.6       14     44.6      0.00      0.00      85.7     0.45      1013.0     6       278        10       249        9.06     265      392.0
   07/21/2016 15:30     104.2     103.6       12     41.1      0.00      0.00      85.9     0.45      1013.0     4       194         7       144        9.06     266      403.7
   07/21/2016 15:20     104.5     103.8       12     41.0      0.00      0.00      85.9     0.45      1013.0     3       195         8       249        9.06     266      416.0
   07/21/2016 15:10     105.5     103.8       12     41.8      0.00      0.00      85.6     0.45      1013.0     3       232         6       187        9.06     265      427.9
   07/21/2016 15:00     105.1     103.6       12     41.5      0.00      0.00      85.6     0.45      1013.0     3       144         5       243        9.06     265      441.8
   07/21/2016 14:50     105.5     103.8       11     39.7      0.00      0.00      85.5     0.45      1013.0     4        69         5        81        9.06     266      453.5
   07/21/2016 14:40     104.3     102.7       11     38.9      0.00      0.00      85.6     0.45      1013.0     4        81         6        74        9.06     266      467.6
   07/21/2016 14:30     103.9     103.2       11     39.7      0.00      0.00      85.5     0.45      1013.0     5        94         7        60        9.06     266      477.1
   07/21/2016 14:20     103.9     102.8       12     40.9      0.00      0.00      85.1     0.45      1013.0     4        52         6        83        9.06     267      484.5
   07/21/2016 14:10     104.4     103.2       13     42.9      0.00      0.00      85.1     0.45      1013.0     4        71         7        76        9.06     267      494.6
   07/21/2016 14:00     103.0     102.3       14     43.9      0.00      0.00      85.2     0.45      1013.0     4        80         6        87        9.06     267      502.2
   07/21/2016 13:50     103.8     103.4       14     44.8      0.00      0.00      85.1     0.45      1014.0     5        31         8        61        9.06     267      503.8
   07/21/2016 13:40     103.6     102.1       14     44.9      0.00      0.00      85.1     0.45      1014.0     4        22         7        70        9.06     267      510.7
   07/21/2016 13:30     102.9     101.6       14     44.2      0.00      0.00      84.9     0.45      1014.0     4        58         7        90        9.06     267      513.6
   07/21/2016 13:20     102.8     101.6       14     43.3      0.00      0.00      84.9     0.45      1014.0     3        99         5       161        9.06     267      520.9
   07/21/2016 13:10     103.6     101.6       14     43.4      0.00      0.00      85.0     0.45      1014.0     4       122         6       158        9.06     267      524.3
   07/21/2016 13:00     102.9     101.9       13     43.0      0.00      0.00      84.7     0.45      1014.0     5        62         7        75        9.06     267      524.6
   07/21/2016 12:50     102.0     100.1       14     42.7      0.00      0.00      84.8     0.45      1014.0     4        20         7       345        9.06     267      526.9
   07/21/2016 12:40     100.4      99.9       15     43.4      0.00      0.00      84.7     0.45      1014.0     3       350         7         4        9.06     267      526.3
   07/21/2016 12:30     100.5      99.6       14     42.5      0.00      0.00      84.7     0.45      1014.0     3         9         5         4        9.06     268      523.8
   07/21/2016 12:20     100.6      98.7       16     45.2      0.00      0.00      84.8     0.45      1014.0     4       348         5        67        9.06     268      523.5
   07/21/2016 12:10      99.6      98.9       16     45.6      0.00      0.00      84.9     0.45      1015.0     4       323         5       307        9.06     268      518.4
   07/21/2016 12:00      99.9      99.0       17     46.3      0.00      0.00      84.8     0.45      1015.0     4         3         7       329        9.06     268      514.8
   07/21/2016 11:50      98.6      96.4       18     46.1      0.00      0.00      84.6     0.45      1015.0     2       116         4       154        9.06     268      513.9
   07/21/2016 11:40      96.7      95.6       17     44.5      0.00      0.00      84.7     0.45      1015.0     2        78         4       138        9.06     268      506.6
   07/21/2016 11:30      96.5      95.4       16     43.4      0.00      0.00      84.7     0.45      1015.0     3       323         5       357        9.06     269      497.2
   07/21/2016 11:20      95.9      94.1       18     45.5      0.00      0.00      84.8     0.45      1015.0     2       328         3       339        9.06     269      490.7
   07/21/2016 11:10      94.1      93.0       20     47.0      0.00      0.00      84.7     0.45      1015.0     3       346         4       339        9.06     269      484.5
   07/21/2016 11:00      94.1      92.5       21     48.0      0.00      0.00      84.9     0.45      1015.0     2       342         3       317        9.06     270      474.6
   07/21/2016 10:50      92.7      91.8       22     48.4      0.00      0.00      84.9     0.45      1015.0     2       339         3       298        9.06     270      464.8
   07/21/2016 10:40      92.0      90.8       24     49.0      0.00      0.00      85.1     0.45      1015.0     2        18         3         5        9.06     270      452.4
   07/21/2016 10:30      91.0      89.9       24     49.1      0.00      0.00      84.7     0.45      1015.0     2        98         4        26        9.06     270      440.4
   07/21/2016 10:20      89.9      89.4       25     48.9      0.00      0.00      85.0     0.46      1015.0     2        18         3        31        8.89     271      425.2
   07/21/2016 10:10      89.9      87.8       25     49.1      0.00      0.00      85.0     0.46      1015.0     2         5         4        77        8.20     271      412.7
   07/21/2016 10:00      87.9      87.5       26     49.0      0.00      0.00      85.2     0.46      1015.0     2        33         5        81        8.21     270      396.3
   07/21/2016 09:50      87.6      86.8       27     49.2      0.00      0.00      85.1     0.46      1015.0     2        12         4       354        8.21     271      380.8
   07/21/2016 09:40      87.0      85.3       29     49.8      0.00      0.00      85.1     0.46      1015.0     2        14         3         3        8.21     270      364.3
   07/21/2016 09:30      85.2      83.9       30     49.6      0.00      0.00      85.1     0.46      1015.0     2        69         3        39        8.21     270      347.9
   07/21/2016 09:20      83.9      83.0       31     49.6      0.00      0.00      85.3     0.46      1015.0     2        40         4        57        8.21     271      334.4
   07/21/2016 09:10      82.8      81.2       34     50.7      0.00      0.00      85.3     0.46      1015.0     2        38         3       342        8.21     271      326.1
   07/21/2016 09:00      81.1      79.1       37     51.4      0.00      0.00      85.2     0.46      1015.0     2        19         3        59        8.22     271      332.9
   07/21/2016 08:50      78.7      77.0       41     51.9      0.00      0.00      85.3     0.46      1015.0     1        12         2        12        8.25     271      165.6
   07/21/2016 08:40      77.0      76.2       42     51.5      0.00      0.00      85.4     0.46      1015.0     1       353         2       346        8.26     271      -43.4
   07/21/2016 08:30      76.2      75.2       44     52.2      0.00      0.00      85.5     0.46      1015.0     1       265         2       254        8.26     271      -39.2
   07/21/2016 08:20      75.0      74.0       45     52.1      0.00      0.00      85.5     0.46      1015.0     1         6         2        40        8.26     271      -32.8
   07/21/2016 08:10      74.0      73.2       46     51.6      0.00      0.00      85.4     0.46      1015.0     1       313         2       318        8.27     271      -38.2
   07/21/2016 08:00      73.1      72.0       48     51.8      0.00      0.00      85.6     0.46      1015.0     1       309         2       354        8.27     270        1.1
   07/21/2016 07:50      72.0      71.2       51     52.3      0.00      0.00      85.7     0.46      1015.0     1       304         1       278        8.27     270      -34.7
   07/21/2016 07:40      71.2      70.1       52     52.1      0.00      0.00      85.7     0.47      1015.0     1         2         2        19        8.27     271      -36.4
   07/21/2016 07:30      70.1      69.1       53     51.9      0.00      0.00      85.9     0.47      1015.0     1       344         1       359        8.27     270      -37.5
   07/21/2016 07:20      69.3      68.2       55     51.8      0.00      0.00      85.8     0.47      1015.0     1       294         1       305        8.27     270      -30.0
   07/21/2016 07:10      68.0      67.2       56     51.4      0.00      0.00      85.8     0.47      1015.0     1       316         1       298        8.27     270      -37.9
   07/21/2016 07:00      67.4      66.2       58     51.3      0.00      0.00      86.1     0.47      1015.0     1       349         1         7        8.27     270      -42.6
   07/21/2016 06:50      66.4      65.4       59     51.0      0.00      0.00      86.1     0.47      1015.0     0       162         1       172        8.27     270      -45.3
   07/21/2016 06:40      65.4      64.5       61     51.2      0.00      0.00      85.7     0.47      1015.0     0       159         1       207        8.27     271      -51.8
   07/21/2016 06:30      64.8      64.3       60     50.5      0.00      0.00      85.9     0.47      1014.0     1       127         1       109        8.27     271      -55.0
   07/21/2016 06:20      64.4      64.0       59     49.5      0.00      0.00      86.1     0.47      1014.0     0       169         1       200        8.27     270      -51.7
   07/21/2016 06:10      64.5      64.3       58     49.2      0.00      0.00      85.9     0.47      1014.0     1        80         1       104        8.27     269      -56.0
   07/21/2016 06:00      64.4      64.0       58     49.1      0.00      0.00      86.2     0.47      1014.0     0        10         1       168        8.27     270      -58.4
   07/21/2016 05:50      64.5      64.3       58     49.2      0.00      0.00      86.3     0.47      1014.0     0         4         0       104        8.27     269      -60.4
   07/21/2016 05:40      64.4      63.7       60     50.0      0.00      0.00      86.0     0.47      1014.0     1       174         2       140        8.27     269      -61.2
   07/21/2016 05:30      64.3      63.9       61     50.5      0.00      0.00      86.2     0.47      1014.0     1       137         2       140        8.27     269      -62.3
   07/21/2016 05:20      64.6      64.2       60     50.4      0.00      0.00      86.3     0.47      1014.0     1       171         1       130        8.27     269      -62.8
   07/21/2016 05:10      64.9      64.2       60     50.1      0.00      0.00      86.3     0.47      1014.0     2       135         2       138        8.27     269      -63.5
   07/21/2016 05:00      65.1      65.0       58     49.7      0.00      0.00      86.4     0.47      1014.0     1       138         1       129        8.28     269      -63.3
   07/21/2016 04:50      65.3      64.7       56     48.9      0.00      0.00      86.4     0.47      1014.0     1       202         1       236        8.28     269      -63.3
   07/21/2016 04:40      65.1      64.7       58     49.7      0.00      0.00      86.6     0.47      1014.0     2       133         2       140        8.28     268      -64.4
   07/21/2016 04:30      65.3      65.0       57     49.5      0.00      0.00      86.7     0.47      1014.0     1       146         1       128        8.28     269      -65.2
   07/21/2016 04:20      66.0      65.3       57     50.2      0.00      0.00      86.5     0.47      1014.0     1       148         2       147        8.28     268      -65.4
   07/21/2016 04:10      66.2      65.5       59     50.9      0.00      0.00      86.7     0.47      1014.0     1       145         2       142        8.28     269      -66.0
   07/21/2016 04:00      66.0      65.5       60     51.6      0.00      0.00      86.7     0.47      1014.0     1       165         2       146        8.28     269      -66.1
   07/21/2016 03:50      66.6      66.2       60     52.0      0.00      0.00      86.8     0.47      1014.0     1       137         2       135        8.28     268      -65.7
   07/21/2016 03:40      66.8      66.7       58     51.8      0.00      0.00      86.6     0.47      1014.0     1       150         1       142        8.28     268      -65.8
   07/21/2016 03:30      67.2      67.0       58     51.8      0.00      0.00      86.9     0.47      1014.0     0       130         1       133        8.28     268      -66.1
   07/21/2016 03:20      67.2      66.9       57     51.6      0.00      0.00      86.7     0.47      1014.0     1       145         2       126        8.28     268      -66.0
   07/21/2016 03:10      67.4      67.1       55     50.8      0.00      0.00      86.9     0.47      1014.0     1       175         2       131        8.28     268      -66.6
   07/21/2016 03:00      67.7      67.1       55     50.4      0.00      0.00      86.9     0.47      1014.0     2       148         2       139        8.28     268      -67.6
   07/21/2016 02:50      68.0      67.5       53     50.2      0.00      0.00      86.8     0.47      1014.0     2       135         2       136        8.28     268      -67.6
   07/21/2016 02:40      68.2      68.0       52     49.6      0.00      0.00      87.1     0.47      1014.0     1       164         1       142        8.28     268      -67.1
   07/21/2016 02:30      68.5      67.9       50     48.7      0.00      0.00      87.1     0.47      1014.0     1       187         1       149        8.28     268      -67.5
   07/21/2016 02:20      68.7      68.4       50     49.2      0.00      0.00      87.1     0.47      1014.0     1       134         2       137        8.28     268      -68.2
   07/21/2016 02:10      69.0      68.7       49     49.1      0.00      0.00      87.2     0.47      1014.0     1       177         2       142        8.28     268      -68.5
   07/21/2016 02:00      69.3      68.8       48     48.8      0.00      0.00      87.0     0.47      1014.0     2       136         2       137        8.28     269      -69.5
   07/21/2016 01:50      69.8      69.2       48     48.7      0.00      0.00      87.3     0.47      1014.0     2       139         2       142        8.28     268      -69.8
   07/21/2016 01:40      70.2      69.8       45     47.9      0.00      0.00      87.3     0.47      1014.0     1       170         2       132        8.28     268      -69.3
   07/21/2016 01:30      70.3      70.0       46     48.7      0.00      0.00      87.4     0.47      1014.0     1       160         2       137        8.28     268      -70.3
   07/21/2016 01:20      70.6      70.1       46     48.4      0.00      0.00      87.2     0.47      1014.0     1       163         2       148        8.28     268      -70.8
   07/21/2016 01:10      70.8      70.6       45     48.2      0.00      0.00      87.3     0.47      1014.0     1       154         2       139        8.28     268      -71.3
   07/21/2016 01:00      71.4      70.9       44     48.4      0.00      0.00      87.5     0.47      1014.0     2       132         2       129        8.28     268      -72.3
   07/21/2016 00:50      72.0      71.5       42     47.8      0.00      0.00      87.5     0.47      1014.0     1       143         3       136        8.28     268      -71.3
   07/21/2016 00:40      72.6      72.0       41     47.1      0.00      0.00      87.4     0.47      1014.0     1       160         1       144        8.28     268      -71.5
   07/21/2016 00:30      72.9      72.5       40     47.0      0.00      0.00      87.3     0.47      1014.0     1       152         2       195        8.28     268      -71.7
   07/21/2016 00:20      73.0      72.7       40     47.1      0.00      0.00      87.5     0.47      1014.0     1       174         1       212        8.28     268      -72.5
   07/21/2016 00:10      73.7      73.0       40     47.3      0.00      0.00      87.6     0.47      1014.0     1       133         2       184        8.28     268      -73.7
   07/21/2016 00:00      74.5      73.8       37     46.5      0.00      0.00      87.6     0.47      1014.0     1       115         1       191        8.28     268      -74.0
   07/20/2016 23:50      74.8      74.2       36     46.0      0.00      0.00      87.6     0.47      1014.0     1       189         2       195        8.28     268      -73.8
   07/20/2016 23:40      75.5      74.9       35     46.0      0.00      0.00      87.7     0.47      1014.0     1       215         1       245        8.28     268      -73.9
   07/20/2016 23:30      77.3      75.4       35     46.5      0.00      0.00      87.6     0.47      1014.0     1       142         1       130        8.29     267      -75.6
   07/20/2016 23:20      78.5      77.6       33     47.1      0.00      0.00      87.4     0.47      1014.0     2       276         3       308        8.29     267      -77.3
   07/20/2016 23:10      79.4      78.7       33     47.2      0.00      0.00      87.5     0.47      1014.0     1         2         2       350        8.29     267      -79.4
   07/20/2016 23:00      79.4      79.1       32     46.9      0.00      0.00      87.7     0.47      1014.0     3       220         4       252        8.29     267      -80.0
   07/20/2016 22:50      79.5      79.3       32     47.1      0.00      0.00      87.6     0.47      1014.0     3       203         5       195        8.29     267      -80.9
   07/20/2016 22:40      79.5      79.3       32     47.2      0.00      0.00      87.7     0.47      1014.0     5       200         7       201        8.29     267      -81.4
   07/20/2016 22:30      79.6      79.4       32     47.4      0.00      0.00      87.7     0.47      1014.0     4       184         6       191        8.29     267      -82.1
   07/20/2016 22:20      79.7      79.6       32     47.6      0.00      0.00      87.6     0.47      1014.0     5       199         7       211        8.29     267      -82.8
   07/20/2016 22:10      80.0      79.8       32     47.7      0.00      0.00      87.6     0.47      1014.0     5       204         6       196        8.30     267      -83.9
   07/20/2016 22:00      80.5      80.1       32     47.9      0.00      0.00      87.7     0.47      1014.0     5       206         9       209        8.30     267      -85.0
   07/20/2016 21:50      80.7      80.4       32     48.1      0.00      0.00      87.9     0.47      1014.0     4       213         6       216        8.30     267      -86.7
   07/20/2016 21:40      81.0      80.7       32     48.3      0.00      0.00      87.7     0.47      1014.0     4       210         7       205        8.30     267      -87.0
   07/20/2016 21:30      81.3      80.9       32     48.2      0.00      0.00      87.5     0.47      1014.0     4       191         6       189        8.31     267      -87.6
   07/20/2016 21:20      81.7      81.4       31     47.8      0.00      0.00      87.5     0.47      1014.0     3       203         4       208        8.31     267      -88.2
   07/20/2016 21:10      82.1      81.8       30     47.5      0.00      0.00      87.4     0.47      1014.0     3       211         4       205        8.31     267      -89.1
   07/20/2016 21:00      82.6      82.2       29     47.2      0.00      0.00      87.5     0.47      1013.0     3       206         4       221        8.31     267      -90.6
   07/20/2016 20:50      83.4      82.7       28     46.2      0.00      0.00      87.5     0.47      1013.0     3       206         4       218        8.32     267      -92.2
   07/20/2016 20:40      83.6      83.4       27     46.2      0.00      0.00      87.4     0.47      1013.0     4       220         7       230        8.32     267      -93.9
   07/20/2016 20:30      84.8      84.0       26     46.3      0.00      0.00      87.5     0.47      1013.0     4       217         7       210        8.32     267      -94.7
   07/20/2016 20:20      85.8      85.0       27     47.2      0.00      0.00      87.5     0.47      1013.0     3       239         5       237        8.33     267      -96.5
   07/20/2016 20:10      86.4      85.8       26     47.7      0.00      0.00      87.5     0.46      1013.0     4       246         7       255        8.33     267      -96.5
   07/20/2016 20:00      87.2      86.5       25     47.1      0.00      0.00      87.5     0.47      1013.0     4       277         7       262        8.33     267      -95.7
   07/20/2016 19:50      88.3      87.4       23     45.2      0.00      0.00      87.5     0.46      1013.0     4       280         6       294        8.35     267      -94.2
   07/20/2016 19:40      90.0      88.7       21     43.8      0.00      0.00      87.5     0.46      1013.0     5       292         8       272        8.36     267      -82.7
   07/20/2016 19:30      91.3      90.3       19     42.3      0.00      0.00      87.4     0.46      1013.0     5       295         6       317        8.36     267      -69.3
   07/20/2016 19:20      91.7      91.1       18     41.5      0.00      0.00      87.3     0.46      1013.0     6       306         8       315        8.37     267      -50.1
   07/20/2016 19:10      93.2      92.0       17     41.4      0.00      0.00      87.3     0.46      1013.0     6       306         8       321        8.37     267      -29.4
   07/20/2016 19:00      94.0      93.5       16     40.4      0.00      0.00      87.3     0.46      1013.0     4       296         6       275        8.38     266       -8.1
   07/20/2016 18:50      95.2      94.0       15     39.7      0.00      0.00      87.1     0.46      1012.0     4       288         7       270        8.38     266       12.2
   07/20/2016 18:40      95.4      95.0       15     39.5      0.00      0.00      87.2     0.46      1012.0     4       263         6       237        8.38     267       33.3
   07/20/2016 18:30      95.1      94.5       14     38.6      0.00      0.00      87.0     0.46      1012.0     5       288        10       290        8.39     266       56.2
   07/20/2016 18:20      95.4      95.1       14     38.7      0.00      0.00      87.0     0.46      1012.0     6       303        10       284        8.40     267       77.1
   07/20/2016 18:10      95.7      95.2       14     38.7      0.00      0.00      86.9     0.46      1012.0     6       315         8       328        8.40     266       48.4
   07/20/2016 18:00      96.9      95.7       14     39.6      0.00      0.00      86.9     0.46      1012.0     6       298         8       286        8.41     266       59.8
   07/20/2016 17:50      97.4      96.4       14     39.6      0.00      0.00      86.7     0.46      1012.0     7       322        11       318        8.41     266      142.7
   07/20/2016 17:40      97.8      97.3       14     40.2      0.00      0.00      86.8     0.46      1012.0     5       304         7       331        8.42     266      164.1
   07/20/2016 17:30      98.2      97.2       14     41.0      0.00      0.00      86.7     0.46      1012.0     7       315         9       323        8.42     266      188.8
   07/20/2016 17:20     100.0      98.9       14     42.7      0.00      0.00      86.5     0.46      1012.0     5       294         8       316        8.43     266      209.5
   07/20/2016 17:10     100.4      99.6       14     41.7      0.00      0.00      86.6     0.46      1012.0     7       275        11       285        8.43     266      232.3
   07/20/2016 17:00     100.2      99.4       14     42.5      0.00      0.00      86.4     0.46      1012.0     6       285        11       313        8.44     266      254.6
   07/20/2016 16:50     100.8      99.5       14     42.3      0.00      0.00      86.3     0.46      1012.0     7       285        12       293        8.44     266      275.0
   07/20/2016 16:40     101.0     100.4       13     41.5      0.00      0.00      86.2     0.46      1012.0     5       249         7       235        8.44     266      292.2
   07/20/2016 16:30     101.5     100.2       12     39.7      0.00      0.00      86.1     0.46      1012.0     4       236         8       197        8.44     266      311.6
   07/20/2016 16:20     101.7     101.1       12     40.5      0.00      0.00      86.0     0.46      1012.0     5       259         7       248        8.44     266      329.3
   07/20/2016 16:10     100.9      99.9       13     40.2      0.00      0.00      85.9     0.46      1013.0     4       200         8       237        8.44     266      350.1
   07/20/2016 16:00     101.7     100.7       13     41.4      0.00      0.00      85.9     0.46      1013.0     5       220         8       229        8.44     266      366.1
   07/20/2016 15:50     102.0     100.1       14     42.6      0.00      0.00      85.8     0.46      1013.0     4       270         7       260        8.44     267      383.8
   07/20/2016 15:40     101.9     100.2       14     43.0      0.00      0.00      85.6     0.46      1013.0     6       233         8       237        8.44     267      399.7
   07/20/2016 15:30     102.6     101.5       14     43.4      0.00      0.00      85.7     0.46      1013.0     4       221         7       213        8.44     267      412.8
   07/20/2016 15:20     101.7     100.7       14     43.4      0.00      0.00      85.6     0.46      1013.0     5       261         6       282        8.44     267      429.0
   07/20/2016 15:10     101.9     100.7       14     43.4      0.00      0.00      85.6     0.46      1013.0     5       202         8       214        8.44     267      444.6
   07/20/2016 15:00     102.2     101.2       14     43.8      0.00      0.00      85.5     0.46      1013.0     6       227        10       244        8.44     267      456.9
   07/20/2016 14:50     102.2     101.1       14     43.5      0.00      0.00      85.2     0.46      1013.0     7       242        13       250        8.44     268      466.9
   07/20/2016 14:40     101.9     101.3       14     42.9      0.00      0.00      85.5     0.46      1013.0     4       210         8       148        8.44     268      473.6
   07/20/2016 14:30     103.9     101.7       14     44.5      0.00      0.00      85.0     0.46      1013.0     4       219         6       194        8.44     268      482.0
   07/20/2016 14:20     103.6     102.7       16     49.0      0.00      0.00      85.1     0.46      1013.0     3       358         4       309        8.45     269      483.8
   07/20/2016 14:10     103.1     102.2       15     46.0      0.00      0.00      84.9     0.45      1013.0     3       107         5        36        8.45     270      499.5
   07/20/2016 14:00     102.9     101.7       11     37.9      0.00      0.00      85.1     0.45      1013.0     3       286         7       307        8.45     270      507.6
   07/20/2016 13:50     102.5     101.7       10     36.0      0.00      0.00      85.0     0.45      1013.0     4       171         5       222        8.45     270      517.5
   07/20/2016 13:40     102.1     100.6       11     37.4      0.00      0.00      85.0     0.45      1013.0     4       346         6       315        8.45     271      522.9
   07/20/2016 13:30     101.6     100.4       12     39.6      0.00      0.00      84.8     0.45      1013.0     4       235         6       247        8.45     271      526.7
   07/20/2016 13:20     101.6     100.6       13     40.9      0.00      0.00      84.9     0.45      1013.0     4       117         7       161        8.45     271      532.0
   07/20/2016 13:10     100.7      99.3       13     41.2      0.00      0.00      84.7     0.45      1013.0     4       262         7       220        8.45     272      536.6
   07/20/2016 13:00     100.3      98.9       14     41.8      0.00      0.00      84.5     0.45      1014.0     3       143         7       124        8.45     280      536.7
   07/20/2016 12:50      99.9      98.5       13     40.0      0.00      0.00      84.9     0.45      1014.0     2        91         4       106        8.45     288      535.5
   07/20/2016 12:40     100.0      99.3       12     38.3      0.00      0.00      84.7     0.45      1014.0     4        48         6         8        8.45     300      538.3
   07/20/2016 12:30      99.1      98.2       11     35.3      0.00      0.00      84.4     0.45      1014.0     3        41         5         3        8.45     313      536.5
   07/20/2016 12:20      98.3      97.7       13     39.4      0.00      0.00      84.5     0.45      1014.0     3       358         5         3        8.45     328      539.5
   07/20/2016 12:10      97.9      95.8       15     41.2      0.00      0.00      84.7     0.46      1014.0     3         2         6       351        8.45     340      540.0
   07/20/2016 12:00      96.1      95.2       15     41.1      0.00      0.00      84.8     0.45      1014.0     2       108         3        91        8.45     346      539.7
   07/20/2016 11:50      95.2      94.7       17     43.3      0.00      0.00      84.6     0.46      1014.0     2        65         3        30        8.45     352      535.5
   07/20/2016 11:40      95.2      94.7       18     45.0      0.00      0.00      84.7     0.46      1015.0     2        39         4        74        8.45     359      531.8
   07/20/2016 11:30      95.3      93.4       19     46.2      0.00      0.00      84.8     0.46      1015.0     2         3         3         5        8.45     369      529.3
   07/20/2016 11:20      93.1      92.3       21     46.9      0.00      0.00      84.7     0.46      1015.0     2       335         3       303        8.44     373      525.7
   07/20/2016 11:10      92.3      90.6       22     47.4      0.00      0.00      84.6     0.46      1015.0     2       343         4       327        8.44     378      523.4
   07/20/2016 11:00      90.8      90.0       25     49.4      0.00      0.00      84.3     0.46      1015.0     3        21         5         9        8.44     391      522.5
   07/20/2016 10:50      89.7      88.7       27     50.8      0.00      0.00      84.5     0.46      1015.0     3       312         4         0        8.44     419      517.8
   07/20/2016 10:40      89.3      87.7       27     50.4      0.00      0.00      84.8     0.45      1015.0     2        71         4        63        8.44     449      462.6
   07/20/2016 10:30      87.8      85.8       30     51.4      0.00      0.00      84.8     0.45      1015.0     2       351         4       353        8.43     269      444.6
   07/20/2016 10:20      85.9      85.5       32     52.7      0.00      0.00      84.9     0.45      1015.0     3        36         4        67        7.56     269      431.1
   07/20/2016 10:10      85.4      83.5       35     53.7      0.00      0.00      84.8     0.45      1015.0     3       350         4       335        7.56     269      415.7
   07/20/2016 10:00      83.5      82.6       37     54.1      0.00      0.00      84.8     0.46      1015.0     2         6         4        21        7.56     269      400.0
   07/20/2016 09:50      82.8      82.1       39     54.7      0.00      0.00      84.9     0.46      1015.0     3        15         3       350        7.57     269      384.1
   07/20/2016 09:40      82.1      81.0       41     55.1      0.00      0.00      85.2     0.46      1015.0     2         8         4         5        7.57     270      368.0
   07/20/2016 09:30      81.2      79.8       42     55.5      0.00      0.00      85.1     0.46      1015.0     2       346         3       359        7.57     269      350.8
   07/20/2016 09:20      79.7      78.4       44     55.5      0.00      0.00      85.0     0.46      1015.0     2        36         3        62        7.58     269      335.7
   07/20/2016 09:10      78.6      77.4       46     55.7      0.00      0.00      84.8     0.46      1015.0     2        46         2        58        7.58     269      327.1
   07/20/2016 09:00      77.4      74.8       49     55.6      0.00      0.00      84.9     0.46      1015.0     1       321         2       298        7.58     269      333.5
   07/20/2016 08:50      74.7      73.7       53     55.8      0.00      0.00      85.1     0.46      1016.0     2       351         3       328        7.58     269      152.9
   07/20/2016 08:40      73.6      73.1       54     56.0      0.00      0.00      85.2     0.46      1016.0     2       359         3       341        7.58     269      -40.3
   07/20/2016 08:30      73.2      72.3       56     56.2      0.00      0.00      85.1     0.46      1016.0     2       339         2       322        7.58     269      -36.1
   07/20/2016 08:20      72.3      72.0       57     56.4      0.00      0.00      85.4     0.46      1015.0     3       355         4         9        7.58     269      -32.4
   07/20/2016 08:10      72.2      71.4       58     56.2      0.00      0.00      85.4     0.46      1015.0     2        16         3        81        7.59     269      -35.8
   07/20/2016 08:00      71.6      70.4       60     56.3      0.00      0.00      85.2     0.46      1015.0     2        36         3         1        7.59     269        7.0
   07/20/2016 07:50      70.5      69.9       61     56.1      0.00      0.00      85.3     0.46      1015.0     1        12         2       331        7.59     269      -33.6
   07/20/2016 07:40      70.2      69.4       61     55.6      0.00      0.00      85.4     0.46      1015.0     1        49         1        40        7.59     269      -36.6
   07/20/2016 07:30      69.4      68.7       62     55.5      0.00      0.00      85.3     0.46      1015.0     1        34         2        31        7.59     269      -36.7
   07/20/2016 07:20      68.8      67.5       63     54.9      0.00      0.00      85.7     0.46      1015.0     1       139         1       141        7.59     269      -31.6
   07/20/2016 07:10      67.5      66.1       67     55.6      0.00      0.00      85.8     0.46      1015.0     1       124         1       101        7.59     269      -37.5
   07/20/2016 07:00      66.0      64.8       70     55.4      0.00      0.00      85.6     0.46      1015.0     1       137         1       151        7.59     268      -42.3
   07/20/2016 06:50      64.7      63.8       71     54.8      0.00      0.00      85.6     0.46      1015.0     1       147         1       136        7.59     268      -45.2
   07/20/2016 06:40      63.8      62.9       74     54.8      0.00      0.00      85.5     0.46      1015.0     1       162         2       143        7.59     268      -50.1
   07/20/2016 06:30      63.0      62.1       76     55.0      0.00      0.00      85.8     0.46      1015.0     1       143         1       145        7.59     268      -53.3
   07/20/2016 06:20      62.1      61.7       77     54.7      0.00      0.00      85.7     0.46      1015.0     1       140         1       148        7.59     268      -51.4
   07/20/2016 06:10      62.0      61.8       77     54.7      0.00      0.00      85.9     0.46      1015.0     1       161         1       148        7.59     268      -56.5
   07/20/2016 06:00      61.9      61.4       77     54.3      0.00      0.00      86.0     0.46      1015.0     1       193         2       169        7.59     268      -60.1
   07/20/2016 05:50      62.5      61.7       80     55.9      0.00      0.00      85.6     0.46      1015.0     2       151         2       159        7.59     268      -61.9
   07/20/2016 05:40      62.5      62.2       79     55.7      0.00      0.00      85.7     0.46      1015.0     1       180         1       222        7.59     268      -61.9
   07/20/2016 05:30      62.8      62.2       79     55.8      0.00      0.00      85.6     0.46      1015.0     2       152         2       163        7.59     268      -62.7
   07/20/2016 05:20      63.1      62.9       78     56.0      0.00      0.00      85.8     0.46      1015.0     1       196         1       237        7.59     268      -62.1
   07/20/2016 05:10      63.6      63.0       77     56.0      0.00      0.00      86.1     0.46      1015.0     1       175         1       177        7.59     268      -62.5
   07/20/2016 05:00      63.5      63.2       78     56.4      0.00      0.00      85.7     0.46      1015.0     0       171         1       157        7.59     268      -62.1
   07/20/2016 04:50      63.3      62.9       78     56.1      0.00      0.00      85.9     0.46      1015.0     1       318         1       323        7.59     267      -62.3
   07/20/2016 04:40      63.7      63.3       77     56.2      0.00      0.00      86.4     0.46      1015.0     1       109         2       129        7.59     267      -63.6
   07/20/2016 04:30      63.9      63.7       79     57.0      0.00      0.00      86.1     0.46      1015.0     1       142         1       138        7.59     267      -63.6
   07/20/2016 04:20      64.0      63.8       78     56.9      0.00      0.00      86.3     0.46      1015.0     1       171         1       168        7.59     268      -64.2
   07/20/2016 04:10      64.5      64.0       77     57.0      0.00      0.00      86.2     0.46      1015.0     1       157         2       148        7.59     267      -64.5
   07/20/2016 04:00      64.7      64.4       76     57.0      0.00      0.00      86.5     0.46      1015.0     2       154         3       143        7.59     267      -65.3
   07/20/2016 03:50      65.1      64.8       75     57.0      0.00      0.00      86.0     0.46      1015.0     2       139         3       139        7.59     267      -65.3
   07/20/2016 03:40      65.4      65.1       75     57.1      0.00      0.00      86.3     0.46      1015.0     1       177         1       141        7.60     267      -65.2
   07/20/2016 03:30      65.5      65.0       75     57.0      0.00      0.00      86.4     0.46      1015.0     1       165         2       138        7.60     267      -66.3
   07/20/2016 03:20      65.3      64.9       75     56.8      0.00      0.00      86.4     0.46      1015.0     1       159         2       143        7.60     267      -66.0
   07/20/2016 03:10      65.4      64.9       74     56.6      0.00      0.00      86.5     0.46      1015.0     2       143         2       135        7.60     267      -66.7
   07/20/2016 03:00      65.6      65.0       72     56.3      0.00      0.00      86.3     0.46      1015.0     2       156         3       159        7.60     267      -67.4
   07/20/2016 02:50      66.1      65.5       73     56.9      0.00      0.00      86.1     0.46      1015.0     2       146         2       137        7.60     267      -67.0
   07/20/2016 02:40      66.6      66.2       71     56.6      0.00      0.00      86.7     0.46      1015.0     1       172         2       191        7.60     267      -66.8
   07/20/2016 02:30      66.8      66.4       70     56.6      0.00      0.00      86.6     0.46      1015.0     1       199         2       166        7.60     267      -67.3
   07/20/2016 02:20      67.2      66.8       69     56.6      0.00      0.00      86.4     0.46      1015.0     1       188         1       149        7.60     267      -67.5
   07/20/2016 02:10      67.3      67.0       69     56.7      0.00      0.00      86.7     0.46      1015.0     1       177         1       202        7.61     267      -68.2
   07/20/2016 02:00      68.2      67.5       68     56.8      0.00      0.00      86.6     0.47      1015.0     1       157         1       155        7.61     267      -68.0
   07/20/2016 01:50      68.4      68.2       67     57.1      0.00      0.00      86.6     0.46      1015.0     1       129         1        67        7.61     266      -68.4
   07/20/2016 01:40      68.9      68.6       67     57.3      0.00      0.00      86.7     0.46      1015.0     0        89         1       130        7.62     267      -69.8
   07/20/2016 01:30      69.8      69.1       65     57.0      0.00      0.00      86.9     0.46      1015.0     1        86         2        80        7.62     266      -70.7
   07/20/2016 01:20      70.3      69.8       65     57.6      0.00      0.00      86.6     0.46      1015.0     1        91         2        29        7.62     266      -71.3
   07/20/2016 01:10      70.8      70.4       64     57.8      0.00      0.00      86.9     0.46      1015.0     1        53         2        22        7.62     266      -72.2
   07/20/2016 01:00      71.1      70.8       64     58.0      0.00      0.00      87.0     0.46      1015.0     1        47         2        17        7.63     266      -73.1
   07/20/2016 00:50      71.2      71.0       64     58.2      0.00      0.00      86.7     0.46      1015.0     2        59         3        60        7.63     266      -73.1
   07/20/2016 00:40      71.2      70.7       63     57.6      0.00      0.00      86.7     0.46      1015.0     2        72         3        75        7.63     266      -73.1
   07/20/2016 00:30      70.8      70.4       55     53.4      0.00      0.00      86.8     0.46      1015.0     2        50         4        86        7.63     266      -72.2
   07/20/2016 00:20      71.4      70.8       50     51.3      0.00      0.00      86.8     0.46      1015.0     1        48         1        62        7.64     266      -72.2
   07/20/2016 00:10      71.8      71.4       48     50.9      0.00      0.00      86.7     0.46      1015.0     1       122         2       135        7.64     265      -73.4
   07/20/2016 00:00      72.5      71.9       47     50.7      0.00      0.00      86.7     0.46      1015.0     1       134         2       138        7.64     266      -73.8
   07/19/2016 23:50      73.1      72.5       46     50.8      0.00      0.00      86.8     0.46      1015.0     1       147         1       144        7.64     265      -74.9
   07/19/2016 23:40      74.1      73.2       45     51.0      0.00      0.00      86.8     0.46      1015.0     1        65         2        88        7.64     265      -76.4
   07/19/2016 23:30      75.0      74.3       43     50.8      0.00      0.00      87.0     0.46      1015.0     1        38         1        37        7.64     265      -77.5
   07/19/2016 23:20      75.9      75.4       42     51.1      0.00      0.00      86.9     0.46      1015.0     1         6         2       331        7.64     265      -78.8
   07/19/2016 23:10      76.3      75.8       42     51.1      0.00      0.00      87.1     0.46      1015.0     1        12         2       345        7.64     265      -80.1
   07/19/2016 23:00      76.5      76.3       41     51.3      0.00      0.00      86.9     0.46      1015.0     2       227         3       232        7.65     265      -81.9
   07/19/2016 22:50      76.9      76.4       41     51.5      0.00      0.00      86.7     0.46      1015.0     2       218         5       208        7.65     265      -82.7
   07/19/2016 22:40      77.2      77.0       41     51.6      0.00      0.00      86.8     0.46      1015.0     2       225         4       217        7.65     264      -83.2
   07/19/2016 22:30      77.5      77.2       40     51.5      0.00      0.00      87.0     0.46      1015.0     3       209         5       208        7.65     265      -83.5
   07/19/2016 22:20      77.9      77.5       40     51.2      0.00      0.00      87.0     0.46      1015.0     3       212         6       214        7.65     264      -84.0
   07/19/2016 22:10      78.0      77.7       39     50.9      0.00      0.00      86.7     0.46      1015.0     3       206         6       228        7.65     264      -84.4
   07/19/2016 22:00      78.5      78.0       38     50.4      0.00      0.00      86.9     0.46      1015.0     4       203         6       214        7.66     264      -85.3
   07/19/2016 21:50      78.9      78.4       36     49.8      0.00      0.00      86.7     0.46      1015.0     2       197         4       231        7.66     264      -86.6
   07/19/2016 21:40      79.5      79.0       35     49.4      0.00      0.00      86.9     0.46      1014.0     3       212         5       204        7.66     264      -88.1
   07/19/2016 21:30      79.8      79.4       34     48.8      0.00      0.00      86.8     0.46      1014.0     4       193         6       202        7.66     264      -89.3
   07/19/2016 21:20      80.2      79.9       32     47.7      0.00      0.00      87.0     0.46      1014.0     3       212         5       223        7.66     264      -90.9
   07/19/2016 21:10      80.5      80.2       30     46.3      0.00      0.00      86.9     0.46      1014.0     3       212         5       220        7.67     264      -91.6
   07/19/2016 21:00      81.4      80.6       28     44.6      0.00      0.00      86.7     0.46      1014.0     3       206         4       228        7.67     264      -92.3
   07/19/2016 20:50      81.9      81.6       26     43.3      0.00      0.00      86.8     0.46      1014.0     4       225         5       218        7.67     264      -93.7
   07/19/2016 20:40      82.4      82.0       24     41.8      0.00      0.00      86.6     0.46      1014.0     4       235         6       246        7.67     264      -94.6
   07/19/2016 20:30      82.9      82.4       22     39.8      0.00      0.00      86.7     0.46      1014.0     4       235         6       230        7.67     264      -95.5
   07/19/2016 20:20      83.6      83.0       20     38.5      0.00      0.00      86.7     0.46      1013.0     3       225         3       180        7.67     264      -96.2
   07/19/2016 20:10      84.3      83.6       19     36.9      0.00      0.00      86.7     0.46      1013.0     4       223         7       247        7.68     264      -95.1
   07/19/2016 20:00      85.1      84.6       17     35.6      0.00      0.00      86.5     0.46      1013.0     4       221         5       214        7.68     264      -93.0
   07/19/2016 19:50      86.4      85.3       18     37.3      0.00      0.00      86.3     0.46      1013.0     4       212         5       190        7.68     264      -91.1
   07/19/2016 19:40      87.6      86.6       20     40.6      0.00      0.00      86.5     0.46      1013.0     5       243         7       212        7.68     264      -78.9
   07/19/2016 19:30      89.1      87.7       19     40.6      0.00      0.00      86.4     0.46      1013.0     6       234        10       234        7.69     264      -65.2
   07/19/2016 19:20      89.9      89.0       17     38.3      0.00      0.00      86.4     0.46      1013.0     4       262         7       279        7.70     264      -47.6
   07/19/2016 19:10      90.0      89.8       15     37.0      0.00      0.00      86.6     0.46      1013.0     4       290         6       313        7.70     264      -28.7
   07/19/2016 19:00      90.8      90.2       16     37.6      0.00      0.00      86.2     0.46      1013.0     4       281         7       277        7.71     264       -7.2
   07/19/2016 18:50      91.1      90.8       15     37.1      0.00      0.00      86.2     0.46      1013.0     5       283         8       316        7.71     263       15.0
   07/19/2016 18:40      91.5      91.0       15     37.0      0.00      0.00      86.1     0.46      1013.0     5       299         8       296        7.72     264       36.3
   07/19/2016 18:30      92.4      91.7       14     37.0      0.00      0.00      86.3     0.46      1013.0     5       291         9       313        7.73     264       57.9
   07/19/2016 18:20      93.0      92.4       15     38.0      0.00      0.00      86.0     0.46      1013.0     6       283         8       286        7.74     264       80.3
   07/19/2016 18:10      93.1      92.6       15     38.6      0.00      0.00      85.9     0.46      1013.0     6       286         9       250        7.74     264      102.1
   07/19/2016 18:00      94.0      92.9       16     40.0      0.00      0.00      85.9     0.46      1013.0     7       264         8       258        7.75     263      125.3
   07/19/2016 17:50      94.3      93.8       16     41.3      0.00      0.00      85.8     0.46      1013.0     6       288         9       316        7.75     264      146.8
   07/19/2016 17:40      94.7      94.2       16     41.9      0.00      0.00      85.8     0.46      1013.0     5       292         6       305        7.76     264      168.6
   07/19/2016 17:30      95.1      94.4       16     41.9      0.00      0.00      85.7     0.46      1013.0     5       287         9       301        7.76     264      191.2
   07/19/2016 17:20      95.6      94.3       17     43.3      0.00      0.00      85.5     0.46      1013.0     5       287         7       271        7.77     264      214.6
   07/19/2016 17:10      96.1      95.1       18     45.5      0.00      0.00      85.5     0.46      1013.0     6       306         8       324        7.77     264      236.7
   07/19/2016 17:00      96.5      95.5       18     45.4      0.00      0.00      85.3     0.46      1013.0     4       303         7       310        7.78     264      256.1
   07/19/2016 16:50      96.1      95.4       19     46.5      0.00      0.00      85.3     0.46      1013.0     6       285        11       302        7.78     264      277.5
   07/19/2016 16:40      96.8      95.2       19     46.5      0.00      0.00      85.2     0.46      1013.0     5       296         8       258        7.79     264      298.1
   07/19/2016 16:30      97.3      96.1       18     46.9      0.00      0.00      85.2     0.46      1013.0     7       305        10       295        7.80     264      315.2
   07/19/2016 16:20      96.3      95.5       19     47.5      0.00      0.00      85.1     0.46      1014.0     5       289        11       295        7.80     264      336.1
   07/19/2016 16:10      97.0      96.0       20     48.5      0.00      0.00      85.1     0.46      1014.0     6       285         9       307        7.81     264      353.9
   07/19/2016 16:00      96.8      95.9       20     48.4      0.00      0.00      84.9     0.45      1014.0     5       293         8       279        7.81     264      371.0
   07/19/2016 15:50      98.1      95.7       20     49.3      0.00      0.00      85.0     0.45      1014.0     7       272        11       243        7.82     265      385.4
   07/19/2016 15:40      98.1      96.4       20     49.3      0.00      0.00      84.8     0.45      1014.0     6       272        10       315        7.82     265      397.7
   07/19/2016 15:30      98.4      97.3       19     49.0      0.00      0.00      84.7     0.45      1014.0     5       303         7       244        7.83     265      405.7
   07/19/2016 15:20      99.3      98.3       15     42.7      0.00      0.00      84.7     0.45      1014.0     5       336         9         0        7.83     265      415.0
   07/19/2016 15:10     100.1      99.0       11     36.5      0.00      0.00      84.7     0.45      1014.0     5        13        10       347        7.84     265      428.5
   07/19/2016 15:00      99.8      98.6       12     37.4      0.00      0.00      84.4     0.45      1014.0     4        26         7        34        7.84     265      444.1
   07/19/2016 14:50      98.7      96.9       12     37.8      0.00      0.00      84.6     0.45      1014.0     3        60         5        77        7.85     265      455.1
   07/19/2016 14:40      99.2      98.1       13     38.6      0.00      0.00      84.5     0.45      1014.0     3        21         4       343        7.85     265      469.8
   07/19/2016 14:30      98.9      98.1       13     38.4      0.00      0.00      84.4     0.45      1014.0     5         9         7       333        7.86     265      480.8
   07/19/2016 14:20      98.3      97.4       12     37.2      0.00      0.00      84.2     0.45      1015.0     3        46         4        75        7.86     266      493.0
   07/19/2016 14:10      97.7      96.8       13     37.4      0.00      0.00      84.1     0.45      1015.0     4        59         5        89        7.86     267      500.3
   07/19/2016 14:00      97.4      96.0       14     39.2      0.00      0.00      84.0     0.45      1015.0     3        32         6         8        7.87     267      508.3
   07/19/2016 13:50      96.1      95.1       13     37.9      0.00      0.00      84.1     0.45      1015.0     5        65         8       103        7.87     267      519.1
   07/19/2016 13:40      96.4      95.8       13     36.8      0.00      0.00      84.0     0.45      1015.0     3        48         7        70        7.88     267      523.0
   07/19/2016 13:30      95.7      94.7       13     37.1      0.00      0.00      84.0     0.45      1015.0     4        61         6        55        7.88     267      526.3
   07/19/2016 13:20      95.5      95.2       13     36.8      0.00      0.00      84.0     0.45      1015.0     4        50         6        73        7.88     266      529.9
   07/19/2016 13:10      95.4      95.0       15     40.0      0.00      0.00      84.0     0.45      1015.0     4        17         7       356        7.88     267      532.9
   07/19/2016 13:00      95.6      94.1       17     43.2      0.00      0.00      83.9     0.45      1015.0     4        27         6       340        7.88     267      535.8
   07/19/2016 12:50      94.2      93.5       18     43.8      0.00      0.00      83.8     0.45      1015.0     5        28         9         8        7.88     267      536.3
   07/19/2016 12:40      93.9      93.0       20     45.8      0.00      0.00      83.9     0.45      1015.0     5        17         8       353        7.88     266      536.2
   07/19/2016 12:30      93.7      92.9       23     49.8      0.00      0.00      83.8     0.45      1015.0     3         8         6        25        7.88     267      534.9
   07/19/2016 12:20      93.1      92.7       24     50.9      0.00      0.00      83.9     0.45      1015.0     2        34         4        39        7.89     267      535.0
   07/19/2016 12:10      92.9      91.1       25     51.5      0.00      0.00      83.8     0.45      1016.0     3        60         6        63        7.89     267      534.7
   07/19/2016 12:00      91.9      90.4       25     50.7      0.00      0.00      83.8     0.45      1016.0     3       100         5        56        7.89     267      530.7
   07/19/2016 11:50      91.5      90.4       24     49.4      0.00      0.00      83.7     0.45      1016.0     3        42         5       135        7.89     267      522.5
   07/19/2016 11:40      91.4      90.4       22     47.1      0.00      0.00      83.7     0.45      1016.0     3        35         7        87        7.89     267      515.7
   07/19/2016 11:30      90.9      90.4       22     47.0      0.00      0.00      83.8     0.45      1016.0     3        35         4        29        7.89     268      506.6
   07/19/2016 11:20      90.2      89.6       23     46.7      0.00      0.00      83.9     0.45      1016.0     2        85         4        26        7.89     268      500.4
   07/19/2016 11:10      90.0      88.8       22     45.9      0.00      0.00      83.8     0.45      1016.0     2        84         4        68        7.89     268      490.6
   07/19/2016 11:00      88.6      87.7       22     45.0      0.00      0.00      83.8     0.45      1016.0     3        26         4        19        7.89     269      481.3
   07/19/2016 10:50      87.8      87.0       20     41.6      0.00      0.00      83.9     0.45      1016.0     2         2         3       357        7.89     269      469.4
   07/19/2016 10:40      86.8      85.6       26     46.9      0.00      0.00      83.9     0.45      1016.0     2        41         4       315        7.89     269      461.2
   07/19/2016 10:30      85.7      83.9       31     51.1      0.00      0.00      83.9     0.45      1016.0     2       324         3       304        7.89     270      448.2
   07/19/2016 10:20      84.3      83.1       35     53.2      0.00      0.00      84.2     0.45      1016.0     2       341         4       137        7.89     270      436.2
   07/19/2016 10:10      83.7      83.1       36     53.8      0.00      0.00      83.9     0.45      1016.0     2        39         3        73        7.89     270      419.6
   07/19/2016 10:00      83.1      81.4       39     54.6      0.00      0.00      83.9     0.46      1016.0     2        29         3        76        7.89     270      404.1
   07/19/2016 09:50      81.4      80.4       41     55.2      0.00      0.00      84.0     0.46      1016.0     3       343         5       340        7.89     269      388.8
   07/19/2016 09:40      80.5      78.8       44     55.9      0.00      0.00      84.2     0.46      1016.0     2       307         4       319        7.89     269      372.1
   07/19/2016 09:30      78.8      78.3       46     56.2      0.00      0.00      84.0     0.46      1016.0     2       250         3       306        7.89     270      355.3
   07/19/2016 09:20      78.2      76.4       50     56.9      0.00      0.00      84.0     0.46      1016.0     2       300         3         3        7.89     270      341.4
   07/19/2016 09:10      76.3      74.5       53     57.0      0.00      0.00      84.2     0.46      1016.0     1       349         2       346        7.89     270      331.6
   07/19/2016 09:00      74.5      72.8       56     57.2      0.00      0.00      84.5     0.46      1017.0     2        27         2       352        7.89     270      338.7
   07/19/2016 08:50      72.5      71.4       60     57.3      0.00      0.00      84.4     0.46      1017.0     2        31         2        37        7.89     270      156.0
   07/19/2016 08:40      71.6      70.7       61     57.2      0.00      0.00      84.2     0.46      1017.0     2       339         3       342        7.89     270      -38.1
   07/19/2016 08:30      70.8      69.9       62     57.0      0.00      0.00      83.9     0.46      1017.0     2       344         2       342        7.89     270      -35.1
   07/19/2016 08:20      69.9      69.3       64     56.7      0.00      0.00      84.3     0.46      1017.0     2       347         3       349        7.89     269      -32.9
   07/19/2016 08:10      69.4      68.9       64     56.6      0.00      0.00      84.5     0.46      1017.0     1       289         3       302        7.90     270      -33.2
   07/19/2016 08:00      68.9      67.7       66     56.5      0.00      0.00      84.8     0.46      1017.0     1       129         3       106        7.90     269        6.5
   07/19/2016 07:50      67.7      67.1       67     56.2      0.00      0.00      84.2     0.46      1017.0     1       255         2       261        7.90     269      -27.3
   07/19/2016 07:40      67.1      66.7       68     56.0      0.00      0.00      84.6     0.46      1017.0     1       216         1       235        7.90     269      -35.6
   07/19/2016 07:30      66.7      66.0       69     55.9      0.00      0.00      84.5     0.46      1017.0     2       236         3       245        7.90     269      -36.1
   07/19/2016 07:20      66.1      65.2       70     55.7      0.00      0.00      84.3     0.46      1017.0     2       223         3       229        7.90     269      -32.1
   07/19/2016 07:10      65.2      63.3       74     55.9      0.00      0.00      85.1     0.46      1017.0     2       257         3       273        7.90     269      -35.1
   07/19/2016 07:00      63.3      62.5       76     55.2      0.00      0.00      84.6     0.46      1017.0     1       232         1       316        7.90     269      -39.2
   07/19/2016 06:50      62.5      61.8       77     54.6      0.00      0.00      84.4     0.46      1017.0     1       139         1       138        7.90     269      -43.7
   07/19/2016 06:40      61.6      60.8       78     54.3      0.00      0.00      84.6     0.46      1017.0     1       137         2       143        7.90     269      -48.9
   07/19/2016 06:30      60.9      60.0       80     54.4      0.00      0.00      84.8     0.46      1017.0     1       162         2       142        7.91     269      -51.0
   07/19/2016 06:20      60.2      59.9       81     54.3      0.00      0.00      85.1     0.46      1017.0     1       179         1       233        7.91     269      -48.9
   07/19/2016 06:10      60.2      59.2       83     54.3      0.00      0.00      84.3     0.46      1017.0     1       173         1       191        7.91     269      -54.3
   07/19/2016 06:00      59.5      59.2       82     53.7      0.00      0.00      84.9     0.46      1017.0     2       157         3       160        7.91     269      -58.3
   07/19/2016 05:50      59.9      59.6       82     54.3      0.00      0.00      85.4     0.46      1017.0     1       134         2       140        7.91     269      -59.7
   07/19/2016 05:40      59.8      59.5       81     53.9      0.00      0.00      85.0     0.46      1017.0     1       166         3       167        7.91     269      -61.8
   07/19/2016 05:30      60.2      59.9       82     54.4      0.00      0.00      85.2     0.46      1017.0     1       154         2       161        7.91     269      -61.2
   07/19/2016 05:20      60.2      59.9       80     53.9      0.00      0.00      85.2     0.46      1017.0     1       165         2       162        7.91     269      -61.5
   07/19/2016 05:10      60.2      59.9       79     53.5      0.00      0.00      85.3     0.46      1017.0     2       152         3       142        7.91     269      -62.5
   07/19/2016 05:00      60.6      60.2       78     53.5      0.00      0.00      85.3     0.46      1017.0     1       169         1       147        7.91     269      -62.6
   07/19/2016 04:50      61.0      60.6       77     53.6      0.00      0.00      85.3     0.47      1017.0     1       157         1       144        7.91     269      -62.2
   07/19/2016 04:40      61.0      60.8       77     53.8      0.00      0.00      85.3     0.47      1017.0     1       179         1       206        7.91     269      -62.0
   07/19/2016 04:30      61.0      60.6       76     53.3      0.00      0.00      85.3     0.47      1017.0     1       159         1       148        7.91     268      -62.6
   07/19/2016 04:20      61.0      60.8       74     52.7      0.00      0.00      85.5     0.47      1017.0     2       141         2       143        7.91     268      -63.9
   07/19/2016 04:10      61.4      61.0       75     53.4      0.00      0.00      85.2     0.47      1017.0     1       133         1       129        7.92     268      -64.0
   07/19/2016 04:00      61.5      61.3       75     53.5      0.00      0.00      85.6     0.46      1016.0     1       170         1       206        7.92     268      -64.7
   07/19/2016 03:50      61.5      61.2       75     53.3      0.00      0.00      85.4     0.47      1016.0     1       153         2       149        7.92     269      -64.8
   07/19/2016 03:40      62.2      61.4       73     53.0      0.00      0.00      85.6     0.47      1016.0     1       129         1       120        7.92     268      -66.0
   07/19/2016 03:30      62.5      62.0       73     53.3      0.00      0.00      85.9     0.47      1016.0     1       209         1       123        7.92     268      -65.5
   07/19/2016 03:20      62.6      61.9       72     53.3      0.00      0.00      85.7     0.47      1016.0     1       184         2       145        7.92     268      -66.5
   07/19/2016 03:10      62.5      62.3       72     53.3      0.00      0.00      85.5     0.47      1017.0     1       144         2       146        7.92     268      -67.1
   07/19/2016 03:00      62.4      61.6       72     52.6      0.00      0.00      85.5     0.47      1016.0     2       151         3       138        7.92     268      -67.7
   07/19/2016 02:50      62.6      62.0       71     53.0      0.00      0.00      85.8     0.47      1016.0     1       164         2       141        7.92     268      -67.4
   07/19/2016 02:40      63.0      62.6       71     53.2      0.00      0.00      85.7     0.47      1016.0     1       141         2       131        7.92     268      -68.0
   07/19/2016 02:30      62.9      62.5       69     52.1      0.00      0.00      85.9     0.47      1016.0     1       212         2       234        7.93     268      -68.5
   07/19/2016 02:20      63.0      62.5       69     52.5      0.00      0.00      85.7     0.47      1016.0     1       160         2       157        7.93     267      -69.7
   07/19/2016 02:10      63.2      63.0       68     52.3      0.00      0.00      86.2     0.47      1016.0     1       154         2       132        7.93     267      -70.1
   07/19/2016 02:00      63.6      63.4       67     52.2      0.00      0.00      86.0     0.47      1016.0     1       218         1       209        7.93     267      -69.6
   07/19/2016 01:50      63.5      63.3       68     52.5      0.00      0.00      85.8     0.47      1016.0     1       148         1       127        7.93     267      -70.5
   07/19/2016 01:40      64.3      63.7       67     52.6      0.00      0.00      86.1     0.47      1017.0     1       132         2       137        7.93     267      -72.2
   07/19/2016 01:30      64.5      64.2       66     52.6      0.00      0.00      85.9     0.47      1017.0     2       145         2       132        7.93     267      -71.9
   07/19/2016 01:20      64.3      64.0       64     51.8      0.00      0.00      86.1     0.47      1017.0     1       237         2       256        7.93     267      -71.5
   07/19/2016 01:10      64.7      64.3       64     52.3      0.00      0.00      85.9     0.47      1017.0     2       141         2       154        7.93     267      -72.9
   07/19/2016 01:00      65.1      64.9       62     51.9      0.00      0.00      86.3     0.47      1016.0     2       136         2       140        7.93     267      -73.3
   07/19/2016 00:50      65.6      64.9       62     52.2      0.00      0.00      86.2     0.47      1017.0     1       158         2       158        7.93     267      -73.5
   07/19/2016 00:40      65.8      65.0       63     52.7      0.00      0.00      86.2     0.47      1017.0     2       140         3       129        7.94     267      -74.6
   07/19/2016 00:30      65.6      65.1       64     52.8      0.00      0.00      86.0     0.47      1016.0     1       153         2       147        7.94     267      -74.2
   07/19/2016 00:20      66.2      65.3       63     53.1      0.00      0.00      86.0     0.47      1016.0     2       152         2       160        7.94     267      -75.2
   07/19/2016 00:10      67.0      66.4       63     53.7      0.00      0.00      86.1     0.47      1016.0     1       144         2       149        7.94     267      -75.6
   07/19/2016 00:00      67.3      67.0       62     53.6      0.00      0.00      86.2     0.47      1016.0     1       178         1       176        7.94     267      -75.1
   07/18/2016 23:50      67.4      67.2       61     53.2      0.00      0.00      86.2     0.47      1017.0     1       159         1       138        7.94     267      -75.6
   07/18/2016 23:40      68.1      67.5       57     52.3      0.00      0.00      86.1     0.47      1016.0     1       211         1       229        7.94     266      -75.0
   07/18/2016 23:30      68.4      68.0       58     53.0      0.00      0.00      86.2     0.47      1017.0     0       107         1       184        7.94     266      -76.0
   07/18/2016 23:20      69.0      68.3       56     52.3      0.00      0.00      86.3     0.47      1016.0     1       116         1       120        7.95     266      -77.7
   07/18/2016 23:10      69.4      68.9       54     52.0      0.00      0.00      86.2     0.47      1016.0     1       107         2       106        7.95     266      -77.7
   07/18/2016 23:00      69.8      69.5       53     51.8      0.00      0.00      86.1     0.47      1017.0     1       102         2        97        7.95     266      -77.7
   07/18/2016 22:50      70.4      70.0       51     51.4      0.00      0.00      86.2     0.47      1017.0     1       126         1       107        7.95     266      -77.7
   07/18/2016 22:40      70.6      70.3       49     50.3      0.00      0.00      86.2     0.47      1017.0     2       122         3        89        7.95     266      -78.5
   07/18/2016 22:30      71.0      70.4       45     48.2      0.00      0.00      86.3     0.47      1017.0     1       140         2       124        7.95     266      -78.7
   07/18/2016 22:20      71.6      70.9       45     48.7      0.00      0.00      86.2     0.46      1017.0     1       152         1       187        7.95     266      -79.3
   07/18/2016 22:10      72.9      72.0       45     49.8      0.00      0.00      86.2     0.47      1016.0     1       126         1       114        7.95     266      -80.2
   07/18/2016 22:00      73.0      72.7       46     50.7      0.00      0.00      86.4     0.46      1016.0     1        97         2       105        7.95     266      -81.0
   07/18/2016 21:50      73.6      73.1       48     52.6      0.00      0.00      86.3     0.46      1016.0     1        68         2        97        7.95     265      -82.0
   07/18/2016 21:40      74.0      73.7       48     53.2      0.00      0.00      86.3     0.46      1016.0     1        97         1        78        7.95     265      -82.7
   07/18/2016 21:30      74.4      74.2       49     53.9      0.00      0.00      86.2     0.46      1016.0     1       148         3       178        7.95     265      -83.3
   07/18/2016 21:20      74.8      74.4       50     55.0      0.00      0.00      85.9     0.46      1016.0     1       206         2       204        7.96     265      -83.8
   07/18/2016 21:10      75.5      74.9       51     55.9      0.00      0.00      86.3     0.46      1016.0     2       178         4       187        7.96     265      -84.8
   07/18/2016 21:00      76.3      75.6       50     56.0      0.00      0.00      86.2     0.46      1015.0     2       181         3       190        7.96     265      -85.7
   07/18/2016 20:50      77.4      76.4       49     56.5      0.00      0.00      86.2     0.46      1015.0     2       185         4       167        7.97     265      -85.5
   07/18/2016 20:40      77.9      77.4       50     57.3      0.00      0.00      85.9     0.46      1015.0     4       230         5       228        7.97     264      -86.1
   07/18/2016 20:30      78.5      77.9       49     57.4      0.00      0.00      86.0     0.46      1015.0     4       223         5       232        7.98     264      -87.5
   07/18/2016 20:20      79.6      78.6       47     57.6      0.00      0.00      86.1     0.46      1015.0     4       223         6       211        7.98     264      -87.8
   07/18/2016 20:10      80.4      79.8       46     57.4      0.00      0.00      86.1     0.46      1015.0     3       230         6       256        7.99     264      -87.0
   07/18/2016 20:00      81.6      80.5       45     57.8      0.00      0.00      86.2     0.46      1015.0     4       237         7       257        7.99     264      -84.5
   07/18/2016 19:50      82.1      81.6       44     57.9      0.00      0.00      86.0     0.46      1015.0     3       234         6       260        8.00     264      -80.9
   07/18/2016 19:40      82.2      82.1       40     55.2      0.00      0.00      86.0     0.46      1015.0     2       193         4       174        8.00     264      -70.3
   07/18/2016 19:30      82.8      82.2       36     53.2      0.00      0.00      86.0     0.46      1014.0     3       172         5       164        8.01     264      -58.0
   07/18/2016 19:20      83.9      82.9       33     51.2      0.00      0.00      85.8     0.46      1014.0     4       166         5       183        8.01     264      -41.4
   07/18/2016 19:10      84.2      83.5       29     48.0      0.00      0.00      85.8     0.46      1014.0     4       175         6       157        8.02     264      -22.8
   07/18/2016 19:00      85.7      84.4       25     45.0      0.00      0.00      85.8     0.46      1014.0     5       168         7       162        8.02     264       -3.7
   07/18/2016 18:50      87.4      85.9       18     37.1      0.00      0.00      85.8     0.46      1014.0     5       182         8       157        8.03     264       15.4
   07/18/2016 18:40      87.6      87.2       13     30.2      0.00      0.00      85.8     0.46      1014.0     3       184         5       175        8.03     264       32.7
   07/18/2016 18:30      88.2      87.4       13     31.3      0.00      0.00      85.4     0.46      1014.0     5       181         6       183        8.04     264       57.0
   07/18/2016 18:20      88.8      88.2       12     29.6      0.00      0.00      85.5     0.46      1014.0     5       187         6       154        8.04     263       80.8
   07/18/2016 18:10      89.2      88.8       13     32.3      0.00      0.00      85.5     0.46      1014.0     5       200         7       186        8.05     263      103.5
   07/18/2016 18:00      90.2      89.2       13     31.7      0.00      0.00      85.5     0.46      1014.0     5       193         8       204        8.05     263      125.0
   07/18/2016 17:50      91.8      90.0       12     31.4      0.00      0.00      85.6     0.46      1014.0     4       192         7       180        8.06     263      144.2
   07/18/2016 17:40      92.3      91.9        9     24.2      0.00      0.00      85.3     0.46      1014.0     3       131         5       161        8.07     264      166.0
   07/18/2016 17:30      92.5      91.9        7     19.9      0.00      0.00      85.2     0.46      1014.0     5        70         8        77        8.07     264      189.1
   07/18/2016 17:20      93.2      91.8        7     17.9      0.00      0.00      85.3     0.46      1014.0     7        80         9        77        8.08     264      212.6
   07/18/2016 17:10      93.7      92.7        6     15.7      0.00      0.00      85.0     0.46      1014.0     4        60         7        69        8.09     264      232.3
   07/18/2016 17:00      93.2      92.3        6     16.3      0.00      0.00      85.0     0.46      1014.0     5       100         7        80        8.09     264      254.1
   07/18/2016 16:50      93.5      92.9        6     16.0      0.00      0.00      85.1     0.46      1014.0     5        80         8       101        8.10     264      275.5
   07/18/2016 16:40      93.2      91.9        7     18.4      0.00      0.00      85.0     0.46      1014.0     5        95         8        90        8.11     264      298.4
   07/18/2016 16:30      92.9      92.0        6     16.3      0.00      0.00      84.7     0.46      1014.0     5       110         8        67        8.11     264      318.6
   07/18/2016 16:20      92.8      91.9        5     13.3      0.00      0.00      84.6     0.46      1014.0     5       114         8       131        8.12     264      336.8
   07/18/2016 16:10      93.2      92.5        6     15.1      0.00      0.00      84.6     0.46      1014.0     6       120         9       100        8.13     264      355.6
   07/18/2016 16:00      94.2      92.8        6     17.7      0.00      0.00      84.6     0.46      1014.0     6       107         8       136        8.14     264      371.1
   07/18/2016 15:50      93.7      92.4        6     15.0      0.00      0.00      84.7     0.46      1014.0     5       103         9       118        8.15     265      386.1
   07/18/2016 15:40      94.0      93.2        7     20.1      0.00      0.00      84.4     0.46      1015.0     5        86         8        73        8.16     265      402.4
   07/18/2016 15:30      94.1      93.5        6     17.9      0.00      0.00      84.7     0.46      1015.0     5       107         7       152        8.17     265      416.8
   07/18/2016 15:20      93.6      92.9        7     19.9      0.00      0.00      84.4     0.46      1015.0     4       107         7       142        8.17     265      431.3
   07/18/2016 15:10      93.4      92.4        8     21.6      0.00      0.00      84.3     0.46      1015.0     5       101         7       120        8.18     265      445.2
   07/18/2016 15:00      93.4      92.0        8     21.4      0.00      0.00      84.3     0.46      1015.0     5       103         8       127        8.18     265      460.2
   07/18/2016 14:50      92.3      91.7        8     21.2      0.00      0.00      84.2     0.46      1015.0     5        97         8        93        8.19     265      474.0
   07/18/2016 14:40      92.9      91.5        7     20.3      0.00      0.00      84.1     0.46      1015.0     6       138         9       122        8.20     265      484.3
   07/18/2016 14:30      93.1      91.9        7     19.2      0.00      0.00      84.0     0.45      1015.0     5       122         7       116        8.23     265      494.2
   07/18/2016 14:20      92.9      92.2        7     20.2      0.00      0.00      84.1     0.45      1015.0     5       107         8       133        8.25     266      500.7
   07/18/2016 14:10      93.4      92.2        6     14.5      0.00      0.00      84.1     0.45      1015.0     6       112        10       130        8.25     267      509.3
   07/18/2016 14:00      93.1      92.3        6     17.6      0.00      0.00      83.8     0.45      1016.0     5        77         7       130        8.26     267      519.1
   07/18/2016 13:50      93.2      92.2        7     18.3      0.00      0.00      83.9     0.45      1016.0     4        80         6        60        8.26     267      524.6
   07/18/2016 13:40      92.8      90.8        6     16.2      0.00      0.00      83.8     0.45      1016.0     4        99         6        72        8.26     267      532.6
   07/18/2016 13:30      92.0      90.8        5     13.1      0.00      0.00      83.7     0.45      1016.0     5       116         8       128        8.27     267      539.3
   07/18/2016 13:20      90.9      89.9        6     13.7      0.00      0.00      83.8     0.45      1016.0     5       106         9       137        8.27     267      541.6
   07/18/2016 13:10      90.8      90.0       11     28.1      0.00      0.00      83.7     0.45      1016.0     5       103         9       128        8.27     267      543.7
   07/18/2016 13:00      91.4      88.4       16     38.4      0.00      0.00      83.5     0.45      1016.0     4        49         7       352        8.27     268      542.4
   07/18/2016 12:50      88.7      88.2       22     44.6      0.00      0.00      83.8     0.45      1016.0     2       317         4         4        8.27     268      547.3
   07/18/2016 12:40      89.5      88.3       24     47.3      0.00      0.00      83.6     0.45      1016.0     4        19         5        25        8.27     268      546.2
   07/18/2016 12:30      88.5      87.7       26     48.4      0.00      0.00      83.5     0.45      1016.0     2        29         4        19        8.27     268      545.8
   07/18/2016 12:20      88.0      86.6       29     50.9      0.00      0.00      83.6     0.45      1016.0     2        27         4        12        8.27     268      546.9
   07/18/2016 12:10      86.8      85.9       32     52.6      0.00      0.00      83.4     0.45      1016.0     3        11         5         2        8.27     268      543.5
   07/18/2016 12:00      86.4      84.5       34     53.9      0.00      0.00      83.5     0.45      1017.0     3       337         5       317        8.27     268      536.9
   07/18/2016 11:50      84.6      83.9       36     54.7      0.00      0.00      83.7     0.45      1017.0     4        22         8       353        8.28     268      531.8
   07/18/2016 11:40      83.7      83.0       38     55.3      0.00      0.00      83.3     0.45      1017.0     4         6         6       353        8.28     269      525.2
   07/18/2016 11:30      83.7      82.3       40     56.4      0.00      0.00      83.8     0.45      1017.0     3        49         5        97        8.28     269      519.9
   07/18/2016 11:20      82.5      81.6       43     57.4      0.00      0.00      83.6     0.45      1017.0     3       358         5       294        8.28     269      509.8
   07/18/2016 11:10      81.3      79.8       45     57.2      0.00      0.00      83.7     0.45      1017.0     2       360         4         4        8.28     269      503.5
   07/18/2016 11:00      80.3      79.2       46     57.3      0.00      0.00      83.7     0.45      1017.0     3       355         7       348        8.28     269      490.7
   07/18/2016 10:50      79.2      78.5       48     57.5      0.00      0.00      83.9     0.46      1017.0     3        13         5       354        8.28     270      479.5
   07/18/2016 10:40      78.3      77.1       50     57.5      0.00      0.00      83.6     0.46      1017.0     2       322         3       316        8.28     270      464.9
   07/18/2016 10:30      77.6      77.0       51     57.7      0.00      0.00      83.6     0.46      1017.0     2        65         4        40        8.28     270      453.1
   07/18/2016 10:20      77.7      75.8       53     58.1      0.00      0.00      83.6     0.46      1017.0     3       330         7       334        8.28     270      438.2
   07/18/2016 10:10      75.6      74.4       55     58.0      0.00      0.00      83.8     0.46      1017.0     3       354         5       345        8.28     270      422.3
   07/18/2016 10:00      74.5      74.1       57     58.2      0.00      0.00      83.9     0.46      1017.0     3        12         4        12        8.28     270      404.5
   07/18/2016 09:50      74.5      73.4       59     58.5      0.00      0.00      84.1     0.46      1017.0     3        55         4       358        8.28     270      388.2
   07/18/2016 09:40      74.5      72.3       60     58.6      0.00      0.00      83.9     0.46      1017.0     2       347         2         3        8.28     271      369.4
   07/18/2016 09:30      72.8      71.2       63     58.7      0.00      0.00      84.0     0.46      1017.0     2        12         3        43        8.29     271      350.4
   07/18/2016 09:20      71.2      69.5       67     58.6      0.00      0.00      83.8     0.46      1017.0     2       332         3       260        8.29     271      333.3
   07/18/2016 09:10      69.7      67.7       70     58.5      0.00      0.00      83.6     0.46      1017.0     2       181         3       205        8.29     271      321.1
   07/18/2016 09:00      67.5      66.4       74     58.4      0.00      0.00      84.5     0.46      1017.0     1        33         2       190        8.29     271      323.7
   07/18/2016 08:50      66.4      64.6       79     58.6      0.00      0.00      83.8     0.46      1017.0     2       271         3       307        8.29     270      184.9
   07/18/2016 08:40      64.7      64.0       81     58.4      0.00      0.00      83.8     0.46      1017.0     2       271         2       273        8.29     270      -16.3
   07/18/2016 08:30      64.0      63.4       83     58.4      0.00      0.00      84.0     0.46      1017.0     2       257         3       279        8.29     270       -1.7
   07/18/2016 08:20      63.7      63.3       84     58.5      0.00      0.00      83.6     0.46      1017.0     2       130         3       106        8.29     270       97.3
   07/18/2016 08:10      63.5      63.2       84     58.6      0.00      0.00      84.4     0.46      1017.0     2       126         3       132        8.29     270      114.2
   07/18/2016 08:00      63.3      63.0       85     58.5      0.00      0.00      84.2     0.46      1017.0     1       183         2       134        8.30     271       77.3
   07/18/2016 07:50      63.2      62.4       86     58.5      0.00      0.00      84.1     0.46      1017.0     2        41         3        25        8.30     271       63.5
   07/18/2016 07:40      63.0      62.5       86     58.4      0.00      0.00      84.3     0.46      1017.0     2       113         3       111        8.30     270       66.8
   07/18/2016 07:30      63.0      62.0       87     58.3      0.00      0.00      84.5     0.47      1017.0     2        37         4       356        8.30     271       70.8
   07/18/2016 07:20      62.0      61.4       86     57.5      0.00      0.00      84.3     0.47      1017.0     2        84         3        79        8.30     271       63.9
   07/18/2016 07:10      61.5      60.9       87     57.3      0.00      0.00      84.4     0.47      1017.0     1        93         2       100        8.30     271       32.9
   07/18/2016 07:00      61.1      59.9       88     56.8      0.00      0.00      84.2     0.47      1017.0     1       130         3       131        8.30     271       15.3
   07/18/2016 06:50      60.0      59.4       89     56.4      0.00      0.00      84.3     0.47      1017.0     0       111         1       113        8.30     271        5.7
   07/18/2016 06:40      59.4      59.0       90     56.4      0.00      0.00      85.0     0.47      1017.0     0       137         1       126        8.30     271       -4.0
   07/18/2016 06:30      59.1      58.8       91     56.4      0.00      0.00      84.3     0.47      1017.0     1       150         1       135        8.30     270      -11.4
   07/18/2016 06:20      58.8      58.5       91     56.1      0.00      0.00      85.0     0.47      1017.0     1       153         2       155        8.30     270      -18.4
   07/18/2016 06:10      58.6      58.1       90     55.5      0.00      0.00      84.9     0.47      1017.0     2       135         2       133        8.30     270      -24.6
   07/18/2016 06:00      58.8      58.2       91     56.0      0.00      0.00      84.5     0.47      1017.0     2       152         2       145        8.30     271      -28.3
   07/18/2016 05:50      58.4      58.0       89     55.0      0.00      0.00      84.6     0.47      1017.0     2       137         2       138        8.30     270      -32.3
   07/18/2016 05:40      58.8      58.0       91     55.7      0.00      0.00      85.0     0.47      1017.0     2       133         2       132        8.31     270      -34.4
   07/18/2016 05:30      58.0      57.6       90     54.8      0.00      0.00      85.0     0.47      1017.0     1       152         2       138        8.30     270      -35.4
   07/18/2016 05:20      58.5      58.2       90     55.4      0.00      0.00      85.1     0.47      1017.0     2       158         2       134        8.31     270      -35.7
   07/18/2016 05:10      59.0      58.8       91     56.1      0.00      0.00      85.0     0.47      1016.0     1       161         2       140        8.31     270      -35.6
   07/18/2016 05:00      59.0      58.6       90     55.9      0.00      0.00      85.0     0.47      1016.0     1       175         1       144        8.31     270      -37.0
   07/18/2016 04:50      59.1      58.6       90     55.8      0.00      0.00      85.2     0.47      1016.0     2       149         2       143        8.31     269      -38.5
   07/18/2016 04:40      59.4      59.0       90     56.3      0.00      0.00      85.0     0.47      1016.0     1       150         2       143        8.31     269      -38.7
   07/18/2016 04:30      59.5      59.4       90     56.6      0.00      0.00      85.4     0.47      1016.0     1       172         2       139        8.31     270      -40.3
   07/18/2016 04:20      59.5      59.1       90     56.5      0.00      0.00      85.1     0.47      1016.0     1       175         1       160        8.31     269      -42.1
   07/18/2016 04:10      59.5      59.1       89     56.0      0.00      0.00      85.0     0.47      1016.0     1       155         1       177        8.31     269      -45.7
   07/18/2016 04:00      59.7      59.4       89     56.3      0.00      0.00      84.8     0.47      1016.0     2       153         2       142        8.31     269      -46.7
   07/18/2016 03:50      60.0      59.8       89     56.6      0.00      0.00      85.1     0.47      1016.0     1       154         2       148        8.31     269      -48.5
   07/18/2016 03:40      60.1      59.7       88     56.3      0.00      0.00      85.1     0.47      1016.0     1       144         2       129        8.31     269      -51.8
   07/18/2016 03:30      60.5      60.2       88     57.0      0.00      0.00      85.2     0.47      1016.0     1       147         2       161        8.31     269      -51.7
   07/18/2016 03:20      61.0      60.5       88     57.2      0.00      0.00      85.3     0.47      1016.0     1       176         1       185        8.31     269      -54.0
   07/18/2016 03:10      61.4      61.0       87     57.1      0.00      0.00      85.5     0.47      1016.0     1       144         1       127        8.31     269      -55.4
   07/18/2016 03:00      61.7      61.4       87     57.6      0.00      0.00      85.5     0.47      1016.0     1       111         2       128        8.31     269      -56.4
   07/18/2016 02:50      61.9      61.6       87     57.7      0.00      0.00      85.3     0.47      1016.0     2       104         2        79        8.31     269      -58.3
   07/18/2016 02:40      62.2      61.6       85     57.4      0.00      0.00      85.5     0.47      1016.0     2       110         2       109        8.31     269      -59.9
   07/18/2016 02:30      62.1      61.9       86     57.8      0.00      0.00      85.5     0.47      1016.0     1        98         2       102        8.31     269      -61.1
   07/18/2016 02:20      62.3      61.9       85     57.5      0.00      0.00      85.3     0.47      1016.0     1        97         2        90        8.31     268      -63.9
   07/18/2016 02:10      62.6      62.1       84     57.4      0.00      0.00      85.3     0.47      1016.0     1        84         1       121        8.31     268      -65.4
   07/18/2016 02:00      62.9      62.5       84     57.6      0.00      0.00      85.6     0.47      1016.0     1        90         1        44        8.31     268      -67.1
   07/18/2016 01:50      62.9      62.8       84     57.8      0.00      0.00      85.8     0.47      1016.0     1        95         3       109        8.31     268      -67.9
   07/18/2016 01:40      63.1      62.8       83     57.7      0.00      0.00      85.6     0.47      1016.0     2        78         2        68        8.31     268      -67.8
   07/18/2016 01:30      63.1      62.9       83     57.6      0.00      0.00      85.9     0.47      1016.0     1        73         2        62        8.31     268      -69.0
   07/18/2016 01:20      63.4      63.2       82     57.7      0.00      0.00      85.8     0.47      1016.0     2        78         2        71        8.31     268      -69.8
   07/18/2016 01:10      63.5      63.3       81     57.5      0.00      0.00      85.8     0.47      1016.0     2        98         3        88        8.31     268      -70.2
   07/18/2016 01:00      63.8      63.4       81     57.5      0.00      0.00      85.7     0.47      1016.0     1        87         2        60        8.31     268      -70.7
   07/18/2016 00:50      63.9      63.6       80     57.4      0.00      0.00      86.0     0.47      1016.0     1        79         1        94        8.31     268      -71.5
   07/18/2016 00:40      64.5      64.0       79     57.6      0.00      0.00      85.7     0.47      1016.0     1        65         2        41        8.32     268      -71.3
   07/18/2016 00:30      64.7      64.3       78     57.5      0.00      0.00      86.2     0.47      1016.0     2        55         3        68        8.32     267      -72.2
   07/18/2016 00:20      64.9      64.6       77     57.5      0.00      0.00      86.0     0.47      1016.0     2        46         3        69        8.32     267      -73.2
   07/18/2016 00:10      65.1      64.9       76     57.3      0.00      0.00      85.8     0.47      1016.0     1        63         2        36        8.32     267      -73.9
   07/18/2016 00:00      65.5      65.1       75     57.3      0.00      0.00      86.1     0.47      1016.0     1        60         2        69        8.32     267      -74.4
   07/17/2016 23:50      65.8      65.5       74     57.4      0.00      0.00      85.8     0.47      1016.0     1        38         2        62        8.32     267      -74.9
   07/17/2016 23:40      66.0      65.8       74     57.5      0.00      0.00      86.1     0.47      1016.0     2        34         3        65        8.32     267      -76.8
   07/17/2016 23:30      66.1      65.8       74     57.4      0.00      0.00      86.0     0.47      1016.0     1        43         2        37        8.32     267      -77.4
   07/17/2016 23:20      66.5      66.1       73     57.4      0.00      0.00      86.3     0.47      1016.0     1        72         2        86        8.32     267      -77.8
   07/17/2016 23:10      67.2      66.6       72     57.4      0.00      0.00      86.2     0.47      1016.0     2        57         3        63        8.32     266      -78.6
   07/17/2016 23:00      67.6      67.2       70     57.2      0.00      0.00      86.0     0.47      1016.0     2        52         3        73        8.32     266      -79.2
   07/17/2016 22:50      67.9      67.5       69     57.1      0.00      0.00      86.1     0.47      1016.0     1        55         2        72        8.32     266      -80.0
   07/17/2016 22:40      68.4      68.0       67     57.0      0.00      0.00      86.0     0.47      1016.0     2        67         4        93        8.32     266      -80.4
   07/17/2016 22:30      69.2      68.6       65     56.6      0.00      0.00      86.0     0.47      1016.0     2        55         5        76        8.32     266      -81.0
   07/17/2016 22:20      69.5      69.3       63     56.1      0.00      0.00      86.3     0.47      1016.0     1        57         2        47        8.32     266      -81.9
   07/17/2016 22:10      70.0      69.6       62     56.1      0.00      0.00      86.1     0.47      1015.0     1        76         2        71        8.32     265      -82.3
   07/17/2016 22:00      70.4      70.1       60     55.8      0.00      0.00      86.0     0.47      1015.0     1        70         2        92        8.33     265      -82.7
   07/17/2016 21:50      70.7      70.3       54     53.1      0.00      0.00      86.1     0.47      1015.0     1        52         3        73        8.32     265      -83.2
   07/17/2016 21:40      71.3      70.7       49     51.2      0.00      0.00      86.0     0.47      1015.0     1        63         1        84        8.32     265      -84.3
   07/17/2016 21:30      71.9      71.4       49     51.7      0.00      0.00      86.1     0.47      1015.0     1       164         2       188        8.33     265      -85.4
   07/17/2016 21:20      72.2      71.9       47     50.8      0.00      0.00      86.2     0.47      1015.0     2       168         3       154        8.33     264      -87.0
   07/17/2016 21:10      72.8      72.2       43     49.0      0.00      0.00      86.0     0.47      1015.0     2       150         3       132        8.33     264      -88.0
   07/17/2016 21:00      73.1      72.9       40     47.0      0.00      0.00      86.0     0.47      1014.0     2       136         4       166        8.33     264      -87.7
   07/17/2016 20:50      73.5      73.1       38     46.4      0.00      0.00      86.1     0.47      1014.0     3       172         4       173        8.33     264      -87.9
   07/17/2016 20:40      74.0      73.5       38     46.7      0.00      0.00      86.0     0.47      1014.0     3       149         5       134        8.33     264      -88.3
   07/17/2016 20:30      74.9      74.2       37     46.4      0.00      0.00      85.9     0.47      1014.0     4       132         5       134        8.34     264      -89.1
   07/17/2016 20:20      75.8      75.0       35     45.8      0.00      0.00      86.0     0.47      1014.0     4       141         5       169        8.34     264      -89.8
   07/17/2016 20:10      76.8      76.0       33     45.0      0.00      0.00      85.9     0.47      1014.0     4       147         6       138        8.35     264      -88.5
   07/17/2016 20:00      77.6      76.9       30     43.2      0.00      0.00      85.8     0.47      1014.0     5       168         8       159        8.36     264      -85.0
   07/17/2016 19:50      78.5      77.6       28     42.5      0.00      0.00      85.9     0.47      1014.0     5       174         7       164        8.36     263      -81.1
   07/17/2016 19:40      80.1      78.8       27     42.1      0.00      0.00      86.0     0.47      1014.0     5       177         8       155        8.37     263      -67.7
   07/17/2016 19:30      81.1      80.4       25     41.7      0.00      0.00      85.9     0.47      1013.0     4       181         6       168        8.38     264      -55.5
   07/17/2016 19:20      81.6      81.1       23     39.5      0.00      0.00      85.7     0.46      1013.0     5       174         7       168        8.38     263      -41.2
   07/17/2016 19:10      82.6      81.8       21     38.8      0.00      0.00      85.8     0.46      1013.0     5       164         7       165        8.39     263      -24.6
   07/17/2016 19:00      84.2      82.7       23     41.4      0.00      0.00      85.8     0.46      1013.0     5       172         6       168        8.40     264       -5.5
   07/17/2016 18:50      85.5      84.3       21     40.7      0.00      0.00      85.8     0.46      1013.0     5       162         7       155        8.41     263       15.5
   07/17/2016 18:40      85.8      85.5       19     38.2      0.00      0.00      85.8     0.46      1013.0     4       170         6       184        8.41     264       36.8
   07/17/2016 18:30      86.9      86.2       17     37.3      0.00      0.00      85.6     0.46      1013.0     3       157         5       167        8.42     264       58.8
   07/17/2016 18:20      87.0      86.1       17     36.5      0.00      0.00      85.4     0.46      1013.0     3       185         5       137        8.42     264       80.6
   07/17/2016 18:10      86.9      86.2       18     37.9      0.00      0.00      85.3     0.46      1013.0     4       178         6       181        8.42     264      104.2
   07/17/2016 18:00      87.4      86.7       18     38.3      0.00      0.00      85.4     0.46      1013.0     4       165         6       141        8.43     264      126.6
   07/17/2016 17:50      87.4      86.6       17     37.0      0.00      0.00      85.3     0.46      1013.0     3       184         6       156        8.43     264      151.3
   07/17/2016 17:40      86.8      86.5       17     36.1      0.00      0.00      85.3     0.46      1013.0     5       191         9       176        8.43     264      177.5
   07/17/2016 17:30      87.4      86.8       17     36.7      0.00      0.00      85.3     0.46      1013.0     5       187         7       193        8.44     264      200.8
   07/17/2016 17:20      87.9      87.2       17     37.5      0.00      0.00      85.0     0.46      1013.0     5       153         8       183        8.44     264      223.2
   07/17/2016 17:10      88.2      87.4       18     38.5      0.00      0.00      85.1     0.46      1013.0     6       163         9       156        8.45     263      246.1
   07/17/2016 17:00      88.7      88.0       18     39.3      0.00      0.00      85.0     0.46      1013.0     5       149         7       162        8.45     264      268.2
   07/17/2016 16:50      88.2      87.2       18     39.3      0.00      0.00      84.9     0.46      1013.0     5       170         7       154        8.45     264      289.7
   07/17/2016 16:40      88.4      87.3       19     40.6      0.00      0.00      84.8     0.46      1013.0     7       155        10       143        8.46     264      310.9
   07/17/2016 16:30      89.4      88.2       17     37.7      0.00      0.00      84.8     0.46      1013.0     6       135         9       145        8.46     264      329.6
   07/17/2016 16:20      89.7      88.2       14     34.3      0.00      0.00      84.7     0.46      1013.0     5       150         6       124        8.47     264      346.6
   07/17/2016 16:10      88.9      88.0       16     35.9      0.00      0.00      84.4     0.46      1013.0     6       158        11       137        8.47     264      367.1
   07/17/2016 16:00      89.3      87.9       16     37.4      0.00      0.00      84.5     0.46      1013.0     5       176         8       162        8.48     264      383.0
   07/17/2016 15:50      89.0      88.3       17     37.6      0.00      0.00      84.3     0.46      1013.0     5       161        10       162        8.48     264      400.8
   07/17/2016 15:40      88.8      88.2       17     38.4      0.00      0.00      84.2     0.46      1013.0     5       146         8       158        8.49     264      418.5
   07/17/2016 15:30      89.7      88.2       14     33.7      0.00      0.00      84.3     0.46      1013.0     6       162         9       181        8.50     264      432.8
   07/17/2016 15:20      88.8      87.9       17     38.1      0.00      0.00      84.3     0.46      1013.0     6       182         8       148        8.51     264      450.6
   07/17/2016 15:10      88.5      87.9       20     41.6      0.00      0.00      84.1     0.46      1013.0     7       172         9       174        8.51     264      465.5
   07/17/2016 15:00      88.7      87.8       20     42.7      0.00      0.00      84.1     0.46      1013.0     6       173         8       165        8.52     265      477.7
   07/17/2016 14:50      89.3      87.9       20     42.2      0.00      0.00      84.2     0.46      1013.0     7       163        11       151        8.52     265      488.7
   07/17/2016 14:40      89.1      87.1       21     43.0      0.00      0.00      84.0     0.46      1013.0     7       171         9       191        8.53     265      500.1
   07/17/2016 14:30      88.4      87.6       22     44.7      0.00      0.00      83.9     0.46      1013.0     6       168        10       149        8.53     265      509.0
   07/17/2016 14:20      89.6      88.4       22     44.9      0.00      0.00      84.0     0.46      1013.0     6       178         9       168        8.54     266      512.2
   07/17/2016 14:10      90.0      88.2       21     44.3      0.00      0.00      83.9     0.46      1013.0     4       160         8       155        8.54     267      518.1
   07/17/2016 14:00      90.8      88.5       20     43.3      0.00      0.00      83.8     0.45      1013.0     3       203         4       356        8.54     268      523.1
   07/17/2016 13:50      88.5      87.5       21     42.6      0.00      0.00      83.8     0.45      1014.0     5       222         6       141        8.54     268      535.2
   07/17/2016 13:40      87.9      87.2       22     43.8      0.00      0.00      83.7     0.45      1014.0     4       226         6       217        8.54     268      540.0
   07/17/2016 13:30      88.2      87.7       23     45.8      0.00      0.00      84.0     0.45      1014.0     4       141         8       165        8.55     268      544.9
   07/17/2016 13:20      87.8      87.1       26     48.0      0.00      0.00      83.8     0.45      1014.0     3        52         6       101        8.55     268      547.1
   07/17/2016 13:10      87.7      86.6       27     48.9      0.00      0.00      83.5     0.45      1014.0     4        55         6       146        8.55     268      554.9
   07/17/2016 13:00      86.7      85.2       28     49.0      0.00      0.00      83.4     0.46      1014.0     4        64         8        77        8.55     269      559.0
   07/17/2016 12:50      86.1      84.8       30     50.8      0.00      0.00      83.6     0.45      1014.0     5        69         7       148        8.55     269      557.5
   07/17/2016 12:40      84.8      83.6       36     54.0      0.00      0.00      83.5     0.46      1014.0     4        37         5        30        8.55     269      555.2
   07/17/2016 12:30      84.2      82.6       37     54.4      0.00      0.00      83.4     0.46      1014.0     5        20         7       356        8.55     269      552.6
   07/17/2016 12:20      84.0      83.5       37     54.8      0.00      0.00      84.0     0.46      1014.0     5        16         8        35        8.55     270      550.6
   07/17/2016 12:10      83.6      82.4       37     54.4      0.00      0.00      83.4     0.46      1014.0     3        62         7        84        8.56     270      551.8
   07/17/2016 12:00      82.7      81.9       39     54.9      0.00      0.00      83.7     0.46      1014.0     5        55         7        77        8.56     270      546.5
   07/17/2016 11:50      82.5      81.7       40     55.8      0.00      0.00      83.5     0.46      1014.0     4        55         8        79        8.56     270      540.0
   07/17/2016 11:40      82.4      79.9       43     56.7      0.00      0.00      83.6     0.46      1014.0     4        33         5        26        8.56     270      535.4
   07/17/2016 11:30      81.4      80.1       47     58.6      0.00      0.00      83.4     0.46      1014.0     3        35         4         9        8.56     270      524.7
   07/17/2016 11:20      80.5      79.0       48     58.5      0.00      0.00      83.4     0.46      1014.0     4        37         6        44        8.56     270      517.5
   07/17/2016 11:10      79.2      77.9       50     58.5      0.00      0.00      83.6     0.46      1014.0     4        23         5        30        8.56     270      506.7
   07/17/2016 11:00      78.7      77.6       51     58.7      0.00      0.00      83.6     0.46      1014.0     3        34         6        57        8.56     270      495.3
   07/17/2016 10:50      77.4      76.5       53     58.5      0.00      0.00      83.6     0.46      1014.0     4        19         7       359        8.56     271      481.8
   07/17/2016 10:40      76.9      75.8       53     58.1      0.00      0.00      83.8     0.46      1014.0     4        35         7       357        8.56     272      471.7
   07/17/2016 10:30      76.2      74.8       55     57.9      0.00      0.00      83.6     0.46      1014.0     3        42         4        32        8.56     272      460.7
   07/17/2016 10:20      74.9      73.4       55     57.3      0.00      0.00      83.7     0.46      1014.0     3        43         5        68        8.56     272      446.8
   07/17/2016 10:10      73.7      72.4       58     57.5      0.00      0.00      84.1     0.46      1014.0     4        42         6        73        8.56     272      429.5
   07/17/2016 10:00      73.5      72.3       61     58.2      0.00      0.00      84.0     0.46      1014.0     3        22         4        15        8.56     272      412.2
   07/17/2016 09:50      72.2      71.5       63     58.5      0.00      0.00      84.0     0.46      1014.0     3        62         5        75        8.56     272      396.6
   07/17/2016 09:40      71.5      70.5       66     59.0      0.00      0.00      83.8     0.46      1014.0     3        37         4         0        8.56     272      377.1
   07/17/2016 09:30      70.6      68.7       69     59.0      0.00      0.00      84.4     0.46      1014.0     3        30         4        62        8.57     273      359.3
   07/17/2016 09:20      68.9      68.6       70     58.8      0.00      0.00      84.5     0.46      1014.0     3        30         4        56        8.57     272      342.2
   07/17/2016 09:10      68.6      68.0       72     58.9      0.00      0.00      84.3     0.47      1014.0     3        30         4        20        8.57     272      330.2
   07/17/2016 09:00      68.6      67.4       72     58.8      0.00      0.00      84.0     0.47      1014.0     3        53         3        78        8.57     272      334.7
   07/17/2016 08:50      67.4      66.5       74     58.6      0.00      0.00      84.2     0.47      1014.0     3        49         5        22        8.57     272      206.6
   07/17/2016 08:40      66.9      66.5       75     58.4      0.00      0.00      84.3     0.47      1014.0     3        28         4        22        8.57     272      -21.3
   07/17/2016 08:30      66.6      65.7       76     58.5      0.00      0.00      84.4     0.47      1014.0     3        27         4        24        8.58     272      -21.6
   07/17/2016 08:20      65.9      65.5       77     58.3      0.00      0.00      84.2     0.47      1014.0     3        39         3        44        8.58     272       -1.9
   07/17/2016 08:10      65.7      65.3       78     58.2      0.00      0.00      84.6     0.47      1014.0     2        11         3        21        8.58     272       13.7
   07/17/2016 08:00      65.5      64.5       79     58.3      0.00      0.00      84.4     0.47      1014.0     2         4         4        12        8.58     272       39.1
   07/17/2016 07:50      64.5      63.8       81     57.9      0.00      0.00      84.1     0.47      1014.0     2        66         2        71        8.58     272       29.8
   07/17/2016 07:40      63.9      63.3       82     57.8      0.00      0.00      84.2     0.47      1014.0     2       354         3       341        8.58     272       20.7
   07/17/2016 07:30      63.6      63.0       83     57.9      0.00      0.00      84.1     0.47      1014.0     2        15         3         6        8.58     272       12.8
   07/17/2016 07:20      62.9      62.3       84     57.8      0.00      0.00      84.5     0.47      1014.0     2        55         3        24        8.58     272       20.0
   07/17/2016 07:10      62.4      61.4       86     57.7      0.00      0.00      84.4     0.47      1014.0     2        40         2        52        8.58     272       15.3
   07/17/2016 07:00      61.7      60.6       88     57.5      0.00      0.00      84.4     0.47      1014.0     1        75         2        85        8.58     272        5.5
   07/17/2016 06:50      60.8      59.6       89     57.0      0.00      0.00      84.5     0.47      1014.0     1       131         1       128        8.58     272       -0.5
   07/17/2016 06:40      59.7      59.0       91     56.7      0.00      0.00      84.6     0.47      1013.0     1       157         1       131        8.58     272       -6.9
   07/17/2016 06:30      59.1      58.6       91     56.2      0.00      0.00      84.7     0.47      1013.0     1       150         2       157        8.58     272      -12.4
   07/17/2016 06:20      58.7      58.6       91     56.2      0.00      0.00      84.8     0.47      1013.0     1       137         2       145        8.58     272      -14.6
   07/17/2016 06:10      58.8      58.1       91     55.9      0.00      0.00      84.9     0.47      1013.0     1       157         1       140        8.58     272      -20.3
   07/17/2016 06:00      58.6      58.2       91     56.0      0.00      0.00      84.5     0.47      1013.0     1       159         2       147        8.58     271      -24.2
   07/17/2016 05:50      58.9      58.5       91     56.2      0.00      0.00      85.0     0.47      1013.0     1       157         2       142        8.58     271      -27.9
   07/17/2016 05:40      58.8      58.3       91     56.0      0.00      0.00      84.9     0.47      1013.0     2       147         2       140        8.58     271      -29.6
   07/17/2016 05:30      59.1      58.7       91     56.4      0.00      0.00      84.8     0.47      1013.0     1       192         1       196        8.58     272      -30.0
   07/17/2016 05:20      59.4      58.9       91     56.6      0.00      0.00      84.8     0.47      1013.0     1       151         1       152        8.58     273      -30.6
   07/17/2016 05:10      59.7      59.4       91     56.8      0.00      0.00      85.0     0.47      1013.0     1       173         1       189        8.58     272      -31.7
   07/17/2016 05:00      59.7      59.5       91     56.9      0.00      0.00      84.8     0.47      1013.0     1       162         1       163        8.58     272      -32.9
   07/17/2016 04:50      59.9      59.5       90     56.7      0.00      0.00      85.3     0.47      1013.0     1       128         2       121        8.58     271      -35.0
   07/17/2016 04:40      60.2      59.9       89     56.9      0.00      0.00      85.3     0.47      1013.0     1       131         2       131        8.58     271      -35.9
   07/17/2016 04:30      60.5      60.2       89     57.2      0.00      0.00      85.1     0.47      1013.0     1       131         2       107        8.58     271      -37.5
   07/17/2016 04:20      60.9      60.4       88     57.0      0.00      0.00      85.2     0.47      1013.0     1       119         2       107        8.58     271      -38.9
   07/17/2016 04:10      61.4      61.0       88     57.7      0.00      0.00      85.8     0.47      1013.0     1       118         1       108        8.58     271      -39.3
   07/17/2016 04:00      61.4      61.2       88     57.8      0.00      0.00      85.4     0.47      1013.0     1       104         2       116        8.58     271      -40.7
   07/17/2016 03:50      61.4      61.3       88     57.6      0.00      0.00      85.7     0.47      1013.0     2        71         4        73        8.58     270      -41.2
   07/17/2016 03:40      61.6      61.0       88     57.6      0.00      0.00      85.3     0.47      1013.0     1        69         2        73        8.59     271      -43.4
   07/17/2016 03:30      61.1      60.8       86     56.8      0.00      0.00      85.5     0.47      1013.0     1        91         2       104        8.59     271      -45.5
   07/17/2016 03:20      61.0      60.8       85     56.4      0.00      0.00      85.5     0.47      1013.0     1        77         1       100        8.59     271      -48.2
   07/17/2016 03:10      61.0      60.6       86     56.5      0.00      0.00      85.6     0.47      1013.0     0       125         1       145        8.59     271      -50.1
   07/17/2016 03:00      60.6      60.3       85     55.9      0.00      0.00      85.6     0.47      1013.0     1       103         1       122        8.59     271      -53.3
   07/17/2016 02:50      60.5      60.3       84     55.6      0.00      0.00      85.3     0.47      1013.0     1       113         2       124        8.59     271      -55.2
   07/17/2016 02:40      61.1      60.6       84     56.2      0.00      0.00      85.8     0.47      1013.0     1       111         2       116        8.59     271      -53.3
   07/17/2016 02:30      61.5      61.0       86     57.0      0.00      0.00      85.7     0.47      1013.0     1        92         1        84        8.59     271      -53.9
   07/17/2016 02:20      61.6      61.4       85     56.9      0.00      0.00      85.6     0.47      1013.0     1        94         1       110        8.59     270      -59.4
   07/17/2016 02:10      62.2      61.6       84     56.8      0.00      0.00      85.6     0.47      1013.0     1       100         1       115        8.59     270      -62.9
   07/17/2016 02:00      62.3      62.0       83     57.0      0.00      0.00      86.1     0.47      1013.0     1        90         1        61        8.59     271      -64.5
   07/17/2016 01:50      62.3      62.1       82     56.6      0.00      0.00      85.9     0.47      1013.0     1        83         2        89        8.59     270      -68.9
   07/17/2016 01:40      62.5      62.2       81     56.5      0.00      0.00      85.9     0.47      1013.0     1        83         2        73        8.59     270      -71.2
   07/17/2016 01:30      62.6      62.5       81     56.7      0.00      0.00      86.0     0.47      1013.0     1       129         2       117        8.59     270      -71.2
   07/17/2016 01:20      63.0      62.6       81     56.9      0.00      0.00      85.9     0.47      1013.0     1       126         2       122        8.59     270      -71.9
   07/17/2016 01:10      63.5      63.2       80     57.0      0.00      0.00      86.1     0.47      1013.0     1       107         1       147        8.59     270      -72.9
   07/17/2016 01:00      63.5      63.3       79     56.7      0.00      0.00      86.3     0.47      1013.0     2        98         2        89        8.59     270      -74.3
   07/17/2016 00:50      64.1      63.5       78     57.0      0.00      0.00      86.4     0.47      1013.0     1       115         2       129        8.60     269      -74.9
   07/17/2016 00:40      64.5      64.3       78     57.5      0.00      0.00      86.0     0.47      1013.0     1       105         2        87        8.60     269      -75.7
   07/17/2016 00:30      65.0      64.6       78     57.8      0.00      0.00      86.3     0.47      1013.0     1       109         2       115        8.60     269      -76.2
   07/17/2016 00:20      65.2      65.0       77     57.8      0.00      0.00      86.0     0.47      1013.0     1        96         2        74        8.60     269      -76.3
   07/17/2016 00:10      65.5      65.1       76     57.8      0.00      0.00      86.1     0.47      1013.0     1        96         2        80        8.60     269      -76.8
   07/17/2016 00:00      65.7      65.4       76     57.7      0.00      0.00      86.3     0.47      1013.0     2        99         3       100        8.60     269      -77.0
   07/16/2016 23:50      66.1      65.8       74     57.5      0.00      0.00      86.5     0.47      1013.0     2        90         3        81        8.60     269      -77.7
   07/16/2016 23:40      66.4      66.2       73     57.3      0.00      0.00      86.3     0.47      1013.0     1       102         2        92        8.60     269      -78.1
   07/16/2016 23:30      66.9      66.5       71     57.1      0.00      0.00      86.2     0.47      1013.0     2        93         2        94        8.60     269      -78.3
   07/16/2016 23:20      67.5      67.0       69     57.0      0.00      0.00      86.4     0.47      1013.0     1       112         2        85        8.60     268      -78.8
   07/16/2016 23:10      68.3      67.7       67     56.6      0.00      0.00      86.5     0.47      1013.0     1        74         2       124        8.61     268      -79.1
   07/16/2016 23:00      68.7      68.1       64     55.7      0.00      0.00      86.5     0.47      1013.0     1        71         2        45        8.61     268      -79.8
   07/16/2016 22:50      69.5      68.9       61     55.1      0.00      0.00      86.2     0.47      1013.0     2        72         3        76        8.61     268      -79.8
   07/16/2016 22:40      70.1      69.6       58     54.4      0.00      0.00      86.4     0.47      1013.0     1        73         2        78        8.61     268      -79.9
   07/16/2016 22:30      70.4      70.1       56     53.8      0.00      0.00      86.2     0.47      1013.0     2        51         3        72        8.61     268      -80.1
   07/16/2016 22:20      70.7      70.3       55     53.4      0.00      0.00      86.4     0.47      1013.0     1       111         1       210        8.61     267      -79.7
   07/16/2016 22:10      71.2      70.8       54     53.3      0.00      0.00      86.2     0.47      1013.0     2       206         3       216        8.61     267      -80.3
   07/16/2016 22:00      71.8      71.3       53     53.3      0.00      0.00      86.5     0.47      1012.0     3       178         4       161        8.61     267      -81.6
   07/16/2016 21:50      72.6      71.9       54     54.5      0.00      0.00      86.5     0.47      1012.0     3       138         4       140        8.61     267      -82.6
   07/16/2016 21:40      73.1      72.6       54     55.4      0.00      0.00      86.4     0.47      1012.0     2        90         3        99        8.62     267      -82.7
   07/16/2016 21:30      73.6      73.2       55     56.2      0.00      0.00      86.2     0.47      1012.0     1       162         3       222        8.62     267      -84.2
   07/16/2016 21:20      73.9      73.7       54     56.3      0.00      0.00      86.4     0.47      1012.0     3       243         5       245        8.62     266      -84.8
   07/16/2016 21:10      74.7      74.0       53     56.2      0.00      0.00      86.3     0.47      1012.0     4       242         6       243        8.62     266      -85.3
   07/16/2016 21:00      75.4      74.7       52     56.1      0.00      0.00      86.4     0.47      1012.0     4       239         6       240        8.63     266      -85.7
   07/16/2016 20:50      76.3      75.4       50     55.9      0.00      0.00      86.3     0.47      1012.0     5       240         6       251        8.63     266      -87.3
   07/16/2016 20:40      77.5      76.4       48     55.5      0.00      0.00      86.5     0.47      1011.0     4       243         6       243        8.63     266      -88.9
   07/16/2016 20:30      78.9      77.7       45     55.0      0.00      0.00      86.4     0.47      1011.0     3       247         4       228        8.63     266      -89.9
   07/16/2016 20:20      79.4      79.0       38     51.2      0.00      0.00      86.4     0.47      1011.0     2       315         3       328        8.63     266      -90.6
   07/16/2016 20:10      80.1      79.5       35     49.8      0.00      0.00      86.1     0.47      1011.0     2       341         3       318        8.64     266      -91.8
   07/16/2016 20:00      80.7      80.3       35     50.6      0.00      0.00      86.2     0.47      1011.0     3         1         4        21        8.64     266      -90.2
   07/16/2016 19:50      81.8      80.9       35     51.0      0.00      0.00      86.3     0.47      1011.0     4       334         6       330        8.64     266      -85.2
   07/16/2016 19:40      83.0      82.1       35     52.4      0.00      0.00      86.1     0.47      1011.0     4       315         6       323        8.65     265      -68.4
   07/16/2016 19:30      83.6      82.3       38     54.8      0.00      0.00      86.0     0.47      1011.0     4       260         8       235        8.65     265      -53.0
   07/16/2016 19:20      82.1      81.4       41     55.4      0.00      0.00      86.0     0.47      1011.0     4       177         6       155        8.66     265      -33.8
   07/16/2016 19:10      81.6      81.0       41     55.1      0.00      0.00      86.0     0.47      1011.0     5       172         7       161        8.66     265      -14.0
   07/16/2016 19:00      82.3      81.9       39     54.4      0.00      0.00      86.0     0.47      1011.0     5       153         8       148        8.67     265        5.6
   07/16/2016 18:50      82.9      82.3       37     53.5      0.00      0.00      85.8     0.47      1011.0     4       160         8       143        8.68     265       27.8
   07/16/2016 18:40      84.4      82.9       35     52.8      0.00      0.00      85.9     0.47      1011.0     6       149        11       149        8.68     265       48.3
   07/16/2016 18:30      84.5      84.2       33     51.8      0.00      0.00      85.8     0.47      1011.0     4       162         7       176        8.69     265       69.8
   07/16/2016 18:20      85.6      84.7       29     49.4      0.00      0.00      85.9     0.47      1011.0     6       170         8       179        8.71     265       92.7
   07/16/2016 18:10      87.1      85.9       25     46.2      0.00      0.00      85.8     0.47      1011.0     8       149        12       161        8.72     264      113.5
   07/16/2016 18:00      88.5      87.3       22     44.5      0.00      0.00      85.7     0.47      1011.0     6       153         8       181        8.72     265      134.6
   07/16/2016 17:50      89.4      88.5       21     43.5      0.00      0.00      85.6     0.47      1011.0     6       157         8       153        8.73     265      154.1
   07/16/2016 17:40      89.7      88.9       20     43.2      0.00      0.00      85.4     0.46      1011.0     4       123         6       125        8.73     266      175.7
   07/16/2016 17:30      90.4      89.6       18     41.0      0.00      0.00      85.6     0.47      1011.0     4       173         5       132        8.74     265      198.4
   07/16/2016 17:20      90.3      89.5       18     40.0      0.00      0.00      85.4     0.46      1011.0     4       170         7       144        8.74     265      221.4
   07/16/2016 17:10      90.1      89.5       17     39.2      0.00      0.00      85.3     0.46      1011.0     6       169         9       177        8.75     264      242.7
   07/16/2016 17:00      90.6      89.8       18     41.0      0.00      0.00      85.2     0.46      1011.0     5       183         7       157        8.75     264      264.8
   07/16/2016 16:50      91.5      89.9       22     46.4      0.00      0.00      85.2     0.46      1011.0     6       178         9       186        8.76     265      285.8
   07/16/2016 16:40      92.8      91.3       22     47.5      0.00      0.00      85.0     0.46      1011.0     5       142        10       136        8.76     265      305.1
   07/16/2016 16:30      92.9      91.2       19     43.3      0.00      0.00      85.1     0.46      1011.0     5        95         7       125        8.76     266      320.5
   07/16/2016 16:20      92.9      91.4       16     38.8      0.00      0.00      85.0     0.46      1011.0     6        79         8        86        8.77     266      339.2
   07/16/2016 16:10      93.3      92.3       13     33.8      0.00      0.00      85.0     0.46      1011.0     4        88         8        79        8.77     266      351.9
   07/16/2016 16:00      93.8      91.8       14     36.7      0.00      0.00      84.9     0.46      1011.0     3        68         6       125        8.77     266      369.8
   07/16/2016 15:50      92.5      91.5       14     36.7      0.00      0.00      84.8     0.46      1011.0     4        96         7        98        8.78     267      391.8
   07/16/2016 15:40      92.9      92.2       15     37.9      0.00      0.00      84.8     0.46      1011.0     4        74         7        88        8.78     267      404.2
   07/16/2016 15:30      93.1      92.0       15     38.8      0.00      0.00      84.7     0.46      1011.0     4        69         5        37        8.78     267      419.4
   07/16/2016 15:20      93.0      92.1       15     38.4      0.00      0.00      84.5     0.46      1011.0     4        18         8       357        8.78     267      432.8
   07/16/2016 15:10      93.1      91.7       14     36.3      0.00      0.00      84.4     0.46      1011.0     5        26        10       357        8.79     267      448.4
   07/16/2016 15:00      92.0      91.1       17     39.8      0.00      0.00      84.5     0.46      1012.0     4        46         7        76        8.79     267      458.3
   07/16/2016 14:50      92.0      90.3       17     39.6      0.00      0.00      84.3     0.46      1012.0     4       103         6        71        8.79     267      470.1
   07/16/2016 14:40      92.2      91.4       17     40.2      0.00      0.00      84.3     0.46      1012.0     3        51         5        62        8.80     268      481.4
   07/16/2016 14:30      92.3      91.3       21     46.1      0.00      0.00      84.3     0.46      1012.0     3       345         5       339        8.80     268      489.0
   07/16/2016 14:20      91.0      88.5       24     48.2      0.00      0.00      84.3     0.46      1012.0     3        98         5        94        8.80     268      502.9
   07/16/2016 14:10      90.1      89.0       24     48.3      0.00      0.00      84.0     0.46      1012.0     4        78         8        93        8.80     268      510.7
   07/16/2016 14:00      89.7      88.5       28     51.8      0.00      0.00      84.1     0.46      1012.0     3       346         4         1        8.81     269      519.4
   07/16/2016 13:50      88.7      87.7       32     54.5      0.00      0.00      84.1     0.46      1012.0     3       359         5       359        8.81     269      526.8
   07/16/2016 13:40      88.0      87.2       33     55.1      0.00      0.00      83.6     0.46      1013.0     2       215         3       167        8.81     269      535.1
   07/16/2016 13:30      87.5      86.0       34     55.5      0.00      0.00      84.2     0.46      1013.0     4        26         6       326        8.81     270      539.7
   07/16/2016 13:20      85.9      84.8       37     55.6      0.00      0.00      84.2     0.46      1013.0     3        19         5        73        8.81     270      544.5
   07/16/2016 13:10      84.8      83.7       38     56.0      0.00      0.00      83.9     0.46      1013.0     3       356         5         6        8.81     270      550.2
   07/16/2016 13:00      84.7      83.8       38     56.0      0.00      0.00      83.9     0.46      1013.0     3         1         5       349        8.82     270      552.9
   07/16/2016 12:50      84.3      83.0       40     56.6      0.00      0.00      83.7     0.46      1013.0     3        29         4        38        8.82     270      552.9
   07/16/2016 12:40      83.7      82.4       41     57.1      0.00      0.00      83.7     0.46      1013.0     2        14         5       351        8.82     270      551.4
   07/16/2016 12:30      82.7      81.8       42     57.1      0.00      0.00      83.9     0.46      1014.0     4        25         9         3        8.82     270      552.5
   07/16/2016 12:20      82.4      80.5       44     57.3      0.00      0.00      83.6     0.46      1014.0     3        45         4        90        8.82     270      550.2
   07/16/2016 12:10      82.0      81.2       44     57.5      0.00      0.00      83.9     0.46      1014.0     4        34         6        75        8.82     271      547.2
   07/16/2016 12:00      81.0      79.3       46     57.7      0.00      0.00      83.7     0.46      1014.0     4        50         6       359        8.82     271      543.8
   07/16/2016 11:50      80.6      79.7       47     58.2      0.00      0.00      84.0     0.46      1014.0     4        34         6        10        8.82     271      537.3
   07/16/2016 11:40      79.7      78.5       49     58.1      0.00      0.00      83.8     0.46      1014.0     3        58         4        11        8.83     271      533.2
   07/16/2016 11:30      79.4      78.8       49     58.6      0.00      0.00      83.7     0.46      1014.0     5        42         8        88        8.83     271      521.4
   07/16/2016 11:20      79.1      77.6       50     58.5      0.00      0.00      83.7     0.46      1014.0     3        55         5       342        8.83     271      513.3
   07/16/2016 11:10      78.5      76.9       52     58.6      0.00      0.00      83.9     0.46      1014.0     3        28         5       350        8.83     271      504.3
   07/16/2016 11:00      77.1      75.6       54     58.3      0.00      0.00      83.8     0.46      1014.0     3        46         6        76        8.83     271      492.6
   07/16/2016 10:50      76.3      75.4       54     58.4      0.00      0.00      83.8     0.46      1015.0     4        39         6       340        8.83     272      479.7
   07/16/2016 10:40      75.6      74.0       57     58.6      0.00      0.00      83.9     0.46      1015.0     3        12         5        14        8.83     273      465.8
   07/16/2016 10:30      74.6      74.0       58     58.6      0.00      0.00      84.1     0.46      1015.0     3         8         5        53        8.83     273      454.9
   07/16/2016 10:20      74.4      73.5       58     58.4      0.00      0.00      83.6     0.46      1015.0     3        25         5        19        8.83     274      435.2
   07/16/2016 10:10      73.9      73.0       59     58.2      0.00      0.00      83.8     0.46      1015.0     3        66         5        67        8.83     275      419.1
   07/16/2016 10:00      72.8      72.2       60     58.1      0.00      0.00      83.9     0.46      1015.0     4        11         6       351        8.83     276      400.9
   07/16/2016 09:50      72.5      70.8       62     57.6      0.00      0.00      84.0     0.46      1015.0     3        58         5        69        8.83     277      383.9
   07/16/2016 09:40      70.6      69.8       63     57.0      0.00      0.00      84.1     0.47      1015.0     3        30         4        57        8.83     278      366.5
   07/16/2016 09:30      70.5      68.8       65     57.3      0.00      0.00      84.2     0.47      1015.0     3        61         4        10        8.83     279      352.0
   07/16/2016 09:20      68.9      68.3       67     57.3      0.00      0.00      84.3     0.47      1014.0     2        52         5        78        8.84     279      327.6
   07/16/2016 09:10      68.3      66.4       70     57.3      0.00      0.00      84.4     0.47      1014.0     3        86         4        61        8.84     280      319.9
   07/16/2016 09:00      66.5      66.1       72     57.1      0.00      0.00      83.8     0.47      1014.0     3       143         4       148        8.84     281      318.9
   07/16/2016 08:50      66.4      65.2       74     57.3      0.00      0.00      84.2     0.47      1014.0     2       154         3       262        8.84     281      195.8
   07/16/2016 08:40      65.5      64.8       76     57.3      0.00      0.00      84.3     0.47      1014.0     3       155         5       175        8.84     281       66.7
   07/16/2016 08:30      65.1      64.4       76     57.3      0.00      0.00      84.2     0.47      1014.0     2       133         3       112        8.84     282      101.7
   07/16/2016 08:20      64.7      64.4       77     57.2      0.00      0.00      84.3     0.47      1014.0     2       131         3        65        8.84     283       79.5
   07/16/2016 08:10      64.7      63.6       79     57.5      0.00      0.00      84.5     0.47      1014.0     2        60         4        29        8.84     284      111.3
   07/16/2016 08:00      63.7      63.3       81     57.6      0.00      0.00      84.3     0.47      1014.0     3       115         3       126        8.84     285       74.3
   07/16/2016 07:50      63.5      63.3       81     57.6      0.00      0.00      84.4     0.47      1014.0     2        88         4        65        8.84     285       56.5
   07/16/2016 07:40      63.5      63.3       81     57.7      0.00      0.00      84.6     0.47      1014.0     2        61         3       112        8.84     286       40.5
   07/16/2016 07:30      63.6      63.2       82     57.8      0.00      0.00      84.6     0.47      1014.0     2        30         3        17        8.84     286       32.2
   07/16/2016 07:20      63.3      63.0       82     57.6      0.00      0.00      84.7     0.47      1014.0     2        82         3        99        8.84     286       25.5
   07/16/2016 07:10      63.3      62.9       83     57.8      0.00      0.00      84.6     0.47      1014.0     2        40         3        32        8.84     286       17.3
   07/16/2016 07:00      63.0      62.6       84     57.7      0.00      0.00      84.6     0.47      1014.0     2        22         4        16        8.84     285       10.7
   07/16/2016 06:50      62.6      62.1       85     57.7      0.00      0.00      84.6     0.47      1014.0     2        27         3        29        8.84     285        5.7
   07/16/2016 06:40      62.5      62.1       85     57.6      0.00      0.00      84.9     0.47      1014.0     2        38         3        14        8.84     284       -0.8
   07/16/2016 06:30      62.7      62.4       84     57.7      0.00      0.00      84.7     0.47      1014.0     2        46         3        79        8.84     285       -5.4
   07/16/2016 06:20      62.6      62.0       85     57.9      0.00      0.00      84.6     0.47      1014.0     1        49         2        36        8.84     285       -9.3
   07/16/2016 06:10      62.1      61.7       86     57.7      0.00      0.00      85.1     0.47      1014.0     1       138         2        73        8.84     285      -13.2
   07/16/2016 06:00      62.0      61.7       86     57.7      0.00      0.00      84.8     0.47      1014.0     2       123         3       114        8.84     285      -15.0
   07/16/2016 05:50      62.0      61.5       86     57.5      0.00      0.00      85.0     0.47      1014.0     1       195         2       165        8.84     285      -15.6
   07/16/2016 05:40      61.6      61.4       87     57.5      0.00      0.00      84.9     0.47      1014.0     2       171         2       181        8.84     286      -15.6
   07/16/2016 05:30      61.6      61.4       86     57.3      0.00      0.00      85.1     0.47      1014.0     2       141         3       120        8.84     286      -15.1
   07/16/2016 05:20      61.9      61.6       84     56.8      0.00      0.00      85.2     0.47      1014.0     3       132         3       119        8.85     286      -14.9
   07/16/2016 05:10      61.7      61.5       84     56.5      0.00      0.00      84.6     0.47      1014.0     2       176         3       141        8.85     286      -14.7
   07/16/2016 05:00      61.7      61.5       84     56.6      0.00      0.00      85.0     0.47      1014.0     2       134         3       148        8.85     284      -14.9
   07/16/2016 04:50      61.7      61.5       85     57.1      0.00      0.00      84.9     0.47      1014.0     1       121         2        59        8.85     283      -16.9
   07/16/2016 04:40      61.6      61.4       87     57.4      0.00      0.00      85.3     0.47      1014.0     2       104         3       116        8.85     281      -17.8
   07/16/2016 04:30      61.7      61.4       86     57.4      0.00      0.00      85.2     0.47      1014.0     3        93         5        75        8.85     281      -20.9
   07/16/2016 04:20      61.7      61.5       86     57.6      0.00      0.00      84.9     0.47      1014.0     2        98         3       124        8.85     280      -21.6
   07/16/2016 04:10      61.7      61.4       87     57.8      0.00      0.00      85.2     0.47      1014.0     1        40         2        25        8.85     278      -32.3
   07/16/2016 04:00      61.6      61.5       87     57.8      0.00      0.00      85.4     0.47      1014.0     1        64         2        84        8.85     276      -49.8
   07/16/2016 03:50      61.9      61.7       87     57.9      0.00      0.00      85.6     0.47      1014.0     2        54         2        58        8.85     275      -54.2
   07/16/2016 03:40      62.0      61.9       87     57.8      0.00      0.00      85.6     0.47      1014.0     2        52         3        64        8.85     274      -56.9
   07/16/2016 03:30      62.1      61.9       86     57.8      0.00      0.00      85.4     0.47      1013.0     2        62         3        65        8.85     273      -59.7
   07/16/2016 03:20      62.3      62.2       86     58.1      0.00      0.00      85.3     0.47      1013.0     2        52         3        57        8.85     272      -60.4
   07/16/2016 03:10      62.6      62.3       87     58.4      0.00      0.00      85.4     0.47      1013.0     2        56         3        71        8.85     271      -61.5
   07/16/2016 03:00      62.8      62.5       86     58.5      0.00      0.00      86.0     0.47      1013.0     2        62         2        74        8.85     270      -63.8
   07/16/2016 02:50      63.0      62.8       86     58.5      0.00      0.00      85.5     0.47      1013.0     2        55         4        73        8.85     270      -67.4
   07/16/2016 02:40      63.3      62.9       85     58.4      0.00      0.00      85.8     0.47      1013.0     2        61         2        80        8.86     269      -69.4
   07/16/2016 02:30      63.5      63.3       84     58.5      0.00      0.00      85.7     0.47      1013.0     2        74         3        87        8.86     269      -69.8
   07/16/2016 02:20      63.8      63.5       83     58.5      0.00      0.00      85.4     0.47      1013.0     2        82         3        74        8.86     268      -71.1
   07/16/2016 02:10      64.0      63.7       83     58.5      0.00      0.00      85.8     0.47      1013.0     2        83         2       121        8.86     268      -71.5
   07/16/2016 02:00      64.3      64.0       81     58.4      0.00      0.00      86.2     0.47      1013.0     2        99         4        91        8.86     268      -71.8
   07/16/2016 01:50      64.8      64.4       80     58.4      0.00      0.00      85.6     0.47      1013.0     1        85         2        70        8.86     268      -72.3
   07/16/2016 01:40      65.1      64.8       79     58.4      0.00      0.00      85.7     0.47      1013.0     1        52         2        41        8.86     267      -72.5
   07/16/2016 01:30      65.2      64.9       80     58.6      0.00      0.00      85.8     0.47      1013.0     1        77         2        80        8.86     268      -72.8
   07/16/2016 01:20      65.7      65.3       78     58.5      0.00      0.00      85.9     0.47      1013.0     2        69         3        92        8.86     268      -73.0
   07/16/2016 01:10      65.8      65.5       78     58.6      0.00      0.00      86.2     0.47      1014.0     1        45         2        41        8.86     267      -73.8
   07/16/2016 01:00      66.0      65.8       78     58.8      0.00      0.00      86.0     0.47      1013.0     1        55         2        33        8.86     268      -74.4
   07/16/2016 00:50      66.4      66.1       77     58.8      0.00      0.00      86.1     0.47      1013.0     1        56         2        82        8.86     268      -74.9
   07/16/2016 00:40      66.6      66.3       76     58.7      0.00      0.00      86.1     0.47      1013.0     1        47         4       354        8.86     268      -75.7
   07/16/2016 00:30      66.9      66.6       76     58.9      0.00      0.00      86.4     0.47      1013.0     2        51         3        79        8.87     268      -76.7
   07/16/2016 00:20      67.5      66.9       75     58.9      0.00      0.00      85.9     0.47      1013.0     2        40         3        38        8.87     269      -76.9
   07/16/2016 00:10      67.8      67.4       73     58.7      0.00      0.00      86.1     0.47      1013.0     2        40         3        27        8.87     269      -77.3
   07/16/2016 00:00      68.3      67.8       71     58.4      0.00      0.00      86.1     0.47      1013.0     2        48         4        72        8.87     269      -78.0
   07/15/2016 23:50      68.9      68.5       69     57.9      0.00      0.00      86.2     0.47      1013.0     2        66         3        92        8.87     269      -78.3
   07/15/2016 23:40      69.3      68.9       67     57.7      0.00      0.00      86.2     0.47      1013.0     2        78         3        76        8.87     269      -78.5
   07/15/2016 23:30      69.8      69.3       65     57.2      0.00      0.00      86.0     0.47      1013.0     2        80         4        49        8.87     270      -78.6
   07/15/2016 23:20      69.9      69.6       61     55.7      0.00      0.00      86.2     0.47      1013.0     2        62         2        45        8.87     269      -78.2
   07/15/2016 23:10      70.6      69.9       59     55.1      0.00      0.00      86.3     0.47      1013.0     1        31         1        58        8.88     269      -79.0
   07/15/2016 23:00      71.9      70.7       57     55.4      0.00      0.00      86.4     0.47      1013.0     2       236         3       282        8.88     270      -79.9
   07/15/2016 22:50      72.4      71.8       57     55.9      0.00      0.00      86.3     0.47      1013.0     2       299         2       309        8.88     269      -81.1
   07/15/2016 22:40      73.0      72.5       55     55.8      0.00      0.00      86.2     0.47      1013.0     1       268         2       275        8.88     269      -82.6
   07/15/2016 22:30      73.5      73.2       54     55.5      0.00      0.00      86.0     0.47      1013.0     2       280         3       300        8.88     269      -83.0
   07/15/2016 22:20      73.5      73.1       53     55.3      0.00      0.00      86.2     0.47      1013.0     3       236         5       250        8.89     269      -82.8
   07/15/2016 22:10      74.2      73.5       53     55.6      0.00      0.00      85.9     0.47      1013.0     3       221         5       191        8.89     269      -83.2
   07/15/2016 22:00      74.5      74.2       52     55.6      0.00      0.00      86.2     0.47      1013.0     3       201         4       206        8.89     269      -83.3
   07/15/2016 21:50      75.2      74.6       51     55.3      0.00      0.00      86.2     0.47      1013.0     2       223         2       244        8.89     269      -84.3
   07/15/2016 21:40      76.1      75.4       50     55.8      0.00      0.00      86.5     0.47      1012.0     3       226         6       194        8.89     269      -85.0
   07/15/2016 21:30      77.1      76.2       43     52.7      0.00      0.00      86.2     0.47      1012.0     2       225         4       217        8.90     269      -85.1
   07/15/2016 21:20      77.9      77.2       37     49.2      0.00      0.00      86.2     0.47      1012.0     2       242         4       260        8.90     269      -86.3
   07/15/2016 21:10      78.6      77.9       37     49.8      0.00      0.00      86.1     0.47      1012.0     3       279         6       285        8.90     269      -86.7
   07/15/2016 21:00      78.8      78.4       40     52.0      0.00      0.00      86.1     0.47      1012.0     3       286         5       294        8.90     269      -87.9
   07/15/2016 20:50      79.3      78.8       41     53.5      0.00      0.00      86.2     0.47      1012.0     2       309         3       332        8.90     268      -88.5
   07/15/2016 20:40      79.8      79.4       41     53.6      0.00      0.00      86.3     0.47      1012.0     3       298         4       285        8.91     268      -89.2
   07/15/2016 20:30      80.9      80.1       39     53.0      0.00      0.00      86.2     0.47      1012.0     3       303         5       309        8.91     268      -90.1
   07/15/2016 20:20      81.6      81.1       36     51.8      0.00      0.00      85.9     0.47      1012.0     3       294         4       314        8.91     268      -90.4
   07/15/2016 20:10      82.5      81.9       35     51.6      0.00      0.00      86.0     0.47      1012.0     4       291         7       319        8.91     268      -89.3
   07/15/2016 20:00      83.6      82.7       33     51.3      0.00      0.00      85.9     0.47      1012.0     4       302         6       291        8.92     268      -86.9
   07/15/2016 19:50      84.4      83.6       32     51.2      0.00      0.00      86.0     0.47      1012.0     4       302         7       303        8.92     268      -82.7
   07/15/2016 19:40      86.2      84.6       31     51.6      0.00      0.00      86.0     0.47      1011.0     5       318         8       314        8.92     268      -66.4
   07/15/2016 19:30      87.7      86.3       30     51.7      0.00      0.00      86.0     0.47      1011.0     3       297         5       310        8.93     268      -54.5
   07/15/2016 19:20      87.9      87.3       29     51.3      0.00      0.00      86.0     0.47      1011.0     4       272         5       278        8.93     268      -37.4
   07/15/2016 19:10      88.4      87.7       28     51.1      0.00      0.00      85.8     0.47      1011.0     4       286         7       280        8.93     267      -18.8
   07/15/2016 19:00      88.7      88.1       29     51.9      0.00      0.00      85.7     0.47      1011.0     3       293         7       328        8.94     268        1.0
   07/15/2016 18:50      88.9      88.5       28     51.5      0.00      0.00      85.8     0.47      1011.0     4       278         6       304        8.94     267       20.8
   07/15/2016 18:40      89.1      88.6       28     51.2      0.00      0.00      85.7     0.47      1011.0     4       246         6       250        8.95     267       42.5
   07/15/2016 18:30      90.2      89.5       28     52.1      0.00      0.00      85.6     0.47      1011.0     5       260         6       245        8.95     267       64.0
   07/15/2016 18:20      90.6      90.1       30     54.4      0.00      0.00      85.6     0.47      1011.0     4       297         6       345        8.95     268       86.9
   07/15/2016 18:10      91.1      90.3       29     54.4      0.00      0.00      85.7     0.47      1011.0     4       278         5       251        8.95     268      109.3
   07/15/2016 18:00      91.2      90.6       31     55.7      0.00      0.00      85.4     0.47      1011.0     3       320         6       226        8.96     268      134.1
   07/15/2016 17:50      92.0      91.1       30     55.7      0.00      0.00      85.3     0.47      1011.0     4       267         6       250        8.96     267      154.8
   07/15/2016 17:40      92.0      91.3       30     55.6      0.00      0.00      85.2     0.47      1011.0     4       274         5       300        8.96     267      179.3
   07/15/2016 17:30      92.4      90.9       30     55.7      0.00      0.00      85.2     0.47      1011.0     4       285         6       281        8.96     267      201.3
   07/15/2016 17:20      92.2      91.2       29     54.7      0.00      0.00      85.3     0.47      1011.0     5       252         7       210        8.96     266      226.6
   07/15/2016 17:10      92.6      92.0       23     49.3      0.00      0.00      85.1     0.47      1011.0     4       224         6       228        8.96     266      246.8
   07/15/2016 17:00      92.3      91.9       20     45.6      0.00      0.00      85.0     0.47      1011.0     5       153         8       155        8.96     266      269.9
   07/15/2016 16:50      92.1      91.2       20     45.2      0.00      0.00      85.0     0.47      1011.0     6       171        10       168        8.96     265      293.0
   07/15/2016 16:40      92.1      91.3       20     44.5      0.00      0.00      84.9     0.47      1011.0     7       175        10       152        8.96     266      313.6
   07/15/2016 16:30      92.9      92.0       18     43.5      0.00      0.00      84.8     0.47      1011.0     5       184         7       152        8.96     265      332.6
   07/15/2016 16:20      93.0      91.5       19     44.5      0.00      0.00      85.0     0.47      1012.0     7       181        10       154        8.96     266      351.0
   07/15/2016 16:10      93.6      93.0       20     46.4      0.00      0.00      84.8     0.47      1012.0     5       183         8       238        8.96     267      365.3
   07/15/2016 16:00      93.2      92.3       20     46.3      0.00      0.00      84.7     0.46      1012.0     5       194         6       255        8.96     267      383.6
   07/15/2016 15:50      92.7      92.1       21     47.4      0.00      0.00      84.7     0.46      1012.0     4       163         7       165        8.96     267      400.7
   07/15/2016 15:40      92.6      91.9       22     48.1      0.00      0.00      84.7     0.46      1012.0     5       221         7       256        8.96     268      417.0
   07/15/2016 15:30      92.8      91.2       23     49.3      0.00      0.00      84.4     0.46      1012.0     4       241         8       230        8.96     268      430.9
   07/15/2016 15:20      94.0      91.4       24     51.0      0.00      0.00      84.3     0.46      1012.0     4       223         7       240        8.96     269      445.9
   07/15/2016 15:10      94.1      92.5       24     51.8      0.00      0.00      84.2     0.46      1012.0     3        76         5        90        8.96     269      454.6
   07/15/2016 15:00      93.0      92.4       25     52.1      0.00      0.00      84.3     0.47      1012.0     5        45         7        74        8.96     269      469.5
   07/15/2016 14:50      93.1      92.1       25     52.0      0.00      0.00      84.2     0.46      1012.0     4        41         8        18        8.96     270      481.5
   07/15/2016 14:40      92.8      91.4       27     53.0      0.00      0.00      84.3     0.46      1013.0     6        24         9        62        8.96     270      493.8
   07/15/2016 14:30      92.8      91.3       27     53.6      0.00      0.00      83.8     0.46      1013.0     5        19         7        36        8.96     269      501.7
   07/15/2016 14:20      92.4      91.4       27     53.4      0.00      0.00      84.0     0.46      1013.0     5        16         7        15        8.96     270      516.4
   07/15/2016 14:10      92.6      91.3       27     53.3      0.00      0.00      84.0     0.46      1013.0     5        34         8        77        8.96     270      524.3
   07/15/2016 14:00      91.6      90.9       28     53.4      0.00      0.00      84.2     0.46      1013.0     4        43         6        37        8.97     271      529.2
   07/15/2016 13:50      91.3      90.5       30     54.9      0.00      0.00      83.7     0.46      1013.0     4        23         7        27        8.96     271      536.4
   07/15/2016 13:40      91.3      90.2       30     55.4      0.00      0.00      84.1     0.46      1013.0     5        27         7        65        8.96     271      542.1
   07/15/2016 13:30      90.2      88.8       32     55.5      0.00      0.00      83.8     0.46      1013.0     4        36         7        36        8.97     271      547.0
   07/15/2016 13:20      90.4      88.9       31     55.3      0.00      0.00      83.7     0.46      1013.0     4        18         7        75        8.97     271      549.6
   07/15/2016 13:10      89.3      88.2       32     55.4      0.00      0.00      83.9     0.46      1014.0     4        46         6        77        8.96     271      556.1
   07/15/2016 13:00      88.7      88.1       32     55.1      0.00      0.00      84.1     0.46      1014.0     4        58         6        32        8.96     273      557.4
   07/15/2016 12:50      88.4      87.8       33     55.3      0.00      0.00      83.6     0.46      1014.0     5        14        10       353        8.96     281      555.7
   07/15/2016 12:40      87.9      86.8       34     55.2      0.00      0.00      83.7     0.46      1014.0     4         9         5        32        8.96     292      558.9
   07/15/2016 12:30      87.6      86.5       35     55.8      0.00      0.00      83.9     0.46      1014.0     3        37         4        43        8.96     303      557.7
   07/15/2016 12:20      87.4      86.1       37     57.0      0.00      0.00      83.8     0.46      1014.0     4         9         7       335        8.96     315      556.2
   07/15/2016 12:10      86.5      85.9       39     58.6      0.00      0.00      83.6     0.46      1014.0     3        43         5        30        8.96     330      555.3
   07/15/2016 12:00      86.5      85.0       40     58.8      0.00      0.00      84.0     0.46      1014.0     3        39         6        17        8.96     345      551.0
   07/15/2016 11:50      84.6      83.6       41     58.0      0.00      0.00      84.0     0.46      1014.0     3        28         5        26        8.96     355      549.1
   07/15/2016 11:40      83.8      82.0       42     57.2      0.00      0.00      83.4     0.46      1015.0     3        47         4        28        8.96     361      542.1
   07/15/2016 11:30      82.8      81.1       42     56.8      0.00      0.00      84.0     0.46      1015.0     3        44         6        65        8.96     365      536.7
   07/15/2016 11:20      81.4      80.8       43     56.7      0.00      0.00      83.8     0.46      1015.0     2        40         4       349        8.96     370      529.3
   07/15/2016 11:10      81.3      79.9       42     55.4      0.00      0.00      84.1     0.46      1015.0     2        27         4       345        8.96     377      520.5
   07/15/2016 11:00      79.8      78.4       46     56.6      0.00      0.00      84.0     0.46      1015.0     3       331         5       359        8.96     385      510.8
   07/15/2016 10:50      78.3      76.9       49     56.9      0.00      0.00      84.3     0.47      1015.0     2        82         4         3        8.96     399      502.5
   07/15/2016 10:40      76.8      76.2       52     57.4      0.00      0.00      83.6     0.47      1015.0     2        90         3       104        8.96     413      491.3
   07/15/2016 10:30      76.0      74.5       55     58.1      0.00      0.00      84.5     0.47      1015.0     2       355         3       356        8.96     417      476.2
   07/15/2016 10:20      74.9      72.9       59     58.3      0.00      0.00      84.5     0.47      1015.0     2        82         4        80        8.96     417      466.0
   07/15/2016 10:10      73.3      72.6       61     58.8      0.00      0.00      84.4     0.47      1015.0     3        71         4       346        8.96     422      452.6
   07/15/2016 10:00      72.5      70.8       65     59.1      0.00      0.00      84.3     0.47      1016.0     4        11         7         3        8.96     429      438.2
   07/15/2016 09:50      71.1      69.9       67     59.3      0.00      0.00      84.1     0.47      1016.0     4        14         5       354        8.96     440      420.7
   07/15/2016 09:40      70.4      69.9       69     59.5      0.00      0.00      85.1     0.47      1016.0     3        26         4        17        8.95     438      405.2
   07/15/2016 09:30      69.8      69.3       71     59.6      0.00      0.00      84.4     0.46      1016.0     4        33         5        20        8.95     433      358.8
   07/15/2016 09:20      69.3      68.3       73     59.5      0.00      0.00      84.0     0.46      1016.0     4        63         7        77        8.95     271      339.8
   07/15/2016 09:10      68.7      67.8       74     59.6      0.00      0.00      84.1     0.47      1016.0     3        47         5        50        8.89     271      324.9
   07/15/2016 09:00      67.9      66.6       76     59.7      0.00      0.00      84.2     0.47      1016.0     3        41         5         9        7.45     271      326.1
   07/15/2016 08:50      66.6      66.0       79     59.6      0.00      0.00      84.4     0.47      1016.0     3        49         5        67        7.45     271      203.3
   07/15/2016 08:40      66.7      66.3       79     59.6      0.00      0.00      84.8     0.47      1016.0     4        27         5        16        7.45     271        6.6
   07/15/2016 08:30      66.7      66.1       79     59.6      0.00      0.00      84.8     0.47      1016.0     3        45         5        84        7.45     271       -2.4
   07/15/2016 08:20      66.2      65.7       80     59.5      0.00      0.00      84.8     0.47      1016.0     3        48         4        33        7.45     271       -6.6
   07/15/2016 08:10      66.0      65.8       79     59.3      0.00      0.00      84.4     0.47      1016.0     3        53         4        64        7.45     271       -9.2
   07/15/2016 08:00      66.2      66.0       79     59.4      0.00      0.00      84.6     0.47      1016.0     3        49         4        83        7.45     271        5.6
   07/15/2016 07:50      66.0      65.1       80     59.2      0.00      0.00      84.7     0.47      1016.0     2        22         3        62        7.45     271        5.0
   07/15/2016 07:40      65.0      64.4       81     58.6      0.00      0.00      84.9     0.47      1016.0     2        80         3        93        7.45     271      -11.6
   07/15/2016 07:30      64.5      63.7       82     58.6      0.00      0.00      84.7     0.47      1016.0     1        67         3        28        7.45     271       -1.4
   07/15/2016 07:20      63.8      63.3       83     58.3      0.00      0.00      84.6     0.47      1016.0     2       108         2        75        7.45     271        5.5
   07/15/2016 07:10      63.2      62.9       85     58.4      0.00      0.00      84.8     0.47      1016.0     1        97         2        71        7.45     271       -0.9
   07/15/2016 07:00      63.0      62.5       87     58.8      0.00      0.00      84.9     0.47      1016.0     2        97         4       112        7.45     271       -3.7
   07/15/2016 06:50      62.6      62.4       87     58.7      0.00      0.00      84.9     0.47      1016.0     2       123         3       122        7.45     271       -7.5
   07/15/2016 06:40      62.5      62.0       87     58.5      0.00      0.00      84.9     0.47      1016.0     2       114         2       132        7.45     270      -14.0
   07/15/2016 06:30      62.1      61.6       88     58.1      0.00      0.00      84.8     0.47      1016.0     1        71         2        79        7.45     270      -21.2
   07/15/2016 06:20      61.9      61.3       88     57.9      0.00      0.00      85.0     0.47      1016.0     1        60         2        69        7.45     270      -24.7
   07/15/2016 06:10      61.5      61.3       87     57.6      0.00      0.00      84.9     0.47      1015.0     1        72         2        55        7.46     270      -31.8
   07/15/2016 06:00      61.7      61.4       87     57.6      0.00      0.00      85.1     0.47      1015.0     1        94         1        69        7.46     270      -36.9
   07/15/2016 05:50      61.8      61.6       87     57.7      0.00      0.00      84.7     0.47      1015.0     2        76         2        77        7.46     270      -40.3
   07/15/2016 05:40      61.9      61.6       87     57.8      0.00      0.00      85.6     0.47      1015.0     2       100         2        75        7.46     270      -41.8
   07/15/2016 05:30      62.2      61.9       86     57.9      0.00      0.00      85.2     0.47      1015.0     1        48         2        35        7.46     270      -42.5
   07/15/2016 05:20      62.5      62.2       86     58.2      0.00      0.00      85.2     0.47      1015.0     1        83         2        74        7.46     270      -43.8
   07/15/2016 05:10      63.0      62.5       85     58.1      0.00      0.00      85.3     0.47      1015.0     2        78         3        75        7.46     270      -44.5
   07/15/2016 05:00      63.2      62.9       84     58.2      0.00      0.00      84.9     0.47      1015.0     2        62         2        31        7.46     270      -45.1
   07/15/2016 04:50      63.1      62.6       86     58.5      0.00      0.00      85.5     0.47      1015.0     2        34         3         8        7.46     269      -45.3
   07/15/2016 04:40      62.8      62.5       86     58.5      0.00      0.00      85.0     0.47      1015.0     1        57         2        66        7.46     269      -48.0
   07/15/2016 04:30      62.6      62.5       86     58.1      0.00      0.00      85.5     0.47      1015.0     1        63         2        76        7.46     269      -50.0
   07/15/2016 04:20      62.8      62.5       85     58.3      0.00      0.00      85.4     0.47      1014.0     1        93         2       103        7.46     269      -52.7
   07/15/2016 04:10      62.6      62.4       85     58.0      0.00      0.00      85.5     0.47      1014.0     1        98         2        77        7.46     269      -54.0
   07/15/2016 04:00      62.6      62.2       84     57.4      0.00      0.00      85.3     0.47      1014.0     1        81         2        65        7.46     269      -58.1
   07/15/2016 03:50      63.0      62.6       83     57.6      0.00      0.00      85.6     0.47      1014.0     1        95         1        91        7.46     269      -61.8
   07/15/2016 03:40      63.1      62.6       81     56.9      0.00      0.00      85.6     0.47      1014.0     1       108         2        51        7.46     269      -63.7
   07/15/2016 03:30      63.2      63.0       81     57.1      0.00      0.00      85.6     0.47      1014.0     1       119         1       122        7.46     269      -63.4
   07/15/2016 03:20      63.5      63.2       80     57.0      0.00      0.00      85.5     0.47      1014.0     1       116         1       134        7.46     269      -64.5
   07/15/2016 03:10      63.9      63.7       80     57.5      0.00      0.00      85.9     0.47      1014.0     1       110         1        85        7.46     269      -63.9
   07/15/2016 03:00      64.4      63.9       79     57.5      0.00      0.00      85.8     0.47      1014.0     1       101         1       109        7.46     268      -64.7
   07/15/2016 02:50      64.5      64.3       77     57.1      0.00      0.00      85.9     0.47      1014.0     1        97         1       107        7.46     268      -65.6
   07/15/2016 02:40      64.7      64.0       73     55.7      0.00      0.00      86.0     0.47      1014.0     1       123         2       115        7.46     268      -66.7
   07/15/2016 02:30      64.7      64.5       73     55.6      0.00      0.00      85.9     0.47      1014.0     1       135         1       112        7.46     268      -67.0
   07/15/2016 02:20      65.3      64.8       71     55.5      0.00      0.00      85.8     0.47      1014.0     0        74         1       117        7.46     268      -68.0
   07/15/2016 02:10      65.5      65.2       70     55.4      0.00      0.00      85.6     0.47      1014.0     1        75         1       115        7.46     268      -68.2
   07/15/2016 02:00      65.4      64.9       69     54.6      0.00      0.00      85.8     0.47      1014.0     1       103         2       104        7.46     268      -69.2
   07/15/2016 01:50      66.0      65.5       69     55.2      0.00      0.00      86.2     0.47      1014.0     1       124         1       146        7.46     268      -69.3
   07/15/2016 01:40      66.3      65.7       68     55.2      0.00      0.00      86.0     0.47      1014.0     1       104         3        73        7.46     268      -69.9
   07/15/2016 01:30      66.8      66.0       66     54.8      0.00      0.00      86.1     0.47      1014.0     1       130         2       126        7.46     268      -70.5
   07/15/2016 01:20      67.2      66.9       67     55.7      0.00      0.00      85.9     0.47      1014.0     1       114         1       118        7.46     268      -70.3
   07/15/2016 01:10      67.1      66.8       65     55.0      0.00      0.00      86.3     0.47      1014.0     1       111         2       123        7.47     268      -70.7
   07/15/2016 01:00      67.2      66.9       62     53.7      0.00      0.00      86.1     0.47      1014.0     1       104         2       125        7.47     268      -71.2
   07/15/2016 00:50      67.5      67.1       62     53.7      0.00      0.00      86.4     0.47      1014.0     1       130         1       129        7.47     268      -71.2
   07/15/2016 00:40      68.1      67.7       61     53.6      0.00      0.00      86.2     0.47      1014.0     1       143         1       152        7.47     267      -71.8
   07/15/2016 00:30      68.5      68.2       59     53.6      0.00      0.00      86.1     0.47      1014.0     1       153         1       128        7.47     268      -72.3
   07/15/2016 00:20      68.9      68.6       59     53.9      0.00      0.00      86.2     0.47      1014.0     1       144         1       172        7.47     267      -72.0
   07/15/2016 00:10      69.8      69.0       58     53.9      0.00      0.00      86.2     0.47      1014.0     1       137         1       142        7.47     267      -72.8
   07/15/2016 00:00      70.0      69.5       57     54.0      0.00      0.00      86.5     0.47      1014.0     1       124         1       142        7.47     267      -73.5
   07/14/2016 23:50      70.2      70.0       57     54.1      0.00      0.00      86.0     0.47      1014.0     1       135         1       137        7.47     267      -73.7
   07/14/2016 23:40      70.4      69.8       55     53.0      0.00      0.00      86.3     0.47      1014.0     1       111         2        72        7.47     267      -74.7
   07/14/2016 23:30      71.0      70.4       53     52.7      0.00      0.00      86.5     0.47      1014.0     1       116         2       109        7.47     267      -74.3
   07/14/2016 23:20      71.4      70.9       51     52.4      0.00      0.00      86.3     0.47      1014.0     1       112         1       127        7.47     267      -75.0
   07/14/2016 23:10      72.1      71.6       50     52.0      0.00      0.00      86.4     0.47      1014.0     1       102         1        94        7.48     267      -74.9
   07/14/2016 23:00      72.5      72.1       48     51.8      0.00      0.00      86.1     0.47      1014.0     1        24         1        35        7.48     267      -75.7
   07/14/2016 22:50      73.6      72.7       46     51.3      0.00      0.00      86.2     0.47      1014.0     1        81         1        89        7.48     267      -77.2
   07/14/2016 22:40      73.9      73.7       45     51.4      0.00      0.00      86.4     0.47      1014.0     1        96         1        97        7.48     267      -77.5
   07/14/2016 22:30      74.4      74.1       46     51.9      0.00      0.00      86.4     0.47      1014.0     1        76         1        82        7.48     266      -78.5
   07/14/2016 22:20      74.9      74.2       47     53.0      0.00      0.00      86.4     0.47      1014.0     1       119         2        74        7.48     266      -79.4
   07/14/2016 22:10      76.5      75.0       46     53.3      0.00      0.00      86.3     0.47      1014.0     1       157         2       127        7.49     266      -79.5
   07/14/2016 22:00      77.5      76.7       45     54.0      0.00      0.00      86.3     0.47      1014.0     1       204         2       205        7.49     266      -80.5
   07/14/2016 21:50      77.5      77.1       44     53.4      0.00      0.00      86.3     0.47      1014.0     1       199         2       179        7.49     266      -81.6
   07/14/2016 21:40      77.5      76.8       44     53.2      0.00      0.00      86.3     0.47      1014.0     1       202         3       241        7.49     266      -82.8
   07/14/2016 21:30      78.4      77.4       44     54.0      0.00      0.00      86.1     0.47      1014.0     1       145         1       145        7.49     266      -84.4
   07/14/2016 21:20      80.0      78.7       41     54.0      0.00      0.00      86.2     0.47      1014.0     2       180         3       237        7.49     266      -85.9
   07/14/2016 21:10      80.4      80.0       41     54.3      0.00      0.00      86.2     0.47      1014.0     2       228         4       243        7.50     266      -87.7
   07/14/2016 21:00      80.7      80.4       40     54.0      0.00      0.00      86.4     0.47      1013.0     3       233         4       234        7.50     266      -88.3
   07/14/2016 20:50      81.6      80.6       36     51.3      0.00      0.00      86.3     0.47      1013.0     2       218         3       218        7.50     266      -88.6
   07/14/2016 20:40      82.6      81.7       34     51.1      0.00      0.00      86.0     0.47      1013.0     2       267         3       212        7.50     266      -90.9
   07/14/2016 20:30      83.2      82.6       34     51.2      0.00      0.00      86.1     0.47      1013.0     2       309         4       312        7.51     266      -92.3
   07/14/2016 20:20      83.7      83.0       33     51.1      0.00      0.00      86.1     0.47      1013.0     3       285         4       274        7.51     266      -92.7
   07/14/2016 20:10      84.7      83.8       33     51.7      0.00      0.00      86.1     0.47      1013.0     3       277         5       264        7.52     266      -92.9
   07/14/2016 20:00      85.3      84.7       33     52.5      0.00      0.00      85.9     0.47      1013.0     2       269         3       250        7.53     266      -89.6
   07/14/2016 19:50      85.7      85.5       33     53.0      0.00      0.00      85.9     0.47      1013.0     3       275         5       260        7.53     265      -85.8
   07/14/2016 19:40      87.6      86.1       32     53.6      0.00      0.00      85.9     0.47      1013.0     4       274         7       253        7.54     265      -71.8
   07/14/2016 19:30      88.3      87.7       31     53.4      0.00      0.00      85.9     0.47      1013.0     3       313         4       334        7.54     266      -59.5
   07/14/2016 19:20      88.7      88.2       30     52.6      0.00      0.00      85.7     0.47      1012.0     4       324         6       312        7.54     265      -41.5
   07/14/2016 19:10      89.3      88.7       30     53.3      0.00      0.00      85.9     0.47      1013.0     4       297         6       256        7.54     265      -21.6
   07/14/2016 19:00      89.8      89.4       29     52.9      0.00      0.00      85.7     0.47      1013.0     4       299         7       323        7.55     265       -0.5
   07/14/2016 18:50      90.4      89.8       24     48.1      0.00      0.00      85.7     0.47      1013.0     4       303         8       241        7.55     265       17.1
   07/14/2016 18:40      90.7      89.9       27     51.7      0.00      0.00      85.6     0.47      1013.0     4       293         8       249        7.55     265       40.2
   07/14/2016 18:30      90.7      89.7       27     51.5      0.00      0.00      85.7     0.47      1013.0     5       312         9       329        7.55     265       63.2
   07/14/2016 18:20      90.9      90.2       32     56.8      0.00      0.00      85.3     0.47      1013.0     7       263         9       278        7.56     265       87.4
   07/14/2016 18:10      90.9      90.3       27     51.6      0.00      0.00      85.5     0.46      1013.0     5       223         6       223        7.56     265      108.2
   07/14/2016 18:00      90.9      90.6       23     47.7      0.00      0.00      85.3     0.47      1013.0     5       185         8       166        7.57     264      129.0
   07/14/2016 17:50      91.1      90.6       23     48.4      0.00      0.00      85.4     0.47      1013.0     5       184         8       177        7.58     264      153.2
   07/14/2016 17:40      91.7      91.1       21     46.2      0.00      0.00      85.3     0.46      1013.0     5       169         8       157        7.59     265      177.3
   07/14/2016 17:30      91.3      90.5       21     46.0      0.00      0.00      85.2     0.46      1013.0     6       160         8       134        7.59     265      201.7
   07/14/2016 17:20      91.4      90.2       20     44.5      0.00      0.00      85.0     0.46      1013.0     6       162        10       185        7.60     264      225.8
   07/14/2016 17:10      91.6      91.1       21     45.9      0.00      0.00      85.1     0.46      1013.0     6       155         8       164        7.61     265      245.6
   07/14/2016 17:00      92.0      91.3       21     45.6      0.00      0.00      85.0     0.46      1013.0     6       166         9       169        7.61     265      265.7
   07/14/2016 16:50      92.4      92.0       19     44.6      0.00      0.00      85.0     0.46      1013.0     5       155        10       159        7.62     265      283.7
   07/14/2016 16:40      94.6      92.5       19     44.9      0.00      0.00      84.9     0.46      1013.0     4       110         7       125        7.62     265      300.8
   07/14/2016 16:30      95.1      94.1       19     45.5      0.00      0.00      84.7     0.46      1013.0     3        61         5        86        7.63     265      318.9
   07/14/2016 16:20      94.8      94.0       19     45.7      0.00      0.00      84.7     0.46      1013.0     4        58         7        68        7.63     266      339.8
   07/14/2016 16:10      95.2      95.0       18     45.5      0.00      0.00      84.8     0.46      1014.0     4        66         9        71        7.64     265      355.4
   07/14/2016 16:00      95.4      94.8       18     45.1      0.00      0.00      84.6     0.46      1014.0     3        59         6        88        7.64     266      374.8
   07/14/2016 15:50      95.6      94.3       18     44.5      0.00      0.00      84.3     0.46      1014.0     2       213         4       226        7.65     266      391.2
   07/14/2016 15:40      96.3      93.8       17     44.2      0.00      0.00      84.6     0.46      1014.0     4       249         5       171        7.66     266      407.6
   07/14/2016 15:30      95.4      93.7       18     44.6      0.00      0.00      84.4     0.46      1014.0     5       219         9       176        7.67     266      425.3
   07/14/2016 15:20      94.8      93.6       20     46.5      0.00      0.00      84.3     0.46      1014.0     4        88         6        85        7.67     266      435.6
   07/14/2016 15:10      94.7      93.9       21     47.9      0.00      0.00      84.3     0.46      1014.0     3        95         6        74        7.68     266      450.4
   07/14/2016 15:00      93.8      93.2       21     48.4      0.00      0.00      84.0     0.46      1014.0     5       141         7       147        7.70     266      465.7
   07/14/2016 14:50      94.0      93.0       22     49.2      0.00      0.00      84.0     0.46      1014.0     5       181         8       184        7.70     266      479.7
   07/14/2016 14:40      95.5      94.2       22     50.5      0.00      0.00      84.1     0.46      1014.0     3       215         7       184        7.71     266      484.7
   07/14/2016 14:30      95.1      93.8       23     51.3      0.00      0.00      83.9     0.46      1014.0     3       138         5       126        7.71     267      496.1
   07/14/2016 14:20      94.9      94.0       22     50.2      0.00      0.00      83.9     0.46      1014.0     4        61         8       119        7.72     267      500.8
   07/14/2016 14:10      95.0      94.5       22     49.4      0.00      0.00      83.8     0.46      1014.0     4        53         5        73        7.72     268      508.1
   07/14/2016 14:00      94.8      93.4       21     48.0      0.00      0.00      83.8     0.46      1015.0     4        41         6        80        7.73     269      518.0
   07/14/2016 13:50      93.9      93.0       22     48.5      0.00      0.00      83.9     0.46      1015.0     4        32         7        26        7.73     269      526.3
   07/14/2016 13:40      93.7      92.8       24     50.5      0.00      0.00      83.7     0.45      1015.0     3        35         6        73        7.73     269      535.1
   07/14/2016 13:30      93.5      92.6       24     51.4      0.00      0.00      83.6     0.45      1015.0     3        56         5        85        7.74     268      539.7
   07/14/2016 13:20      92.2      91.1       26     52.2      0.00      0.00      83.7     0.45      1015.0     3        48         6        94        7.73     268      544.5
   07/14/2016 13:10      91.6      91.1       27     53.0      0.00      0.00      83.6     0.45      1015.0     3        60         6       115        7.74     268      548.6
   07/14/2016 13:00      91.4      90.5       31     56.5      0.00      0.00      83.6     0.45      1015.0     4        26         5       352        7.74     270      549.2
   07/14/2016 12:50      90.3      89.6       34     57.6      0.00      0.00      83.5     0.46      1015.0     4        26         7         2        7.74     270      550.2
   07/14/2016 12:40      91.1      90.2       33     57.9      0.00      0.00      83.7     0.46      1016.0     5        13         7       358        7.74     269      547.3
   07/14/2016 12:30      90.0      88.5       35     57.9      0.00      0.00      83.7     0.45      1016.0     4        30         5       356        7.74     269      547.7
   07/14/2016 12:20      89.0      88.5       35     57.8      0.00      0.00      83.7     0.46      1016.0     4        25         6         2        7.74     270      543.1
   07/14/2016 12:10      89.0      87.7       35     57.5      0.00      0.00      83.3     0.46      1016.0     3        56         6        62        7.74     270      546.3
   07/14/2016 12:00      87.5      86.9       37     57.6      0.00      0.00      83.4     0.46      1016.0     3        42         4        36        7.75     270      538.7
   07/14/2016 11:50      86.8      85.9       38     57.8      0.00      0.00      83.5     0.46      1016.0     4        34         7        82        7.75     270      539.1
   07/14/2016 11:40      86.8      86.0       40     59.0      0.00      0.00      83.6     0.46      1016.0     4        51         5        62        7.75     270      530.3
   07/14/2016 11:30      86.7      85.6       42     60.3      0.00      0.00      83.5     0.46      1016.0     4        25         5         5        7.75     270      521.4
   07/14/2016 11:20      85.7      84.0       44     60.2      0.00      0.00      83.5     0.46      1016.0     3        38         4        27        7.75     270      513.6
   07/14/2016 11:10      84.5      83.5       44     60.2      0.00      0.00      83.4     0.46      1016.0     3        13         5       356        7.75     270      503.8
   07/14/2016 11:00      83.4      82.3       44     58.7      0.00      0.00      83.8     0.46      1016.0     3        35         6        81        7.75     270      494.7
   07/14/2016 10:50      82.3      81.0       46     58.6      0.00      0.00      83.5     0.46      1016.0     3        28         5        63        7.75     271      482.7
   07/14/2016 10:40      81.6      80.5       46     58.7      0.00      0.00      83.4     0.46      1017.0     3        31         5         9        7.75     272      469.8
   07/14/2016 10:30      80.6      79.6       48     58.8      0.00      0.00      83.9     0.46      1017.0     2        25         4         8        7.75     272      456.8
   07/14/2016 10:20      79.7      78.4       50     58.5      0.00      0.00      83.8     0.46      1017.0     3        18         4       357        7.75     271      442.9
   07/14/2016 10:10      78.6      78.0       51     59.0      0.00      0.00      83.9     0.46      1016.0     2        34         3        44        7.75     271      427.2
   07/14/2016 10:00      77.5      76.3       54     59.2      0.00      0.00      83.9     0.46      1016.0     2       355         3        32        7.76     272      409.4
   07/14/2016 09:50      76.5      75.6       58     60.0      0.00      0.00      83.7     0.46      1017.0     2        20         3         2        7.76     271      393.3
   07/14/2016 09:40      75.6      74.3       60     60.2      0.00      0.00      84.0     0.46      1017.0     2        52         4        82        7.76     272      377.1
   07/14/2016 09:30      73.8      71.8       65     60.2      0.00      0.00      83.7     0.47      1017.0     2        13         3         1        7.76     272      357.6
   07/14/2016 09:20      72.0      71.1       67     60.0      0.00      0.00      83.6     0.47      1017.0     2         5         3        17        7.77     272      341.4
   07/14/2016 09:10      71.6      69.9       69     60.2      0.00      0.00      83.8     0.47      1017.0     2       356         2         3        7.77     272      331.0
   07/14/2016 09:00      69.8      68.0       73     60.3      0.00      0.00      83.9     0.47      1017.0     2        28         3        80        7.77     272      333.2
   07/14/2016 08:50      67.9      66.8       78     60.4      0.00      0.00      84.3     0.47      1017.0     1       321         4       200        7.77     272      239.9
   07/14/2016 08:40      66.6      66.3       81     60.5      0.00      0.00      83.7     0.47      1017.0     2       357         4       356        7.77     272       -6.4
   07/14/2016 08:30      66.2      65.4       83     60.5      0.00      0.00      84.3     0.47      1017.0     2         2         3        18        7.77     272       -8.2
   07/14/2016 08:20      65.5      65.0       84     60.5      0.00      0.00      84.0     0.47      1017.0     2         4         3        13        7.77     271       -5.0
   07/14/2016 08:10      65.1      64.4       86     60.5      0.00      0.00      84.5     0.47      1017.0     2        20         4        34        7.78     271       11.8
   07/14/2016 08:00      64.5      63.8       88     60.3      0.00      0.00      84.1     0.47      1017.0     3        88         4        86        7.78     271       56.8
   07/14/2016 07:50      64.0      63.4       88     60.2      0.00      0.00      84.6     0.47      1017.0     2       112         4        91        7.78     271       71.7
   07/14/2016 07:40      63.5      63.3       89     60.0      0.00      0.00      84.1     0.47      1017.0     3        33         3        26        7.78     272       66.1
   07/14/2016 07:30      63.7      63.4       88     59.9      0.00      0.00      84.0     0.47      1017.0     2        33         3        52        7.78     271       36.2
   07/14/2016 07:20      63.9      63.7       87     59.8      0.00      0.00      84.6     0.47      1017.0     2        30         4        26        7.78     271       21.1
   07/14/2016 07:10      63.8      63.7       86     59.5      0.00      0.00      84.3     0.47      1017.0     3        67         4        77        7.78     271       12.5
   07/14/2016 07:00      63.8      63.2       86     59.2      0.00      0.00      84.4     0.47      1017.0     2        51         3        28        7.79     271        4.0
   07/14/2016 06:50      63.1      62.1       87     58.5      0.00      0.00      84.4     0.47      1016.0     1        59         2        65        7.79     271       -3.4
   07/14/2016 06:40      62.0      61.4       87     57.9      0.00      0.00      84.5     0.47      1016.0     1        74         2        62        7.79     272      -10.3
   07/14/2016 06:30      61.5      61.2       87     57.6      0.00      0.00      84.5     0.47      1016.0     1        87         2        70        7.79     272      -15.8
   07/14/2016 06:20      61.5      61.3       89     58.1      0.00      0.00      84.5     0.47      1016.0     1       124         1       109        7.79     272      -17.3
   07/14/2016 06:10      61.3      60.8       89     57.8      0.00      0.00      84.6     0.47      1016.0     1       110         2       124        7.79     271      -26.4
   07/14/2016 06:00      61.0      60.6       88     57.3      0.00      0.00      84.6     0.47      1016.0     1       124         2       135        7.79     272      -32.0
   07/14/2016 05:50      61.2      60.9       89     57.7      0.00      0.00      84.4     0.47      1016.0     1       132         2       131        7.79     271      -34.9
   07/14/2016 05:40      61.3      61.0       88     57.5      0.00      0.00      84.7     0.47      1016.0     2       138         2       142        7.79     271      -38.0
   07/14/2016 05:30      61.4      60.6       89     57.7      0.00      0.00      84.6     0.47      1016.0     2       139         2       140        7.79     271      -39.8
   07/14/2016 05:20      60.8      60.3       88     56.9      0.00      0.00      84.7     0.47      1016.0     1       137         2       129        7.79     271      -42.7
   07/14/2016 05:10      61.1      60.5       88     57.1      0.00      0.00      84.9     0.47      1016.0     1       139         2       139        7.79     271      -44.8
   07/14/2016 05:00      61.2      60.9       86     56.9      0.00      0.00      84.8     0.47      1016.0     1       145         2       133        7.79     271      -48.1
   07/14/2016 04:50      61.9      61.4       86     57.3      0.00      0.00      85.1     0.47      1016.0     2       155         2       143        7.79     271      -48.9
   07/14/2016 04:40      62.2      61.9       85     57.6      0.00      0.00      84.9     0.47      1015.0     1       161         1       163        7.79     271      -50.1
   07/14/2016 04:30      62.0      61.6       85     57.1      0.00      0.00      84.9     0.47      1015.0     1       169         1       167        7.79     271      -53.9
   07/14/2016 04:20      61.9      61.6       84     56.9      0.00      0.00      85.1     0.47      1015.0     1       126         1       144        7.79     271      -54.3
   07/14/2016 04:10      62.1      61.8       85     57.4      0.00      0.00      84.9     0.47      1015.0     0       143         0       143        7.79     270      -54.5
   07/14/2016 04:00      62.4      61.9       84     57.2      0.00      0.00      85.1     0.47      1015.0     0       121         1       145        7.79     270      -57.8
   07/14/2016 03:50      62.5      62.3       84     57.6      0.00      0.00      84.9     0.47      1015.0     1       132         2       141        7.79     270      -58.6
   07/14/2016 03:40      62.6      62.2       84     57.6      0.00      0.00      85.0     0.47      1015.0     1       151         2       140        7.79     270      -61.3
   07/14/2016 03:30      62.6      62.4       83     57.3      0.00      0.00      85.5     0.47      1015.0     1       148         2       144        7.79     270      -62.0
   07/14/2016 03:20      62.7      62.4       82     57.0      0.00      0.00      85.4     0.47      1015.0     1       137         1       135        7.79     270      -63.3
   07/14/2016 03:10      63.1      62.8       82     57.4      0.00      0.00      85.3     0.47      1015.0     1       137         1       145        7.79     270      -62.3
   07/14/2016 03:00      63.5      63.0       81     57.2      0.00      0.00      85.0     0.47      1015.0     1       112         1       107        7.79     270      -63.7
   07/14/2016 02:50      63.6      63.4       80     57.3      0.00      0.00      85.6     0.47      1015.0     0       131         1       151        7.79     270      -63.8
   07/14/2016 02:40      64.0      63.7       78     57.0      0.00      0.00      85.5     0.47      1015.0     1       104         1       134        7.80     269      -65.8
   07/14/2016 02:30      64.2      63.9       79     57.4      0.00      0.00      85.2     0.47      1015.0     1       168         1       154        7.80     269      -65.9
   07/14/2016 02:20      64.4      64.0       77     56.9      0.00      0.00      85.7     0.47      1014.0     2       150         2       153        7.80     269      -67.4
   07/14/2016 02:10      64.3      63.9       75     56.0      0.00      0.00      85.5     0.47      1014.0     3       155         3       145        7.80     269      -68.3
   07/14/2016 02:00      64.6      64.2       73     55.5      0.00      0.00      85.8     0.47      1015.0     2       137         2       135        7.80     269      -68.5
   07/14/2016 01:50      65.2      64.8       72     55.7      0.00      0.00      85.5     0.47      1015.0     2       160         2       138        7.80     269      -68.8
   07/14/2016 01:40      65.4      64.8       73     56.2      0.00      0.00      85.6     0.47      1015.0     2       140         2       139        7.80     269      -68.9
   07/14/2016 01:30      65.8      65.4       74     57.0      0.00      0.00      85.7     0.47      1015.0     1       165         2       144        7.80     269      -68.5
   07/14/2016 01:20      65.9      65.7       72     56.7      0.00      0.00      85.5     0.47      1015.0     1       150         1       138        7.80     269      -68.0
   07/14/2016 01:10      66.2      66.0       72     56.8      0.00      0.00      85.8     0.47      1015.0     1       143         2       147        7.80     269      -68.3
   07/14/2016 01:00      66.7      66.2       71     56.6      0.00      0.00      85.9     0.47      1015.0     1       119         1       109        7.80     269      -68.9
   07/14/2016 00:50      66.8      66.5       69     56.1      0.00      0.00      85.7     0.47      1015.0     1       114         2       111        7.80     269      -69.6
   07/14/2016 00:40      66.8      66.6       67     55.3      0.00      0.00      85.6     0.47      1015.0     1       130         2       127        7.80     269      -69.4
   07/14/2016 00:30      67.7      66.9       67     55.7      0.00      0.00      85.7     0.47      1015.0     1       133         1       138        7.80     268      -69.8
   07/14/2016 00:20      67.7      67.4       67     56.1      0.00      0.00      85.9     0.47      1015.0     1       138         1       147        7.80     269      -69.3
   07/14/2016 00:10      67.5      67.3       61     53.7      0.00      0.00      85.8     0.47      1015.0     1       130         1        69        7.81     268      -70.1
   07/14/2016 00:00      68.0      67.5       60     53.3      0.00      0.00      86.0     0.47      1015.0     1       132         2       140        7.81     268      -71.8
   07/13/2016 23:50      68.5      68.1       59     53.6      0.00      0.00      85.8     0.47      1015.0     1       137         2       147        7.81     268      -71.6
   07/13/2016 23:40      68.5      68.1       59     53.6      0.00      0.00      85.7     0.47      1015.0     1       160         2       140        7.81     268      -71.8
   07/13/2016 23:30      69.1      68.6       58     53.7      0.00      0.00      85.7     0.47      1015.0     2       140         2       147        7.81     268      -73.3
   07/13/2016 23:20      69.8      69.3       57     53.9      0.00      0.00      85.8     0.47      1015.0     1       134         1       134        7.81     268      -73.3
   07/13/2016 23:10      70.0      69.7       56     53.6      0.00      0.00      85.8     0.47      1015.0     0       166         1       183        7.81     268      -73.3
   07/13/2016 23:00      70.0      69.7       55     53.0      0.00      0.00      86.0     0.47      1015.0     1       152         2       130        7.81     268      -74.0
   07/13/2016 22:50      70.4      70.1       54     52.9      0.00      0.00      85.6     0.47      1015.0     1       156         2       141        7.82     268      -74.3
   07/13/2016 22:40      71.1      70.3       53     52.7      0.00      0.00      85.6     0.47      1015.0     1        90         1        96        7.82     267      -75.1
   07/13/2016 22:30      71.8      71.2       52     53.0      0.00      0.00      85.8     0.47      1015.0     1        50         1        53        7.82     267      -76.3
   07/13/2016 22:20      71.8      71.5       52     53.0      0.00      0.00      86.0     0.47      1015.0     1       166         1       192        7.82     267      -76.5
   07/13/2016 22:10      72.4      71.7       53     53.8      0.00      0.00      85.8     0.47      1015.0     1       115         2       168        7.82     267      -78.0
   07/13/2016 22:00      73.1      72.4       52     54.0      0.00      0.00      86.0     0.47      1014.0     1        76         1        69        7.82     267      -79.3
   07/13/2016 21:50      73.8      73.0       51     54.1      0.00      0.00      85.7     0.47      1014.0     1       195         2       162        7.83     267      -80.8
   07/13/2016 21:40      74.4      74.0       51     54.7      0.00      0.00      86.1     0.47      1014.0     1       158         1       139        7.83     267      -83.2
   07/13/2016 21:30      74.6      74.4       51     54.9      0.00      0.00      85.7     0.47      1014.0     2       188         3       209        7.83     266      -84.4
   07/13/2016 21:20      75.1      74.7       50     55.0      0.00      0.00      85.8     0.47      1014.0     3       223         7       267        7.83     266      -85.1
   07/13/2016 21:10      75.6      75.1       50     55.3      0.00      0.00      85.9     0.47      1014.0     3       224         4       263        7.84     266      -85.9
   07/13/2016 21:00      76.1      75.6       49     55.3      0.00      0.00      85.8     0.47      1014.0     3       212         3       219        7.84     266      -86.3
   07/13/2016 20:50      76.3      76.0       49     55.4      0.00      0.00      85.7     0.47      1014.0     3       216         5       195        7.84     266      -86.7
   07/13/2016 20:40      77.1      76.5       48     55.6      0.00      0.00      85.9     0.47      1014.0     3       212         5       218        7.84     266      -87.2
   07/13/2016 20:30      78.0      77.3       47     55.8      0.00      0.00      85.8     0.47      1014.0     4       225         7       209        7.84     266      -87.5
   07/13/2016 20:20      78.5      78.0       46     56.0      0.00      0.00      85.9     0.47      1014.0     5       232         9       241        7.85     266      -87.2
   07/13/2016 20:10      79.5      78.6       45     56.1      0.00      0.00      85.7     0.47      1014.0     5       230         7       241        7.85     266      -86.2
   07/13/2016 20:00      81.2      79.8       43     56.2      0.00      0.00      85.6     0.47      1013.0     4       224         6       210        7.85     266      -84.2
   07/13/2016 19:50      83.1      81.5       41     55.9      0.00      0.00      85.7     0.47      1013.0     4       228         5       262        7.85     266      -81.2
   07/13/2016 19:40      83.9      83.2       37     54.5      0.00      0.00      85.5     0.47      1013.0     3       288         5       308        7.85     266      -68.7
   07/13/2016 19:30      84.2      83.9       36     54.4      0.00      0.00      85.6     0.47      1013.0     3       282         6       281        7.85     266      -53.6
   07/13/2016 19:20      84.6      84.3       36     54.6      0.00      0.00      85.3     0.47      1013.0     4       299         6       318        7.86     266      -35.6
   07/13/2016 19:10      85.2      84.9       35     54.3      0.00      0.00      85.6     0.47      1013.0     4       292         6       264        7.86     266      -16.9
   07/13/2016 19:00      85.1      84.8       35     54.1      0.00      0.00      85.3     0.47      1013.0     5       295         9       299        7.86     266        4.4
   07/13/2016 18:50      85.7      85.2       34     54.0      0.00      0.00      85.3     0.47      1013.0     5       295         8       316        7.89     266       25.5
   07/13/2016 18:40      86.5      85.7       34     54.3      0.00      0.00      85.3     0.47      1013.0     7       297        10       304        7.89     266       45.4
   07/13/2016 18:30      87.9      86.5       32     53.6      0.00      0.00      85.2     0.47      1013.0     8       297        12       293        7.90     266       66.3
   07/13/2016 18:20      89.4      88.2       29     52.0      0.00      0.00      85.1     0.47      1013.0     6       300         9       305        7.90     266       83.7
   07/13/2016 18:10      90.4      89.2       28     52.3      0.00      0.00      85.2     0.47      1013.0     5       322        10       290        7.91     266      108.1
   07/13/2016 18:00      90.8      89.7       28     52.8      0.00      0.00      84.9     0.47      1013.0     6       287         9       306        7.91     266      134.5
   07/13/2016 17:50      91.2      90.3       27     52.6      0.00      0.00      85.0     0.47      1013.0     6       287         9       279        7.92     266      158.3
   07/13/2016 17:40      91.9      91.3       27     52.7      0.00      0.00      84.8     0.47      1013.0     4       306         6       338        7.93     266      179.3
   07/13/2016 17:30      91.9      91.1       27     52.4      0.00      0.00      84.8     0.47      1013.0     5       286         9       312        7.93     265      205.1
   07/13/2016 17:20      91.8      91.1       26     51.9      0.00      0.00      84.7     0.46      1013.0     5       291         9       294        7.93     265      226.8
   07/13/2016 17:10      91.2      90.3       29     54.4      0.00      0.00      84.6     0.46      1013.0     5       251         7       295        7.94     265      250.0
   07/13/2016 17:00      91.6      90.4       30     55.8      0.00      0.00      84.6     0.46      1013.0     5       222         8       255        7.94     265      271.2
   07/13/2016 16:50      90.9      90.4       31     56.1      0.00      0.00      84.5     0.46      1013.0     5       184         8       190        7.95     265      292.9
   07/13/2016 16:40      91.4      90.8       31     56.0      0.00      0.00      84.7     0.46      1013.0     6       165        12       133        7.95     265      313.6
   07/13/2016 16:30      91.7      90.9       31     56.5      0.00      0.00      84.2     0.46      1013.0     6       178         8       170        7.97     265      332.2
   07/13/2016 16:20      91.8      91.0       32     57.0      0.00      0.00      84.4     0.46      1013.0     5       167         8       157        7.98     265      350.1
   07/13/2016 16:10      91.8      90.9       32     57.2      0.00      0.00      84.1     0.46      1013.0     6       172         9       177        7.99     265      368.5
   07/13/2016 16:00      92.1      91.0       32     57.7      0.00      0.00      84.0     0.46      1013.0     5       175         8       166        7.99     266      385.1
   07/13/2016 15:50      91.8      90.9       32     57.7      0.00      0.00      84.0     0.46      1013.0     6       180        11       212        8.00     266      402.9
   07/13/2016 15:40      93.6      91.8       32     58.8      0.00      0.00      83.9     0.46      1013.0     5       214        11       142        8.00     266      412.9
   07/13/2016 15:30      94.0      92.3       34     60.2      0.00      0.00      84.0     0.46      1013.0     4       298         8       249        8.01     267      425.5
   07/13/2016 15:20      94.0      92.6       33     59.9      0.00      0.00      83.9     0.46      1013.0     6       267        10       307        8.01     267      435.4
   07/13/2016 15:10      94.5      93.0       29     57.0      0.00      0.00      83.9     0.46      1013.0     4       212         8       236        8.02     267      445.1
   07/13/2016 15:00      94.4      92.4       28     55.4      0.00      0.00      83.8     0.46      1013.0     3       109         5        74        8.02     267      461.9
   07/13/2016 14:50      94.1      93.0       28     55.7      0.00      0.00      83.5     0.46      1013.0     4       136         5       122        8.03     267      474.5
   07/13/2016 14:40      93.9      93.4       28     55.9      0.00      0.00      83.5     0.46      1013.0     4        65         6       143        8.03     267      481.9
   07/13/2016 14:30      94.1      92.2       29     56.1      0.00      0.00      83.6     0.46      1013.0     3         9         4         0        8.04     267      491.9
   07/13/2016 14:20      92.3      90.9       30     55.9      0.00      0.00      83.7     0.46      1013.0     3       105         4       111        8.04     268      504.8
   07/13/2016 14:10      92.8      91.7       30     56.4      0.00      0.00      83.4     0.46      1013.0     4        32         6       331        8.04     269      509.4
   07/13/2016 14:00      93.1      91.8       30     56.9      0.00      0.00      83.4     0.46      1013.0     2        54         4       352        8.05     269      517.0
   07/13/2016 13:50      91.8      90.5       32     56.8      0.00      0.00      83.1     0.46      1014.0     4        69         8        98        8.05     269      527.7
   07/13/2016 13:40      91.0      89.9       33     57.4      0.00      0.00      83.1     0.46      1014.0     3       345         6       334        8.05     270      532.3
   07/13/2016 13:30      91.3      89.6       33     57.7      0.00      0.00      83.3     0.46      1014.0     3       360         7        28        8.05     270      536.2
   07/13/2016 13:20      89.9      88.3       35     57.5      0.00      0.00      83.2     0.46      1014.0     3         9         5        27        8.05     270      539.5
   07/13/2016 13:10      89.1      87.8       35     57.4      0.00      0.00      83.2     0.46      1014.0     3        15         5        10        8.06     270      543.7
   07/13/2016 13:00      88.9      87.9       35     57.3      0.00      0.00      83.3     0.46      1014.0     4        11         7       352        8.06     270      546.9
   07/13/2016 12:50      88.0      87.0       36     57.0      0.00      0.00      83.3     0.46      1014.0     3        25         5        64        8.06     271      548.9
   07/13/2016 12:40      88.0      87.0       37     58.2      0.00      0.00      83.0     0.46      1014.0     3        38         5         7        8.06     270      545.4
   07/13/2016 12:30      87.0      86.3       39     58.8      0.00      0.00      83.1     0.46      1015.0     3        45         6        98        8.06     270      544.8
   07/13/2016 12:20      86.1      84.3       42     59.4      0.00      0.00      83.2     0.46      1015.0     3        83         4       112        8.06     271      547.8
   07/13/2016 12:10      85.1      84.0       42     59.3      0.00      0.00      83.2     0.46      1015.0     3        65         6        91        8.06     271      544.1
   07/13/2016 12:00      84.9      83.5       43     59.6      0.00      0.00      83.3     0.46      1015.0     2       355         4         7        8.06     271      538.6
   07/13/2016 11:50      84.2      83.7       44     59.8      0.00      0.00      83.4     0.46      1015.0     3         8         7       338        8.06     271      530.1
   07/13/2016 11:40      83.7      82.4       46     60.0      0.00      0.00      82.9     0.46      1015.0     3        41         6       353        8.07     271      526.5
   07/13/2016 11:30      83.1      82.0       46     60.1      0.00      0.00      83.0     0.46      1015.0     4        36         5        70        8.07     272      516.7
   07/13/2016 11:20      81.9      81.2       48     60.2      0.00      0.00      83.3     0.46      1015.0     4        39         6        13        8.07     272      508.3
   07/13/2016 11:10      81.6      80.5       49     60.4      0.00      0.00      83.3     0.46      1015.0     4        45         6        15        8.07     272      501.1
   07/13/2016 11:00      81.2      80.2       50     60.5      0.00      0.00      83.2     0.46      1015.0     4        58         6       100        8.07     272      490.2
   07/13/2016 10:50      81.6      79.3       51     61.0      0.00      0.00      83.3     0.46      1015.0     3        44         7        71        8.07     274      476.2
   07/13/2016 10:40      80.3      79.3       53     60.9      0.00      0.00      83.3     0.46      1015.0     3        19         4         9        8.07     287      465.2
   07/13/2016 10:30      79.9      78.2       54     60.8      0.00      0.00      83.1     0.46      1015.0     3        37         5        21        8.07     304      453.2
   07/13/2016 10:20      78.5      77.7       55     60.4      0.00      0.00      83.4     0.46      1015.0     3        25         4        34        8.07     310      438.3
   07/13/2016 10:10      77.8      76.8       55     60.1      0.00      0.00      83.5     0.46      1015.0     3        18         5        14        8.07     316      423.3
   07/13/2016 10:00      76.3      75.7       57     59.8      0.00      0.00      83.3     0.47      1015.0     3        26         4         2        8.08     320      407.7
   07/13/2016 09:50      76.1      74.8       58     59.6      0.00      0.00      83.5     0.47      1015.0     2         4         4       342        8.08     323      388.9
   07/13/2016 09:40      75.0      73.9       59     59.4      0.00      0.00      83.4     0.47      1015.0     2        10         4       358        8.08     327      372.0
   07/13/2016 09:30      73.8      73.2       61     59.3      0.00      0.00      83.6     0.47      1015.0     3        22         4       357        8.08     329      357.1
   07/13/2016 09:20      73.0      72.2       63     59.2      0.00      0.00      83.8     0.47      1015.0     2       117         4       134        8.09     332      341.1
   07/13/2016 09:10      72.8      71.4       64     59.3      0.00      0.00      83.4     0.47      1015.0     2        39         3        21        8.09     334      330.0
   07/13/2016 09:00      71.4      69.8       66     59.0      0.00      0.00      83.3     0.47      1015.0     2        77         3        96        8.09     336      333.1
   07/13/2016 08:50      69.8      68.8       70     59.2      0.00      0.00      83.9     0.47      1015.0     2        76         4        65        8.10     337      269.1
   07/13/2016 08:40      68.8      67.4       73     59.1      0.00      0.00      84.0     0.47      1015.0     2       234         3       140        8.10     338       -2.0
   07/13/2016 08:30      67.5      67.2       75     59.1      0.00      0.00      84.1     0.47      1015.0     1       337         3         1        8.10     338      -15.9
   07/13/2016 08:20      67.3      66.9       75     59.1      0.00      0.00      83.5     0.47      1015.0     2       131         3       123        8.10     339      -18.1
   07/13/2016 08:10      67.0      66.2       77     59.2      0.00      0.00      84.0     0.47      1015.0     1       101         3        80        8.10     340      -12.9
   07/13/2016 08:00      66.2      65.6       79     59.2      0.00      0.00      83.9     0.47      1015.0     2       102         3        74        8.10     340        7.4
   07/13/2016 07:50      65.9      65.3       80     59.1      0.00      0.00      83.9     0.47      1015.0     1        61         3        26        8.10     340        2.5
   07/13/2016 07:40      65.2      64.8       80     58.7      0.00      0.00      83.8     0.47      1015.0     1       117         2       141        8.10     339        2.5
   07/13/2016 07:30      64.8      64.3       80     58.4      0.00      0.00      84.4     0.47      1015.0     2        59         3       125        8.11     337       -0.9
   07/13/2016 07:20      64.4      63.5       81     58.0      0.00      0.00      84.2     0.47      1015.0     1        14         2        55        8.10     337        5.0
   07/13/2016 07:10      63.4      62.6       82     57.5      0.00      0.00      83.8     0.47      1015.0     1        99         3       120        8.11     335        1.1
   07/13/2016 07:00      62.6      61.7       85     57.4      0.00      0.00      84.4     0.47      1015.0     1        55         1        60        8.11     333       -4.4
   07/13/2016 06:50      61.7      60.9       86     57.1      0.00      0.00      84.2     0.47      1015.0     0       216         1       239        8.11     332       -7.3
   07/13/2016 06:40      61.0      60.4       87     56.7      0.00      0.00      84.1     0.47      1015.0     1       142         1       117        8.11     331      -12.7
   07/13/2016 06:30      60.4      60.0       89     57.0      0.00      0.00      84.3     0.47      1015.0     1       164         1       129        8.11     328      -17.2
   07/13/2016 06:20      60.0      59.5       90     56.7      0.00      0.00      84.3     0.47      1015.0     1       185         2       144        8.11     324      -19.1
   07/13/2016 06:10      59.9      59.5       90     56.6      0.00      0.00      84.3     0.47      1015.0     1       141         2       142        8.11     322      -27.2
   07/13/2016 06:00      60.0      59.7       89     56.7      0.00      0.00      84.2     0.47      1015.0     1       148         1       144        8.11     319      -32.7
   07/13/2016 05:50      59.9      59.6       89     56.6      0.00      0.00      84.4     0.47      1014.0     1       172         1       129        8.11     317      -37.2
   07/13/2016 05:40      60.2      59.7       88     56.2      0.00      0.00      84.2     0.47      1014.0     1       142         2       142        8.11     314      -39.7
   07/13/2016 05:30      60.3      60.0       89     56.8      0.00      0.00      84.6     0.47      1014.0     1       142         2       140        8.11     313      -40.8
   07/13/2016 05:20      60.3      60.0       89     56.9      0.00      0.00      84.5     0.47      1014.0     1       160         1       166        8.11     311      -42.6
   07/13/2016 05:10      60.5      60.0       88     56.6      0.00      0.00      84.7     0.47      1014.0     1       145         2       142        8.11     311      -44.5
   07/13/2016 05:00      60.5      60.3       88     56.9      0.00      0.00      84.5     0.47      1014.0     1       146         2       137        8.11     309      -46.6
   07/13/2016 04:50      60.5      60.1       87     56.4      0.00      0.00      84.9     0.47      1014.0     1       150         2       135        8.11     307      -50.1
   07/13/2016 04:40      60.5      60.3       87     56.5      0.00      0.00      84.8     0.47      1014.0     2       151         2       148        8.11     305      -51.7
   07/13/2016 04:30      60.9      60.6       86     56.6      0.00      0.00      84.9     0.47      1014.0     1       169         2       177        8.11     303      -53.0
   07/13/2016 04:20      61.1      60.9       86     56.8      0.00      0.00      85.0     0.47      1014.0     2       149         2       129        8.11     303      -54.7
   07/13/2016 04:10      61.1      60.8       86     56.7      0.00      0.00      84.8     0.47      1014.0     1       161         2       153        8.11     301      -57.3
   07/13/2016 04:00      61.3      61.0       84     56.5      0.00      0.00      85.1     0.47      1014.0     2       165         2       166        8.11     300      -59.5
   07/13/2016 03:50      61.5      61.3       84     56.6      0.00      0.00      84.8     0.47      1014.0     2       155         2       139        8.11     299      -59.6
   07/13/2016 03:40      61.7      61.3       85     56.8      0.00      0.00      85.4     0.47      1014.0     2       149         2       133        8.11     299      -59.5
   07/13/2016 03:30      62.4      61.8       84     57.0      0.00      0.00      85.0     0.47      1014.0     1       176         2       167        8.11     298      -59.2
   07/13/2016 03:20      62.5      62.3       83     57.1      0.00      0.00      84.9     0.47      1014.0     0       119         1       145        8.11     296      -60.2
   07/13/2016 03:10      62.6      62.4       81     56.5      0.00      0.00      85.2     0.47      1014.0     1       122         2       107        8.11     294      -61.9
   07/13/2016 03:00      62.8      62.6       81     56.7      0.00      0.00      85.1     0.47      1014.0     1       123         2       110        8.11     294      -62.6
   07/13/2016 02:50      62.8      62.6       79     56.1      0.00      0.00      85.3     0.47      1014.0     1        94         2       127        8.11     292      -63.5
   07/13/2016 02:40      62.7      62.5       78     55.7      0.00      0.00      85.4     0.47      1014.0     1       119         2       119        8.11     291      -63.1
   07/13/2016 02:30      62.5      62.3       80     56.2      0.00      0.00      85.3     0.47      1014.0     0       128         1       137        8.11     290      -62.9
   07/13/2016 02:20      62.6      62.3       80     56.1      0.00      0.00      85.4     0.47      1014.0     0        99         1       130        8.11     288      -63.1
   07/13/2016 02:10      62.8      62.6       79     56.0      0.00      0.00      85.2     0.47      1013.0     1        97         1       112        8.11     287      -64.4
   07/13/2016 02:00      62.9      62.6       78     56.0      0.00      0.00      85.3     0.47      1013.0     1        89         2       153        8.12     286      -65.4
   07/13/2016 01:50      63.2      63.0       79     56.3      0.00      0.00      85.4     0.47      1013.0     1       156         1       172        8.12     285      -65.8
   07/13/2016 01:40      63.4      63.0       77     55.8      0.00      0.00      85.2     0.47      1013.0     1       141         2       148        8.12     284      -66.1
   07/13/2016 01:30      63.9      63.4       76     56.0      0.00      0.00      85.6     0.47      1013.0     1       139         2       126        8.12     283      -66.1
   07/13/2016 01:20      64.0      63.8       76     56.1      0.00      0.00      85.5     0.47      1013.0     1       147         1       166        8.12     282      -66.4
   07/13/2016 01:10      64.4      64.2       75     56.4      0.00      0.00      85.7     0.47      1013.0     1       155         2       144        8.12     280      -67.6
   07/13/2016 01:00      64.3      64.1       75     56.2      0.00      0.00      85.6     0.47      1013.0     1       136         2       140        8.12     280      -68.9
   07/13/2016 00:50      65.0      64.4       75     56.8      0.00      0.00      85.5     0.47      1013.0     1       136         2       134        8.12     279      -69.4
   07/13/2016 00:40      65.5      65.0       75     57.2      0.00      0.00      85.8     0.47      1013.0     1       146         2       145        8.12     278      -69.8
   07/13/2016 00:30      65.6      65.4       74     57.1      0.00      0.00      85.2     0.47      1013.0     1       144         2       144        8.12     277      -69.7
   07/13/2016 00:20      66.1      65.6       73     56.9      0.00      0.00      85.8     0.47      1013.0     1       132         1       130        8.12     276      -69.8
   07/13/2016 00:10      66.2      66.0       72     56.9      0.00      0.00      85.1     0.47      1013.0     1       130         1       134        8.12     275      -70.2
   07/13/2016 00:00      66.4      66.2       71     56.7      0.00      0.00      85.9     0.47      1013.0     1       118         2       116        8.12     275      -70.5
   07/12/2016 23:50      67.2      66.6       70     56.6      0.00      0.00      85.9     0.47      1013.0     1       116         2       122        8.12     274      -70.8
   07/12/2016 23:40      67.8      67.3       69     57.1      0.00      0.00      85.6     0.47      1013.0     1       100         3        99        8.12     273      -71.9
   07/12/2016 23:30      67.9      67.6       69     57.1      0.00      0.00      85.7     0.47      1013.0     2       108         2       132        8.12     273      -72.6
   07/12/2016 23:20      68.4      67.9       67     57.0      0.00      0.00      85.8     0.47      1013.0     1        98         2       108        8.12     272      -73.1
   07/12/2016 23:10      68.6      68.4       67     57.1      0.00      0.00      85.9     0.47      1013.0     1        87         2       101        8.12     272      -73.1
   07/12/2016 23:00      68.9      68.6       66     56.9      0.00      0.00      85.5     0.47      1013.0     1        66         2        93        8.12     272      -72.8
   07/12/2016 22:50      69.2      68.8       64     56.2      0.00      0.00      85.6     0.47      1013.0     1        82         1        80        8.12     271      -73.3
   07/12/2016 22:40      69.5      69.3       63     56.1      0.00      0.00      85.9     0.47      1013.0     1        88         2        89        8.12     271      -73.4
   07/12/2016 22:30      69.7      69.3       61     55.3      0.00      0.00      85.9     0.47      1013.0     2       101         2        98        8.13     271      -73.7
   07/12/2016 22:20      70.3      69.9       59     55.1      0.00      0.00      85.7     0.47      1013.0     1        79         1       100        8.13     270      -73.4
   07/12/2016 22:10      71.1      70.3       56     54.1      0.00      0.00      86.0     0.47      1013.0     1        90         1        75        8.13     270      -74.7
   07/12/2016 22:00      71.6      71.3       54     53.8      0.00      0.00      86.3     0.47      1013.0     1        97         2       183        8.13     269      -75.4
   07/12/2016 21:50      71.9      71.6       54     54.1      0.00      0.00      86.1     0.47      1013.0     2       184         3       192        8.13     270      -75.4
   07/12/2016 21:40      72.5      72.0       53     54.2      0.00      0.00      85.9     0.47      1013.0     3       169         3       172        8.13     270      -76.5
   07/12/2016 21:30      72.9      72.4       52     54.2      0.00      0.00      86.1     0.47      1013.0     2       171         3       150        8.13     270      -77.2
   07/12/2016 21:20      73.4      73.0       52     54.3      0.00      0.00      85.9     0.47      1012.0     3       177         4       155        8.13     270      -77.8
   07/12/2016 21:10      73.7      73.4       51     54.6      0.00      0.00      86.3     0.47      1012.0     2       190         2       174        8.13     269      -78.9
   07/12/2016 21:00      74.0      73.8       51     54.9      0.00      0.00      86.1     0.47      1012.0     2       186         3       191        8.13     270      -79.6
   07/12/2016 20:50      74.4      74.1       51     55.2      0.00      0.00      85.7     0.47      1012.0     3       179         4       171        8.14     269      -80.4
   07/12/2016 20:40      75.4      74.7       52     56.0      0.00      0.00      85.6     0.47      1012.0     3       181         4       162        8.14     269      -81.7
   07/12/2016 20:30      75.8      75.5       52     56.6      0.00      0.00      85.7     0.47      1012.0     3       202         5       224        8.14     269      -82.4
   07/12/2016 20:20      76.3      75.8       51     56.8      0.00      0.00      85.8     0.47      1012.0     2       209         3       212        8.14     269      -82.6
   07/12/2016 20:10      76.6      76.4       50     56.6      0.00      0.00      86.1     0.47      1012.0     3       202         4       219        8.15     269      -81.4
   07/12/2016 20:00      77.2      76.6       49     56.3      0.00      0.00      85.7     0.47      1012.0     3       194         5       215        8.15     269      -78.8
   07/12/2016 19:50      77.8      77.3       48     56.6      0.00      0.00      85.4     0.47      1012.0     3       183         5       153        8.15     269      -74.8
   07/12/2016 19:40      78.8      78.0       48     56.8      0.00      0.00      85.8     0.47      1011.0     3       196         4       174        8.15     268      -62.8
   07/12/2016 19:30      79.5      78.6       47     57.0      0.00      0.00      85.4     0.47      1011.0     4       200         5       196        8.16     269      -47.3
   07/12/2016 19:20      79.6      79.2       47     57.2      0.00      0.00      85.7     0.47      1011.0     3       194         6       166        8.16     269      -29.7
   07/12/2016 19:10      80.1      79.6       46     57.3      0.00      0.00      85.7     0.47      1011.0     3       204         4       211        8.16     268      -10.1
   07/12/2016 19:00      80.6      79.8       46     57.3      0.00      0.00      85.7     0.47      1011.0     4       226         6       200        8.17     268       11.1
   07/12/2016 18:50      81.4      80.9       44     57.5      0.00      0.00      85.8     0.47      1011.0     4       232         7       207        8.17     268       30.9
   07/12/2016 18:40      82.3      81.0       44     57.5      0.00      0.00      85.5     0.47      1011.0     4       229         6       230        8.17     268       51.5
   07/12/2016 18:30      82.5      82.0       43     57.3      0.00      0.00      85.2     0.47      1011.0     4       264         6       255        8.17     269       72.3
   07/12/2016 18:20      82.5      82.1       43     57.4      0.00      0.00      85.3     0.47      1011.0     4       252         7       276        8.18     269       95.7
   07/12/2016 18:10      83.4      82.8       41     57.3      0.00      0.00      85.0     0.47      1011.0     5       288         7       335        8.18     269      118.2
   07/12/2016 18:00      84.5      82.9       41     57.5      0.00      0.00      85.2     0.47      1011.0     5       269         8       257        8.18     269      141.8
   07/12/2016 17:50      85.1      84.3       40     57.7      0.00      0.00      85.1     0.47      1011.0     5       308         7       308        8.19     269      165.6
   07/12/2016 17:40      84.8      83.7       41     57.5      0.00      0.00      85.0     0.47      1011.0     4       285         6       313        8.19     269      190.0
   07/12/2016 17:30      84.8      83.9       40     57.6      0.00      0.00      85.1     0.47      1011.0     5       284         8       292        8.19     269      213.7
   07/12/2016 17:20      84.3      83.2       42     57.9      0.00      0.00      84.9     0.47      1011.0     5       217         8       233        8.20     270      238.2
   07/12/2016 17:10      84.3      83.2       42     57.9      0.00      0.00      85.1     0.47      1011.0     6       205         8       216        8.20     276      261.2
   07/12/2016 17:00      84.6      84.0       41     58.4      0.00      0.00      85.0     0.47      1011.0     6       254        11       260        8.21     288      282.5
   07/12/2016 16:50      86.1      85.2       40     58.7      0.00      0.00      84.9     0.47      1011.0     5       227        10       265        8.22     295      304.5
   07/12/2016 16:40      86.0      84.6       42     59.4      0.00      0.00      84.9     0.47      1011.0     4       257         8       240        8.25     300      326.5
   07/12/2016 16:30      84.9      84.2       43     59.6      0.00      0.00      84.8     0.47      1011.0     5       180        10       159        8.26     297      351.2
   07/12/2016 16:20      84.1      83.2       44     59.5      0.00      0.00      84.7     0.47      1011.0     7       170        11       163        8.27     299      375.3
   07/12/2016 16:10      85.5      83.9       43     60.0      0.00      0.00      84.3     0.47      1011.0     8       164        10       142        8.27     304      394.0
   07/12/2016 16:00      86.3      85.2       41     59.7      0.00      0.00      84.6     0.47      1011.0     6       189        10       146        8.28     265      386.9
   07/12/2016 15:50      87.1      86.0       41     59.7      0.00      0.00      84.3     0.47      1011.0     5       102        10       117        8.28     266      400.2
   07/12/2016 15:40      86.8      86.5       41     59.8      0.00      0.00      84.5     0.46      1011.0     4        72         8        80        8.28     266      411.4
   07/12/2016 15:30      87.2      86.7       40     59.9      0.00      0.00      84.3     0.46      1011.0     3        84         5        98        8.29     266      427.7
   07/12/2016 15:20      87.7      86.5       40     60.1      0.00      0.00      84.0     0.46      1012.0     4        56         6        25        8.29     266      441.0
   07/12/2016 15:10      87.6      86.8       40     60.1      0.00      0.00      84.4     0.46      1012.0     4        55         6        84        8.29     266      454.7
   07/12/2016 15:00      88.0      87.0       40     60.1      0.00      0.00      83.9     0.46      1012.0     4        56         7        84        8.29     266      465.4
   07/12/2016 14:50      87.4      86.3       40     60.0      0.00      0.00      84.0     0.46      1012.0     4        57         6         4        8.29     266      478.2
   07/12/2016 14:40      86.1      85.2       41     59.7      0.00      0.00      83.9     0.46      1012.0     3       109         7       132        8.30     266      494.0
   07/12/2016 14:30      85.1      84.4       42     59.4      0.00      0.00      83.9     0.46      1012.0     4       123         6       117        8.30     266      501.2
   07/12/2016 14:20      85.9      83.9       42     59.2      0.00      0.00      83.9     0.46      1012.0     3       143         4       108        8.30     266      512.7
   07/12/2016 14:10      86.4      85.0       41     59.1      0.00      0.00      83.9     0.46      1012.0     5        93         8        62        8.30     266      524.0
   07/12/2016 14:00      86.9      85.6       40     59.5      0.00      0.00      83.7     0.46      1012.0     5        79         7        76        8.30     267      529.5
   07/12/2016 13:50      87.4      85.7       40     59.4      0.00      0.00      83.8     0.46      1012.0     4        48         8        66        8.30     267      533.2
   07/12/2016 13:40      87.0      85.7       38     58.2      0.00      0.00      83.6     0.46      1012.0     4        80         5        83        8.31     267      535.9
   07/12/2016 13:30      86.7      84.4       39     57.4      0.00      0.00      83.6     0.46      1012.0     4        81         6        79        8.31     268      542.7
   07/12/2016 13:20      85.3      83.3       40     57.4      0.00      0.00      83.7     0.46      1013.0     3       336         5       334        8.31     268      544.2
   07/12/2016 13:10      84.5      83.0       41     57.4      0.00      0.00      83.5     0.46      1013.0     4       279         5       327        8.31     267      548.1
   07/12/2016 13:00      83.7      82.6       42     57.7      0.00      0.00      83.4     0.46      1013.0     4        18         5         0        8.31     268      548.4
   07/12/2016 12:50      82.9      81.7       43     57.8      0.00      0.00      83.7     0.46      1013.0     3        22         6       113        8.32     268      551.9
   07/12/2016 12:40      82.9      82.0       43     57.9      0.00      0.00      83.5     0.46      1013.0     3       249         5       331        8.32     267      550.9
   07/12/2016 12:30      82.8      81.6       44     58.0      0.00      0.00      83.6     0.46      1013.0     4       339         6       331        8.32     268      548.4
   07/12/2016 12:20      81.7      80.7       45     58.0      0.00      0.00      83.3     0.46      1013.0     3       343         5       276        8.32     268      545.6
   07/12/2016 12:10      81.0      80.2       46     58.0      0.00      0.00      83.5     0.46      1014.0     4         6         6       340        8.32     268      543.7
   07/12/2016 12:00      80.7      79.5       47     58.0      0.00      0.00      83.5     0.46      1014.0     3        32         3        32        8.32     268      538.3
   07/12/2016 11:50      79.3      78.2       49     58.2      0.00      0.00      83.4     0.46      1014.0     3         3         5       356        8.32     268      535.4
   07/12/2016 11:40      79.6      77.4       50     58.4      0.00      0.00      83.4     0.46      1014.0     3        23         5        18        8.32     268      526.8
   07/12/2016 11:30      78.2      77.5       52     58.6      0.00      0.00      83.3     0.46      1014.0     2        12         4         6        8.32     268      517.8
   07/12/2016 11:20      77.9      77.3       53     58.9      0.00      0.00      83.4     0.46      1014.0     3        27         7       357        8.33     268      510.6
   07/12/2016 11:10      77.1      74.9       56     59.0      0.00      0.00      83.6     0.46      1014.0     4       323         7       347        8.33     269      503.7
   07/12/2016 11:00      76.3      75.2       56     59.0      0.00      0.00      83.6     0.46      1014.0     2        69         3       296        8.33     269      489.9
   07/12/2016 10:50      76.5      76.1       55     59.1      0.00      0.00      83.4     0.46      1014.0     3        40         5        23        8.33     270      479.7
   07/12/2016 10:40      75.8      74.4       58     59.1      0.00      0.00      83.6     0.46      1014.0     4         9         7       345        8.33     270      471.3
   07/12/2016 10:30      74.7      74.1       59     59.0      0.00      0.00      83.7     0.47      1014.0     3       359         5       348        8.33     270      457.4
   07/12/2016 10:20      73.9      72.5       60     58.6      0.00      0.00      83.6     0.47      1014.0     2       310         4       326        8.33     270      421.2
   07/12/2016 10:10      72.5      70.0       64     58.3      0.00      0.00      83.8     0.47      1014.0     2       249         2       333        8.33     270      325.4
   07/12/2016 10:00      70.1      69.4       66     58.2      0.00      0.00      83.6     0.47      1014.0     3       185         4       237        8.33     270      299.0
   07/12/2016 09:50      70.2      69.2       67     58.4      0.00      0.00      83.8     0.47      1014.0     3       204         4       203        8.33     270      252.3
   07/12/2016 09:40      70.4      69.8       67     58.5      0.00      0.00      83.9     0.47      1014.0     3       331         6       326        8.33     270      210.1
   07/12/2016 09:30      70.2      69.6       67     58.4      0.00      0.00      83.7     0.47      1014.0     3        68         5        93        8.33     270      324.5
   07/12/2016 09:20      70.3      69.2       68     58.4      0.00      0.00      83.6     0.47      1014.0     2        38         4        76        8.33     270      254.7
   07/12/2016 09:10      69.3      68.4       69     58.2      0.00      0.00      83.8     0.47      1014.0     3        67         4        27        8.34     270      187.7
   07/12/2016 09:00      68.9      68.2       70     58.2      0.00      0.00      83.9     0.47      1014.0     3       145         5       150        8.34     270      198.7
   07/12/2016 08:50      68.0      67.2       72     58.0      0.00      0.00      84.0     0.47      1014.0     3       137         5       134        8.34     270      135.4
   07/12/2016 08:40      67.5      67.3       72     58.1      0.00      0.00      84.0     0.47      1014.0     3       127         5       147        8.34     271      106.6
   07/12/2016 08:30      67.9      67.4       72     58.1      0.00      0.00      84.2     0.47      1014.0     3        82         4       117        8.34     271       81.7
   07/12/2016 08:20      67.8      67.0       72     58.1      0.00      0.00      84.0     0.47      1014.0     1        10         2        70        8.34     271       72.3
   07/12/2016 08:10      66.9      66.4       73     57.9      0.00      0.00      84.1     0.47      1014.0     2        54         3        93        8.34     271       59.4
   07/12/2016 08:00      66.7      66.4       74     58.0      0.00      0.00      84.1     0.47      1014.0     2        80         3       128        8.34     271       44.0
   07/12/2016 07:50      66.8      66.5       74     58.0      0.00      0.00      83.8     0.47      1014.0     2        52         3        23        8.34     271       37.1
   07/12/2016 07:40      66.7      66.4       74     58.0      0.00      0.00      83.8     0.47      1014.0     2        21         2        25        8.34     271       32.8
   07/12/2016 07:30      66.6      65.8       75     58.0      0.00      0.00      84.1     0.47      1014.0     1        84         2        76        8.34     271       22.1
   07/12/2016 07:20      66.0      65.7       76     58.0      0.00      0.00      84.2     0.47      1014.0     2        73         3       102        8.34     271       17.8
   07/12/2016 07:10      66.0      65.5       76     58.0      0.00      0.00      84.2     0.47      1014.0     2        38         3        41        8.34     271       11.1
   07/12/2016 07:00      65.6      65.3       77     57.9      0.00      0.00      84.3     0.47      1014.0     2        40         4        70        8.34     271        7.9
   07/12/2016 06:50      65.5      65.3       77     58.1      0.00      0.00      84.3     0.47      1014.0     2        33         3        32        8.34     271        3.0
   07/12/2016 06:40      65.5      65.2       77     58.1      0.00      0.00      84.5     0.47      1014.0     2        48         2        31        8.34     271       -1.0
   07/12/2016 06:30      65.2      64.8       78     57.9      0.00      0.00      84.5     0.47      1014.0     2       101         3       104        8.34     271       -5.0
   07/12/2016 06:20      64.9      64.6       80     58.3      0.00      0.00      84.6     0.47      1013.0     2       111         3        83        8.34     271       -8.4
   07/12/2016 06:10      65.0      64.5       80     58.4      0.00      0.00      84.8     0.47      1013.0     2        80         3       358        8.34     271      -11.0
   07/12/2016 06:00      64.8      64.3       81     58.5      0.00      0.00      84.4     0.47      1013.0     1       103         2        69        8.34     271      -14.8
   07/12/2016 05:50      64.4      63.9       81     58.2      0.00      0.00      84.9     0.47      1013.0     1       103         2        82        8.34     271      -15.1
   07/12/2016 05:40      64.0      63.5       81     57.6      0.00      0.00      84.3     0.47      1013.0     1       142         1       145        8.34     271      -19.8
   07/12/2016 05:30      63.6      63.3       81     57.4      0.00      0.00      84.4     0.47      1013.0     1       169         1       130        8.34     271      -28.3
   07/12/2016 05:20      63.6      63.3       81     57.5      0.00      0.00      84.7     0.47      1013.0     1       170         1       137        8.34     271      -32.3
   07/12/2016 05:10      63.5      63.3       82     57.9      0.00      0.00      84.5     0.47      1013.0     1       297         1       290        8.34     271      -38.9
   07/12/2016 05:00      63.4      63.0       82     57.5      0.00      0.00      84.7     0.47      1013.0     1       290         2       326        8.34     270      -35.8
   07/12/2016 04:50      63.1      62.8       81     57.2      0.00      0.00      84.9     0.47      1013.0     1       215         2       203        8.34     270      -34.3
   07/12/2016 04:40      63.1      62.8       82     57.3      0.00      0.00      84.9     0.47      1013.0     1       213         2       214        8.34     270      -31.7
   07/12/2016 04:30      63.1      62.7       83     57.5      0.00      0.00      84.7     0.47      1013.0     1       245         1       224        8.35     270      -33.6
   07/12/2016 04:20      62.8      62.5       82     57.0      0.00      0.00      84.9     0.47      1013.0     1       228         1       223        8.35     270      -43.5
   07/12/2016 04:10      62.6      61.9       82     56.5      0.00      0.00      85.0     0.47      1013.0     1       177         1       192        8.35     270      -27.5
   07/12/2016 04:00      61.8      60.9       83     56.0      0.00      0.00      85.1     0.47      1013.0     0       179         1       151        8.35     270      -12.3
   07/12/2016 03:50      60.7      60.0       85     55.6      0.00      0.00      84.8     0.47      1013.0     0       313         1       284        8.35     270      -16.2
   07/12/2016 03:40      60.3      60.1       85     55.8      0.00      0.00      85.0     0.47      1013.0     0       105         1        77        8.35     270      -52.7
   07/12/2016 03:30      60.5      60.3       85     55.8      0.00      0.00      84.8     0.47      1013.0     0       137         1       162        8.35     270      -60.5
   07/12/2016 03:20      60.5      60.2       84     55.5      0.00      0.00      85.0     0.47      1013.0     0       173         1       193        8.35     270      -63.6
   07/12/2016 03:10      60.7      60.5       83     55.5      0.00      0.00      85.1     0.47      1013.0     1       125         1       153        8.35     270      -64.6
   07/12/2016 03:00      61.2      60.6       82     55.3      0.00      0.00      85.5     0.47      1013.0     1       129         1       112        8.35     270      -65.8
   07/12/2016 02:50      61.6      61.2       81     55.6      0.00      0.00      85.2     0.47      1013.0     1       123         1        89        8.35     269      -66.8
   07/12/2016 02:40      61.7      61.5       82     55.9      0.00      0.00      85.4     0.47      1013.0     2       139         3       164        8.35     270      -68.2
   07/12/2016 02:30      62.5      61.8       80     55.9      0.00      0.00      85.1     0.47      1013.0     3       160         4       163        8.35     269      -68.9
   07/12/2016 02:20      63.1      62.6       76     55.3      0.00      0.00      85.5     0.47      1013.0     3       137         4       130        8.35     269      -69.0
   07/12/2016 02:10      63.3      62.9       72     54.0      0.00      0.00      85.3     0.47      1013.0     3       122         5       110        8.35     269      -68.7
   07/12/2016 02:00      62.9      62.7       74     54.4      0.00      0.00      85.4     0.47      1013.0     1       156         2       146        8.35     269      -67.5
   07/12/2016 01:50      63.3      62.9       74     54.6      0.00      0.00      85.3     0.47      1013.0     1       129         1       109        8.35     269      -67.9
   07/12/2016 01:40      63.6      63.3       74     54.9      0.00      0.00      85.5     0.47      1012.0     1       134         2       162        8.35     269      -67.8
   07/12/2016 01:30      64.3      63.6       72     54.6      0.00      0.00      85.5     0.47      1012.0     1       124         1       109        8.35     269      -68.3
   07/12/2016 01:20      64.6      64.3       71     55.0      0.00      0.00      85.4     0.47      1012.0     1       137         1       154        8.35     269      -67.8
   07/12/2016 01:10      64.6      64.4       71     55.0      0.00      0.00      85.5     0.47      1012.0     1       162         1       144        8.35     269      -67.8
   07/12/2016 01:00      64.6      64.4       69     54.3      0.00      0.00      85.4     0.47      1012.0     1       173         1       146        8.35     269      -67.8
   07/12/2016 00:50      65.1      64.8       70     54.8      0.00      0.00      85.7     0.47      1012.0     1       152         1       142        8.35     269      -68.4
   07/12/2016 00:40      65.4      65.0       69     54.9      0.00      0.00      85.7     0.47      1012.0     1       143         1       138        8.35     269      -68.4
   07/12/2016 00:30      65.5      65.2       69     54.9      0.00      0.00      85.5     0.47      1012.0     1       140         1       136        8.35     269      -69.2
   07/12/2016 00:20      66.0      65.6       67     54.7      0.00      0.00      85.5     0.47      1012.0     1       137         1       131        8.36     269      -69.0
   07/12/2016 00:10      66.3      65.9       66     54.4      0.00      0.00      85.2     0.47      1012.0     1       140         2       116        8.36     268      -69.6
   07/12/2016 00:00      66.6      66.2       66     54.8      0.00      0.00      85.8     0.47      1012.0     1       124         1       126        8.36     268      -69.5
   07/11/2016 23:50      67.1      66.4       64     54.3      0.00      0.00      85.9     0.47      1012.0     1       117         1        79        8.36     268      -70.3
   07/11/2016 23:40      67.8      67.2       64     54.9      0.00      0.00      85.7     0.47      1012.0     1        88         2        73        8.36     268      -71.3
   07/11/2016 23:30      67.8      67.7       65     55.5      0.00      0.00      85.6     0.47      1012.0     1        89         1        78        8.36     268      -71.8
   07/11/2016 23:20      68.0      67.8       65     55.5      0.00      0.00      85.7     0.47      1012.0     1        81         2        88        8.36     268      -72.4
   07/11/2016 23:10      68.4      67.9       63     55.2      0.00      0.00      85.6     0.47      1012.0     1       101         2       105        8.36     268      -72.8
   07/11/2016 23:00      68.9      68.4       63     55.6      0.00      0.00      85.8     0.47      1012.0     1       100         2        95        8.36     268      -73.1
   07/11/2016 22:50      69.3      68.9       63     56.1      0.00      0.00      85.6     0.47      1012.0     1       104         2       106        8.36     268      -73.8
   07/11/2016 22:40      69.7      69.2       63     56.3      0.00      0.00      85.9     0.47      1012.0     1       105         2       102        8.37     268      -74.5
   07/11/2016 22:30      70.0      69.7       62     56.4      0.00      0.00      85.8     0.47      1012.0     1        94         2        92        8.39     267      -75.0
   07/11/2016 22:20      70.4      70.1       62     56.5      0.00      0.00      85.7     0.47      1012.0     2        96         2        95        8.40     267      -75.5
   07/11/2016 22:10      70.8      70.4       61     56.5      0.00      0.00      85.8     0.47      1012.0     2        95         2       104        8.41     267      -76.2
   07/11/2016 22:00      71.3      70.8       60     56.6      0.00      0.00      85.8     0.47      1012.0     2       106         2        86        8.42     267      -76.7
   07/11/2016 21:50      71.6      71.3       59     56.6      0.00      0.00      85.8     0.47      1012.0     1        75         2        86        8.42     267      -77.7
   07/11/2016 21:40      72.3      71.6       58     56.5      0.00      0.00      85.7     0.47      1012.0     1        75         2        52        8.42     267      -78.1
   07/11/2016 21:30      73.0      72.3       56     55.9      0.00      0.00      85.7     0.47      1011.0     1        37         2         8        8.42     267      -79.9
   07/11/2016 21:20      73.5      73.0       56     56.6      0.00      0.00      85.8     0.47      1011.0     1         7         2       355        8.42     266      -81.5
   07/11/2016 21:10      74.1      73.4       55     56.8      0.00      0.00      85.7     0.47      1011.0     1        65         1       104        8.42     266      -82.5
   07/11/2016 21:00      75.4      74.3       54     56.8      0.00      0.00      85.7     0.47      1011.0     1        40         3        33        8.43     266      -83.9
   07/11/2016 20:50      76.0      75.6       47     54.0      0.00      0.00      85.5     0.47      1011.0     3       303         5       305        8.43     266      -84.4
   07/11/2016 20:40      76.5      76.0       46     53.7      0.00      0.00      85.5     0.47      1011.0     3       305         4       298        8.43     266      -85.9
   07/11/2016 20:30      76.8      76.5       45     53.8      0.00      0.00      85.6     0.47      1011.0     3       303         5       279        8.43     266      -86.5
   07/11/2016 20:20      77.6      76.9       45     54.1      0.00      0.00      85.5     0.47      1011.0     3       270         5       276        8.43     266      -86.9
   07/11/2016 20:10      78.3      77.7       44     54.2      0.00      0.00      85.7     0.47      1010.0     3       307         6       300        8.43     266      -86.1
   07/11/2016 20:00      78.7      78.3       42     53.7      0.00      0.00      85.5     0.47      1010.0     4       317         6       327        8.43     266      -84.2
   07/11/2016 19:50      79.6      78.9       40     53.0      0.00      0.00      85.4     0.47      1010.0     4       308         6       328        8.43     265      -81.4
   07/11/2016 19:40      80.2      79.7       39     52.8      0.00      0.00      85.4     0.47      1010.0     4       321         7       327        8.44     265      -69.3
   07/11/2016 19:30      81.8      80.5       38     53.0      0.00      0.00      85.3     0.47      1010.0     6       326         8       322        8.44     265      -51.0
   07/11/2016 19:20      82.6      82.2       37     53.6      0.00      0.00      85.3     0.47      1010.0     4       320         6       324        8.44     265      -33.3
   07/11/2016 19:10      82.9      82.6       36     53.0      0.00      0.00      85.3     0.47      1010.0     4       296         8       341        8.44     265      -13.5
   07/11/2016 19:00      83.6      82.8       35     52.8      0.00      0.00      85.3     0.47      1010.0     4       322         7       330        8.45     265        8.6
   07/11/2016 18:50      83.5      83.1       35     53.2      0.00      0.00      85.2     0.47      1010.0     4       306         9       320        8.45     265       29.8
   07/11/2016 18:40      83.7      83.4       36     53.8      0.00      0.00      85.1     0.47      1010.0     6       312         9       318        8.45     265       50.6
   07/11/2016 18:30      83.9      83.5       36     53.8      0.00      0.00      85.1     0.47      1010.0     5       299         9       299        8.46     265       71.8
   07/11/2016 18:20      84.3      83.7       36     54.5      0.00      0.00      85.0     0.47      1009.0     5       329         9       298        8.46     265       92.9
   07/11/2016 18:10      84.9      84.2       36     54.8      0.00      0.00      85.0     0.47      1009.0     5       317         9       312        8.46     265      116.2
   07/11/2016 18:00      85.6      84.6       36     54.9      0.00      0.00      84.9     0.47      1009.0     5       307         8       311        8.47     265      139.5
   07/11/2016 17:50      85.2      84.8       36     54.9      0.00      0.00      84.8     0.47      1010.0     5       292         8       319        8.47     265      165.0
   07/11/2016 17:40      85.4      84.8       35     54.7      0.00      0.00      84.7     0.47      1010.0     5       304         8       297        8.47     265      189.1
   07/11/2016 17:30      85.6      84.7       35     54.6      0.00      0.00      84.8     0.47      1010.0     6       296        10       284        8.48     265      213.3
   07/11/2016 17:20      86.2      85.3       35     55.0      0.00      0.00      84.7     0.47      1010.0     7       299        11       306        8.48     264      235.1
   07/11/2016 17:10      86.4      85.7       36     55.7      0.00      0.00      84.8     0.47      1010.0     6       290        10       240        8.48     265      257.5
   07/11/2016 17:00      86.6      85.9       37     56.6      0.00      0.00      84.3     0.47      1010.0     6       289         9       297        8.49     265      277.9
   07/11/2016 16:50      86.8      86.0       37     56.7      0.00      0.00      84.5     0.47      1010.0     5       285         9       329        8.49     265      299.0
   07/11/2016 16:40      87.3      86.2       37     57.1      0.00      0.00      84.5     0.47      1010.0     7       283        13       259        8.49     265      317.2
   07/11/2016 16:30      88.3      87.1       37     58.0      0.00      0.00      84.5     0.47      1010.0     6       309        11       294        8.50     265      334.4
   07/11/2016 16:20      89.0      88.2       36     58.1      0.00      0.00      84.4     0.47      1010.0     6       313        11       332        8.50     265      350.8
   07/11/2016 16:10      89.4      87.9       36     58.0      0.00      0.00      84.1     0.47      1010.0     6       325         8       285        8.50     265      364.7
   07/11/2016 16:00      88.9      87.9       36     58.5      0.00      0.00      84.2     0.47      1010.0     5       348         8        25        8.50     265      383.5
   07/11/2016 15:50      88.4      87.3       38     58.9      0.00      0.00      84.1     0.46      1010.0     5       302         7       261        8.51     266      401.0
   07/11/2016 15:40      87.6      85.4       39     59.0      0.00      0.00      84.1     0.46      1010.0     3       143         7       203        8.51     265      420.5
   07/11/2016 15:30      86.2      85.4       40     59.0      0.00      0.00      83.8     0.46      1010.0     4       153         6        58        8.51     266      437.2
   07/11/2016 15:20      85.9      84.6       41     59.0      0.00      0.00      84.0     0.46      1010.0     4       148         7       128        8.52     265      452.4
   07/11/2016 15:10      85.6      84.8       41     58.9      0.00      0.00      83.8     0.46      1010.0     4       169         6       208        8.52     265      465.5
   07/11/2016 15:00      85.7      84.6       41     58.9      0.00      0.00      83.4     0.46      1010.0     5       180         7       249        8.52     265      476.8
   07/11/2016 14:50      85.0      84.5       41     58.6      0.00      0.00      83.8     0.46      1011.0     4       201         8       205        8.52     265      488.9
   07/11/2016 14:40      86.3      85.4       39     58.1      0.00      0.00      83.5     0.46      1011.0     5       170         6       209        8.52     265      498.7
   07/11/2016 14:30      85.8      83.5       41     58.0      0.00      0.00      83.6     0.46      1011.0     4       168         6       147        8.53     265      509.4
   07/11/2016 14:20      85.6      84.7       40     58.0      0.00      0.00      83.5     0.46      1011.0     7       148        10       156        8.53     265      520.3
   07/11/2016 14:10      85.2      83.7       41     58.0      0.00      0.00      83.5     0.46      1011.0     4       130         9       143        8.53     266      528.2
   07/11/2016 14:00      85.2      83.1       42     58.1      0.00      0.00      83.4     0.46      1011.0     6       161        10       133        8.53     266      536.8
   07/11/2016 13:50      86.3      83.4       41     58.5      0.00      0.00      83.3     0.46      1011.0     7       151        15       177        8.54     266      540.9
   07/11/2016 13:40      87.5      85.7       37     57.4      0.00      0.00      83.5     0.46      1011.0     4       130         8       137        8.54     267      538.2
   07/11/2016 13:30      86.3      85.5       36     56.2      0.00      0.00      83.3     0.46      1011.0     3       103         6       102        8.54     268      543.0
   07/11/2016 13:20      86.6      85.1       36     56.4      0.00      0.00      83.2     0.46      1011.0     3        69         6       131        8.54     268      542.6
   07/11/2016 13:10      86.0      84.2       38     56.4      0.00      0.00      83.0     0.46      1011.0     3       334         4       341        8.54     268      548.8
   07/11/2016 13:00      86.7      84.4       38     56.8      0.00      0.00      83.0     0.46      1011.0     4        26         8       345        8.54     268      548.8
   07/11/2016 12:50      84.7      84.1       39     56.6      0.00      0.00      83.2     0.46      1011.0     4        14         7        62        8.54     268      549.7
   07/11/2016 12:40      84.5      83.1       40     56.8      0.00      0.00      83.0     0.46      1012.0     4       356         5       333        8.55     268      548.4
   07/11/2016 12:30      83.5      82.2       41     56.8      0.00      0.00      83.2     0.46      1012.0     4         4         5        17        8.55     268      547.2
   07/11/2016 12:20      82.0      80.7       43     56.6      0.00      0.00      83.1     0.46      1012.0     3       355         6       284        8.55     268      547.1
   07/11/2016 12:10      81.5      80.7       43     56.7      0.00      0.00      83.3     0.46      1012.0     4         6         5       354        8.55     268      542.3
   07/11/2016 12:00      81.6      80.9       43     57.0      0.00      0.00      83.3     0.46      1012.0     3        17         4       354        8.55     269      538.6
   07/11/2016 11:50      81.2      80.2       44     56.8      0.00      0.00      83.3     0.46      1012.0     3        29         5        19        8.55     269      532.9
   07/11/2016 11:40      80.0      78.8       46     56.7      0.00      0.00      83.1     0.46      1012.0     4        14         5       327        8.55     269      527.9
   07/11/2016 11:30      79.1      78.2       47     57.0      0.00      0.00      82.8     0.46      1012.0     3        22         5       338        8.55     269      522.5
   07/11/2016 11:20      78.4      77.3       49     57.0      0.00      0.00      82.8     0.46      1012.0     3       359         5        15        8.55     268      513.3
   07/11/2016 11:10      77.6      76.5       51     57.2      0.00      0.00      83.4     0.46      1012.0     4        72         7        76        8.55     269      508.4
   07/11/2016 11:00      77.6      76.0       50     57.3      0.00      0.00      83.1     0.46      1012.0     3        18         6        73        8.55     270      496.0
   07/11/2016 10:50      76.1      75.3       53     57.5      0.00      0.00      83.4     0.46      1013.0     2        27         3        17        8.55     271      483.5
   07/11/2016 10:40      75.3      73.9       56     57.6      0.00      0.00      83.2     0.46      1013.0     3        23         4         5        8.55     272      471.5
   07/11/2016 10:30      74.5      74.0       57     57.9      0.00      0.00      83.3     0.47      1013.0     3        17         6         5        8.56     272      457.9
   07/11/2016 10:20      74.3      72.5       59     58.0      0.00      0.00      83.4     0.47      1013.0     3       360         5       355        8.56     272      444.1
   07/11/2016 10:10      73.0      72.0       60     58.0      0.00      0.00      83.5     0.47      1013.0     3        17         6       356        8.56     272      429.5
   07/11/2016 10:00      72.5      71.5       62     58.3      0.00      0.00      82.9     0.47      1013.0     4         8         6       337        8.56     272      413.6
   07/11/2016 09:50      71.8      71.4       63     58.5      0.00      0.00      83.3     0.47      1013.0     4        14         8       357        8.56     273      395.1
   07/11/2016 09:40      71.5      70.5       65     58.5      0.00      0.00      83.8     0.47      1013.0     3        11         5       359        8.56     273      378.5
   07/11/2016 09:30      70.8      69.3       67     58.6      0.00      0.00      83.8     0.47      1013.0     3        51         4        26        8.56     274      362.3
   07/11/2016 09:20      69.5      68.1       70     58.8      0.00      0.00      83.5     0.47      1013.0     4        11         6       351        8.56     276      348.4
   07/11/2016 09:10      68.4      67.8       72     58.5      0.00      0.00      83.0     0.47      1013.0     3        17         4        24        8.56     277      334.3
   07/11/2016 09:00      67.7      66.3       74     58.5      0.00      0.00      83.8     0.47      1013.0     3        40         4        18        8.57     277      338.1
   07/11/2016 08:50      66.3      65.3       78     58.8      0.00      0.00      83.5     0.47      1013.0     3        61         4        74        8.57     278      265.0
   07/11/2016 08:40      65.5      64.9       80     58.9      0.00      0.00      83.7     0.47      1013.0     3        59         6        78        8.57     279       33.3
   07/11/2016 08:30      65.7      65.0       80     59.0      0.00      0.00      83.9     0.47      1013.0     3        62         4        36        8.57     280       23.6
   07/11/2016 08:20      65.7      65.0       80     59.0      0.00      0.00      83.9     0.47      1013.0     4        36         6        72        8.57     281       57.9
   07/11/2016 08:10      65.1      64.8       81     58.9      0.00      0.00      83.7     0.47      1013.0     3        42         4        75        8.57     283       25.2
   07/11/2016 08:00      65.0      64.0       82     58.9      0.00      0.00      83.8     0.47      1013.0     2        45         4        73        8.57     283       25.4
   07/11/2016 07:50      64.4      63.8       83     58.8      0.00      0.00      84.1     0.47      1013.0     3        32         4        22        8.58     284       -0.3
   07/11/2016 07:40      64.4      64.2       82     58.8      0.00      0.00      84.1     0.47      1013.0     3        48         4        59        8.58     284       -2.5
   07/11/2016 07:30      64.5      64.1       82     58.5      0.00      0.00      84.0     0.47      1013.0     3        40         5        29        8.58     285      -21.5
   07/11/2016 07:20      64.2      63.9       81     58.2      0.00      0.00      84.0     0.47      1013.0     3        53         4        30        8.58     285      -25.8
   07/11/2016 07:10      63.9      63.1       82     58.0      0.00      0.00      84.1     0.47      1013.0     2        67         2        96        8.58     285      -21.9
   07/11/2016 07:00      63.3      62.5       82     57.2      0.00      0.00      84.0     0.47      1013.0     2        67         5        83        8.58     286      -32.6
   07/11/2016 06:50      62.6      61.6       81     56.2      0.00      0.00      84.4     0.47      1012.0     1        94         2        87        8.58     286      -36.4
   07/11/2016 06:40      61.6      60.2       83     55.8      0.00      0.00      84.3     0.47      1013.0     1        14         1       343        8.58     286      -40.9
   07/11/2016 06:30      60.3      59.8       84     55.1      0.00      0.00      84.6     0.47      1012.0     1       162         1       104        8.58     285      -42.2
   07/11/2016 06:20      59.9      58.8       86     55.2      0.00      0.00      84.3     0.47      1012.0     0       189         1       127        8.58     284      -40.2
   07/11/2016 06:10      58.8      58.6       84     54.0      0.00      0.00      84.2     0.47      1012.0     1       166         2       143        8.58     283      -51.1
   07/11/2016 06:00      59.2      58.9       83     53.9      0.00      0.00      84.4     0.47      1012.0     1       173         1       160        8.58     282      -55.3
   07/11/2016 05:50      59.2      58.8       84     54.0      0.00      0.00      84.5     0.47      1012.0     1       168         1       163        8.58     282      -58.5
   07/11/2016 05:40      59.1      59.0       83     53.8      0.00      0.00      84.4     0.47      1012.0     0       118         1       138        8.58     280      -59.6
   07/11/2016 05:30      59.5      59.1       83     54.0      0.00      0.00      84.5     0.47      1012.0     1        66         1       104        8.58     280      -60.0
   07/11/2016 05:20      59.6      59.3       83     54.4      0.00      0.00      84.5     0.47      1012.0     1       181         1       159        8.58     279      -60.0
   07/11/2016 05:10      59.6      59.4       82     54.2      0.00      0.00      84.8     0.47      1012.0     1       151         1       132        8.58     278      -60.6
   07/11/2016 05:00      59.7      59.4       82     54.0      0.00      0.00      84.8     0.47      1012.0     1       171         1       130        8.58     277      -61.6
   07/11/2016 04:50      59.5      59.3       81     53.8      0.00      0.00      84.7     0.47      1012.0     1       180         1       194        8.58     277      -62.1
   07/11/2016 04:40      59.7      59.5       81     53.8      0.00      0.00      84.7     0.47      1012.0     1       125         1       130        8.58     277      -62.1
   07/11/2016 04:30      60.0      59.7       81     54.0      0.00      0.00      84.6     0.47      1011.0     1       134         1       116        8.58     276      -62.6
   07/11/2016 04:20      60.0      59.8       81     54.1      0.00      0.00      84.8     0.47      1011.0     1       153         2       159        8.58     276      -63.3
   07/11/2016 04:10      60.3      60.0       81     54.1      0.00      0.00      84.8     0.47      1011.0     2       138         2       141        8.59     275      -64.2
   07/11/2016 04:00      60.9      60.4       80     54.4      0.00      0.00      85.0     0.47      1011.0     1       132         2       126        8.59     274      -64.2
   07/11/2016 03:50      61.2      60.8       79     54.6      0.00      0.00      85.0     0.47      1011.0     1       126         2       126        8.59     274      -65.1
   07/11/2016 03:40      61.4      60.9       79     54.6      0.00      0.00      85.0     0.47      1011.0     2       195         2       188        8.59     274      -65.2
   07/11/2016 03:30      61.3      60.9       81     55.3      0.00      0.00      85.1     0.47      1011.0     1       161         2       176        8.59     272      -65.9
   07/11/2016 03:20      61.3      60.9       82     55.4      0.00      0.00      84.8     0.47      1011.0     1       148         1       163        8.59     272      -66.2
   07/11/2016 03:10      61.5      61.4       82     55.8      0.00      0.00      85.0     0.47      1011.0     1       131         2       137        8.59     272      -66.0
   07/11/2016 03:00      61.8      61.4       81     55.6      0.00      0.00      84.9     0.47      1011.0     1       138         2       130        8.59     271      -67.6
   07/11/2016 02:50      61.9      61.7       81     56.0      0.00      0.00      84.9     0.47      1011.0     2       143         2       147        8.59     271      -67.5
   07/11/2016 02:40      62.1      61.7       81     55.8      0.00      0.00      85.2     0.47      1011.0     2       152         2       144        8.59     271      -68.1
   07/11/2016 02:30      62.5      62.2       81     56.3      0.00      0.00      85.1     0.47      1011.0     2       162         2       164        8.59     271      -67.8
   07/11/2016 02:20      62.6      62.4       80     56.2      0.00      0.00      85.0     0.47      1011.0     1       140         2       131        8.59     271      -68.3
   07/11/2016 02:10      62.9      62.6       80     56.4      0.00      0.00      85.2     0.47      1012.0     1       131         2       136        8.60     271      -68.7
   07/11/2016 02:00      63.1      62.8       79     56.4      0.00      0.00      85.4     0.47      1012.0     1       144         2       143        8.60     270      -69.1
   07/11/2016 01:50      63.2      62.9       79     56.4      0.00      0.00      85.6     0.47      1012.0     1       141         2       137        8.60     270      -69.4
   07/11/2016 01:40      63.4      63.1       78     56.2      0.00      0.00      85.7     0.47      1012.0     1       111         1       125        8.60     270      -69.4
   07/11/2016 01:30      63.5      63.3       79     56.8      0.00      0.00      85.4     0.47      1012.0     1       137         2       133        8.60     269      -69.8
   07/11/2016 01:20      63.7      63.5       78     56.7      0.00      0.00      85.5     0.47      1012.0     1       149         1       132        8.60     270      -71.0
   07/11/2016 01:10      64.3      63.9       78     57.0      0.00      0.00      85.7     0.47      1012.0     1       146         1       162        8.60     270      -72.0
   07/11/2016 01:00      64.3      63.9       77     56.8      0.00      0.00      85.5     0.47      1011.0     1       188         1       189        8.60     270      -72.6
   07/11/2016 00:50      64.8      64.2       77     57.0      0.00      0.00      85.5     0.47      1012.0     1       145         1       143        8.60     269      -72.8
   07/11/2016 00:40      64.8      64.5       75     56.8      0.00      0.00      85.7     0.47      1012.0     1       186         1       217        8.61     269      -72.9
   07/11/2016 00:30      65.5      64.9       74     56.8      0.00      0.00      85.6     0.47      1012.0     1       161         1       162        8.61     269      -74.0
   07/11/2016 00:20      65.8      65.5       74     57.0      0.00      0.00      85.6     0.47      1012.0     0       114         1       118        8.61     269      -73.8
   07/11/2016 00:10      66.3      65.9       73     57.1      0.00      0.00      85.5     0.47      1012.0     1       118         1       119        8.61     269      -74.4
   07/11/2016 00:00      66.7      66.3       71     56.9      0.00      0.00      85.4     0.47      1012.0     1       119         1       123        8.62     269      -75.6
   07/10/2016 23:50      67.2      66.8       71     57.1      0.00      0.00      85.8     0.47      1012.0     1        93         1       100        8.62     269      -76.3
   07/10/2016 23:40      67.6      67.2       69     57.0      0.00      0.00      85.6     0.47      1012.0     1        88         1        87        8.62     269      -76.3
   07/10/2016 23:30      68.3      67.7       68     56.9      0.00      0.00      85.7     0.47      1012.0     1        60         2        46        8.62     269      -76.9
   07/10/2016 23:20      68.4      68.2       68     57.2      0.00      0.00      85.9     0.47      1012.0     2        20         2       354        8.62     269      -77.5
   07/10/2016 23:10      68.4      67.8       68     57.3      0.00      0.00      85.8     0.47      1012.0     2       358         3       334        8.63     269      -76.6
   07/10/2016 23:00      67.9      67.6       67     56.4      0.00      0.00      85.7     0.47      1012.0     1        29         3        10        8.63     269      -76.6
   07/10/2016 22:50      68.3      67.9       67     56.5      0.00      0.00      85.7     0.47      1012.0     1        42         3        20        8.63     269      -77.2
   07/10/2016 22:40      68.2      68.0       67     56.6      0.00      0.00      85.9     0.47      1012.0     1        80         1        72        8.63     268      -77.3
   07/10/2016 22:30      68.3      68.1       66     56.5      0.00      0.00      85.6     0.47      1012.0     1        57         2        67        8.63     268      -77.4
   07/10/2016 22:20      68.5      68.3       65     56.3      0.00      0.00      85.9     0.47      1012.0     2        69         3        64        8.63     268      -78.1
   07/10/2016 22:10      68.6      68.4       65     56.3      0.00      0.00      85.8     0.47      1012.0     3        62         4        80        8.64     268      -77.9
   07/10/2016 22:00      68.9      68.6       65     56.4      0.00      0.00      86.1     0.47      1011.0     3       106         4        67        8.64     268      -77.7
   07/10/2016 21:50      69.3      68.9       64     56.7      0.00      0.00      85.9     0.47      1011.0     2        87         3       102        8.64     268      -77.7
   07/10/2016 21:40      70.0      69.4       64     56.8      0.00      0.00      85.6     0.47      1011.0     3        72         4        62        8.64     268      -78.0
   07/10/2016 21:30      70.3      69.9       62     56.4      0.00      0.00      85.6     0.47      1011.0     2        69         4        81        8.64     268      -78.8
   07/10/2016 21:20      70.9      70.5       59     55.7      0.00      0.00      85.6     0.47      1011.0     2        76         3        71        8.64     268      -79.3
   07/10/2016 21:10      71.3      70.8       58     55.4      0.00      0.00      85.5     0.47      1011.0     2        65         3        95        8.64     267      -80.0
   07/10/2016 21:00      72.0      71.3       56     55.0      0.00      0.00      85.7     0.47      1011.0     3        73         5        66        8.65     267      -81.1
   07/10/2016 20:50      72.8      71.8       54     54.8      0.00      0.00      85.5     0.47      1011.0     2        59         4        60        8.65     267      -82.6
   07/10/2016 20:40      73.5      72.9       52     54.8      0.00      0.00      85.4     0.47      1011.0     3        61         4        61        8.65     267      -85.0
   07/10/2016 20:30      74.1      73.7       52     55.0      0.00      0.00      85.4     0.47      1011.0     2        42         3        64        8.65     267      -86.2
   07/10/2016 20:20      75.1      74.3       51     55.1      0.00      0.00      85.8     0.47      1011.0     2        54         3        63        8.66     266      -86.9
   07/10/2016 20:10      76.5      75.3       49     55.3      0.00      0.00      85.6     0.47      1010.0     3        85         5        80        8.67     266      -86.0
   07/10/2016 20:00      78.5      76.9       46     55.4      0.00      0.00      85.1     0.47      1010.0     3        61         5        80        8.68     266      -83.8
   07/10/2016 19:50      79.7      78.7       44     55.4      0.00      0.00      85.3     0.47      1010.0     2        49         4        62        8.69     266      -81.4
   07/10/2016 19:40      81.9      80.1       42     55.5      0.00      0.00      85.4     0.47      1010.0     4        49         6        59        8.69     266      -70.5
   07/10/2016 19:30      84.5      82.0       39     55.9      0.00      0.00      85.3     0.47      1010.0     3        44         5        63        8.70     266      -50.9
   07/10/2016 19:20      85.0      84.5       37     55.8      0.00      0.00      85.1     0.47      1010.0     2       341         5       310        8.70     266      -33.3
   07/10/2016 19:10      85.4      84.8       36     55.5      0.00      0.00      85.4     0.47      1010.0     3       329         4       326        8.70     266      -13.7
   07/10/2016 19:00      85.7      85.0       36     55.3      0.00      0.00      85.2     0.47      1010.0     4       339         5       341        8.71     266        6.3
   07/10/2016 18:50      85.7      85.4       35     55.0      0.00      0.00      85.1     0.47      1010.0     5       307         6       312        8.71     265       26.9
   07/10/2016 18:40      86.4      86.0       34     54.6      0.00      0.00      85.2     0.47      1010.0     4       310         7       328        8.71     265       48.3
   07/10/2016 18:30      87.3      86.6       33     54.1      0.00      0.00      85.2     0.47      1010.0     5       316         8       299        8.72     265       68.0
   07/10/2016 18:20      87.9      87.6       31     53.9      0.00      0.00      85.0     0.47      1010.0     5       311         7       318        8.72     265       90.1
   07/10/2016 18:10      88.8      88.0       30     53.4      0.00      0.00      85.1     0.47      1010.0     5       293         7       325        8.72     265      114.5
   07/10/2016 18:00      89.6      88.4       29     53.3      0.00      0.00      85.0     0.47      1010.0     5       317        12       328        8.73     265      137.1
   07/10/2016 17:50      90.1      89.7       28     52.2      0.00      0.00      84.8     0.47      1010.0     5       305         7       329        8.74     265      159.9
   07/10/2016 17:40      90.3      89.9       26     50.5      0.00      0.00      84.8     0.47      1010.0     6       287         9       324        8.74     265      182.5
   07/10/2016 17:30      90.9      89.5       22     45.7      0.00      0.00      84.6     0.47      1010.0     6       259         9       234        8.75     264      206.4
   07/10/2016 17:20      91.2      90.5       20     44.6      0.00      0.00      84.8     0.47      1010.0     6       285         7       223        8.75     264      226.9
   07/10/2016 17:10      90.7      89.7       20     44.0      0.00      0.00      84.6     0.47      1010.0     6       255         9       241        8.76     263      250.2
   07/10/2016 17:00      90.9      90.3       20     44.0      0.00      0.00      84.4     0.47      1010.0     5       239         7       241        8.76     264      270.0
   07/10/2016 16:50      90.5      89.6       22     45.8      0.00      0.00      84.5     0.47      1010.0     6       228         9       258        8.77     264      291.7
   07/10/2016 16:40      91.4      89.4       22     46.7      0.00      0.00      84.3     0.47      1010.0     6       241        10       223        8.77     264      309.2
   07/10/2016 16:30      91.8      90.9       21     45.2      0.00      0.00      84.3     0.47      1010.0     6       225        11       248        8.78     265      326.4
   07/10/2016 16:20      91.8      90.2       19     43.2      0.00      0.00      84.2     0.47      1010.0     4       253         8       219        8.79     265      344.0
   07/10/2016 16:10      92.0      90.4       18     42.3      0.00      0.00      84.2     0.47      1010.0     5       249         8       272        8.79     264      361.0
   07/10/2016 16:00      92.3      91.5       19     43.6      0.00      0.00      84.0     0.47      1010.0     5       259         6       221        8.80     265      378.5
   07/10/2016 15:50      92.4      91.3       20     45.0      0.00      0.00      84.0     0.46      1010.0     5       247         9       265        8.81     265      395.4
   07/10/2016 15:40      93.0      91.8       21     47.1      0.00      0.00      84.0     0.46      1010.0     4       302         8       247        8.81     265      408.7
   07/10/2016 15:30      91.9      91.5       18     42.8      0.00      0.00      83.9     0.46      1011.0     4       260         6       230        8.82     266      425.1
   07/10/2016 15:20      92.1      91.5       18     42.9      0.00      0.00      83.7     0.46      1011.0     5       251         8       258        8.82     265      441.0
   07/10/2016 15:10      92.0      90.0       22     46.9      0.00      0.00      83.7     0.46      1011.0     5       288        11       317        8.83     266      456.6
   07/10/2016 15:00      90.6      89.4       33     56.5      0.00      0.00      83.8     0.46      1011.0     3       184         6       251        8.83     266      474.4
   07/10/2016 14:50      90.0      88.9       35     58.1      0.00      0.00      83.7     0.46      1011.0     5       117         7       137        8.83     266      484.3
   07/10/2016 14:40      89.2      88.8       35     57.9      0.00      0.00      83.4     0.46      1011.0     4       115         8       124        8.84     266      498.8
   07/10/2016 14:30      90.6      89.0       35     58.2      0.00      0.00      83.4     0.46      1011.0     4        56         7        71        8.84     266      502.5
   07/10/2016 14:20      91.0      89.8       34     58.3      0.00      0.00      83.4     0.46      1012.0     4        53         7        33        8.84     267      510.9
   07/10/2016 14:10      91.6      90.4       34     58.4      0.00      0.00      83.5     0.46      1012.0     5        24         8        29        8.85     267      515.3
   07/10/2016 14:00      91.3      89.3       34     58.5      0.00      0.00      83.2     0.46      1012.0     4        43         7        62        8.85     268      529.0
   07/10/2016 13:50      90.8      89.0       35     58.5      0.00      0.00      83.3     0.46      1012.0     3        99         7       149        8.85     268      532.6
   07/10/2016 13:40      89.1      87.0       37     58.3      0.00      0.00      83.2     0.46      1012.0     3       132         6       174        8.86     268      538.5
   07/10/2016 13:30      87.9      87.0       37     58.1      0.00      0.00      83.1     0.46      1012.0     4       144         7       128        8.86     268      544.3
   07/10/2016 13:20      87.7      86.2       38     58.1      0.00      0.00      83.0     0.46      1012.0     3       119         7        79        8.86     268      548.5
   07/10/2016 13:10      87.4      86.6       38     58.0      0.00      0.00      83.2     0.46      1013.0     4       131         8       137        8.86     269      551.8
   07/10/2016 13:00      87.6      86.6       37     57.9      0.00      0.00      83.0     0.46      1013.0     3        41         5        78        8.86     269      551.3
   07/10/2016 12:50      87.4      86.4       38     57.9      0.00      0.00      83.1     0.46      1013.0     4        24         7         6        8.87     269      550.7
   07/10/2016 12:40      87.3      86.6       37     57.8      0.00      0.00      82.9     0.46      1013.0     3        46         5        17        8.87     269      547.6
   07/10/2016 12:30      86.4      85.6       38     57.7      0.00      0.00      82.9     0.46      1013.0     3       346         4       325        8.87     269      547.5
   07/10/2016 12:20      85.6      84.6       39     57.5      0.00      0.00      82.9     0.46      1013.0     3        29         6        78        8.87     269      548.1
   07/10/2016 12:10      85.4      84.7       39     57.8      0.00      0.00      83.1     0.46      1014.0     4        66         6        17        8.87     270      547.9
   07/10/2016 12:00      85.2      84.2       40     58.1      0.00      0.00      83.3     0.46      1014.0     3        41         5       118        8.87     270      538.2
   07/10/2016 11:50      84.4      82.6       42     57.8      0.00      0.00      82.9     0.46      1014.0     3        23         5        26        8.87     270      533.2
   07/10/2016 11:40      83.9      82.6       42     57.9      0.00      0.00      83.0     0.46      1014.0     2        60         4        42        8.87     270      528.7
   07/10/2016 11:30      84.2      83.1       42     58.3      0.00      0.00      82.6     0.46      1014.0     4        34         6       339        8.87     270      520.9
   07/10/2016 11:20      83.1      81.7       44     58.5      0.00      0.00      83.1     0.46      1014.0     4        24         6        18        8.88     270      512.8
   07/10/2016 11:10      82.1      81.5       46     59.0      0.00      0.00      83.0     0.46      1014.0     5         5         7       330        8.88     270      502.4
   07/10/2016 11:00      81.7      79.7       49     59.8      0.00      0.00      83.2     0.46      1014.0     4         4         7         8        8.88     270      493.1
   07/10/2016 10:50      80.4      79.7       51     60.4      0.00      0.00      83.3     0.46      1014.0     3        21         7         8        8.88     272      479.8
   07/10/2016 10:40      80.1      79.0       52     60.5      0.00      0.00      83.1     0.47      1014.0     3        25         4        12        8.88     272      467.4
   07/10/2016 10:30      79.5      78.7       53     60.5      0.00      0.00      83.0     0.47      1015.0     3        26         4        11        8.88     272      449.7
   07/10/2016 10:20      79.5      77.9       54     60.4      0.00      0.00      83.5     0.47      1015.0     3         1         5       357        8.88     272      438.8
   07/10/2016 10:10      78.3      76.6       56     60.3      0.00      0.00      83.1     0.47      1015.0     3         8         6       346        8.88     272      424.8
   07/10/2016 10:00      77.4      76.6       56     60.0      0.00      0.00      83.1     0.47      1015.0     2       360         3        26        8.88     272      409.4
   07/10/2016 09:50      77.0      76.0       56     59.8      0.00      0.00      83.1     0.47      1015.0     3       354         5         7        8.89     272      390.9
   07/10/2016 09:40      76.1      74.9       58     59.4      0.00      0.00      83.2     0.47      1015.0     2        33         4        72        8.89     274      375.4
   07/10/2016 09:30      74.9      74.2       60     59.8      0.00      0.00      83.1     0.47      1015.0     2        63         4       106        8.89     275      362.3
   07/10/2016 09:20      74.1      73.4       62     60.1      0.00      0.00      83.2     0.47      1015.0     2        30         4         2        8.89     277      343.3
   07/10/2016 09:10      73.5      72.3       65     60.4      0.00      0.00      83.4     0.47      1015.0     3        17         4       350        8.90     279      333.8
   07/10/2016 09:00      72.2      70.6       67     60.0      0.00      0.00      83.5     0.47      1015.0     2        86         4        81        8.90     280      338.2
   07/10/2016 08:50      70.3      69.4       71     60.2      0.00      0.00      83.3     0.47      1015.0     2        74         5       114        8.90     281      264.7
   07/10/2016 08:40      69.4      68.8       73     60.3      0.00      0.00      83.7     0.47      1015.0     2        11         3        20        8.90     282       16.3
   07/10/2016 08:30      68.9      68.6       74     60.3      0.00      0.00      83.6     0.47      1015.0     2       345         3       358        8.90     283       -9.2
   07/10/2016 08:20      68.6      68.0       75     60.2      0.00      0.00      83.6     0.47      1015.0     2       333         3       326        8.90     284       -8.7
   07/10/2016 08:10      68.3      67.4       77     60.1      0.00      0.00      84.0     0.47      1015.0     3         9         4         3        8.90     285       -0.6
   07/10/2016 08:00      67.5      67.1       78     60.0      0.00      0.00      83.3     0.47      1016.0     2       353         3       344        8.90     286       25.7
   07/10/2016 07:50      67.4      67.2       77     60.0      0.00      0.00      83.8     0.47      1016.0     2        22         3        15        8.90     288       -5.2
   07/10/2016 07:40      67.1      66.5       79     60.0      0.00      0.00      83.7     0.47      1015.0     1        52         2        44        8.90     287       -1.7
   07/10/2016 07:30      66.7      66.2       80     60.0      0.00      0.00      83.9     0.47      1015.0     1        67         3        82        8.90     288      -12.1
   07/10/2016 07:20      66.2      65.8       81     59.8      0.00      0.00      83.8     0.47      1016.0     1        29         2        38        8.90     288      -20.4
   07/10/2016 07:10      65.8      65.0       81     59.4      0.00      0.00      84.0     0.47      1015.0     1         4         3       354        8.90     288      -17.1
   07/10/2016 07:00      65.1      64.4       81     58.8      0.00      0.00      83.8     0.47      1016.0     1       163         1       163        8.90     288      -27.2
   07/10/2016 06:50      64.5      63.5       82     58.4      0.00      0.00      84.0     0.47      1016.0     1       189         1       194        8.90     288      -29.3
   07/10/2016 06:40      63.5      62.7       84     58.0      0.00      0.00      84.1     0.47      1016.0     1       174         1       161        8.90     288      -36.0
   07/10/2016 06:30      62.7      61.9       85     57.7      0.00      0.00      83.8     0.47      1016.0     1       179         2       156        8.90     287      -37.3
   07/10/2016 06:20      61.9      61.5       85     57.3      0.00      0.00      83.8     0.47      1015.0     1       150         2       160        8.90     286      -36.3
   07/10/2016 06:10      61.6      61.3       86     57.3      0.00      0.00      84.0     0.47      1015.0     2       157         2       161        8.90     284      -43.1
   07/10/2016 06:00      61.5      61.3       86     57.2      0.00      0.00      84.0     0.47      1015.0     2       143         2       170        8.90     283      -49.2
   07/10/2016 05:50      61.5      61.3       86     57.1      0.00      0.00      84.1     0.47      1015.0     1       139         1       137        8.90     282      -52.1
   07/10/2016 05:40      61.5      61.3       86     57.1      0.00      0.00      84.1     0.47      1015.0     1       191         2       157        8.90     282      -54.2
   07/10/2016 05:30      61.7      61.4       85     57.0      0.00      0.00      83.6     0.47      1015.0     1       150         2       148        8.90     282      -56.3
   07/10/2016 05:20      62.0      61.7       85     57.2      0.00      0.00      83.9     0.47      1015.0     1       143         2       141        8.90     282      -55.8
   07/10/2016 05:10      62.0      61.7       85     57.5      0.00      0.00      84.3     0.47      1015.0     0       109         1       153        8.90     280      -54.3
   07/10/2016 05:00      62.3      62.0       85     57.4      0.00      0.00      84.2     0.47      1015.0     0       111         1       134        8.90     279      -55.8
   07/10/2016 04:50      62.4      62.1       85     57.5      0.00      0.00      84.2     0.47      1015.0     0       206         0       197        8.90     278      -55.8
   07/10/2016 04:40      62.4      62.1       85     57.6      0.00      0.00      84.3     0.47      1015.0     1       163         1       162        8.91     277      -56.9
   07/10/2016 04:30      62.2      61.9       83     56.9      0.00      0.00      84.4     0.47      1015.0     1       134         1       130        8.91     276      -58.8
   07/10/2016 04:20      62.6      62.3       82     57.0      0.00      0.00      84.4     0.47      1015.0     1       149         2       166        8.91     275      -59.3
   07/10/2016 04:10      62.9      62.5       82     57.0      0.00      0.00      84.4     0.47      1015.0     1       139         1       129        8.91     274      -60.5
   07/10/2016 04:00      63.3      63.0       82     57.6      0.00      0.00      84.3     0.47      1015.0     1       201         1       194        8.91     273      -60.2
   07/10/2016 03:50      63.7      63.4       81     57.5      0.00      0.00      84.6     0.47      1015.0     1       197         1       220        8.91     272      -61.5
   07/10/2016 03:40      63.9      63.5       81     57.7      0.00      0.00      84.5     0.47      1015.0     1       146         1       174        8.91     271      -61.5
   07/10/2016 03:30      64.6      64.1       79     57.9      0.00      0.00      84.6     0.47      1015.0     1       106         2       101        8.91     270      -62.6
   07/10/2016 03:20      64.8      64.5       79     58.1      0.00      0.00      84.5     0.47      1015.0     2        88         3       101        8.91     270      -63.6
   07/10/2016 03:10      64.9      64.6       79     58.2      0.00      0.00      84.5     0.47      1015.0     1        70         3        87        8.91     269      -63.6
   07/10/2016 03:00      65.1      64.9       79     58.3      0.00      0.00      84.9     0.47      1015.0     2        92         3        70        8.91     269      -64.5
   07/10/2016 02:50      65.1      65.0       79     58.3      0.00      0.00      84.8     0.47      1015.0     1       107         2        72        8.91     269      -64.7
   07/10/2016 02:40      65.5      65.1       78     58.3      0.00      0.00      84.7     0.47      1015.0     2        91         2        84        8.91     269      -65.4
   07/10/2016 02:30      65.8      65.5       77     58.2      0.00      0.00      84.7     0.47      1015.0     1        98         2        80        8.91     269      -65.7
   07/10/2016 02:20      66.1      65.9       76     58.2      0.00      0.00      84.7     0.47      1015.0     1        72         2        82        8.91     269      -66.0
   07/10/2016 02:10      66.5      66.2       74     58.0      0.00      0.00      84.3     0.47      1015.0     2        67         2        98        8.91     269      -66.2
   07/10/2016 02:00      66.9      66.5       73     58.0      0.00      0.00      84.9     0.47      1015.0     2        65         3        74        8.91     269      -66.2
   07/10/2016 01:50      67.3      66.9       72     57.9      0.00      0.00      84.9     0.47      1015.0     2        65         3        73        8.91     269      -66.8
   07/10/2016 01:40      67.4      67.0       73     58.3      0.00      0.00      84.8     0.47      1015.0     2        72         3        72        8.91     269      -67.0
   07/10/2016 01:30      67.5      67.3       72     58.2      0.00      0.00      84.7     0.47      1015.0     2        64         3        71        8.91     269      -67.5
   07/10/2016 01:20      67.9      67.7       72     58.4      0.00      0.00      85.0     0.47      1015.0     3        62         4        81        8.91     270      -67.5
   07/10/2016 01:10      68.3      68.0       71     58.4      0.00      0.00      84.7     0.47      1015.0     2        64         3        83        8.92     270      -67.9
   07/10/2016 01:00      68.6      68.3       70     58.4      0.00      0.00      84.9     0.47      1015.0     2        44         3        63        8.92     270      -68.5
   07/10/2016 00:50      68.7      68.6       69     58.3      0.00      0.00      84.9     0.47      1015.0     2        52         2       102        8.92     269      -68.5
   07/10/2016 00:40      69.1      68.9       69     58.3      0.00      0.00      85.0     0.47      1015.0     3        66         4        73        8.92     269      -68.3
   07/10/2016 00:30      69.4      69.0       68     58.3      0.00      0.00      84.8     0.47      1015.0     2        95         4        90        8.92     269      -68.2
   07/10/2016 00:20      69.9      69.3       67     58.1      0.00      0.00      84.7     0.47      1015.0     2        88         4        80        8.92     269      -67.7
   07/10/2016 00:10      70.3      69.8       66     58.2      0.00      0.00      85.0     0.47      1015.0     2        90         3        69        8.92     269      -67.4
   07/10/2016 00:00      70.8      70.3       65     58.0      0.00      0.00      85.2     0.47      1015.0     2        74         3        72        8.92     269      -67.6
   07/09/2016 23:50      71.2      70.7       63     57.9      0.00      0.00      84.9     0.47      1015.0     2        63         3        83        8.92     269      -68.0
   07/09/2016 23:40      71.5      71.3       63     58.0      0.00      0.00      84.9     0.47      1015.0     2        40         2        69        8.92     269      -68.6
   07/09/2016 23:30      72.0      71.6       61     57.8      0.00      0.00      84.9     0.47      1015.0     2        51         3        76        8.93     269      -68.3
   07/09/2016 23:20      72.4      72.0       60     57.3      0.00      0.00      85.1     0.47      1015.0     2        50         3        82        8.93     269      -68.7
   07/09/2016 23:10      72.4      72.2       58     56.9      0.00      0.00      84.8     0.47      1015.0     1        64         2       118        8.93     269      -69.0
   07/09/2016 23:00      72.8      72.5       58     56.9      0.00      0.00      85.0     0.47      1015.0     2        78         4        83        8.93     269      -69.2
   07/09/2016 22:50      73.0      72.8       57     56.9      0.00      0.00      85.1     0.47      1015.0     2        76         4        74        8.93     269      -68.8
   07/09/2016 22:40      73.4      73.0       57     57.1      0.00      0.00      85.0     0.47      1015.0     3        80         5        71        8.93     268      -69.3
   07/09/2016 22:30      73.8      73.3       56     57.0      0.00      0.00      85.1     0.47      1015.0     2        79         3        79        8.93     268      -69.9
   07/09/2016 22:20      74.4      73.9       55     57.0      0.00      0.00      85.3     0.47      1015.0     2        85         3        90        8.93     268      -70.9
   07/09/2016 22:10      75.3      74.7       53     56.9      0.00      0.00      85.2     0.47      1015.0     2        66         3        47        8.94     268      -71.4
   07/09/2016 22:00      75.9      75.4       48     54.5      0.00      0.00      85.1     0.47      1015.0     2        62         3        79        8.94     268      -71.6
   07/09/2016 21:50      76.1      75.9       44     52.6      0.00      0.00      84.9     0.47      1015.0     1       175         2       167        8.94     267      -71.6
   07/09/2016 21:40      76.7      76.1       43     52.3      0.00      0.00      85.0     0.47      1015.0     2       170         2       173        8.94     267      -72.5
   07/09/2016 21:30      77.1      76.8       42     52.1      0.00      0.00      85.2     0.47      1015.0     2       184         2       189        8.94     267      -73.8
   07/09/2016 21:20      77.6      77.0       41     51.8      0.00      0.00      84.9     0.47      1014.0     2       175         3       175        8.95     267      -75.6
   07/09/2016 21:10      77.9      77.4       40     51.4      0.00      0.00      84.9     0.47      1014.0     2       209         4       203        8.95     266      -76.9
   07/09/2016 21:00      78.5      78.0       40     52.1      0.00      0.00      84.7     0.47      1014.0     4       211         6       218        8.95     266      -77.5
   07/09/2016 20:50      78.8      78.4       41     52.8      0.00      0.00      85.0     0.47      1014.0     3       207         4       217        8.95     266      -78.3
   07/09/2016 20:40      79.5      79.0       40     53.0      0.00      0.00      84.8     0.47      1014.0     3       222         4       263        8.96     267      -79.0
   07/09/2016 20:30      80.0      79.6       40     53.3      0.00      0.00      84.6     0.47      1014.0     3       228         4       237        8.96     266      -79.3
   07/09/2016 20:20      80.7      80.1       40     53.9      0.00      0.00      84.8     0.47      1014.0     3       238         4       233        8.96     266      -79.8
   07/09/2016 20:10      81.4      80.8       40     54.7      0.00      0.00      84.9     0.47      1014.0     4       246         5       274        8.96     266      -78.6
   07/09/2016 20:00      81.9      81.4       41     56.0      0.00      0.00      84.7     0.47      1014.0     5       238         6       236        8.97     266      -76.4
   07/09/2016 19:50      83.1      82.0       41     56.4      0.00      0.00      84.7     0.47      1014.0     4       241         5       236        8.97     266      -73.9
   07/09/2016 19:40      84.3      83.5       39     56.3      0.00      0.00      84.7     0.47      1014.0     4       254         6       246        8.97     266      -63.8
   07/09/2016 19:30      84.9      84.3       36     54.5      0.00      0.00      84.5     0.47      1014.0     4       294         6       311        8.97     266      -44.0
   07/09/2016 19:20      85.2      84.5       36     54.9      0.00      0.00      84.6     0.47      1014.0     4       286         8       262        8.98     266      -26.2
   07/09/2016 19:10      85.7      85.4       35     55.2      0.00      0.00      84.5     0.47      1014.0     4       303         7       299        8.98     266       -7.3
   07/09/2016 19:00      86.0      85.3       36     55.5      0.00      0.00      84.5     0.47      1014.0     6       301         9       292        8.99     266       12.6
   07/09/2016 18:50      86.3      85.9       36     55.9      0.00      0.00      84.5     0.47      1014.0     6       294         8       315        8.99     266       33.6
   07/09/2016 18:40      87.7      86.5       35     56.1      0.00      0.00      84.4     0.47      1014.0     7       294        11       289        8.99     266       54.3
   07/09/2016 18:30      89.1      87.9       34     56.1      0.00      0.00      84.5     0.47      1014.0     5       316         7       313        9.00     266       74.6
   07/09/2016 18:20      90.0      89.0       32     55.6      0.00      0.00      84.2     0.47      1014.0     6       307         9       320        9.00     266       98.0
   07/09/2016 18:10      90.8      90.2       31     55.4      0.00      0.00      84.3     0.47      1014.0     4       315         7       299        9.01     266      109.4
   07/09/2016 18:00      91.2      90.5       30     55.0      0.00      0.00      84.1     0.47      1014.0     5       317         8       307        9.01     266      151.4
   07/09/2016 17:50      91.7      90.8       29     54.5      0.00      0.00      84.0     0.47      1014.0     5       317         7       300        9.02     266      152.6
   07/09/2016 17:40      91.8      90.9       28     53.4      0.00      0.00      84.0     0.47      1014.0     7       324         9       327        9.03     266      189.6
   07/09/2016 17:30      91.4      90.6       28     53.4      0.00      0.00      83.9     0.47      1014.0     8       254        11       251        9.03     266      214.6
   07/09/2016 17:20      90.9      90.3       30     55.0      0.00      0.00      83.8     0.47      1014.0     5       181         9       238        9.04     265      236.9
   07/09/2016 17:10      91.4      90.7       29     54.6      0.00      0.00      83.8     0.47      1014.0     5       181         8       175        9.05     265      257.7
   07/09/2016 17:00      91.9      90.3       29     54.1      0.00      0.00      83.8     0.47      1014.0     5       125         9       125        9.05     265      271.8
   07/09/2016 16:50      90.6      89.7       29     54.0      0.00      0.00      83.8     0.47      1014.0     6       151         9       141        9.06     265      260.4
   07/09/2016 16:40      90.7      89.8       29     54.2      0.00      0.00      83.6     0.47      1014.0     5       163         7       142        9.07     265      246.5
   07/09/2016 16:30      91.3      90.7       29     54.6      0.00      0.00      83.4     0.47      1014.0     5       157         9       155        9.08     266      286.3
   07/09/2016 16:20      91.0      89.8       30     55.3      0.00      0.00      83.5     0.47      1014.0     6       174        10       153        9.08     266      337.0
   07/09/2016 16:10      93.2      91.0       29     54.9      0.00      0.00      83.4     0.47      1014.0     4       189         6       221        9.09     266      359.3
   07/09/2016 16:00      92.6      92.1       28     54.7      0.00      0.00      83.2     0.47      1014.0     5        65         9        70        9.09     266      379.0
   07/09/2016 15:50      93.4      91.6       27     54.2      0.00      0.00      83.3     0.47      1015.0     5        73        10        73        9.10     267      399.5
   07/09/2016 15:40      92.6      90.6       29     54.8      0.00      0.00      83.2     0.47      1015.0     4        70         7       326        9.10     267      411.1
   07/09/2016 15:30      92.4      91.4       30     56.1      0.00      0.00      83.2     0.47      1015.0     3        68         7       137        9.10     267      426.0
   07/09/2016 15:20      93.8      91.3       32     57.9      0.00      0.00      83.0     0.47      1015.0     3       152         5       142        9.11     267      438.2
   07/09/2016 15:10      94.2      93.2       27     54.7      0.00      0.00      83.1     0.46      1015.0     4        54        11        61        9.11     267      445.5
   07/09/2016 15:00      93.2      91.9       27     54.0      0.00      0.00      82.9     0.46      1015.0     5        13         8       355        9.11     267      462.3
   07/09/2016 14:50      93.5      92.4       27     54.4      0.00      0.00      83.0     0.46      1015.0     5        29        10        12        9.12     267      477.1
   07/09/2016 14:40      93.5      91.5       28     54.8      0.00      0.00      82.8     0.46      1015.0     5        28        10       322        9.12     267      484.3
   07/09/2016 14:30      92.9      91.4       28     54.8      0.00      0.00      82.6     0.46      1015.0     5        36        10        76        9.13     267      497.5
   07/09/2016 14:20      91.5      90.0       31     56.1      0.00      0.00      82.6     0.46      1015.0     4        77         8       156        9.13     267      514.3
   07/09/2016 14:10      91.9      90.0       30     55.3      0.00      0.00      82.6     0.46      1015.0     4       145         8       204        9.14     268      518.7
   07/09/2016 14:00      92.2      90.6       31     56.1      0.00      0.00      82.3     0.46      1015.0     3        92         5       124        9.14     268      526.5
   07/09/2016 13:50      92.2      90.5       31     56.1      0.00      0.00      82.5     0.46      1015.0     5        54         6       355        9.14     268      530.9
   07/09/2016 13:40      92.3      89.9       31     56.4      0.00      0.00      82.4     0.46      1015.0     4        20         7         8        9.14     269      535.4
   07/09/2016 13:30      91.3      90.1       32     56.9      0.00      0.00      82.4     0.46      1015.0     3        41         6        23        9.15     270      546.2
   07/09/2016 13:20      90.4      88.8       33     56.5      0.00      0.00      82.2     0.46      1016.0     4        56         6        68        9.15     270      510.2
   07/09/2016 13:10      89.9      89.1       34     57.3      0.00      0.00      82.3     0.46      1016.0     4        30         8       357        9.15     270      550.3
   07/09/2016 13:00      89.3      88.1       34     57.0      0.00      0.00      82.2     0.46      1016.0     3        44         5       101        9.15     270      557.9
   07/09/2016 12:50      88.9      88.4       34     56.6      0.00      0.00      82.2     0.46      1016.0     4        33         7       348        9.15     270      565.4
   07/09/2016 12:40      89.0      88.2       34     56.5      0.00      0.00      82.3     0.46      1016.0     4        22         7       334        9.15     270      567.8
   07/09/2016 12:30      88.2      86.9       36     57.0      0.00      0.00      82.3     0.46      1016.0     3        21         6        23        9.15     270      562.0
   07/09/2016 12:20      87.7      86.7       36     57.2      0.00      0.00      82.2     0.46      1016.0     4        43         5       344        9.15     270      560.5
   07/09/2016 12:10      87.0      86.1       38     57.7      0.00      0.00      82.3     0.46      1016.0     4        32         6         3        9.15     270      550.9
   07/09/2016 12:00      86.7      86.2       38     58.0      0.00      0.00      81.8     0.46      1016.0     4        38         6        28        9.15     270      542.3
   07/09/2016 11:50      86.2      85.1       39     58.2      0.00      0.00      81.9     0.46      1016.0     4        27         5        30        9.16     271      540.9
   07/09/2016 11:40      86.1      85.2       40     58.3      0.00      0.00      82.1     0.46      1016.0     3        40         6        64        9.16     271      533.9
   07/09/2016 11:30      85.4      83.8       42     59.2      0.00      0.00      82.1     0.46      1016.0     3        41         6        74        9.16     271      525.9
   07/09/2016 11:20      84.6      83.7       43     59.4      0.00      0.00      82.2     0.46      1016.0     4        40         8        61        9.16     271      520.0
   07/09/2016 11:10      84.4      82.9       44     59.7      0.00      0.00      81.9     0.46      1016.0     3        83         5        73        9.16     271      508.7
   07/09/2016 11:00      83.4      82.4       47     60.3      0.00      0.00      82.4     0.46      1017.0     4        14         6         0        9.16     272      497.0
   07/09/2016 10:50      82.7      80.9       48     60.5      0.00      0.00      82.5     0.47      1017.0     3         9         5        32        9.16     273      485.0
   07/09/2016 10:40      81.6      80.5       48     59.9      0.00      0.00      82.2     0.47      1017.0     3        48         4        61        9.16     282      473.6
   07/09/2016 10:30      80.7      79.5       50     59.6      0.00      0.00      82.1     0.47      1017.0     3        16         5        75        9.16     295      458.9
   07/09/2016 10:20      79.6      78.5       52     59.5      0.00      0.00      82.4     0.47      1017.0     2        57         5        70        9.16     302      446.8
   07/09/2016 10:10      78.7      77.8       52     59.0      0.00      0.00      82.4     0.47      1017.0     3        27         4        12        9.16     312      438.7
   07/09/2016 10:00      77.8      76.5       52     58.5      0.00      0.00      82.3     0.47      1017.0     2        48         3        72        9.17     318      377.0
   07/09/2016 09:50      77.4      75.6       53     58.4      0.00      0.00      82.5     0.47      1017.0     2        61         4        87        9.18     324      411.5
   07/09/2016 09:40      75.6      75.1       55     58.0      0.00      0.00      82.7     0.47      1017.0     3       349         4       340        9.18     329      380.4
   07/09/2016 09:30      75.2      73.8       57     58.3      0.00      0.00      82.5     0.47      1017.0     3         9         4        14        9.18     333      359.9
   07/09/2016 09:20      74.3      73.5       59     58.7      0.00      0.00      82.8     0.47      1017.0     4       351         6       345        9.18     338      361.6
   07/09/2016 09:10      73.6      72.5       60     58.7      0.00      0.00      82.5     0.47      1017.0     3        26         4       346        9.19     341      341.9
   07/09/2016 09:00      72.7      71.3       63     58.9      0.00      0.00      83.1     0.47      1017.0     2        17         4        18        9.19     344      350.9
   07/09/2016 08:50      71.1      70.2       65     58.4      0.00      0.00      82.7     0.47      1017.0     2        17         3        33        9.19     345      260.5
   07/09/2016 08:40      70.2      69.1       67     58.4      0.00      0.00      83.0     0.47      1017.0     3         8         4         4        9.19     344       16.4
   07/09/2016 08:30      69.3      68.8       70     58.8      0.00      0.00      82.9     0.47      1017.0     2        39         3         7        9.19     344       -2.5
   07/09/2016 08:20      68.9      67.7       72     58.9      0.00      0.00      82.7     0.47      1017.0     1        36         3        56        9.19     346      -16.0
   07/09/2016 08:10      67.8      67.2       74     58.7      0.00      0.00      82.6     0.47      1017.0     1       274         2       283        9.19     349       -8.0
   07/09/2016 08:00      67.3      66.5       75     58.7      0.00      0.00      82.7     0.47      1017.0     1       298         2       282        9.19     349       35.4
   07/09/2016 07:50      66.6      66.0       77     58.8      0.00      0.00      82.7     0.47      1017.0     2       269         2       271        9.19     351        0.3
   07/09/2016 07:40      66.1      65.5       78     58.8      0.00      0.00      83.0     0.47      1017.0     1       360         1       240        9.19     348        0.6
   07/09/2016 07:30      65.5      65.0       80     58.8      0.00      0.00      82.8     0.47      1017.0     1       339         1       353        9.19     347      -10.2
   07/09/2016 07:20      65.1      64.5       80     58.6      0.00      0.00      83.2     0.47      1017.0     1       219         1       144        9.19     347      -18.8
   07/09/2016 07:10      64.7      64.0       81     58.4      0.00      0.00      83.4     0.47      1017.0     1       123         2       169        9.19     346      -12.4
   07/09/2016 07:00      64.0      63.4       82     58.1      0.00      0.00      82.8     0.47      1017.0     2       164         2       168        9.20     348      -21.9
   07/09/2016 06:50      63.6      62.6       83     57.7      0.00      0.00      83.1     0.47      1017.0     1       151         2       161        9.20     344      -18.8
   07/09/2016 06:40      62.6      61.4       85     57.5      0.00      0.00      82.8     0.47      1017.0     2       168         3       173        9.20     343      -25.4
   07/09/2016 06:30      61.4      60.2       87     56.9      0.00      0.00      83.2     0.47      1016.0     2       162         3       157        9.20     337      -26.6
   07/09/2016 06:20      60.3      60.0       88     56.6      0.00      0.00      83.1     0.47      1016.0     2       166         3       161        9.20     333      -24.8
   07/09/2016 06:10      60.2      59.9       87     56.4      0.00      0.00      83.0     0.47      1016.0     1       153         2       152        9.20     331      -31.9
   07/09/2016 06:00      60.4      59.9       89     56.9      0.00      0.00      83.2     0.47      1016.0     1       229         2       199        9.20     329      -37.7
   07/09/2016 05:50      60.1      59.8       88     56.4      0.00      0.00      83.3     0.47      1016.0     1       149         2       138        9.20     326      -42.8
   07/09/2016 05:40      60.5      60.3       88     57.0      0.00      0.00      83.0     0.47      1016.0     1       148         1       139        9.20     323      -45.3
   07/09/2016 05:30      60.8      60.4       88     56.9      0.00      0.00      83.3     0.47      1016.0     1       119         1        94        9.20     320      -49.1
   07/09/2016 05:20      60.8      60.3       88     56.9      0.00      0.00      83.1     0.47      1016.0     1        43         2       174        9.20     317      -51.6
   07/09/2016 05:10      60.8      60.4       87     56.6      0.00      0.00      83.2     0.47      1016.0     1       131         1       118        9.20     314      -54.5
   07/09/2016 05:00      60.9      60.5       86     56.7      0.00      0.00      83.1     0.47      1016.0     1       208         1       172        9.20     312      -55.9
   07/09/2016 04:50      61.3      60.9       86     56.8      0.00      0.00      83.8     0.48      1016.0     1       170         2       166        9.20     309      -55.3
   07/09/2016 04:40      61.2      60.9       87     57.0      0.00      0.00      83.6     0.48      1016.0     1       166         2       160        9.20     307      -55.4
   07/09/2016 04:30      61.4      60.9       85     56.7      0.00      0.00      83.6     0.48      1016.0     1       139         2       159        9.20     305      -56.9
   07/09/2016 04:20      61.6      61.4       85     57.1      0.00      0.00      83.8     0.48      1015.0     1       168         1       174        9.20     305      -56.5
   07/09/2016 04:10      61.7      61.5       85     57.1      0.00      0.00      83.4     0.48      1015.0     1       161         2       161        9.20     303      -57.0
   07/09/2016 04:00      62.1      61.8       85     57.2      0.00      0.00      83.7     0.48      1015.0     1       137         2       132        9.20     300      -59.5
   07/09/2016 03:50      62.8      61.9       83     57.1      0.00      0.00      83.6     0.47      1015.0     2       141         2       144        9.20     299      -60.9
   07/09/2016 03:40      63.2      62.8       84     58.0      0.00      0.00      83.9     0.48      1015.0     1       104         2       124        9.21     296      -61.4
   07/09/2016 03:30      63.3      63.0       84     58.1      0.00      0.00      83.6     0.48      1015.0     1        92         2        62        9.21     294      -62.9
   07/09/2016 03:20      63.3      63.1       83     58.0      0.00      0.00      84.1     0.48      1015.0     2        90         3        86        9.21     293      -62.4
   07/09/2016 03:10      63.4      63.3       83     58.1      0.00      0.00      83.9     0.48      1015.0     2        95         2        76        9.21     291      -62.4
   07/09/2016 03:00      63.6      63.2       82     57.9      0.00      0.00      83.6     0.48      1015.0     1       109         2        84        9.21     290      -64.0
   07/09/2016 02:50      64.0      63.7       82     58.1      0.00      0.00      83.7     0.48      1015.0     1       113         2       127        9.21     288      -66.6
   07/09/2016 02:40      64.3      64.0       81     58.2      0.00      0.00      84.0     0.48      1015.0     2        86         3        76        9.21     287      -67.4
   07/09/2016 02:30      64.5      64.2       80     58.2      0.00      0.00      83.9     0.48      1015.0     2        75         3        83        9.21     286      -67.7
   07/09/2016 02:20      64.7      64.5       80     58.1      0.00      0.00      83.8     0.48      1015.0     2        66         3        55        9.21     284      -68.3
   07/09/2016 02:10      65.4      64.8       78     58.2      0.00      0.00      84.2     0.48      1015.0     1        63         2        62        9.21     282      -69.1
   07/09/2016 02:00      65.5      65.2       78     58.3      0.00      0.00      84.0     0.48      1015.0     2        36         3        31        9.21     281      -69.1
   07/09/2016 01:50      65.5      65.3       77     58.2      0.00      0.00      84.1     0.48      1015.0     2        51         3        32        9.21     280      -69.2
   07/09/2016 01:40      65.7      65.4       77     58.0      0.00      0.00      84.2     0.48      1015.0     2        73         4        73        9.21     279      -69.6
   07/09/2016 01:30      66.0      65.7       75     57.8      0.00      0.00      84.2     0.48      1015.0     1        68         2        79        9.21     277      -69.8
   07/09/2016 01:20      66.2      66.0       75     57.9      0.00      0.00      84.2     0.48      1015.0     2        75         2        98        9.21     277      -69.4
   07/09/2016 01:10      66.6      66.4       74     58.0      0.00      0.00      84.3     0.48      1015.0     2        87         3        85        9.21     276      -69.5
   07/09/2016 01:00      66.7      66.5       73     57.6      0.00      0.00      84.4     0.48      1015.0     1       102         2        97        9.21     275      -69.7
   07/09/2016 00:50      66.8      66.3       71     56.9      0.00      0.00      84.3     0.48      1015.0     2        88         3        94        9.21     275      -68.6
   07/09/2016 00:40      66.5      66.1       68     55.6      0.00      0.00      84.5     0.48      1015.0     1        97         2       102        9.22     274      -68.9
   07/09/2016 00:30      66.4      65.8       65     53.9      0.00      0.00      84.5     0.48      1015.0     1        83         3        78        9.22     273      -68.4
   07/09/2016 00:20      66.8      66.4       63     53.8      0.00      0.00      84.1     0.48      1015.0     1       126         1       116        9.22     272      -68.9
   07/09/2016 00:10      67.3      66.8       62     53.6      0.00      0.00      84.2     0.48      1015.0     0       181         1       171        9.22     271      -67.9
   07/09/2016 00:00      67.3      66.8       62     53.7      0.00      0.00      84.5     0.48      1015.0     0       123         0        37        9.22     270      -69.3
   07/08/2016 23:50      67.6      67.3       62     53.9      0.00      0.00      84.5     0.48      1015.0     1        76         1        75        9.22     269      -70.0
   07/08/2016 23:40      67.8      67.5       62     54.2      0.00      0.00      84.2     0.48      1015.0     1       127         2       135        9.22     268      -70.8
   07/08/2016 23:30      68.3      67.5       60     53.6      0.00      0.00      84.2     0.48      1015.0     2       179         2       170        9.22     268      -70.6
   07/08/2016 23:20      69.1      68.1       58     53.5      0.00      0.00      84.4     0.48      1015.0     2       172         3       152        9.22     268      -70.9
   07/08/2016 23:10      70.0      68.8       57     53.4      0.00      0.00      84.3     0.48      1015.0     1       207         2       230        9.22     268      -71.9
   07/08/2016 23:00      71.0      70.1       56     53.9      0.00      0.00      84.5     0.48      1015.0     2       216         2       219        9.22     269      -73.1
   07/08/2016 22:50      71.7      71.2       54     54.2      0.00      0.00      84.7     0.48      1015.0     1       257         3       212        9.22     269      -75.1
   07/08/2016 22:40      71.9      71.7       54     54.3      0.00      0.00      84.5     0.48      1015.0     1       317         2       326        9.22     268      -74.8
   07/08/2016 22:30      71.9      71.4       54     54.2      0.00      0.00      84.7     0.48      1015.0     2        15         3       345        9.23     269      -76.0
   07/08/2016 22:20      72.0      71.6       54     54.2      0.00      0.00      84.7     0.48      1015.0     1        68         2        76        9.23     269      -76.8
   07/08/2016 22:10      72.0      71.8       54     54.2      0.00      0.00      84.6     0.48      1015.0     2       218         4       208        9.23     269      -76.8
   07/08/2016 22:00      72.2      71.8       54     54.4      0.00      0.00      84.4     0.48      1015.0     2       182         5       174        9.23     269      -77.7
   07/08/2016 21:50      73.0      72.3       53     54.5      0.00      0.00      84.5     0.48      1015.0     2       195         4       187        9.23     269      -78.6
   07/08/2016 21:40      73.4      73.1       52     54.5      0.00      0.00      84.3     0.48      1015.0     3       235         6       244        9.23     269      -79.4
   07/08/2016 21:30      73.9      73.6       52     54.9      0.00      0.00      84.4     0.48      1014.0     2       211         3       198        9.23     269      -80.0
   07/08/2016 21:20      74.5      74.1       52     55.3      0.00      0.00      84.3     0.48      1014.0     2       212         3       223        9.23     269      -80.6
   07/08/2016 21:10      75.0      74.6       51     55.5      0.00      0.00      84.5     0.48      1014.0     3       194         3       197        9.23     269      -80.9
   07/08/2016 21:00      75.5      75.1       50     55.4      0.00      0.00      84.7     0.48      1014.0     2       198         3       221        9.24     269      -81.7
   07/08/2016 20:50      76.0      75.6       49     55.3      0.00      0.00      84.3     0.48      1014.0     3       211         5       199        9.24     268      -82.2
   07/08/2016 20:40      76.7      76.1       48     55.3      0.00      0.00      84.5     0.48      1014.0     3       210         4       232        9.24     268      -83.1
   07/08/2016 20:30      77.3      76.6       47     55.4      0.00      0.00      84.3     0.48      1014.0     3       221         4       220        9.24     268      -83.8
   07/08/2016 20:20      77.7      77.4       47     55.8      0.00      0.00      84.3     0.48      1014.0     4       230         5       244        9.25     268      -83.3
   07/08/2016 20:10      78.4      78.0       46     56.1      0.00      0.00      84.2     0.47      1014.0     4       224         6       242        9.25     268      -82.1
   07/08/2016 20:00      79.1      78.5       46     56.1      0.00      0.00      84.1     0.48      1014.0     3       228         5       223        9.25     268      -79.7
   07/08/2016 19:50      79.8      79.2       45     56.3      0.00      0.00      84.4     0.47      1014.0     3       227         5       255        9.25     268      -76.8
   07/08/2016 19:40      80.7      79.8       44     56.3      0.00      0.00      84.1     0.47      1014.0     4       222         6       234        9.26     268      -65.6
   07/08/2016 19:30      81.5      81.2       43     56.5      0.00      0.00      84.2     0.47      1013.0     4       236         6       251        9.26     268      -44.2
   07/08/2016 19:20      82.2      81.5       41     56.3      0.00      0.00      84.0     0.47      1013.0     5       258         7       255        9.26     268      -27.1
   07/08/2016 19:10      82.7      82.2       41     56.4      0.00      0.00      84.0     0.47      1013.0     4       301         6       311        9.26     268       -8.6
   07/08/2016 19:00      83.5      82.8       40     56.6      0.00      0.00      84.0     0.47      1013.0     4       299         6       322        9.27     268       11.9
   07/08/2016 18:50      83.1      82.6       41     56.5      0.00      0.00      83.8     0.47      1013.0     4       308         6       292        9.27     268       34.2
   07/08/2016 18:40      83.4      82.7       40     56.3      0.00      0.00      83.8     0.47      1013.0     5       301         7       296        9.27     268       55.8
   07/08/2016 18:30      83.8      83.3       39     56.2      0.00      0.00      83.7     0.47      1013.0     6       309         7       300        9.27     268       78.0
   07/08/2016 18:20      84.6      84.2       38     56.0      0.00      0.00      83.7     0.47      1013.0     5       300         6       262        9.27     268      100.8
   07/08/2016 18:10      85.2      84.5       37     55.8      0.00      0.00      83.9     0.47      1013.0     6       298         8       320        9.27     268      125.0
   07/08/2016 18:00      85.5      84.8       37     56.1      0.00      0.00      83.6     0.47      1013.0     6       313         8       298        9.28     268      149.5
   07/08/2016 17:50      86.1      85.1       37     56.3      0.00      0.00      83.5     0.47      1013.0     6       297         9       300        9.28     268      173.4
   07/08/2016 17:40      86.2      86.0       37     57.0      0.00      0.00      83.4     0.47      1013.0     7       313        10       290        9.28     267      193.2
   07/08/2016 17:30      87.8      85.9       37     57.6      0.00      0.00      83.3     0.47      1013.0     6       300         9       300        9.29     267      216.5
   07/08/2016 17:20      88.5      87.8       36     57.6      0.00      0.00      83.3     0.47      1013.0     5       304         7       307        9.29     267      233.8
   07/08/2016 17:10      88.0      86.6       37     57.4      0.00      0.00      83.4     0.47      1013.0     6       223         8       228        9.29     267      260.6
   07/08/2016 17:00      87.1      86.5       36     56.7      0.00      0.00      83.2     0.47      1013.0     6       168         9       179        9.29     266      283.9
   07/08/2016 16:50      86.9      86.6       36     56.7      0.00      0.00      83.2     0.47      1013.0     6       160         9       157        9.30     267      306.4
   07/08/2016 16:40      87.3      86.1       36     56.8      0.00      0.00      83.0     0.47      1013.0     7       196         8       206        9.30     267      326.3
   07/08/2016 16:30      88.1      86.7       35     56.2      0.00      0.00      83.1     0.47      1013.0     7       159        11       179        9.30     267      343.5
   07/08/2016 16:20      88.1      87.3       35     56.7      0.00      0.00      83.0     0.47      1013.0     6       178         9       183        9.31     267      360.9
   07/08/2016 16:10      88.9      88.0       34     56.2      0.00      0.00      82.9     0.47      1013.0     6       173         9       184        9.31     267      374.1
   07/08/2016 16:00      89.9      87.9       33     56.0      0.00      0.00      82.9     0.47      1013.0     7       176        11       175        9.32     267      393.4
   07/08/2016 15:50      91.3      90.0       32     56.2      0.00      0.00      82.8     0.47      1013.0     5       168         9       181        9.33     268      402.0
   07/08/2016 15:40      91.9      90.9       30     56.1      0.00      0.00      82.6     0.47      1013.0     4        96         7       140        9.34     269      416.5
   07/08/2016 15:30      91.1      89.1       31     55.8      0.00      0.00      82.5     0.47      1013.0     3        39         6        83        9.34     270      429.6
   07/08/2016 15:20      92.5      89.1       31     55.7      0.00      0.00      82.5     0.47      1013.0     3        73         5        66        9.35     269      444.9
   07/08/2016 15:10      91.4      89.8       31     55.7      0.00      0.00      82.4     0.47      1013.0     4        38         8        31        9.35     270      457.1
   07/08/2016 15:00      91.3      90.0       31     55.9      0.00      0.00      82.4     0.47      1013.0     3        24         5       356        9.35     270      468.1
   07/08/2016 14:50      91.0      89.3       32     56.2      0.00      0.00      82.1     0.47      1014.0     4        22         6         1        9.36     270      480.9
   07/08/2016 14:40      89.2      88.7       34     56.7      0.00      0.00      82.2     0.47      1014.0     4        73         6        76        9.36     270      495.7
   07/08/2016 14:30      89.3      88.2       32     55.2      0.00      0.00      82.2     0.47      1014.0     3        90         4       118        9.37     270      502.2
   07/08/2016 14:20      88.2      86.9       34     55.7      0.00      0.00      82.3     0.47      1014.0     3       114         6        96        9.37     270      520.9
   07/08/2016 14:10      88.8      87.1       35     57.0      0.00      0.00      81.8     0.47      1014.0     4        75         7        86        9.37     270      527.4
   07/08/2016 14:00      88.4      86.5       36     56.9      0.00      0.00      82.1     0.47      1014.0     2       136         3        82        9.37     271      529.9
   07/08/2016 13:50      87.6      86.0       36     57.1      0.00      0.00      82.1     0.47      1014.0     3       292         5       290        9.37     272      535.5
   07/08/2016 13:40      86.5      84.9       37     56.4      0.00      0.00      82.1     0.47      1014.0     3       331         5       353        9.37     272      544.6
   07/08/2016 13:30      86.2      85.0       38     57.0      0.00      0.00      81.6     0.47      1014.0     4       128         6       122        9.37     272      551.0
   07/08/2016 13:20      86.3      85.7       38     57.8      0.00      0.00      81.7     0.47      1014.0     3       358         5        14        9.38     273      549.2
   07/08/2016 13:10      86.4      85.3       39     58.2      0.00      0.00      82.0     0.47      1015.0     3        27         6       351        9.38     274      552.2
   07/08/2016 13:00      84.9      84.2       41     58.1      0.00      0.00      82.0     0.47      1015.0     3        41         5        70        9.38     280      558.9
   07/08/2016 12:50      85.8      83.2       42     58.5      0.00      0.00      81.8     0.47      1015.0     4       344         7         2        9.38     289      558.3
   07/08/2016 12:40      83.4      81.6       43     58.0      0.00      0.00      81.9     0.47      1015.0     2        20         6       349        9.38     300      562.0
   07/08/2016 12:30      82.3      81.1       45     58.2      0.00      0.00      81.9     0.47      1015.0     3        28         6       354        9.38     312      557.0
   07/08/2016 12:20      82.1      81.1       46     58.7      0.00      0.00      81.7     0.47      1015.0     3        13         5        71        9.38     325      557.6
   07/08/2016 12:10      82.0      79.6       49     59.1      0.00      0.00      81.6     0.47      1015.0     4        20         5        87        9.38     341      559.3
   07/08/2016 12:00      80.1      79.2       49     59.0      0.00      0.00      81.6     0.47      1015.0     3        47         6        16        9.38     348      551.5
   07/08/2016 11:50      79.2      77.9       51     58.9      0.00      0.00      82.2     0.47      1016.0     3        18         6         5        9.38     360      544.7
   07/08/2016 11:40      78.4      77.5       51     58.2      0.00      0.00      81.6     0.47      1016.0     3        64         5       120        9.38     362      538.2
   07/08/2016 11:30      78.5      78.1       50     58.0      0.00      0.00      81.6     0.47      1016.0     3        40         5        12        9.38     369      531.3
   07/08/2016 11:20      78.6      76.4       52     58.5      0.00      0.00      82.0     0.47      1016.0     3        46         4        59        9.38     373      524.6
   07/08/2016 11:10      77.6      76.2       54     58.8      0.00      0.00      81.8     0.47      1016.0     3        12         5       350        9.38     375      514.9
   07/08/2016 11:00      76.4      75.7       56     59.1      0.00      0.00      82.0     0.47      1016.0     3        12         7         3        9.38     386      506.3
   07/08/2016 10:50      76.2      74.7       58     59.4      0.00      0.00      81.9     0.47      1016.0     5        12         6       343        9.38     402      495.5
   07/08/2016 10:40      74.8      74.1       59     59.3      0.00      0.00      81.7     0.47      1016.0     4        38         6        67        9.38     415      482.2
   07/08/2016 10:30      74.8      73.3       60     59.1      0.00      0.00      82.2     0.47      1016.0     4        21         6        12        9.38     420      469.6
   07/08/2016 10:20      73.8      73.5       60     58.7      0.00      0.00      81.8     0.47      1016.0     2         8         4         7        9.38     423      460.2
   07/08/2016 10:10      73.5      72.2       61     58.5      0.00      0.00      81.9     0.47      1016.0     3        26         5        59        9.38     426      444.6
   07/08/2016 10:00      72.8      71.6       62     58.2      0.00      0.00      82.0     0.48      1016.0     3       359         6        33        9.38     427      432.3
   07/08/2016 09:50      71.8      70.4       64     58.2      0.00      0.00      82.6     0.48      1016.0     3         3         4         4        9.31     427      418.7
   07/08/2016 09:40      71.3      70.3       65     58.2      0.00      0.00      81.9     0.48      1016.0     3       348         5        20        9.30     427      398.1
   07/08/2016 09:30      70.3      68.5       67     58.0      0.00      0.00      82.3     0.48      1016.0     2        10         4         9        9.30     425      384.3
   07/08/2016 09:20      68.7      68.1       69     58.0      0.00      0.00      82.8     0.48      1016.0     2       118         4       122        9.31     422      368.5
   07/08/2016 09:10      68.5      67.3       71     58.2      0.00      0.00      82.4     0.47      1016.0     2        89         5        92        9.29     429      321.9
   07/08/2016 09:00      67.4      66.8       73     58.1      0.00      0.00      82.6     0.46      1016.0     3        38         5        69        9.29     320      320.6
   07/08/2016 08:50      66.5      65.2       77     58.5      0.00      0.00      82.5     0.46      1016.0     2        21         4       110        9.19     322      281.1
   07/08/2016 08:40      65.7      64.5       79     58.4      0.00      0.00      82.7     0.46      1016.0     2       353         4       350        9.07     325      135.6
   07/08/2016 08:30      64.6      63.9       81     58.3      0.00      0.00      82.8     0.46      1016.0     2        86         3       128        9.07     330      138.2
   07/08/2016 08:20      63.8      62.9       84     58.2      0.00      0.00      82.6     0.46      1016.0     2       120         3       121        9.07     335      121.9
   07/08/2016 08:10      63.2      62.7       84     58.2      0.00      0.00      82.7     0.46      1016.0     2        89         3       137        9.07     338       86.4
   07/08/2016 08:00      62.8      62.1       86     58.1      0.00      0.00      82.9     0.46      1016.0     1        45         2        12        9.07     342       77.2
   07/08/2016 07:50      62.3      61.5       87     58.0      0.00      0.00      83.2     0.46      1016.0     2        84         3        68        9.07     345       73.0
   07/08/2016 07:40      61.6      61.4       88     58.0      0.00      0.00      82.8     0.46      1016.0     2       122         3       138        9.07     346       51.9
   07/08/2016 07:30      61.5      61.1       88     57.7      0.00      0.00      82.6     0.46      1016.0     3       111         4       137        9.07     346       42.6
   07/08/2016 07:20      61.3      60.5       89     57.4      0.00      0.00      83.0     0.46      1016.0     2        59         3        88        9.07     346       48.4
   07/08/2016 07:10      60.5      60.1       89     57.1      0.00      0.00      83.0     0.46      1016.0     2        92         4       102        9.07     344       31.7
   07/08/2016 07:00      60.3      59.6       88     56.5      0.00      0.00      83.0     0.46      1016.0     2        81         4        72        9.07     344       25.1
   07/08/2016 06:50      59.8      59.3       89     56.3      0.00      0.00      83.2     0.46      1016.0     1       102         2        71        9.07     336       10.7
   07/08/2016 06:40      59.7      59.3       91     56.8      0.00      0.00      83.2     0.46      1016.0     1       116         1       100        9.07     332        1.5
   07/08/2016 06:30      59.3      58.9       91     56.5      0.00      0.00      83.0     0.46      1015.0     1        99         1       111        9.08     330       -8.3
   07/08/2016 06:20      59.1      58.5       91     56.2      0.00      0.00      83.2     0.46      1015.0     1        63         1        81        9.08     329      -14.5
   07/08/2016 06:10      58.6      58.0       90     55.4      0.00      0.00      82.8     0.46      1015.0     1        47         2        76        9.08     326      -21.3
   07/08/2016 06:00      58.5      58.0       89     55.1      0.00      0.00      83.4     0.46      1015.0     1       102         2        93        9.08     326      -25.8
   07/08/2016 05:50      58.5      58.3       90     55.5      0.00      0.00      83.0     0.46      1015.0     0       148         1       143        9.08     324      -28.2
   07/08/2016 05:40      58.6      58.3       91     55.7      0.00      0.00      83.4     0.46      1015.0     0       166         1       138        9.08     321      -31.3
   07/08/2016 05:30      58.5      58.0       89     55.1      0.00      0.00      83.5     0.46      1015.0     1       143         1       122        9.08     318      -34.5
   07/08/2016 05:20      58.9      58.3       90     55.6      0.00      0.00      83.1     0.46      1015.0     1       130         1       122        9.08     315      -35.0
   07/08/2016 05:10      58.9      58.5       90     55.9      0.00      0.00      83.9     0.46      1015.0     1       166         1       152        9.08     312      -36.2
   07/08/2016 05:00      59.2      58.8       90     55.9      0.00      0.00      83.4     0.46      1015.0     1       154         1       139        9.08     311      -38.1
   07/08/2016 04:50      59.4      59.1       89     56.1      0.00      0.00      83.3     0.46      1015.0     0       154         1       181        9.08     308      -40.6
   07/08/2016 04:40      59.5      59.1       89     55.8      0.00      0.00      83.7     0.46      1015.0     1       145         1       168        9.08     306      -44.2
   07/08/2016 04:30      59.8      59.6       88     56.1      0.00      0.00      83.4     0.46      1015.0     1       132         1       149        9.08     303      -45.2
   07/08/2016 04:20      60.0      59.8       87     56.0      0.00      0.00      84.0     0.46      1015.0     1       101         2       100        9.08     304      -48.8
   07/08/2016 04:10      60.2      59.9       86     55.8      0.00      0.00      84.2     0.46      1015.0     0        70         1       125        9.08     302      -52.7
   07/08/2016 04:00      60.4      60.0       85     55.5      0.00      0.00      83.9     0.46      1015.0     1        89         2        90        9.08     299      -55.9
   07/08/2016 03:50      60.7      60.3       85     55.9      0.00      0.00      83.9     0.46      1015.0     1        82         2        79        9.08     298      -57.1
   07/08/2016 03:40      60.9      60.6       84     56.0      0.00      0.00      84.0     0.46      1015.0     1        78         2        82        9.08     296      -58.7
   07/08/2016 03:30      61.0      60.6       85     56.0      0.00      0.00      84.2     0.46      1014.0     1        90         2        83        9.09     294      -60.3
   07/08/2016 03:20      60.6      60.4       84     55.5      0.00      0.00      83.8     0.47      1014.0     1        90         2        71        9.09     292      -62.8
   07/08/2016 03:10      60.8      60.5       83     55.5      0.00      0.00      84.1     0.46      1014.0     1       112         2       107        9.09     290      -63.0
   07/08/2016 03:00      61.1      60.9       83     55.9      0.00      0.00      84.1     0.47      1014.0     1       118         2        93        9.09     289      -63.1
   07/08/2016 02:50      61.5      61.2       83     56.1      0.00      0.00      84.5     0.47      1014.0     1       124         1       134        9.09     287      -63.6
   07/08/2016 02:40      61.9      61.4       84     56.7      0.00      0.00      84.3     0.47      1014.0     1        87         1        82        9.09     287      -62.3
   07/08/2016 02:30      62.5      62.0       82     56.6      0.00      0.00      84.4     0.47      1014.0     0        87         1        77        9.09     285      -63.5
   07/08/2016 02:20      62.7      62.3       81     56.8      0.00      0.00      84.3     0.47      1014.0     1        85         2        70        9.09     283      -65.6
   07/08/2016 02:10      63.1      62.8       81     56.9      0.00      0.00      84.4     0.47      1014.0     1        94         2        50        9.09     282      -66.1
   07/08/2016 02:00      63.3      62.9       80     56.8      0.00      0.00      84.1     0.47      1014.0     1        85         2        34        9.09     281      -66.7
   07/08/2016 01:50      63.4      63.1       79     56.9      0.00      0.00      84.5     0.47      1014.0     1       110         2       111        9.09     280      -67.0
   07/08/2016 01:40      63.5      63.1       79     56.6      0.00      0.00      84.6     0.47      1014.0     1       101         3       101        9.09     279      -66.2
   07/08/2016 01:30      63.5      63.3       78     56.5      0.00      0.00      84.1     0.46      1014.0     1       101         2        93        9.09     277      -67.5
   07/08/2016 01:20      63.7      63.3       76     56.0      0.00      0.00      84.5     0.47      1014.0     2       119         2       136        9.09     276      -68.5
   07/08/2016 01:10      63.9      63.5       77     56.3      0.00      0.00      84.4     0.47      1014.0     2       113         2        77        9.09     275      -69.2
   07/08/2016 01:00      63.8      63.4       75     55.6      0.00      0.00      84.7     0.47      1014.0     1       100         2       119        9.09     274      -69.5
   07/08/2016 00:50      64.1      63.7       74     55.5      0.00      0.00      84.6     0.47      1014.0     1       105         2       100        9.09     273      -69.8
   07/08/2016 00:40      64.4      64.0       73     55.5      0.00      0.00      84.3     0.47      1014.0     1        99         2        87        9.09     271      -70.4
   07/08/2016 00:30      64.7      64.4       73     55.8      0.00      0.00      84.6     0.47      1014.0     1       111         2       109        9.10     270      -71.0
   07/08/2016 00:20      65.1      64.8       73     55.8      0.00      0.00      84.6     0.47      1014.0     1        73         2        73        9.10     269      -71.7
   07/08/2016 00:10      65.5      65.0       72     56.0      0.00      0.00      84.9     0.47      1014.0     1        79         2        70        9.10     269      -72.3
   07/08/2016 00:00      65.6      65.5       72     56.1      0.00      0.00      84.5     0.47      1014.0     1        68         3        81        9.10     268      -72.8
   07/07/2016 23:50      66.1      65.7       70     56.0      0.00      0.00      84.5     0.47      1014.0     1        51         1        60        9.10     267      -73.3
   07/07/2016 23:40      66.4      66.1       70     56.1      0.00      0.00      84.7     0.46      1014.0     1        67         2        84        9.10     267      -74.0
   07/07/2016 23:30      66.6      66.3       69     55.9      0.00      0.00      84.5     0.46      1015.0     1        59         1       109        9.10     267      -73.5
   07/07/2016 23:20      67.3      66.7       67     55.6      0.00      0.00      84.9     0.47      1015.0     1        87         1        97        9.10     266      -72.9
   07/07/2016 23:10      67.8      67.3       66     55.7      0.00      0.00      84.5     0.47      1015.0     1        86         1        67        9.11     266      -72.8
   07/07/2016 23:00      68.2      67.8       65     55.8      0.00      0.00      84.6     0.47      1014.0     1        77         1        82        9.10     266      -74.0
   07/07/2016 22:50      68.6      68.1       63     55.2      0.00      0.00      84.6     0.46      1014.0     1        84         3        70        9.11     267      -74.1
   07/07/2016 22:40      69.6      68.9       61     55.4      0.00      0.00      84.9     0.46      1014.0     1       165         1       241        9.11     267      -74.5
   07/07/2016 22:30      70.3      69.9       61     56.0      0.00      0.00      85.1     0.47      1014.0     1       267         2       274        9.11     268      -75.8
   07/07/2016 22:20      70.6      70.4       60     56.1      0.00      0.00      84.8     0.47      1014.0     1       285         2       267        9.11     268      -76.7
   07/07/2016 22:10      70.9      70.6       60     56.0      0.00      0.00      85.0     0.47      1014.0     2       257         3       235        9.11     268      -77.3
   07/07/2016 22:00      71.4      70.9       58     55.9      0.00      0.00      84.9     0.47      1014.0     2       232         3       223        9.11     268      -78.4
   07/07/2016 21:50      71.6      71.3       58     55.8      0.00      0.00      84.8     0.47      1014.0     2       238         3       249        9.12     268      -78.9
   07/07/2016 21:40      72.0      71.6       57     55.6      0.00      0.00      84.8     0.47      1014.0     3       224         6       225        9.12     268      -79.0
   07/07/2016 21:30      72.5      72.2       56     55.6      0.00      0.00      84.6     0.47      1014.0     2       229         4       247        9.12     268      -80.0
   07/07/2016 21:20      72.7      72.3       54     55.2      0.00      0.00      85.0     0.47      1014.0     3       221         4       214        9.12     268      -80.6
   07/07/2016 21:10      72.8      72.5       53     54.8      0.00      0.00      84.6     0.47      1014.0     3       189         4       217        9.13     268      -81.3
   07/07/2016 21:00      73.3      72.9       52     54.1      0.00      0.00      84.8     0.47      1013.0     3       179         4       184        9.13     267      -82.7
   07/07/2016 20:50      73.7      73.3       49     53.4      0.00      0.00      84.5     0.47      1013.0     3       170         4       185        9.13     267      -83.7
   07/07/2016 20:40      74.1      73.7       48     52.8      0.00      0.00      84.7     0.47      1013.0     4       183         5       192        9.13     267      -84.8
   07/07/2016 20:30      74.8      74.2       46     52.6      0.00      0.00      84.8     0.46      1013.0     3       173         4       180        9.14     268      -86.1
   07/07/2016 20:20      75.8      74.9       47     53.5      0.00      0.00      84.9     0.47      1013.0     3       189         5       198        9.14     267      -85.7
   07/07/2016 20:10      77.4      76.1       46     54.2      0.00      0.00      84.7     0.46      1013.0     4       196         5       188        9.14     267      -84.5
   07/07/2016 20:00      78.9      77.7       44     54.6      0.00      0.00      84.3     0.46      1013.0     4       206         5       210        9.15     267      -82.0
   07/07/2016 19:50      80.6      79.1       43     55.5      0.00      0.00      84.2     0.46      1013.0     2       176         4       180        9.15     268      -78.9
   07/07/2016 19:40      81.8      80.8       43     56.7      0.00      0.00      84.3     0.46      1012.0     2       253         3       263        9.15     268      -67.7
   07/07/2016 19:30      82.4      81.8       42     56.7      0.00      0.00      84.7     0.46      1012.0     2       271         3       293        9.16     268      -48.7
   07/07/2016 19:20      82.6      82.3       42     56.7      0.00      0.00      84.6     0.46      1012.0     3       276         5       319        9.16     268      -29.4
   07/07/2016 19:10      82.4      81.6       42     56.5      0.00      0.00      84.5     0.46      1012.0     3       296         5       295        9.17     267       -9.2
   07/07/2016 19:00      81.9      81.5       42     56.5      0.00      0.00      84.3     0.46      1012.0     4       299         5       330        9.17     268       11.6
   07/07/2016 18:50      82.0      81.8       42     56.4      0.00      0.00      84.5     0.46      1012.0     4       329         6       311        9.17     267       32.5
   07/07/2016 18:40      82.0      81.5       42     56.2      0.00      0.00      84.3     0.46      1012.0     4       292         6       288        9.17     267       55.1
   07/07/2016 18:30      82.1      81.6       41     56.2      0.00      0.00      84.1     0.46      1012.0     5       305         8       304        9.18     267       77.8
   07/07/2016 18:20      82.7      82.1       41     56.6      0.00      0.00      84.4     0.46      1012.0     5       280         8       304        9.18     267      100.2
   07/07/2016 18:10      82.7      82.2       41     56.5      0.00      0.00      84.0     0.46      1012.0     4       281         8       299        9.18     267      124.1
   07/07/2016 18:00      82.8      82.5       41     56.8      0.00      0.00      84.1     0.46      1012.0     6       294        12       311        9.18     267      146.9
   07/07/2016 17:50      83.3      82.5       41     56.6      0.00      0.00      84.2     0.46      1012.0     5       296        10       320        9.18     267      171.2
   07/07/2016 17:40      82.9      82.3       41     56.6      0.00      0.00      84.0     0.46      1012.0     7       305         8       315        9.18     267      194.7
   07/07/2016 17:30      83.2      82.8       41     56.6      0.00      0.00      83.9     0.46      1013.0     6       304         8       309        9.18     267      219.3
   07/07/2016 17:20      83.7      82.8       41     57.1      0.00      0.00      83.8     0.46      1013.0     7       325        13       327        9.18     267      241.0
   07/07/2016 17:10      84.5      83.7       40     57.5      0.00      0.00      84.1     0.46      1013.0     6       317        10       316        9.18     266      259.5
   07/07/2016 17:00      85.4      84.5       40     57.8      0.00      0.00      83.7     0.46      1013.0     6       306        10       325        9.18     266      277.6
   07/07/2016 16:50      85.9      84.8       34     53.9      0.00      0.00      83.7     0.46      1013.0     5       171         7       161        9.18     266      298.8
   07/07/2016 16:40      85.6      84.7       33     52.9      0.00      0.00      83.9     0.46      1013.0     4       181         7       210        9.18     266      319.7
   07/07/2016 16:30      85.1      84.0       33     52.5      0.00      0.00      83.7     0.46      1013.0     6       188         8       158        9.18     266      340.5
   07/07/2016 16:20      85.0      83.7       34     52.8      0.00      0.00      83.6     0.46      1013.0     5       208         9       188        9.18     266      358.2
   07/07/2016 16:10      85.6      84.6       35     54.2      0.00      0.00      83.5     0.46      1013.0     5       172         7       177        9.18     266      375.4
   07/07/2016 16:00      85.7      85.2       35     54.5      0.00      0.00      83.3     0.46      1013.0     6       202         8       236        9.18     267      390.5
   07/07/2016 15:50      85.5      84.8       35     54.3      0.00      0.00      83.3     0.46      1013.0     5       180         8       136        9.18     267      406.4
   07/07/2016 15:40      86.3      84.5       35     54.8      0.00      0.00      83.2     0.46      1013.0     6       168         9       175        9.18     267      421.5
   07/07/2016 15:30      85.2      84.6       36     55.1      0.00      0.00      83.2     0.46      1013.0     5       153         8       145        9.18     268      439.8
   07/07/2016 15:20      85.2      84.7       37     55.4      0.00      0.00      83.1     0.46      1013.0     5       160         8       137        9.18     268      455.1
   07/07/2016 15:10      85.6      84.9       37     56.0      0.00      0.00      82.9     0.46      1013.0     6       153        10       157        9.18     268      466.8
   07/07/2016 15:00      87.6      85.8       37     57.1      0.00      0.00      83.1     0.46      1013.0     5       136         9       122        9.18     268      476.8
   07/07/2016 14:50      87.7      86.1       38     57.7      0.00      0.00      82.9     0.46      1013.0     4        82         8        69        9.18     269      489.6
   07/07/2016 14:40      88.3      86.2       38     58.1      0.00      0.00      82.8     0.46      1013.0     4        79         9       125        9.18     270      496.0
   07/07/2016 14:30      87.4      85.7       38     57.8      0.00      0.00      83.0     0.46      1013.0     3        39         6        66        9.18     270      500.9
   07/07/2016 14:20      87.6      85.4       38     57.7      0.00      0.00      82.9     0.46      1013.0     4        48         6       352        9.18     270      509.3
   07/07/2016 14:10      86.3      84.9       38     57.5      0.00      0.00      82.7     0.46      1013.0     5       353         8       358        9.18     270      511.6
   07/07/2016 14:00      86.3      85.0       38     57.1      0.00      0.00      82.8     0.46      1014.0     4         7         5        54        9.18     271      524.5
   07/07/2016 13:50      85.5      84.4       38     56.9      0.00      0.00      82.8     0.45      1014.0     4         2         7       346        9.18     271      533.7
   07/07/2016 13:40      85.0      83.6       39     56.8      0.00      0.00      82.7     0.45      1014.0     3       359         5        70        9.18     272      543.3
   07/07/2016 13:30      84.8      83.7       39     57.1      0.00      0.00      82.7     0.45      1014.0     3        11         5        22        9.18     276      545.6
   07/07/2016 13:20      84.3      81.5       41     56.9      0.00      0.00      82.4     0.45      1014.0     2       316         4       308        9.18     287      551.0
   07/07/2016 13:10      82.5      81.1       43     56.9      0.00      0.00      82.6     0.45      1014.0     4        61         7        22        9.18     303      558.4
   07/07/2016 13:00      82.0      81.4       43     57.2      0.00      0.00      82.4     0.45      1014.0     4       355         6       349        9.19     321      556.2
   07/07/2016 12:50      81.6      80.5       45     57.4      0.00      0.00      82.8     0.45      1014.0     3       342         5       336        9.18     328      558.8
   07/07/2016 12:40      82.5      81.2       45     58.1      0.00      0.00      82.9     0.46      1014.0     3        40         5        27        9.18     335      561.1
   07/07/2016 12:30      80.8      79.3       48     58.4      0.00      0.00      82.8     0.46      1014.0     3       337         7        12        9.18     338      560.7
   07/07/2016 12:20      79.2      77.7       50     58.3      0.00      0.00      82.9     0.46      1015.0     2       317         4       336        9.18     345      557.7
   07/07/2016 12:10      78.4      77.3       51     58.4      0.00      0.00      83.1     0.46      1015.0     3       341         5        74        9.18     350      555.7
   07/07/2016 12:00      77.6      76.0       53     58.4      0.00      0.00      82.6     0.46      1015.0     3        11         5         1        9.18     353      551.2
   07/07/2016 11:50      76.3      75.6       55     58.4      0.00      0.00      82.6     0.46      1015.0     3       325         6       345        9.18     359      547.7
   07/07/2016 11:40      75.3      74.1       56     58.4      0.00      0.00      82.8     0.46      1015.0     4       338         5       340        9.18     360      541.6
   07/07/2016 11:30      75.5      74.8       56     58.4      0.00      0.00      83.0     0.46      1015.0     2       188         4       270        9.18     362      537.1
   07/07/2016 11:20      74.8      72.9       58     58.5      0.00      0.00      83.0     0.46      1015.0     4       337         5       343        9.18     364      528.0
   07/07/2016 11:10      73.2      71.6       61     58.1      0.00      0.00      82.3     0.46      1015.0     4       320         7       325        9.18     366      521.2
   07/07/2016 11:00      72.0      71.3       62     58.1      0.00      0.00      82.5     0.46      1015.0     3       355         6         2        9.18     369      514.9
   07/07/2016 10:50      72.5      71.7       62     58.3      0.00      0.00      82.6     0.46      1015.0     4        43         5        23        9.18     374      507.4
   07/07/2016 10:40      72.0      69.9       64     58.2      0.00      0.00      82.6     0.46      1015.0     2         5         4        25        9.18     379      503.8
   07/07/2016 10:30      70.5      68.7       67     58.0      0.00      0.00      83.1     0.46      1016.0     3        25         5       350        9.18     374      430.5
   07/07/2016 10:20      69.2      68.7       68     57.9      0.00      0.00      83.7     0.46      1016.0     3        45         5       133        9.18     375      245.3
   07/07/2016 10:10      68.5      66.7       71     57.9      0.00      0.00      83.4     0.46      1016.0     2         2         3         0        9.18     380      242.1
   07/07/2016 10:00      66.6      66.4       73     57.7      0.00      0.00      83.0     0.46      1016.0     2        55         4       358        9.18     380      192.1
   07/07/2016 09:50      66.4      66.1       74     57.6      0.00      0.00      82.8     0.46      1016.0     2       122         4       131        9.18     382      164.3
   07/07/2016 09:40      66.5      66.1       74     57.6      0.00      0.00      83.2     0.46      1016.0     2        35         3        33        9.18     385      178.7
   07/07/2016 09:30      66.4      65.2       75     57.8      0.00      0.00      83.3     0.46      1016.0     2        42         3        49        9.18     388      145.4
   07/07/2016 09:20      65.5      65.2       76     57.7      0.00      0.00      83.2     0.46      1016.0     2        46         4        40        9.18     387      119.8
   07/07/2016 09:10      65.2      64.3       78     57.9      0.00      0.00      82.9     0.46      1016.0     2        57         3        32        9.18     388      102.8
   07/07/2016 09:00      64.4      63.4       80     57.5      0.00      0.00      83.3     0.46      1016.0     2        96         5       129        9.18     399       84.4
   07/07/2016 08:50      63.5      63.5       81     57.4      0.00      0.00      83.6     0.46      1016.0     3       124         3       124        9.15     269       78.7
   07/07/2016 08:40      62.9      62.5       82     57.1      0.00      0.00      83.0     0.46      1015.0     3       119         6       124        9.15     268       59.0
   07/07/2016 08:30      62.8      62.4       83     57.3      0.00      0.00      83.5     0.46      1015.0     3       106         5       109        8.26     268       44.3
   07/07/2016 08:20      62.9      62.4       83     57.3      0.00      0.00      83.1     0.46      1015.0     3       109         5       143        8.26     268       37.3
   07/07/2016 08:10      63.2      62.8       82     57.4      0.00      0.00      83.2     0.46      1015.0     2        92         5       107        8.26     268       36.8
   07/07/2016 08:00      62.9      62.3       83     57.2      0.00      0.00      83.6     0.46      1015.0     2       129         4        96        8.26     268       36.9
   07/07/2016 07:50      62.4      62.0       83     57.1      0.00      0.00      83.6     0.46      1015.0     1       168         2       164        8.26     268       34.5
   07/07/2016 07:40      62.3      61.8       84     57.1      0.00      0.00      83.5     0.46      1015.0     2       189         3       156        8.26     268       29.2
   07/07/2016 07:30      62.0      61.6       85     57.1      0.00      0.00      83.2     0.46      1015.0     1       168         3       182        8.26     268       23.1
   07/07/2016 07:20      61.8      61.6       85     57.1      0.00      0.00      83.6     0.46      1015.0     3       146         4       136        8.26     268       14.3
   07/07/2016 07:10      61.8      61.4       85     57.1      0.00      0.00      83.6     0.46      1015.0     1       156         3       141        8.26     268        9.4
   07/07/2016 07:00      61.7      61.4       85     57.0      0.00      0.00      83.7     0.46      1015.0     2       150         4       143        8.26     268        4.2
   07/07/2016 06:50      61.5      61.2       86     57.1      0.00      0.00      83.7     0.46      1015.0     1       171         2       219        8.26     268        0.9
   07/07/2016 06:40      61.5      61.2       86     57.2      0.00      0.00      83.6     0.46      1014.0     1       132         2       136        8.26     268       -2.5
   07/07/2016 06:30      61.2      60.9       87     57.0      0.00      0.00      83.5     0.46      1014.0     1       151         2       144        8.26     268       -5.0
   07/07/2016 06:20      61.0      60.8       87     56.9      0.00      0.00      83.6     0.46      1014.0     1       185         2       201        8.27     268       -8.0
   07/07/2016 06:10      60.9      60.6       87     56.9      0.00      0.00      83.7     0.46      1014.0     2       157         3       137        8.27     268      -10.5
   07/07/2016 06:00      60.9      60.6       86     56.7      0.00      0.00      83.8     0.46      1014.0     2       150         3       161        8.27     268      -12.3
   07/07/2016 05:50      60.9      60.4       87     56.5      0.00      0.00      83.7     0.46      1014.0     2       158         3       164        8.27     268      -13.1
   07/07/2016 05:40      60.7      60.4       87     56.7      0.00      0.00      84.1     0.46      1014.0     2       139         3       153        8.27     268      -13.4
   07/07/2016 05:30      60.6      60.1       88     56.7      0.00      0.00      84.3     0.46      1014.0     2       120         2       111        8.27     268      -13.3
   07/07/2016 05:20      60.4      60.1       88     56.8      0.00      0.00      84.2     0.46      1014.0     2       128         4       155        8.27     268      -13.1
   07/07/2016 05:10      60.4      60.1       88     56.8      0.00      0.00      84.2     0.46      1014.0     3       132         5       128        8.27     268      -12.9
   07/07/2016 05:00      60.5      60.3       87     56.7      0.00      0.00      84.0     0.46      1014.0     2        95         4       109        8.27     268      -13.1
   07/07/2016 04:50      60.6      60.5       88     57.0      0.00      0.00      84.1     0.46      1014.0     2        66         4        80        8.28     268      -13.2
   07/07/2016 04:40      60.6      60.3       89     57.2      0.00      0.00      84.2     0.46      1014.0     2        47         3        29        8.28     268      -13.5
   07/07/2016 04:30      60.7      60.4       89     57.2      0.00      0.00      84.3     0.46      1014.0     2        35         2        65        8.28     268      -13.6
   07/07/2016 04:20      60.6      60.4       89     57.2      0.00      0.00      84.0     0.46      1014.0     3        27         4        34        8.28     268      -13.1
   07/07/2016 04:10      60.5      60.0       89     57.2      0.00      0.00      84.4     0.46      1014.0     3        49         4        42        8.28     268      -10.7
   07/07/2016 04:00      60.1      59.5       89     56.6      0.00      0.00      84.3     0.46      1014.0     2        51         3        87        8.28     268      -22.5
   07/07/2016 03:50      59.7      59.4       89     56.2      0.00      0.00      84.7     0.46      1014.0     1        57         3        99        8.28     268      -53.3
   07/07/2016 03:40      60.0      59.7       87     56.0      0.00      0.00      84.8     0.47      1014.0     1        78         2       102        8.28     268      -58.5
   07/07/2016 03:30      60.3      59.9       86     56.0      0.00      0.00      84.4     0.47      1014.0     2        79         3        85        8.28     268      -59.6
   07/07/2016 03:20      60.6      60.4       85     56.0      0.00      0.00      84.4     0.47      1014.0     2        64         3        64        8.28     268      -61.3
   07/07/2016 03:10      60.9      60.8       85     56.2      0.00      0.00      84.7     0.47      1014.0     1        52         2        41        8.28     268      -62.1
   07/07/2016 03:00      61.1      60.7       84     56.1      0.00      0.00      84.4     0.47      1014.0     2        55         3        68        8.28     268      -63.0
   07/07/2016 02:50      61.3      61.0       83     56.1      0.00      0.00      84.7     0.47      1013.0     2        61         2        74        8.28     267      -63.5
   07/07/2016 02:40      61.5      61.3       83     56.2      0.00      0.00      84.7     0.47      1013.0     1        49         2        68        8.28     267      -63.4
   07/07/2016 02:30      61.8      61.4       83     56.4      0.00      0.00      84.5     0.47      1013.0     1        66         2        89        8.28     267      -63.9
   07/07/2016 02:20      61.9      61.6       83     56.5      0.00      0.00      84.7     0.47      1013.0     1        56         2        47        8.28     267      -64.2
   07/07/2016 02:10      61.9      61.8       82     56.3      0.00      0.00      84.6     0.47      1014.0     2        76         2        97        8.29     267      -64.9
   07/07/2016 02:00      62.4      62.0       81     56.3      0.00      0.00      85.0     0.47      1014.0     1        84         2        71        8.29     267      -65.3
   07/07/2016 01:50      62.4      62.2       80     56.1      0.00      0.00      84.7     0.47      1014.0     1        85         2        88        8.29     267      -65.8
   07/07/2016 01:40      62.6      62.4       79     56.0      0.00      0.00      84.9     0.47      1014.0     1        95         1        73        8.29     267      -66.0
   07/07/2016 01:30      62.7      62.5       79     55.8      0.00      0.00      84.9     0.47      1014.0     1        91         2        86        8.29     267      -66.2
   07/07/2016 01:20      62.7      62.5       77     55.4      0.00      0.00      84.8     0.47      1014.0     1        80         2        69        8.29     267      -65.7
   07/07/2016 01:10      62.9      62.8       77     55.5      0.00      0.00      85.0     0.47      1014.0     1        96         1       127        8.29     267      -64.7
   07/07/2016 01:00      63.1      62.8       77     55.7      0.00      0.00      85.2     0.47      1014.0     1        86         2        83        8.29     267      -65.4
   07/07/2016 00:50      62.9      62.7       76     55.1      0.00      0.00      84.8     0.47      1014.0     1        95         2        80        8.29     267      -65.3
   07/07/2016 00:40      63.1      62.8       76     55.3      0.00      0.00      84.8     0.47      1014.0     0       114         1       112        8.29     266      -65.8
   07/07/2016 00:30      63.4      63.0       75     55.3      0.00      0.00      84.8     0.47      1014.0     1       131         1       128        8.29     266      -66.6
   07/07/2016 00:20      63.5      63.4       75     55.4      0.00      0.00      85.3     0.47      1014.0     1       142         2       138        8.29     266      -66.7
   07/07/2016 00:10      64.0      63.5       74     55.4      0.00      0.00      85.2     0.47      1014.0     1       134         1       145        8.29     266      -67.3
   07/07/2016 00:00      64.3      63.9       74     55.5      0.00      0.00      85.0     0.47      1014.0     0       135         1       149        8.29     266      -67.7
   07/06/2016 23:50      64.4      64.2       73     55.4      0.00      0.00      85.2     0.47      1014.0     0       139         1       104        8.29     266      -68.3
   07/06/2016 23:40      64.9      64.5       72     55.4      0.00      0.00      85.1     0.47      1014.0     1       113         1       115        8.29     266      -68.9
   07/06/2016 23:30      65.2      64.9       71     55.4      0.00      0.00      85.2     0.47      1014.0     1       104         1        90        8.30     266      -69.2
   07/06/2016 23:20      65.5      65.2       71     55.6      0.00      0.00      85.2     0.47      1014.0     1       104         1        95        8.30     266      -70.2
   07/06/2016 23:10      65.8      65.6       70     55.8      0.00      0.00      85.1     0.47      1014.0     1       113         1        98        8.30     266      -71.1
   07/06/2016 23:00      66.3      66.0       69     55.7      0.00      0.00      85.3     0.47      1014.0     2        76         2        71        8.30     265      -70.7
   07/06/2016 22:50      66.8      66.4       67     55.4      0.00      0.00      85.2     0.47      1014.0     1        81         2        77        8.30     265      -71.1
   07/06/2016 22:40      67.0      66.7       65     54.9      0.00      0.00      85.2     0.47      1014.0     1        59         2        75        8.30     265      -71.3
   07/06/2016 22:30      67.2      67.0       64     54.3      0.00      0.00      85.3     0.47      1014.0     2       147         3       149        8.30     265      -71.3
   07/06/2016 22:20      67.3      67.2       63     54.3      0.00      0.00      85.5     0.47      1014.0     2       153         3       147        8.30     265      -72.0
   07/06/2016 22:10      67.8      67.4       62     54.3      0.00      0.00      85.4     0.47      1014.0     2       155         3       150        8.30     265      -72.5
   07/06/2016 22:00      67.9      67.7       62     54.4      0.00      0.00      85.2     0.47      1014.0     1       151         2       150        8.30     265      -72.9
   07/06/2016 21:50      68.1      67.9       62     54.4      0.00      0.00      85.4     0.47      1014.0     3       163         4       157        8.30     265      -73.8
   07/06/2016 21:40      68.4      68.0       61     54.4      0.00      0.00      85.4     0.47      1014.0     3       164         4       144        8.31     265      -74.6
   07/06/2016 21:30      68.8      68.4       60     54.4      0.00      0.00      85.5     0.47      1014.0     3       163         4       146        8.31     264      -75.2
   07/06/2016 21:20      69.2      69.0       60     54.5      0.00      0.00      85.3     0.47      1014.0     3       168         4       172        8.31     264      -75.7
   07/06/2016 21:10      69.3      69.1       59     54.4      0.00      0.00      85.5     0.47      1014.0     4       171         5       178        8.31     264      -76.3
   07/06/2016 21:00      69.6      69.3       58     54.1      0.00      0.00      85.4     0.47      1014.0     3       161         6       152        8.31     264      -77.3
   07/06/2016 20:50      70.1      69.8       57     53.9      0.00      0.00      85.1     0.47      1013.0     4       175         5       152        8.31     264      -78.2
   07/06/2016 20:40      70.5      70.2       55     53.4      0.00      0.00      84.8     0.47      1013.0     4       183         5       163        8.32     264      -79.4
   07/06/2016 20:30      71.0      70.5       53     53.1      0.00      0.00      85.2     0.46      1013.0     3       172         5       176        8.32     264      -80.2
   07/06/2016 20:20      71.7      71.1       51     52.4      0.00      0.00      85.4     0.47      1013.0     4       171         7       169        8.32     264      -80.3
   07/06/2016 20:10      72.6      71.8       48     51.6      0.00      0.00      85.0     0.46      1013.0     4       167         6       167        8.32     263      -79.0
   07/06/2016 20:00      73.4      72.8       48     52.0      0.00      0.00      85.1     0.46      1013.0     4       178         6       160        8.32     264      -75.9
   07/06/2016 19:50      74.0      73.4       49     53.3      0.00      0.00      85.2     0.46      1013.0     3       182         5       198        8.33     263      -71.9
   07/06/2016 19:40      74.9      74.0       48     53.8      0.00      0.00      85.3     0.46      1013.0     4       188         6       185        8.33     263      -59.3
   07/06/2016 19:30      75.4      74.8       48     54.2      0.00      0.00      85.0     0.46      1013.0     4       175         5       174        8.33     263      -39.6
   07/06/2016 19:20      76.3      75.7       47     54.2      0.00      0.00      85.4     0.46      1013.0     4       178         5       193        8.33     263      -25.4
   07/06/2016 19:10      76.2      75.7       46     54.0      0.00      0.00      84.8     0.46      1013.0     4       161         5       173        8.34     263       -5.7
   07/06/2016 19:00      76.5      76.1       46     53.9      0.00      0.00      84.7     0.46      1013.0     5       168         7       168        8.34     263       12.5
   07/06/2016 18:50      77.3      76.2       45     53.8      0.00      0.00      84.7     0.46      1013.0     5       179         8       172        8.34     263       31.0
   07/06/2016 18:40      77.6      77.0       45     54.3      0.00      0.00      84.8     0.46      1013.0     6       164         8       173        8.35     263       52.5
   07/06/2016 18:30      78.2      77.8       44     54.7      0.00      0.00      84.8     0.46      1013.0     5       162         7       171        8.36     263       75.5
   07/06/2016 18:20      78.6      78.3       45     55.3      0.00      0.00      84.6     0.46      1013.0     5       170         7       177        8.37     263       97.0
   07/06/2016 18:10      79.2      78.4       44     55.1      0.00      0.00      84.6     0.46      1013.0     4       175         6       202        8.37     263      121.0
   07/06/2016 18:00      79.3      78.5       44     55.3      0.00      0.00      84.5     0.46      1013.0     5       182         6       178        8.38     263      144.7
   07/06/2016 17:50      78.7      78.0       45     55.5      0.00      0.00      84.7     0.46      1013.0     5       172         8       168        8.38     263      170.2
   07/06/2016 17:40      79.0      78.4       45     55.4      0.00      0.00      84.5     0.46      1013.0     5       180         8       199        8.39     263      194.7
   07/06/2016 17:30      79.3      78.7       44     55.3      0.00      0.00      84.6     0.46      1013.0     6       156         7       162        8.39     263      216.9
   07/06/2016 17:20      79.5      78.8       44     55.5      0.00      0.00      84.5     0.46      1013.0     5       170         7       165        8.40     263      237.2
   07/06/2016 17:10      79.9      79.2       44     55.7      0.00      0.00      84.3     0.46      1013.0     6       162         8       149        8.40     262      258.3
   07/06/2016 17:00      79.9      79.3       44     55.9      0.00      0.00      84.2     0.46      1013.0     5       172         6       176        8.41     263      281.5
   07/06/2016 16:50      80.2      79.0       44     55.8      0.00      0.00      84.2     0.46      1013.0     6       185         8       178        8.41     263      304.4
   07/06/2016 16:40      80.3      79.7       44     56.1      0.00      0.00      84.0     0.46      1013.0     5       172         8       158        8.42     263      318.9
   07/06/2016 16:30      80.9      79.1       44     56.3      0.00      0.00      84.1     0.46      1013.0     7       161         9       130        8.43     263      340.5
   07/06/2016 16:20      81.2      80.1       44     56.5      0.00      0.00      83.9     0.46      1013.0     6       169         8       171        8.43     263      361.7
   07/06/2016 16:10      81.4      79.9       44     56.7      0.00      0.00      84.0     0.46      1013.0     8       163        14       164        8.44     263      378.8
   07/06/2016 16:00      82.0      81.1       43     56.9      0.00      0.00      83.9     0.46      1013.0     6       193         7       153        8.44     264      393.8
   07/06/2016 15:50      84.0      82.2       41     57.2      0.00      0.00      83.9     0.46      1013.0     5       173        10       212        8.44     264      405.4
   07/06/2016 15:40      84.0      82.8       41     57.2      0.00      0.00      83.7     0.46      1013.0     6       162        10       147        8.45     264      419.0
   07/06/2016 15:30      83.4      82.2       41     57.2      0.00      0.00      83.6     0.46      1013.0     5       187         8       219        8.45     264      433.4
   07/06/2016 15:20      84.0      82.3       41     57.1      0.00      0.00      83.8     0.46      1013.0     5       160         8       158        8.45     264      448.9
   07/06/2016 15:10      83.2      82.3       42     57.2      0.00      0.00      83.6     0.46      1013.0     5       145         8       161        8.45     264      463.5
   07/06/2016 15:00      82.3      81.6       43     57.2      0.00      0.00      83.5     0.46      1013.0     5       169         8       138        8.46     264      476.8
   07/06/2016 14:50      83.4      81.8       42     57.2      0.00      0.00      83.3     0.46      1013.0     6       168         9       154        8.46     264      484.4
   07/06/2016 14:40      84.5      82.4       42     57.7      0.00      0.00      83.4     0.46      1013.0     4       132         8       207        8.46     265      492.4
   07/06/2016 14:30      84.3      83.6       41     57.7      0.00      0.00      83.2     0.46      1013.0     4        71         5        84        8.46     265      501.7
   07/06/2016 14:20      83.4      82.8       42     57.5      0.00      0.00      83.2     0.45      1014.0     4        78         6        79        8.46     265      509.7
   07/06/2016 14:10      83.8      83.3       42     57.8      0.00      0.00      83.0     0.45      1014.0     4        78         7       112        8.47     265      517.6
   07/06/2016 14:00      83.8      83.2       41     57.4      0.00      0.00      83.3     0.45      1014.0     4        56         6        57        8.47     266      523.6
   07/06/2016 13:50      83.5      82.9       38     55.1      0.00      0.00      83.2     0.45      1014.0     3        32         6         4        8.47     266      532.4
   07/06/2016 13:40      82.9      81.9       40     55.5      0.00      0.00      83.0     0.45      1014.0     3        81         5        69        8.47     266      540.4
   07/06/2016 13:30      82.6      81.0       41     56.2      0.00      0.00      83.1     0.45      1014.0     3        48         7       116        8.47     267      545.7
   07/06/2016 13:20      82.4      80.2       42     56.1      0.00      0.00      83.0     0.45      1014.0     3        26         6        74        8.48     267      552.3
   07/06/2016 13:10      81.6      80.7       43     56.8      0.00      0.00      83.0     0.45      1014.0     3        58         5        54        8.48     267      562.2
   07/06/2016 13:00      81.1      78.5       46     57.0      0.00      0.00      83.0     0.45      1014.0     3        11         6        26        8.48     267      565.1
   07/06/2016 12:50      79.8      78.4       47     56.9      0.00      0.00      82.9     0.45      1015.0     2       298         5         6        8.48     267      560.8
   07/06/2016 12:40      80.0      78.1       47     57.2      0.00      0.00      82.9     0.45      1015.0     3        39         5       344        8.48     267      556.1
   07/06/2016 12:30      78.7      77.5       49     57.2      0.00      0.00      82.8     0.45      1015.0     4       356         6       332        8.48     268      547.9
   07/06/2016 12:20      77.8      76.2       50     57.0      0.00      0.00      82.9     0.45      1015.0     2         5         4         1        8.48     269      550.3
   07/06/2016 12:10      76.9      75.8       51     57.0      0.00      0.00      82.8     0.45      1015.0     3       330         4       325        8.48     269      547.5
   07/06/2016 12:00      76.8      75.6       52     57.0      0.00      0.00      82.8     0.45      1015.0     3        31         4         0        8.48     269      542.7
   07/06/2016 11:50      76.2      73.9       54     56.8      0.00      0.00      82.7     0.45      1015.0     2        74         4        42        8.48     270      535.8
   07/06/2016 11:40      74.7      73.7       54     56.7      0.00      0.00      83.0     0.46      1015.0     2        48         5        29        8.48     270      531.3
   07/06/2016 11:30      74.3      73.6       55     56.9      0.00      0.00      82.9     0.46      1015.0     3        17         7        16        8.49     270      525.4
   07/06/2016 11:20      74.1      72.3       57     56.7      0.00      0.00      83.1     0.46      1015.0     3       348         4        21        8.49     269      518.1
   07/06/2016 11:10      73.7      72.1       57     56.6      0.00      0.00      83.2     0.46      1015.0     3        69         4        72        8.49     269      506.4
   07/06/2016 11:00      73.4      71.2       58     56.7      0.00      0.00      83.1     0.46      1015.0     3       343         5       338        8.49     270      498.6
   07/06/2016 10:50      71.5      71.0       60     56.5      0.00      0.00      83.1     0.46      1015.0     4       349         7        13        8.49     271      485.8
   07/06/2016 10:40      70.6      69.8       61     56.3      0.00      0.00      83.3     0.46      1016.0     3       347         8         6        8.49     271      475.2
   07/06/2016 10:30      70.0      69.5       62     56.1      0.00      0.00      83.2     0.46      1016.0     2       125         5        74        8.49     271      462.4
   07/06/2016 10:20      69.4      68.2       64     56.2      0.00      0.00      83.2     0.46      1016.0     3       346         6         1        8.49     271      474.8
   07/06/2016 10:10      68.5      67.1       67     56.0      0.00      0.00      83.5     0.46      1016.0     3        78         4       353        8.49     271      375.9
   07/06/2016 10:00      68.6      67.0       66     56.0      0.00      0.00      83.4     0.46      1016.0     4        88         7        58        8.49     271      377.1
   07/06/2016 09:50      66.8      65.0       70     55.9      0.00      0.00      83.3     0.46      1016.0     2       115         4       164        8.49     272      348.8
   07/06/2016 09:40      66.0      65.0       71     55.7      0.00      0.00      83.5     0.46      1016.0     3       140         5        81        8.49     272      190.9
   07/06/2016 09:30      66.3      65.6       71     56.1      0.00      0.00      83.5     0.46      1016.0     3        76         6       139        8.49     274      172.4
   07/06/2016 09:20      65.8      64.9       73     56.2      0.00      0.00      83.5     0.46      1016.0     2        55         3       163        8.49     276      147.4
   07/06/2016 09:10      65.0      64.4       74     56.1      0.00      0.00      83.5     0.47      1016.0     2        29         3        45        8.49     279      102.1
   07/06/2016 09:00      64.5      64.0       75     56.3      0.00      0.00      83.4     0.47      1016.0     2        88         3       129        8.49     281       74.4
   07/06/2016 08:50      64.1      63.9       76     56.2      0.00      0.00      83.4     0.47      1016.0     2       104         3       123        8.49     282       64.1
   07/06/2016 08:40      64.3      63.6       76     56.3      0.00      0.00      83.3     0.47      1016.0     1        68         2       112        8.49     283       56.7
   07/06/2016 08:30      63.8      63.4       78     56.4      0.00      0.00      83.6     0.47      1016.0     2        73         3       119        8.49     284       35.9
   07/06/2016 08:20      63.5      63.0       79     56.5      0.00      0.00      83.5     0.47      1016.0     2        38         4        86        8.49     285       28.6
   07/06/2016 08:10      63.2      62.8       80     56.7      0.00      0.00      83.4     0.47      1016.0     2        75         3        87        8.49     286       22.1
   07/06/2016 08:00      62.8      62.2       81     56.7      0.00      0.00      83.6     0.47      1016.0     2        87         4       131        8.50     286       17.3
   07/06/2016 07:50      62.1      61.7       83     56.8      0.00      0.00      83.5     0.47      1016.0     2       162         3       140        8.50     287       12.4
   07/06/2016 07:40      62.1      61.8       83     56.8      0.00      0.00      83.7     0.47      1016.0     2       133         4       129        8.50     287        8.0
   07/06/2016 07:30      62.3      62.0       83     56.8      0.00      0.00      83.8     0.47      1016.0     1        84         2       153        8.50     287        4.0
   07/06/2016 07:20      62.2      61.8       83     56.7      0.00      0.00      83.5     0.47      1016.0     2        47         3        34        8.50     287        3.5
   07/06/2016 07:10      61.9      61.5       83     56.6      0.00      0.00      84.0     0.47      1016.0     3        79         4        92        8.50     287        1.5
   07/06/2016 07:00      61.9      61.5       83     56.6      0.00      0.00      84.0     0.47      1016.0     3        96         4        71        8.50     287       -1.3
   07/06/2016 06:50      61.6      61.3       84     56.5      0.00      0.00      83.6     0.47      1016.0     3        97         4        58        8.50     287       -4.1
   07/06/2016 06:40      61.4      61.1       84     56.5      0.00      0.00      83.8     0.47      1016.0     2       108         5       136        8.50     288       -7.0
   07/06/2016 06:30      61.4      61.3       84     56.5      0.00      0.00      84.1     0.47      1016.0     2       104         4       103        8.50     288       -9.0
   07/06/2016 06:20      61.4      61.1       84     56.3      0.00      0.00      83.9     0.47      1016.0     2        82         3        61        8.50     288      -10.0
   07/06/2016 06:10      61.4      61.0       83     56.0      0.00      0.00      84.1     0.47      1016.0     1        93         3       111        8.50     289      -11.5
   07/06/2016 06:00      61.3      60.8       82     55.6      0.00      0.00      84.3     0.47      1016.0     1       109         2       141        8.50     289      -12.1
   07/06/2016 05:50      61.0      60.7       82     55.5      0.00      0.00      84.2     0.47      1016.0     1        92         1        76        8.50     289      -12.7
   07/06/2016 05:40      60.9      60.3       83     55.4      0.00      0.00      84.1     0.47      1015.0     1        74         1       124        8.50     289      -13.2
   07/06/2016 05:30      60.5      60.2       84     55.4      0.00      0.00      84.5     0.47      1015.0     1        93         3        81        8.50     288      -14.8
   07/06/2016 05:20      60.3      59.4       85     55.4      0.00      0.00      84.6     0.47      1015.0     1        69         2        61        8.50     288      -16.0
   07/06/2016 05:10      59.4      58.9       86     54.9      0.00      0.00      84.7     0.47      1015.0     1        78         2        74        8.50     288      -25.1
   07/06/2016 05:00      59.2      58.9       86     54.7      0.00      0.00      85.0     0.47      1015.0     1        81         1       126        8.50     286      -36.5
   07/06/2016 04:50      59.4      59.2       87     55.4      0.00      0.00      84.5     0.47      1015.0     1       195         1       194        8.50     285      -43.3
   07/06/2016 04:40      59.4      59.1       87     55.3      0.00      0.00      84.3     0.47      1015.0     1       199         2       188        8.50     285      -45.3
   07/06/2016 04:30      59.1      58.8       87     55.0      0.00      0.00      84.7     0.47      1015.0     1       191         2       184        8.50     284      -38.3
   07/06/2016 04:20      58.8      58.4       86     54.4      0.00      0.00      85.0     0.47      1015.0     2       154         2       186        8.50     283      -52.6
   07/06/2016 04:10      58.8      58.5       85     54.3      0.00      0.00      84.7     0.47      1015.0     2       166         2       181        8.50     282      -60.2
   07/06/2016 04:00      59.1      58.8       84     54.0      0.00      0.00      84.7     0.47      1015.0     1       143         2       146        8.50     281      -62.1
   07/06/2016 03:50      59.1      58.8       82     53.6      0.00      0.00      84.9     0.47      1015.0     1       139         2       170        8.50     280      -63.0
   07/06/2016 03:40      59.5      59.2       84     54.5      0.00      0.00      84.9     0.47      1015.0     2       167         3       170        8.50     279      -62.7
   07/06/2016 03:30      60.0      59.7       84     55.2      0.00      0.00      85.6     0.47      1015.0     2       165         2       168        8.50     278      -61.1
   07/06/2016 03:20      60.5      60.0       85     55.7      0.00      0.00      84.9     0.47      1015.0     1       148         1       139        8.50     277      -60.0
   07/06/2016 03:10      60.5      60.4       85     55.9      0.00      0.00      85.4     0.47      1015.0     1       114         1        69        8.50     276      -60.8
   07/06/2016 03:00      61.1      60.6       84     56.1      0.00      0.00      85.4     0.47      1015.0     1       111         1       125        8.51     275      -60.5
   07/06/2016 02:50      61.3      61.1       85     56.6      0.00      0.00      85.0     0.47      1015.0     1        71         2        76        8.51     274      -61.7
   07/06/2016 02:40      61.4      61.2       84     56.5      0.00      0.00      84.7     0.47      1015.0     2        90         3        92        8.51     273      -62.3
   07/06/2016 02:30      61.4      61.2       84     56.3      0.00      0.00      84.7     0.47      1015.0     1        89         2       111        8.51     272      -62.8
   07/06/2016 02:20      61.7      61.4       83     56.5      0.00      0.00      84.6     0.47      1015.0     1       100         2       127        8.51     271      -63.1
   07/06/2016 02:10      61.8      61.6       83     56.5      0.00      0.00      85.0     0.47      1015.0     1       104         2        69        8.51     271      -63.5
   07/06/2016 02:00      61.9      61.7       83     56.5      0.00      0.00      85.1     0.47      1015.0     1        72         2        75        8.51     270      -63.8
   07/06/2016 01:50      62.2      61.9       82     56.5      0.00      0.00      85.2     0.47      1015.0     1        73         2       101        8.51     270      -64.4
   07/06/2016 01:40      62.5      62.2       81     56.5      0.00      0.00      85.4     0.47      1015.0     1        57         1       111        8.51     269      -65.2
   07/06/2016 01:30      62.9      62.5       81     56.6      0.00      0.00      84.9     0.47      1015.0     1        62         2        62        8.51     269      -65.7
   07/06/2016 01:20      63.2      62.8       79     56.3      0.00      0.00      85.4     0.47      1015.0     1        60         2        93        8.51     269      -66.7
   07/06/2016 01:10      63.6      63.3       76     55.9      0.00      0.00      85.3     0.47      1015.0     2        38         2        24        8.51     269      -66.8
   07/06/2016 01:00      63.5      62.9       74     54.8      0.00      0.00      85.4     0.47      1015.0     2        63         5        85        8.51     269      -65.9
   07/06/2016 00:50      63.4      63.1       72     54.1      0.00      0.00      85.6     0.47      1015.0     1        90         2        85        8.51     268      -65.7
   07/06/2016 00:40      63.4      63.3       71     54.0      0.00      0.00      85.8     0.47      1015.0     1       151         1       131        8.51     268      -65.8
   07/06/2016 00:30      63.6      63.3       72     54.1      0.00      0.00      86.1     0.47      1015.0     1       208         1       218        8.51     268      -66.0
   07/06/2016 00:20      64.0      63.7       72     54.5      0.00      0.00      85.5     0.47      1015.0     1       126         1       142        8.51     268      -67.2
   07/06/2016 00:10      64.3      63.9       71     54.6      0.00      0.00      85.6     0.47      1015.0     1       139         1       123        8.51     268      -67.9
   07/06/2016 00:00      65.0      64.5       70     54.8      0.00      0.00      85.5     0.47      1015.0     0       209         1       188        8.51     268      -67.8
   07/05/2016 23:50      65.2      64.9       71     55.3      0.00      0.00      85.8     0.47      1015.0     1       194         1       188        8.51     268      -67.1
   07/05/2016 23:40      65.3      65.1       70     55.1      0.00      0.00      85.6     0.47      1015.0     1       211         3       218        8.51     269      -68.2
   07/05/2016 23:30      65.7      65.4       69     55.0      0.00      0.00      85.8     0.47      1015.0     2       216         2       194        8.51     269      -69.6
   07/05/2016 23:20      66.1      65.7       68     55.0      0.00      0.00      85.5     0.47      1015.0     2       214         2       246        8.51     269      -70.4
   07/05/2016 23:10      66.4      66.2       67     55.0      0.00      0.00      85.8     0.47      1015.0     2       222         3       215        8.52     269      -70.8
   07/05/2016 23:00      66.8      66.4       66     54.8      0.00      0.00      85.5     0.47      1015.0     2       231         3       245        8.52     269      -71.0
   07/05/2016 22:50      66.9      66.7       66     55.0      0.00      0.00      85.5     0.47      1015.0     2       230         2       224        8.52     269      -71.2
   07/05/2016 22:40      67.0      66.6       65     54.8      0.00      0.00      85.5     0.47      1015.0     2       250         3       236        8.52     269      -71.7
   07/05/2016 22:30      67.2      66.8       65     54.9      0.00      0.00      85.6     0.47      1015.0     1       197         2       180        8.52     269      -73.0
   07/05/2016 22:20      67.4      67.2       65     55.0      0.00      0.00      85.7     0.47      1015.0     1       214         2       215        8.52     269      -73.6
   07/05/2016 22:10      67.5      67.3       64     55.0      0.00      0.00      85.5     0.47      1015.0     2       201         2       190        8.52     269      -74.2
   07/05/2016 22:00      67.7      67.5       64     55.1      0.00      0.00      85.7     0.47      1015.0     2       208         4       213        8.52     268      -74.8
   07/05/2016 21:50      68.1      67.9       63     55.1      0.00      0.00      85.5     0.47      1015.0     2       205         4       201        8.52     269      -75.3
   07/05/2016 21:40      68.3      68.1       63     55.0      0.00      0.00      85.6     0.47      1015.0     2       191         3       196        8.52     269      -76.5
   07/05/2016 21:30      68.6      68.3       62     55.1      0.00      0.00      85.7     0.47      1014.0     3       204         3       217        8.52     268      -77.3
   07/05/2016 21:20      69.1      68.6       62     55.1      0.00      0.00      85.8     0.47      1014.0     3       220         5       238        8.53     268      -78.0
   07/05/2016 21:10      69.3      69.1       61     55.2      0.00      0.00      85.7     0.47      1014.0     3       224         6       230        8.53     268      -78.5
   07/05/2016 21:00      69.7      69.3       60     55.2      0.00      0.00      85.8     0.47      1014.0     3       208         4       250        8.53     268      -79.6
   07/05/2016 20:50      69.8      69.6       60     55.3      0.00      0.00      85.5     0.47      1014.0     4       219         5       233        8.53     268      -80.1
   07/05/2016 20:40      70.5      69.9       59     55.3      0.00      0.00      85.8     0.47      1014.0     4       206         6       207        8.53     268      -80.9
   07/05/2016 20:30      71.2      70.7       58     55.4      0.00      0.00      85.6     0.47      1014.0     4       234         6       251        8.53     268      -81.3
   07/05/2016 20:20      71.9      71.3       57     55.5      0.00      0.00      85.9     0.47      1014.0     5       240         6       252        8.54     268      -81.2
   07/05/2016 20:10      72.3      71.7       56     55.5      0.00      0.00      85.4     0.47      1014.0     4       242         6       254        8.54     268      -79.9
   07/05/2016 20:00      72.9      72.4       55     55.7      0.00      0.00      85.9     0.47      1014.0     5       233         7       228        8.54     267      -77.3
   07/05/2016 19:50      73.7      73.0       54     55.6      0.00      0.00      85.7     0.47      1014.0     4       231         6       276        8.55     267      -73.6
   07/05/2016 19:40      74.8      73.7       52     55.7      0.00      0.00      85.8     0.47      1013.0     5       257         8       240        8.55     267      -61.6
   07/05/2016 19:30      75.4      74.9       51     55.7      0.00      0.00      86.0     0.47      1013.0     4       250         7       260        8.56     267      -44.2
   07/05/2016 19:20      75.8      75.2       50     55.7      0.00      0.00      85.8     0.47      1013.0     4       238         6       232        8.56     267      -27.0
   07/05/2016 19:10      76.1      75.7       49     55.8      0.00      0.00      85.3     0.47      1013.0     5       254         8       234        8.57     267       -9.1
   07/05/2016 19:00      76.4      75.6       49     55.6      0.00      0.00      85.5     0.47      1013.0     5       240         8       233        8.57     267       10.9
   07/05/2016 18:50      77.0      76.5       48     55.8      0.00      0.00      85.3     0.47      1013.0     6       262         7       258        8.58     267       30.2
   07/05/2016 18:40      77.5      76.9       47     55.8      0.00      0.00      85.3     0.47      1013.0     6       259         8       248        8.58     267       53.5
   07/05/2016 18:30      78.4      77.4       47     55.9      0.00      0.00      85.4     0.47      1013.0     6       275         9       258        8.59     267       76.9
   07/05/2016 18:20      78.8      78.1       46     55.9      0.00      0.00      85.1     0.47      1013.0     6       289        10       262        8.59     267       99.5
   07/05/2016 18:10      80.2      79.1       44     56.0      0.00      0.00      85.3     0.47      1013.0     5       291         8       286        8.59     267      119.9
   07/05/2016 18:00      80.3      79.4       44     56.0      0.00      0.00      85.1     0.47      1013.0     6       278         9       290        8.59     267      142.8
   07/05/2016 17:50      80.3      79.4       44     55.9      0.00      0.00      85.1     0.46      1013.0     6       253        10       254        8.59     266      164.9
   07/05/2016 17:40      80.6      79.9       43     56.0      0.00      0.00      85.0     0.46      1013.0     6       247        10       258        8.59     267      187.8
   07/05/2016 17:30      83.1      80.9       41     56.2      0.00      0.00      84.9     0.46      1013.0     8       256         9       286        8.59     267      209.3
   07/05/2016 17:20      83.9      83.1       40     56.4      0.00      0.00      84.8     0.46      1013.0     4       282         6       266        8.59     267      230.4
   07/05/2016 17:10      84.0      83.1       40     56.4      0.00      0.00      84.8     0.46      1013.0     5       273         7       319        8.60     267      252.7
   07/05/2016 17:00      85.6      83.4       37     55.6      0.00      0.00      84.9     0.46      1013.0     6       237         8       223        8.60     267      273.5
   07/05/2016 16:50      88.4      85.7       22     44.1      0.00      0.00      84.6     0.46      1013.0     7       334        10       296        8.60     267      282.7
   07/05/2016 16:40      88.1      84.8       27     48.2      0.00      0.00      84.7     0.46      1013.0     3        51         4       352        8.59     268      305.4
   07/05/2016 16:30      85.0      84.1       38     56.4      0.00      0.00      84.4     0.46      1013.0     3       132         5       121        8.60     267      332.0
   07/05/2016 16:20      84.6      83.4       39     56.4      0.00      0.00      84.5     0.46      1013.0     3       172         5       118        8.59     267      352.6
   07/05/2016 16:10      84.6      83.3       39     56.4      0.00      0.00      84.5     0.46      1013.0     3       174         8       174        8.59     267      371.4
   07/05/2016 16:00      83.5      82.5       40     56.3      0.00      0.00      84.5     0.46      1013.0     4       175         7       148        8.59     267      389.5
   07/05/2016 15:50      83.4      82.5       40     56.0      0.00      0.00      84.3     0.46      1013.0     6       209        12       210        8.59     267      407.6
   07/05/2016 15:40      83.9      82.8       40     56.3      0.00      0.00      84.1     0.46      1013.0     5       166         8       159        8.60     268      421.6
   07/05/2016 15:30      84.4      83.3       39     56.0      0.00      0.00      84.2     0.46      1013.0     4       135         8       129        8.60     268      435.3
   07/05/2016 15:20      84.5      82.9       39     56.3      0.00      0.00      84.0     0.46      1013.0     5       134         8       103        8.60     268      453.1
   07/05/2016 15:10      84.6      83.5       39     56.4      0.00      0.00      84.2     0.46      1013.0     5       109         8       141        8.60     268      461.6
   07/05/2016 15:00      84.9      83.2       38     56.0      0.00      0.00      83.8     0.46      1014.0     5       139         7       117        8.60     268      469.3
   07/05/2016 14:50      85.3      83.8       37     55.7      0.00      0.00      83.8     0.46      1014.0     3        67         6       116        8.60     269      477.4
   07/05/2016 14:40      84.2      83.2       38     55.5      0.00      0.00      84.0     0.46      1014.0     3       237         6       167        8.60     270      489.6
   07/05/2016 14:30      86.0      84.1       37     55.8      0.00      0.00      83.8     0.46      1014.0     4        90         7       134        8.60     278      499.8
   07/05/2016 14:20      85.0      81.7       39     55.4      0.00      0.00      83.7     0.46      1014.0     3       102         5        30        8.60     285      510.5
   07/05/2016 14:10      83.6      81.0       40     55.3      0.00      0.00      83.6     0.46      1014.0     6       125        11       122        8.60     289      521.9
   07/05/2016 14:00      85.4      83.8       36     55.1      0.00      0.00      83.7     0.46      1014.0     2       297         3       102        8.60     299      522.9
   07/05/2016 13:50      84.8      83.0       38     55.1      0.00      0.00      83.5     0.46      1014.0     4         2         5       357        8.60     300      528.5
   07/05/2016 13:40      82.9      81.5       39     55.2      0.00      0.00      83.7     0.46      1014.0     3         3         4        13        8.60     303      537.3
   07/05/2016 13:30      82.7      80.5       40     55.3      0.00      0.00      83.6     0.46      1014.0     3        32         4        67        8.60     308      549.2
   07/05/2016 13:20      81.4      79.8       42     55.4      0.00      0.00      83.5     0.46      1015.0     4       122         6       136        8.60     313      548.9
   07/05/2016 13:10      82.0      80.7       41     55.7      0.00      0.00      83.5     0.46      1015.0     4       348         7        90        8.60     314      547.4
   07/05/2016 13:00      81.9      79.7       42     55.6      0.00      0.00      83.3     0.46      1015.0     2        23         3        42        8.60     314      553.7
   07/05/2016 12:50      79.9      78.8       44     55.6      0.00      0.00      83.5     0.46      1015.0     3        85         5        84        8.60     315      551.4
   07/05/2016 12:40      79.7      78.2       45     55.7      0.00      0.00      83.3     0.46      1015.0     2        94         4       213        8.60     310      556.0
   07/05/2016 12:30      79.5      78.5       45     55.8      0.00      0.00      83.5     0.46      1015.0     3       351         6       356        8.60     310      553.9
   07/05/2016 12:20      78.4      76.7       47     55.7      0.00      0.00      83.8     0.46      1016.0     3       315         5       305        8.60     309      550.0
   07/05/2016 12:10      77.5      76.1       48     55.7      0.00      0.00      83.5     0.46      1016.0     3         9         5        23        8.60     313      548.4
   07/05/2016 12:00      76.7      75.7       48     55.6      0.00      0.00      83.4     0.46      1016.0     3       261         4       292        8.60     315      545.2
   07/05/2016 11:50      76.0      74.6       50     55.4      0.00      0.00      83.2     0.46      1016.0     3       350         4       250        8.60     316      536.8
   07/05/2016 11:40      76.2      74.9       50     55.5      0.00      0.00      83.7     0.46      1016.0     3       342         6       357        8.60     318      528.5
   07/05/2016 11:30      76.5      74.8       49     55.4      0.00      0.00      83.5     0.46      1016.0     3        20         5       309        8.60     320      521.3
   07/05/2016 11:20      75.0      73.9       51     55.4      0.00      0.00      83.4     0.46      1016.0     4       355         7         0        8.60     321      512.7
   07/05/2016 11:10      74.1      73.0       53     55.3      0.00      0.00      83.9     0.46      1016.0     4       325         5       311        8.60     323      501.8
   07/05/2016 11:00      73.6      72.4       53     55.2      0.00      0.00      83.6     0.46      1016.0     3       348         5        27        8.60     329      491.0
   07/05/2016 10:50      73.5      71.6       54     55.1      0.00      0.00      83.4     0.46      1016.0     3       352         5        36        8.60     337      480.0
   07/05/2016 10:40      72.6      71.8       55     55.1      0.00      0.00      83.5     0.46      1016.0     3        39         4        55        8.60     346      470.1
   07/05/2016 10:30      72.0      70.7       56     55.0      0.00      0.00      83.6     0.46      1016.0     4       342         6         4        8.59     350      458.3
   07/05/2016 10:20      71.0      69.7       58     55.0      0.00      0.00      83.5     0.46      1016.0     4       353         5       346        8.59     352      444.3
   07/05/2016 10:10      70.0      69.3       59     54.8      0.00      0.00      83.4     0.46      1016.0     5       353         7         5        8.59     352      433.7
   07/05/2016 10:00      69.9      68.7       60     54.9      0.00      0.00      83.4     0.46      1016.0     3         6         5       277        8.59     354      426.3
   07/05/2016 09:50      68.3      68.1       62     54.6      0.00      0.00      83.4     0.46      1016.0     2        49         4       323        8.58     358      367.2
   07/05/2016 09:40      69.1      68.1       61     54.7      0.00      0.00      83.6     0.46      1016.0     4       320         6       315        8.48     392      219.2
   07/05/2016 09:30      69.2      67.6       61     54.6      0.00      0.00      83.9     0.47      1016.0     2       131         3       215        7.37     267      358.6
   07/05/2016 09:20      68.1      67.3       63     54.6      0.00      0.00      84.0     0.47      1016.0     3       339         6        12        7.38     267      263.0
   07/05/2016 09:10      67.8      66.9       63     54.4      0.00      0.00      83.9     0.47      1016.0     2       352         4         8        7.38     267      416.0
   07/05/2016 09:00      66.9      66.1       65     54.4      0.00      0.00      83.5     0.47      1016.0     4       353         5       320        7.38     267      381.2
   07/05/2016 08:50      65.8      64.9       68     54.3      0.00      0.00      83.6     0.47      1016.0     3        16         4        87        7.38     267      295.8
   07/05/2016 08:40      64.9      63.9       70     54.2      0.00      0.00      83.7     0.47      1016.0     3        99         4       139        7.38     267       34.0
   07/05/2016 08:30      63.9      63.3       71     54.2      0.00      0.00      83.8     0.47      1016.0     3       126         4       137        7.38     267       78.5
   07/05/2016 08:20      63.5      62.9       72     54.0      0.00      0.00      83.9     0.47      1016.0     2       166         5       175        7.38     267       89.4
   07/05/2016 08:10      63.2      62.8       73     54.1      0.00      0.00      83.8     0.47      1016.0     3       143         5       145        7.38     267       90.0
   07/05/2016 08:00      62.9      62.5       73     54.2      0.00      0.00      83.9     0.47      1016.0     3       144         5       135        7.38     267       72.1
   07/05/2016 07:50      63.0      62.6       74     54.4      0.00      0.00      83.9     0.47      1016.0     3       121         4       143        7.38     267       52.6
   07/05/2016 07:40      62.8      62.5       75     54.7      0.00      0.00      84.1     0.47      1016.0     1        80         2       114        7.38     267       41.5
   07/05/2016 07:30      62.8      62.6       76     55.2      0.00      0.00      84.2     0.47      1016.0     1        20         3        68        7.38     267       28.9
   07/05/2016 07:20      62.7      62.2       78     55.4      0.00      0.00      84.0     0.47      1016.0     1        48         2        73        7.38     267       17.8
   07/05/2016 07:10      62.3      61.9       78     55.2      0.00      0.00      84.1     0.47      1016.0     1       143         1       198        7.39     267       11.1
   07/05/2016 07:00      61.9      61.6       79     55.2      0.00      0.00      84.7     0.47      1016.0     1        36         2        23        7.39     267        6.5
   07/05/2016 06:50      61.7      61.4       80     55.3      0.00      0.00      84.3     0.47      1016.0     1       137         2       113        7.39     267        0.7
   07/05/2016 06:40      61.6      61.2       81     55.4      0.00      0.00      84.3     0.47      1016.0     1       162         2       160        7.39     267       -4.1
   07/05/2016 06:30      61.4      61.2       81     55.4      0.00      0.00      84.3     0.47      1016.0     1       163         2       163        7.39     267       -7.6
   07/05/2016 06:20      61.5      61.2       81     55.5      0.00      0.00      84.3     0.47      1016.0     2        81         3       128        7.39     267      -10.8
   07/05/2016 06:10      61.6      61.2       81     55.7      0.00      0.00      84.4     0.47      1016.0     2        30         3        10        7.39     267      -13.8
   07/05/2016 06:00      61.5      61.1       83     56.0      0.00      0.00      84.3     0.47      1016.0     2        73         3        28        7.39     267      -15.4
   07/05/2016 05:50      61.3      61.0       84     56.2      0.00      0.00      84.1     0.47      1016.0     1       227         1       237        7.39     267      -16.1
   07/05/2016 05:40      61.2      60.9       84     56.2      0.00      0.00      84.2     0.47      1016.0     1        89         1       134        7.39     267      -16.4
   07/05/2016 05:30      61.0      60.7       84     56.1      0.00      0.00      84.5     0.47      1016.0     2       152         2       188        7.39     267      -16.3
   07/05/2016 05:20      61.2      60.9       84     56.1      0.00      0.00      84.2     0.47      1016.0     2        68         2        68        7.39     267      -16.3
   07/05/2016 05:10      61.0      60.6       85     56.2      0.00      0.00      84.6     0.47      1016.0     1        98         2       112        7.39     267      -16.1
   07/05/2016 05:00      61.1      60.8       84     56.0      0.00      0.00      84.8     0.47      1016.0     2       144         3       160        7.39     267      -16.4
   07/05/2016 04:50      61.2      60.9       83     56.0      0.00      0.00      84.7     0.47      1016.0     1        79         4        25        7.39     267      -16.4
   07/05/2016 04:40      61.1      60.7       84     56.1      0.00      0.00      84.8     0.47      1016.0     1       336         2        75        7.39     267      -16.2
   07/05/2016 04:30      61.1      60.8       84     56.0      0.00      0.00      84.6     0.47      1016.0     1       145         2       121        7.39     267      -16.3
   07/05/2016 04:20      61.0      60.9       84     56.0      0.00      0.00      84.6     0.47      1016.0     1        50         2        77        7.39     267      -16.1
   07/05/2016 04:10      61.1      60.8       84     56.1      0.00      0.00      84.7     0.47      1016.0     1        92         2       111        7.39     267      -15.8
   07/05/2016 04:00      61.0      60.7       84     56.1      0.00      0.00      84.6     0.47      1016.0     1        40         2        60        7.39     267      -15.9
   07/05/2016 03:50      61.0      60.6       85     56.0      0.00      0.00      85.0     0.47      1016.0     2        51         3        80        7.39     267      -16.0
   07/05/2016 03:40      61.0      60.8       84     55.9      0.00      0.00      84.9     0.47      1016.0     2        35         3         8        7.39     267      -17.1
   07/05/2016 03:30      61.1      60.8       84     56.2      0.00      0.00      85.0     0.47      1016.0     2        21         3       359        7.39     266      -20.7
   07/05/2016 03:20      60.9      60.6       85     56.2      0.00      0.00      84.9     0.47      1016.0     1        48         3        22        7.39     267      -26.7
   07/05/2016 03:10      61.1      60.9       84     56.1      0.00      0.00      85.2     0.47      1016.0     1        70         2        56        7.39     266      -33.3
   07/05/2016 03:00      61.3      60.9       84     56.2      0.00      0.00      85.0     0.47      1016.0     1        38         3         8        7.39     266      -41.5
   07/05/2016 02:50      60.9      60.3       83     55.3      0.00      0.00      84.9     0.47      1016.0     1        32         3        27        7.39     266      -35.3
   07/05/2016 02:40      60.3      59.9       81     54.3      0.00      0.00      85.1     0.47      1016.0     1       160         1       154        7.39     266      -32.7
   07/05/2016 02:30      60.1      59.7       83     54.5      0.00      0.00      85.3     0.47      1016.0     1       163         1       163        7.39     266      -35.3
   07/05/2016 02:20      59.9      59.7       83     54.6      0.00      0.00      85.2     0.47      1016.0     1       182         1       224        7.39     266      -44.4
   07/05/2016 02:10      60.4      60.1       83     55.1      0.00      0.00      85.4     0.47      1016.0     1       107         1       101        7.39     266      -61.2
   07/05/2016 02:00      60.6      60.3       83     55.2      0.00      0.00      85.1     0.47      1016.0     1       106         1       142        7.39     266      -62.7
   07/05/2016 01:50      60.6      60.4       83     55.5      0.00      0.00      85.4     0.47      1016.0     1       149         1       123        7.39     266      -62.3
   07/05/2016 01:40      60.8      60.5       83     55.4      0.00      0.00      85.4     0.47      1016.0     0       111         1       116        7.39     266      -64.1
   07/05/2016 01:30      61.0      60.5       82     55.4      0.00      0.00      85.1     0.47      1016.0     1        84         1        91        7.39     266      -66.0
   07/05/2016 01:20      60.9      60.6       82     55.1      0.00      0.00      85.3     0.47      1016.0     1       132         1       114        7.39     266      -68.0
   07/05/2016 01:10      61.0      60.9       80     54.9      0.00      0.00      85.4     0.47      1016.0     1       106         2       104        7.39     265      -69.2
   07/05/2016 01:00      61.2      60.9       80     55.0      0.00      0.00      85.5     0.47      1016.0     1       120         1       102        7.39     265      -69.4
   07/05/2016 00:50      61.4      61.2       81     55.3      0.00      0.00      85.4     0.47      1016.0     1       116         2       106        7.39     265      -69.8
   07/05/2016 00:40      61.6      61.2       80     55.2      0.00      0.00      85.3     0.47      1016.0     1       121         1       121        7.39     265      -71.4
   07/05/2016 00:30      61.8      61.5       79     55.0      0.00      0.00      85.5     0.47      1016.0     1       131         1       127        7.39     265      -72.0
   07/05/2016 00:20      62.0      61.7       78     55.0      0.00      0.00      85.6     0.47      1016.0     1       136         1       130        7.39     265      -72.9
   07/05/2016 00:10      62.2      62.0       77     54.8      0.00      0.00      85.4     0.47      1016.0     1       132         1       112        7.39     265      -74.1
   07/05/2016 00:00      62.7      62.2       76     54.9      0.00      0.00      85.4     0.47      1016.0     1       163         1       193        7.39     265      -74.7
   07/04/2016 23:50      63.1      62.8       76     55.1      0.00      0.00      85.6     0.47      1016.0     0       142         1       139        7.39     265      -75.6
   07/04/2016 23:40      63.2      62.8       73     54.3      0.00      0.00      85.8     0.47      1016.0     1       105         2       107        7.39     265      -77.8
   07/04/2016 23:30      63.8      63.2       71     54.0      0.00      0.00      85.3     0.47      1016.0     1       111         2       116        7.39     265      -78.6
   07/04/2016 23:20      64.3      63.9       71     54.7      0.00      0.00      85.8     0.47      1016.0     1        87         1       127        7.39     265      -79.2
   07/04/2016 23:10      64.9      64.4       70     54.6      0.00      0.00      85.4     0.47      1016.0     1        83         2        82        7.39     265      -80.1
   07/04/2016 23:00      65.3      64.8       70     55.0      0.00      0.00      85.4     0.47      1016.0     1       103         2        90        7.39     265      -81.3
   07/04/2016 22:50      65.8      65.3       68     54.8      0.00      0.00      85.7     0.47      1016.0     1        79         2        65        7.39     265      -82.1
   07/04/2016 22:40      66.7      66.1       65     54.3      0.00      0.00      85.6     0.47      1016.0     1        47         2        43        7.39     265      -82.7
   07/04/2016 22:30      67.2      66.7       64     54.4      0.00      0.00      85.7     0.47      1016.0     1       349         2       167        7.39     265      -83.2
   07/04/2016 22:20      67.4      67.2       63     54.5      0.00      0.00      85.6     0.47      1016.0     1       202         2       220        7.39     265      -84.0
   07/04/2016 22:10      67.6      67.4       63     54.5      0.00      0.00      85.5     0.47      1015.0     2       218         4       216        7.39     264      -85.3
   07/04/2016 22:00      68.0      67.6       62     54.5      0.00      0.00      85.8     0.47      1015.0     3       209         5       226        7.39     264      -86.1
   07/04/2016 21:50      68.3      68.0       62     54.6      0.00      0.00      85.7     0.47      1015.0     4       208         5       213        7.40     264      -86.7
   07/04/2016 21:40      68.9      68.3       61     54.5      0.00      0.00      85.6     0.47      1015.0     3       209         5       223        7.40     264      -87.3
   07/04/2016 21:30      69.5      69.1       60     54.7      0.00      0.00      85.8     0.47      1015.0     3       243         4       262        7.40     264      -88.0
   07/04/2016 21:20      69.8      69.6       59     54.7      0.00      0.00      85.8     0.47      1015.0     2       223         4       211        7.40     264      -88.8
   07/04/2016 21:10      70.5      69.9       58     54.9      0.00      0.00      85.5     0.47      1015.0     4       232         6       226        7.40     264      -89.4
   07/04/2016 21:00      71.4      70.7       57     55.1      0.00      0.00      85.5     0.47      1015.0     5       236         7       242        7.40     264      -90.2
   07/04/2016 20:50      72.0      71.4       56     55.0      0.00      0.00      85.7     0.47      1015.0     5       226         7       242        7.40     264      -90.5
   07/04/2016 20:40      72.4      72.1       46     50.6      0.00      0.00      85.7     0.47      1015.0     2       186         3       220        7.40     264      -91.7
   07/04/2016 20:30      73.0      72.5       45     50.3      0.00      0.00      85.5     0.47      1014.0     2       180         3       176        7.40     264      -92.9
   07/04/2016 20:20      73.5      73.2       44     50.1      0.00      0.00      85.5     0.47      1014.0     3       170         4       171        7.40     264      -93.8
   07/04/2016 20:10      74.2      73.7       43     49.8      0.00      0.00      85.7     0.47      1014.0     3       176         5       163        7.40     263      -93.3
   07/04/2016 20:00      74.7      74.2       41     49.5      0.00      0.00      85.6     0.47      1014.0     3       192         5       187        7.40     263      -91.6
   07/04/2016 19:50      76.5      75.0       41     50.2      0.00      0.00      85.5     0.47      1014.0     4       186         6       186        7.40     263      -89.1
   07/04/2016 19:40      77.4      76.9       39     50.0      0.00      0.00      85.6     0.47      1014.0     3       181         7       174        7.40     263      -72.7
   07/04/2016 19:30      78.2      77.7       36     48.8      0.00      0.00      85.5     0.47      1014.0     4       171         5       177        7.40     263      -51.5
   07/04/2016 19:20      79.2      78.3       32     46.2      0.00      0.00      85.3     0.47      1014.0     5       167         6       159        7.41     263      -34.3
   07/04/2016 19:10      79.5      79.2       29     44.0      0.00      0.00      85.2     0.47      1014.0     6       145        10       130        7.41     263      -15.6
   07/04/2016 19:00      80.5      79.5       27     42.8      0.00      0.00      85.3     0.47      1014.0     6       126        10       128        7.41     263        3.4
   07/04/2016 18:50      81.3      80.6       26     42.4      0.00      0.00      85.4     0.47      1014.0     6       114         8       111        7.41     263       24.2
   07/04/2016 18:40      81.8      81.0       24     41.7      0.00      0.00      85.2     0.47      1014.0     4       103         9       126        7.41     263       44.5
   07/04/2016 18:30      83.0      81.8       24     42.0      0.00      0.00      85.3     0.47      1014.0     5        80         7        64        7.41     264       66.2
   07/04/2016 18:20      82.8      82.3       23     41.1      0.00      0.00      85.1     0.47      1014.0     5        98         7        79        7.42     263       92.0
   07/04/2016 18:10      84.2      82.9       23     41.8      0.00      0.00      85.1     0.47      1014.0     5       113         7        94        7.42     263      117.0
   07/04/2016 18:00      84.0      83.3       22     40.8      0.00      0.00      85.1     0.47      1014.0     4       119         7        90        7.42     264      141.4
   07/04/2016 17:50      84.5      83.5       19     37.7      0.00      0.00      85.2     0.47      1014.0     4       111         7       130        7.43     263      162.8
   07/04/2016 17:40      84.8      84.5       18     37.2      0.00      0.00      85.0     0.47      1014.0     5        86         7        80        7.43     264      184.2
   07/04/2016 17:30      84.3      83.9       17     34.6      0.00      0.00      84.9     0.47      1014.0     4       117         7       133        7.44     263      207.4
   07/04/2016 17:20      84.5      83.9       17     35.1      0.00      0.00      85.0     0.47      1014.0     5       127         7       132        7.45     263      231.0
   07/04/2016 17:10      85.9      84.4       16     34.7      0.00      0.00      84.7     0.47      1014.0     6       132         9       142        7.45     263      252.6
   07/04/2016 17:00      85.5      84.5       18     36.5      0.00      0.00      84.8     0.47      1014.0     5       133         6       110        7.46     263      274.3
   07/04/2016 16:50      85.4      84.8       18     37.0      0.00      0.00      84.8     0.47      1014.0     6        81         8        76        7.46     264      296.5
   07/04/2016 16:40      85.8      85.0       17     36.2      0.00      0.00      84.7     0.47      1014.0     5        90         8        73        7.47     264      315.3
   07/04/2016 16:30      85.6      84.6       17     35.9      0.00      0.00      84.7     0.47      1014.0     4        93         7        95        7.47     264      335.8
   07/04/2016 16:20      85.6      84.4       16     34.4      0.00      0.00      84.7     0.47      1014.0     5       105         8       103        7.48     264      356.5
   07/04/2016 16:10      85.2      84.0       16     34.2      0.00      0.00      84.5     0.47      1014.0     5        84        10       118        7.49     264      375.5
   07/04/2016 16:00      85.6      84.6       17     35.0      0.00      0.00      84.4     0.47      1015.0     6       111        12       145        7.49     264      391.9
   07/04/2016 15:50      85.7      84.9       17     35.0      0.00      0.00      84.4     0.47      1015.0     7       107        10       134        7.50     264      409.0
   07/04/2016 15:40      86.6      85.4       15     32.9      0.00      0.00      84.2     0.46      1015.0     6       102        13       130        7.50     264      422.0
   07/04/2016 15:30      87.0      85.6       13     30.6      0.00      0.00      84.3     0.46      1015.0     6       100         9        72        7.51     264      435.7
   07/04/2016 15:20      86.6      85.5       15     32.5      0.00      0.00      84.2     0.46      1015.0     6       105        10        61        7.51     264      451.0
   07/04/2016 15:10      87.3      85.6       15     34.0      0.00      0.00      84.1     0.46      1015.0     6       119         7       138        7.52     264      464.2
   07/04/2016 15:00      86.7      86.2       16     34.8      0.00      0.00      84.3     0.46      1015.0     6       131        10       155        7.53     264      475.6
   07/04/2016 14:50      86.8      85.6       22     43.0      0.00      0.00      84.0     0.46      1015.0     5       104         8       140        7.53     264      486.2
   07/04/2016 14:40      86.6      85.5       25     46.1      0.00      0.00      84.2     0.46      1015.0     6        94         9       110        7.54     264      494.6
   07/04/2016 14:30      86.2      85.4       30     50.7      0.00      0.00      84.0     0.46      1015.0     5        27         7       346        7.54     264      500.7
   07/04/2016 14:20      86.9      86.2       30     51.7      0.00      0.00      84.0     0.46      1015.0     5        38         8        68        7.54     264      510.9
   07/04/2016 14:10      86.3      84.7       32     52.9      0.00      0.00      84.0     0.46      1015.0     4        40         8        27        7.55     265      519.6
   07/04/2016 14:00      86.1      84.4       36     55.1      0.00      0.00      83.6     0.46      1016.0     4        26         6       358        7.55     266      526.4
   07/04/2016 13:50      85.0      84.2       38     55.9      0.00      0.00      83.8     0.46      1016.0     3         6         5        18        7.55     266      534.6
   07/04/2016 13:40      84.3      82.7       39     56.1      0.00      0.00      83.6     0.46      1016.0     3       352         7        26        7.55     266      544.6
   07/04/2016 13:30      84.3      82.9       40     56.5      0.00      0.00      83.6     0.46      1016.0     3        57         7        77        7.56     266      550.5
   07/04/2016 13:20      82.3      81.0       43     56.7      0.00      0.00      83.7     0.46      1016.0     2       111         3       111        7.56     266      554.6
   07/04/2016 13:10      81.8      80.3       43     56.8      0.00      0.00      83.8     0.46      1016.0     3         5         5       359        7.56     266      554.7
   07/04/2016 13:00      80.2      79.2       45     56.6      0.00      0.00      83.7     0.46      1016.0     3         8         4        12        7.56     266      560.5
   07/04/2016 12:50      80.8      79.0       45     56.6      0.00      0.00      83.6     0.46      1016.0     3       278         5       300        7.56     266      559.3
   07/04/2016 12:40      79.8      77.7       46     56.5      0.00      0.00      83.6     0.46      1016.0     3       318         5         2        7.57     266      560.6
   07/04/2016 12:30      78.5      77.5       48     56.7      0.00      0.00      83.6     0.46      1017.0     2       311         4       329        7.57     266      559.2
   07/04/2016 12:20      78.9      77.8       48     57.0      0.00      0.00      83.6     0.46      1017.0     3        15         4        22        7.57     266      555.5
   07/04/2016 12:10      78.2      76.8       49     57.1      0.00      0.00      83.4     0.46      1017.0     3       351         4       254        7.57     266      553.4
   07/04/2016 12:00      77.2      75.4       52     57.3      0.00      0.00      83.6     0.46      1017.0     3       351         6       332        7.57     266      551.8
   07/04/2016 11:50      75.2      73.7       55     57.1      0.00      0.00      83.7     0.46      1017.0     2       278         5       313        7.57     266      548.0
   07/04/2016 11:40      74.0      72.7       57     57.1      0.00      0.00      83.7     0.46      1017.0     3       258         5       249        7.57     266      541.5
   07/04/2016 11:30      73.9      73.1       56     57.0      0.00      0.00      83.6     0.46      1017.0     3       346         3       337        7.57     266      533.0
   07/04/2016 11:20      73.3      71.8       58     57.0      0.00      0.00      83.5     0.46      1017.0     3       342         6       350        7.57     266      523.4
   07/04/2016 11:10      72.7      71.2       59     57.0      0.00      0.00      83.9     0.46      1017.0     3        22         5       353        7.57     266      518.2
   07/04/2016 11:00      70.5      69.8       63     56.7      0.00      0.00      83.7     0.46      1017.0     4       235         7       216        7.58     267      508.7
   07/04/2016 10:50      70.9      69.6       62     56.7      0.00      0.00      83.7     0.46      1017.0     2       176         4       356        7.58     268      497.1
   07/04/2016 10:40      70.9      69.8       62     56.8      0.00      0.00      83.9     0.46      1017.0     3       333         4       339        7.58     268      480.6
   07/04/2016 10:30      70.5      69.2       63     56.6      0.00      0.00      84.0     0.47      1017.0     4       354         7       340        7.58     267      478.8
   07/04/2016 10:20      69.3      68.7       65     56.5      0.00      0.00      83.7     0.47      1018.0     2       313         4       313        7.58     267      358.5
   07/04/2016 10:10      70.2      68.4       64     56.7      0.00      0.00      83.9     0.47      1018.0     3       319         4       308        7.58     267      341.1
   07/04/2016 10:00      69.0      66.7       68     56.7      0.00      0.00      83.7     0.47      1018.0     2       343         5       339        7.58     267      525.8
   07/04/2016 09:50      66.7      65.6       71     56.4      0.00      0.00      84.0     0.47      1018.0     3       358         4       343        7.58     267      445.6
   07/04/2016 09:40      65.3      64.6       74     56.3      0.00      0.00      84.1     0.47      1018.0     2       268         4       216        7.58     267      219.6
   07/04/2016 09:30      65.0      64.3       74     56.3      0.00      0.00      84.1     0.47      1018.0     3       292         4       284        7.58     267      148.8
   07/04/2016 09:20      65.0      63.0       77     56.3      0.00      0.00      84.3     0.47      1018.0     1       304         3       119        7.58     267      134.0
   07/04/2016 09:10      63.0      62.8       78     56.0      0.00      0.00      84.1     0.47      1018.0     2       214         3       278        7.58     267      124.9
   07/04/2016 09:00      62.9      62.4       79     56.0      0.00      0.00      84.0     0.47      1018.0     2       229         3        70        7.58     267      119.1
   07/04/2016 08:50      62.9      62.4       79     56.1      0.00      0.00      84.1     0.47      1017.0     3        19         5       357        7.58     268       99.3
   07/04/2016 08:40      62.9      62.5       79     56.1      0.00      0.00      84.4     0.47      1017.0     2        35         3        22        7.58     267       87.6
   07/04/2016 08:30      62.6      62.0       80     56.0      0.00      0.00      84.2     0.47      1017.0     1       310         2       254        7.58     267       79.2
   07/04/2016 08:20      62.0      61.4       82     56.0      0.00      0.00      84.1     0.47      1017.0     2       277         3       192        7.58     267       69.8
   07/04/2016 08:10      61.5      61.1       82     55.9      0.00      0.00      84.1     0.47      1017.0     1       288         2       333        7.58     267       59.2
   07/04/2016 08:00      61.5      60.9       83     55.9      0.00      0.00      84.3     0.47      1017.0     2        64         3       115        7.59     267       51.5
   07/04/2016 07:50      60.9      60.4       84     55.8      0.00      0.00      84.6     0.47      1017.0     1        64         2        48        7.59     267       49.9
   07/04/2016 07:40      60.4      60.0       85     55.6      0.00      0.00      84.7     0.47      1017.0     2       348         3       358        7.58     267       44.1
   07/04/2016 07:30      60.1      59.7       86     55.6      0.00      0.00      84.4     0.47      1017.0     3        76         4       159        7.58     267       27.5
   07/04/2016 07:20      60.0      59.4       87     55.6      0.00      0.00      84.5     0.47      1017.0     2       112         2        98        7.58     267       11.1
   07/04/2016 07:10      59.5      59.3       86     55.3      0.00      0.00      84.5     0.47      1017.0     2       186         2       190        7.59     267        7.3
   07/04/2016 07:00      59.5      59.1       86     55.2      0.00      0.00      84.7     0.47      1017.0     2       159         2       145        7.59     267        4.7
   07/04/2016 06:50      59.3      59.1       86     55.0      0.00      0.00      85.0     0.47      1017.0     2       201         3       168        7.59     267        1.2
   07/04/2016 06:40      59.3      59.0       86     54.8      0.00      0.00      84.3     0.47      1017.0     2       266         3       257        7.59     267       -2.9
   07/04/2016 06:30      59.4      58.9       85     54.7      0.00      0.00      84.4     0.47      1017.0     2       203         2       214        7.59     267       -5.7
   07/04/2016 06:20      59.4      59.1       85     54.6      0.00      0.00      84.5     0.47      1017.0     2       184         3       202        7.59     267       -8.2
   07/04/2016 06:10      59.3      58.8       84     54.3      0.00      0.00      84.4     0.47      1017.0     2       212         3       260        7.59     267      -10.8
   07/04/2016 06:00      58.9      58.7       85     54.2      0.00      0.00      84.8     0.47      1017.0     2       234         3       230        7.59     267      -12.6
   07/04/2016 05:50      58.8      58.5       85     54.0      0.00      0.00      84.6     0.47      1017.0     2       221         3       221        7.59     267      -13.3
   07/04/2016 05:40      58.5      58.3       85     53.8      0.00      0.00      84.6     0.47      1017.0     3       230         3       233        7.59     267      -13.7
   07/04/2016 05:30      58.7      58.5       84     53.7      0.00      0.00      85.0     0.47      1017.0     3       252         4       258        7.59     267      -15.4
   07/04/2016 05:20      58.7      58.4       84     53.6      0.00      0.00      85.1     0.47      1017.0     3       246         4       234        7.59     267      -17.4
   07/04/2016 05:10      58.5      58.3       83     53.5      0.00      0.00      85.1     0.47      1017.0     3       246         4       257        7.59     267      -21.3
   07/04/2016 05:00      58.5      58.0       84     53.4      0.00      0.00      84.9     0.47      1017.0     2       227         3       234        7.59     267      -22.4
   07/04/2016 04:50      58.2      57.1       86     53.4      0.00      0.00      85.2     0.47      1017.0     2       220         2       219        7.59     267      -17.5
   07/04/2016 04:40      57.1      56.4       87     52.9      0.00      0.00      85.0     0.47      1017.0     1       159         1       175        7.59     267      -21.4
   07/04/2016 04:30      56.5      56.4       87     52.6      0.00      0.00      85.4     0.47      1016.0     1       138         1       142        7.59     267      -42.9
   07/04/2016 04:20      57.0      56.6       85     52.4      0.00      0.00      85.3     0.47      1016.0     1        92         1       100        7.59     267      -54.4
   07/04/2016 04:10      57.3      57.0       86     52.9      0.00      0.00      85.2     0.47      1016.0     1       104         1        75        7.59     267      -57.8
   07/04/2016 04:00      57.6      57.4       85     53.1      0.00      0.00      85.8     0.47      1016.0     1       185         1       162        7.59     267      -61.4
   07/04/2016 03:50      58.0      57.5       84     53.1      0.00      0.00      85.5     0.47      1017.0     1       161         2       179        7.59     267      -62.2
   07/04/2016 03:40      58.0      57.7       85     53.5      0.00      0.00      85.7     0.47      1017.0     1       204         1       204        7.59     267      -58.4
   07/04/2016 03:30      58.0      57.7       85     53.3      0.00      0.00      85.5     0.47      1017.0     1       202         2       189        7.59     267      -64.9
   07/04/2016 03:20      58.5      57.9       84     53.4      0.00      0.00      85.4     0.47      1017.0     2       204         2       214        7.59     267      -67.1
   07/04/2016 03:10      58.6      58.5       83     53.4      0.00      0.00      85.8     0.47      1017.0     1       194         2       188        7.59     267      -67.7
   07/04/2016 03:00      59.0      58.6       82     53.2      0.00      0.00      85.8     0.47      1017.0     2       221         2       236        7.59     267      -68.8
   07/04/2016 02:50      59.3      58.9       82     53.5      0.00      0.00      85.8     0.47      1017.0     2       229         3       240        7.59     267      -69.0
   07/04/2016 02:40      59.3      58.8       82     53.7      0.00      0.00      85.7     0.47      1017.0     1       218         2       208        7.59     266      -68.3
   07/04/2016 02:30      59.0      58.5       83     53.7      0.00      0.00      85.6     0.47      1017.0     1       207         1       193        7.59     267      -68.6
   07/04/2016 02:20      59.1      58.9       83     53.8      0.00      0.00      86.0     0.47      1017.0     1       196         2       200        7.59     267      -69.0
   07/04/2016 02:10      59.3      59.1       83     53.9      0.00      0.00      86.2     0.47      1017.0     1       186         1       198        7.59     266      -69.2
   07/04/2016 02:00      59.3      58.9       81     53.2      0.00      0.00      85.9     0.47      1017.0     1       178         1       192        7.59     266      -71.7
   07/04/2016 01:50      60.0      59.2       78     52.7      0.00      0.00      86.1     0.47      1017.0     1       208         1       212        7.59     266      -71.4
   07/04/2016 01:40      60.5      60.2       78     53.5      0.00      0.00      85.9     0.47      1017.0     1       163         1       186        7.59     266      -71.7
   07/04/2016 01:30      61.0      60.6       77     53.7      0.00      0.00      85.9     0.47      1017.0     1       210         3       231        7.60     266      -72.3
   07/04/2016 01:20      60.6      60.4       78     53.5      0.00      0.00      86.1     0.47      1017.0     1       156         2       210        7.60     266      -72.5
   07/04/2016 01:10      60.8      60.4       77     53.2      0.00      0.00      85.9     0.47      1017.0     1       139         2       197        7.60     266      -73.8
   07/04/2016 01:00      61.3      61.0       75     53.2      0.00      0.00      86.3     0.47      1017.0     1       242         2       224        7.60     266      -73.0
   07/04/2016 00:50      61.3      60.9       76     53.6      0.00      0.00      86.3     0.47      1017.0     1       247         1       251        7.60     266      -73.5
   07/04/2016 00:40      61.4      61.3       76     53.9      0.00      0.00      86.1     0.47      1017.0     0       157         1       149        7.60     266      -74.2
   07/04/2016 00:30      61.6      61.4       75     53.6      0.00      0.00      86.4     0.47      1017.0     1       189         1       199        7.60     266      -74.3
   07/04/2016 00:20      62.1      61.7       74     53.6      0.00      0.00      86.0     0.47      1017.0     1       194         2       215        7.60     266      -74.7
   07/04/2016 00:10      62.9      62.1       72     53.5      0.00      0.00      85.9     0.47      1017.0     1       201         1       168        7.60     266      -75.0
   07/04/2016 00:00      63.1      62.8       73     54.1      0.00      0.00      86.3     0.47      1017.0     1       199         1       194        7.60     266      -76.1
   07/03/2016 23:50      63.4      62.8       72     53.8      0.00      0.00      86.1     0.47      1017.0     1       150         1       123        7.60     266      -76.9
   07/03/2016 23:40      63.8      63.4       71     54.0      0.00      0.00      86.3     0.47      1017.0     1       176         1       201        7.60     266      -77.4
   07/03/2016 23:30      64.2      63.8       70     54.1      0.00      0.00      86.2     0.47      1017.0     1       201         2       227        7.60     266      -77.7
   07/03/2016 23:20      64.4      64.1       70     54.2      0.00      0.00      86.5     0.47      1017.0     2       219         3       229        7.60     266      -78.0
   07/03/2016 23:10      64.6      64.1       69     54.1      0.00      0.00      86.5     0.47      1017.0     1       231         1       230        7.60     265      -77.9
   07/03/2016 23:00      65.1      64.7       68     54.2      0.00      0.00      86.4     0.47      1017.0     1       190         1       218        7.60     265      -79.8
   07/03/2016 22:50      65.3      64.9       68     54.3      0.00      0.00      86.0     0.47      1017.0     1       216         2       250        7.60     265      -80.4
   07/03/2016 22:40      65.7      65.3       67     54.2      0.00      0.00      86.3     0.47      1017.0     1       208         2       224        7.61     265      -81.0
   07/03/2016 22:30      66.0      65.7       66     54.3      0.00      0.00      86.3     0.47      1017.0     1       216         2       232        7.61     265      -81.9
   07/03/2016 22:20      66.3      66.0       65     54.3      0.00      0.00      86.2     0.47      1017.0     1       187         3       208        7.61     265      -82.5
   07/03/2016 22:10      66.9      66.4       64     54.2      0.00      0.00      86.3     0.47      1017.0     1       200         3       232        7.61     265      -83.2
   07/03/2016 22:00      67.6      66.9       63     54.4      0.00      0.00      86.4     0.47      1016.0     2       236         3       227        7.61     265      -83.9
   07/03/2016 21:50      68.1      67.6       62     54.5      0.00      0.00      86.1     0.47      1016.0     2       275         3       312        7.61     265      -84.2
   07/03/2016 21:40      68.3      68.1       62     54.6      0.00      0.00      86.3     0.47      1016.0     2       301         4       270        7.62     265      -85.0
   07/03/2016 21:30      68.9      68.4       61     54.5      0.00      0.00      86.3     0.47      1016.0     3       288         5       289        7.62     265      -85.5
   07/03/2016 21:20      69.2      68.7       60     54.6      0.00      0.00      86.4     0.47      1016.0     3       245         5       247        7.62     265      -86.4
   07/03/2016 21:10      69.0      68.7       61     54.9      0.00      0.00      86.2     0.47      1016.0     2       333         3       323        7.63     265      -87.2
   07/03/2016 21:00      69.2      68.8       61     55.0      0.00      0.00      86.5     0.47      1016.0     1        39         1        60        7.63     264      -89.0
   07/03/2016 20:50      70.0      69.3       59     54.9      0.00      0.00      86.3     0.47      1016.0     1       107         2        27        7.63     264      -90.2
   07/03/2016 20:40      70.5      70.2       58     54.8      0.00      0.00      86.2     0.47      1016.0     1        33         2        49        7.63     264      -91.1
   07/03/2016 20:30      71.3      70.3       57     54.7      0.00      0.00      86.3     0.47      1015.0     2        53         3        67        7.63     264      -92.1
   07/03/2016 20:20      72.3      71.3       54     54.3      0.00      0.00      86.3     0.47      1015.0     2        56         3        50        7.64     264      -93.0
   07/03/2016 20:10      73.4      72.4       52     54.3      0.00      0.00      86.2     0.47      1015.0     2        27         3        24        7.64     264      -92.5
   07/03/2016 20:00      74.3      73.4       51     54.4      0.00      0.00      86.3     0.47      1015.0     2        29         4        21        7.64     264      -89.9
   07/03/2016 19:50      75.9      74.3       48     54.3      0.00      0.00      86.2     0.47      1015.0     3        16         5         3        7.64     264      -88.7
   07/03/2016 19:40      77.6      76.2       46     54.4      0.00      0.00      86.0     0.47      1015.0     3        26         5         0        7.64     264      -74.0
   07/03/2016 19:30      78.8      77.8       45     55.0      0.00      0.00      85.9     0.47      1015.0     4        27         5       356        7.65     264      -51.6
   07/03/2016 19:20      79.5      79.3       43     55.0      0.00      0.00      85.9     0.47      1015.0     1       143         3       189        7.65     264      -32.3
   07/03/2016 19:10      79.8      79.0       44     55.3      0.00      0.00      86.2     0.47      1015.0     3       194         6       186        7.66     264      -10.4
   07/03/2016 19:00      80.4      79.8       43     55.4      0.00      0.00      86.0     0.47      1015.0     3       149         6       133        7.66     264       11.8
   07/03/2016 18:50      80.5      80.1       42     55.3      0.00      0.00      85.8     0.47      1015.0     5       157         6       152        7.67     264       32.6
   07/03/2016 18:40      80.8      80.5       41     55.0      0.00      0.00      86.0     0.47      1015.0     5       160         6       164        7.67     263       54.2
   07/03/2016 18:30      81.7      80.7       40     54.2      0.00      0.00      85.6     0.47      1015.0     5       151         8       152        7.67     264       75.6
   07/03/2016 18:20      82.0      81.6       36     52.6      0.00      0.00      85.7     0.47      1015.0     4       148         7       153        7.68     264       97.8
   07/03/2016 18:10      82.8      81.8       35     52.1      0.00      0.00      85.7     0.47      1014.0     4       147         7       140        7.68     264      118.7
   07/03/2016 18:00      84.0      82.7       33     51.3      0.00      0.00      85.8     0.47      1014.0     5       152         7       216        7.68     264      141.6
   07/03/2016 17:50      84.5      83.8       33     51.5      0.00      0.00      85.7     0.47      1015.0     3        99         5        78        7.69     264      163.8
   07/03/2016 17:40      84.7      83.7       31     50.9      0.00      0.00      85.6     0.47      1015.0     3       127         6        87        7.69     264      188.0
   07/03/2016 17:30      84.8      83.9       30     49.5      0.00      0.00      85.6     0.47      1015.0     4       170         7       164        7.70     263      212.0
   07/03/2016 17:20      84.6      83.7       28     47.8      0.00      0.00      85.4     0.47      1015.0     4       183         7       170        7.70     263      234.7
   07/03/2016 17:10      84.3      83.2       29     48.4      0.00      0.00      85.5     0.47      1015.0     6       197         7       213        7.70     262      256.3
   07/03/2016 17:00      84.9      83.6       30     49.7      0.00      0.00      85.2     0.47      1015.0     4       158         6       159        7.71     263      277.3
   07/03/2016 16:50      84.7      83.7       31     50.6      0.00      0.00      85.4     0.47      1015.0     6       161         9       165        7.71     263      298.1
   07/03/2016 16:40      85.9      84.0       31     51.0      0.00      0.00      85.1     0.47      1015.0     5       160         8       171        7.71     263      318.9
   07/03/2016 16:30      86.2      84.9       29     49.7      0.00      0.00      85.1     0.47      1015.0     3       154         5       140        7.72     264      336.3
   07/03/2016 16:20      85.7      84.8       28     48.6      0.00      0.00      85.1     0.47      1015.0     5       173         8       179        7.72     263      358.3
   07/03/2016 16:10      86.0      85.0       28     48.6      0.00      0.00      85.1     0.47      1015.0     6       163         8       144        7.72     263      377.0
   07/03/2016 16:00      85.6      84.5       28     48.3      0.00      0.00      85.0     0.47      1015.0     6       170         8       183        7.73     263      395.3
   07/03/2016 15:50      85.6      84.6       26     46.8      0.00      0.00      84.8     0.47      1015.0     6       163         8       160        7.73     264      411.5
   07/03/2016 15:40      86.6      85.4       23     43.7      0.00      0.00      84.8     0.47      1015.0     7       150        11       131        7.74     264      425.2
   07/03/2016 15:30      87.1      86.5       19     39.5      0.00      0.00      84.6     0.47      1015.0     7       156         9       134        7.75     264      433.6
   07/03/2016 15:20      87.6      86.8       31     52.3      0.00      0.00      84.8     0.47      1015.0     5        79         7       141        7.75     265      445.7
   07/03/2016 15:10      87.1      85.9       33     54.1      0.00      0.00      84.7     0.47      1016.0     4        46         6        63        7.76     265      461.3
   07/03/2016 15:00      86.5      85.4       34     54.4      0.00      0.00      84.5     0.47      1016.0     4        34         7         5        7.76     264      474.6
   07/03/2016 14:50      85.6      84.3       36     55.1      0.00      0.00      84.6     0.47      1016.0     4        31         5        28        7.76     265      488.5
   07/03/2016 14:40      86.3      85.5       35     55.2      0.00      0.00      84.5     0.47      1016.0     4        56         6        86        7.76     265      496.6
   07/03/2016 14:30      86.2      84.5       37     55.7      0.00      0.00      84.4     0.46      1016.0     5        31         7        25        7.77     265      506.5
   07/03/2016 14:20      85.4      84.5       38     56.8      0.00      0.00      84.4     0.46      1016.0     4        51         6        66        7.77     264      516.8
   07/03/2016 14:10      84.5      83.6       40     57.3      0.00      0.00      84.4     0.46      1016.0     4        59         5       136        7.77     265      525.6
   07/03/2016 14:00      84.2      83.3       41     57.4      0.00      0.00      84.2     0.46      1016.0     4        62         6        94        7.77     266      531.6
   07/03/2016 13:50      84.3      82.3       41     57.3      0.00      0.00      84.1     0.46      1016.0     4        72         8       118        7.78     266      539.0
   07/03/2016 13:40      84.2      83.1       41     57.2      0.00      0.00      84.1     0.46      1016.0     5         7         7        31        7.78     266      541.3
   07/03/2016 13:30      84.2      83.0       40     56.9      0.00      0.00      84.2     0.46      1016.0     4        19         6        24        7.78     266      544.8
   07/03/2016 13:20      84.3      82.7       40     56.7      0.00      0.00      84.0     0.46      1016.0     3        50         6        75        7.78     266      548.5
   07/03/2016 13:10      82.5      81.6       41     56.1      0.00      0.00      84.2     0.46      1017.0     3        29         6       355        7.78     266      552.0
   07/03/2016 13:00      82.3      81.8       41     56.1      0.00      0.00      84.0     0.46      1017.0     4        30         5        28        7.79     266      552.6
   07/03/2016 12:50      82.7      81.5       40     55.2      0.00      0.00      84.1     0.46      1017.0     3        34         3        40        7.79     266      551.4
   07/03/2016 12:40      82.9      81.7       39     54.6      0.00      0.00      83.8     0.46      1017.0     3       348         5        55        7.79     266      552.4
   07/03/2016 12:30      81.9      81.5       39     54.3      0.00      0.00      83.6     0.46      1017.0     4       346         7       331        7.79     266      553.6
   07/03/2016 12:20      81.4      80.4       40     54.7      0.00      0.00      83.9     0.46      1017.0     3       353         4        58        7.79     266      551.6
   07/03/2016 12:10      80.4      79.3       42     55.0      0.00      0.00      84.0     0.46      1017.0     5         4         8       354        7.79     267      547.2
   07/03/2016 12:00      80.1      79.0       43     55.4      0.00      0.00      84.4     0.46      1017.0     2        24         4       344        7.79     267      545.8
   07/03/2016 11:50      79.7      79.2       43     55.0      0.00      0.00      84.1     0.46      1017.0     3       349         4       341        7.79     267      540.4
   07/03/2016 11:40      79.3      77.4       46     55.4      0.00      0.00      83.9     0.46      1017.0     3        53         4        78        7.79     267      537.0
   07/03/2016 11:30      77.8      77.3       46     55.5      0.00      0.00      84.0     0.46      1017.0     2        33         5         7        7.79     267      528.3
   07/03/2016 11:20      77.8      75.1       47     55.4      0.00      0.00      84.1     0.46      1017.0     2       356         4       316        7.79     267      521.0
   07/03/2016 11:10      74.2      73.3       52     54.9      0.00      0.00      84.1     0.46      1018.0     4       259         6       258        7.79     267      514.3
   07/03/2016 11:00      75.0      73.5       51     55.0      0.00      0.00      83.9     0.46      1018.0     3       292         5       326        7.79     268      500.5
   07/03/2016 10:50      74.3      73.0       52     55.1      0.00      0.00      84.0     0.47      1018.0     4       348         7       288        7.80     269      488.1
   07/03/2016 10:40      73.0      71.8       54     55.1      0.00      0.00      84.3     0.47      1018.0     3       308         6       302        7.80     269      476.5
   07/03/2016 10:30      72.6      71.7       54     54.9      0.00      0.00      84.1     0.47      1018.0     2       281         4       258        7.80     268      464.6
   07/03/2016 10:20      71.2      69.8       58     54.9      0.00      0.00      84.1     0.47      1018.0     3       295         5       313        7.80     268      448.2
   07/03/2016 10:10      70.1      69.0       60     55.2      0.00      0.00      84.2     0.47      1018.0     2       348         3        20        7.80     268      436.7
   07/03/2016 10:00      69.6      68.6       61     55.0      0.00      0.00      84.1     0.47      1018.0     3        10         7       328        7.80     268      416.5
   07/03/2016 09:50      69.3      67.6       62     54.7      0.00      0.00      83.8     0.47      1018.0     2        63         4       350        7.80     268      399.9
   07/03/2016 09:40      67.8      66.3       65     54.8      0.00      0.00      84.6     0.47      1018.0     2        44         3        43        7.80     268      380.1
   07/03/2016 09:30      66.5      65.0       67     54.8      0.00      0.00      84.1     0.47      1018.0     2        12         4        12        7.80     268      363.2
   07/03/2016 09:20      65.6      64.5       69     54.8      0.00      0.00      84.3     0.47      1018.0     3       183         5       178        7.80     268      344.7
   07/03/2016 09:10      64.6      63.9       71     55.0      0.00      0.00      84.4     0.47      1018.0     3       125         6       150        7.80     268      331.0
   07/03/2016 09:00      63.8      63.1       74     55.1      0.00      0.00      84.4     0.47      1018.0     3       230         5       217        7.81     268      345.6
   07/03/2016 08:50      63.3      62.5       76     55.1      0.00      0.00      84.1     0.47      1018.0     2        90         5       138        7.81     268      197.4
   07/03/2016 08:40      62.3      61.8       77     54.9      0.00      0.00      84.2     0.47      1018.0     3       173         4       165        7.81     268      137.7
   07/03/2016 08:30      62.4      62.2       77     55.0      0.00      0.00      84.6     0.47      1018.0     2       152         4       164        7.81     268      115.3
   07/03/2016 08:20      62.3      61.8       78     55.2      0.00      0.00      84.5     0.47      1018.0     3        99         5        73        7.81     268      129.5
   07/03/2016 08:10      61.8      61.2       80     55.2      0.00      0.00      84.5     0.47      1018.0     2       115         4       118        7.81     268       89.7
   07/03/2016 08:00      61.3      60.9       81     55.4      0.00      0.00      84.5     0.47      1017.0     2       190         3       179        7.81     268       76.7
   07/03/2016 07:50      61.4      60.8       82     55.5      0.00      0.00      84.4     0.47      1017.0     2       194         3       150        7.81     268       70.8
   07/03/2016 07:40      61.2      60.8       82     55.5      0.00      0.00      84.6     0.47      1017.0     2       117         3        76        7.81     268       50.7
   07/03/2016 07:30      60.9      60.4       83     55.5      0.00      0.00      84.4     0.47      1017.0     2       116         2        74        7.81     268       41.0
   07/03/2016 07:20      60.8      60.4       84     55.7      0.00      0.00      84.7     0.47      1017.0     3       130         5       135        7.81     268       33.7
   07/03/2016 07:10      60.6      60.3       85     55.8      0.00      0.00      84.8     0.47      1017.0     2       141         3       158        7.81     268       26.4
   07/03/2016 07:00      60.4      60.1       85     55.9      0.00      0.00      84.8     0.47      1017.0     2       125         3       143        7.81     268       17.8
   07/03/2016 06:50      60.5      60.3       86     56.1      0.00      0.00      84.6     0.47      1017.0     3        94         3        88        7.81     268        7.5
   07/03/2016 06:40      60.6      60.4       86     56.2      0.00      0.00      84.9     0.47      1017.0     1        25         3        59        7.81     268       -0.8
   07/03/2016 06:30      60.5      60.0       87     56.4      0.00      0.00      84.7     0.47      1017.0     1        29         3       349        7.81     268       -4.1
   07/03/2016 06:20      60.4      60.2       87     56.4      0.00      0.00      85.0     0.47      1017.0     2       145         3       126        7.81     268       -7.0
   07/03/2016 06:10      60.3      59.9       88     56.6      0.00      0.00      85.0     0.48      1017.0     2       155         2       122        7.81     268       -9.7
   07/03/2016 06:00      60.0      59.7       89     56.6      0.00      0.00      85.2     0.48      1017.0     2       140         3       133        7.81     268      -12.1
   07/03/2016 05:50      59.8      59.4       90     56.7      0.00      0.00      85.2     0.47      1016.0     2       152         4       127        7.82     268      -13.6
   07/03/2016 05:40      59.5      59.1       91     56.6      0.00      0.00      85.2     0.47      1016.0     2       158         3       168        7.82     268      -14.3
   07/03/2016 05:30      59.4      59.1       91     56.5      0.00      0.00      85.0     0.48      1016.0     3       157         4       141        7.82     268      -15.1
   07/03/2016 05:20      59.5      59.2       90     56.5      0.00      0.00      84.7     0.48      1016.0     3       141         4       120        7.82     268      -15.6
   07/03/2016 05:10      59.3      58.9       91     56.5      0.00      0.00      85.2     0.48      1016.0     2       143         3       125        7.82     268      -14.7
   07/03/2016 05:00      59.1      58.9       91     56.6      0.00      0.00      85.1     0.48      1016.0     3       133         5       129        7.82     268      -14.2
   07/03/2016 04:50      59.1      58.9       92     56.7      0.00      0.00      85.2     0.48      1016.0     3       126         5       131        7.82     268      -12.6
   07/03/2016 04:40      59.1      58.9       92     56.8      0.00      0.00      85.4     0.48      1016.0     2       155         3       142        7.82     268      -11.5
   07/03/2016 04:30      59.3      59.0       92     56.8      0.00      0.00      85.4     0.48      1016.0     2       139         2       132        7.82     268      -10.3
   07/03/2016 04:20      59.2      59.0       91     56.6      0.00      0.00      85.7     0.48      1016.0     2       117         3       128        7.83     268       -8.6
   07/03/2016 04:10      59.2      58.8       91     56.4      0.00      0.00      85.2     0.48      1016.0     2        97         3        96        7.83     268      -13.0
   07/03/2016 04:00      59.0      58.7       91     56.1      0.00      0.00      85.6     0.48      1016.0     2        83         3        58        7.83     267      -23.8
   07/03/2016 03:50      59.0      58.6       90     55.8      0.00      0.00      85.2     0.48      1016.0     2        77         3        77        7.83     268      -41.9
   07/03/2016 03:40      58.7      58.4       88     55.1      0.00      0.00      85.4     0.48      1016.0     1        96         2        73        7.83     267      -47.3
   07/03/2016 03:30      59.1      58.7       88     55.3      0.00      0.00      85.5     0.48      1016.0     1       106         2       104        7.83     267      -48.9
   07/03/2016 03:20      59.4      59.2       87     55.5      0.00      0.00      85.5     0.48      1016.0     0        48         1         4        7.83     267      -51.4
   07/03/2016 03:10      59.7      59.3       86     55.4      0.00      0.00      85.7     0.48      1016.0     1        89         2        73        7.84     267      -56.2
   07/03/2016 03:00      59.8      59.6       86     55.6      0.00      0.00      86.1     0.48      1016.0     2        87         2        90        7.84     267      -60.6
   07/03/2016 02:50      59.6      59.1       84     54.4      0.00      0.00      85.6     0.48      1016.0     1        73         1        82        7.84     267      -66.8
   07/03/2016 02:40      59.3      58.8       82     53.5      0.00      0.00      85.7     0.48      1016.0     1       116         1       109        7.84     267      -69.5
   07/03/2016 02:30      59.5      59.0       79     52.8      0.00      0.00      86.3     0.48      1016.0     1       124         1       125        7.84     267      -71.3
   07/03/2016 02:20      59.7      59.4       79     53.3      0.00      0.00      85.8     0.48      1016.0     0       126         1       189        7.84     267      -70.2
   07/03/2016 02:10      60.0      59.6       80     53.6      0.00      0.00      86.0     0.48      1016.0     1       160         1       145        7.85     267      -70.5
   07/03/2016 02:00      60.0      59.8       79     53.5      0.00      0.00      85.9     0.48      1016.0     1       144         1       141        7.85     267      -71.3
   07/03/2016 01:50      60.3      60.0       79     53.7      0.00      0.00      86.3     0.48      1016.0     1       158         1       134        7.85     267      -71.4
   07/03/2016 01:40      60.2      59.9       79     53.6      0.00      0.00      86.1     0.48      1016.0     1       142         1       133        7.85     267      -71.2
   07/03/2016 01:30      60.4      59.9       76     52.8      0.00      0.00      86.5     0.48      1016.0     1       130         1       133        7.86     267      -73.2
   07/03/2016 01:20      61.1      60.5       76     53.2      0.00      0.00      86.2     0.48      1017.0     1       148         2       125        7.86     266      -73.1
   07/03/2016 01:10      61.0      60.8       76     53.2      0.00      0.00      86.3     0.48      1017.0     0       206         1       213        7.86     267      -73.8
   07/03/2016 01:00      61.5      61.0       77     53.9      0.00      0.00      86.6     0.48      1017.0     1       149         1        99        7.86     266      -74.4
   07/03/2016 00:50      61.7      61.4       76     53.9      0.00      0.00      86.0     0.48      1017.0     1       155         2       170        7.86     266      -75.4
   07/03/2016 00:40      62.2      61.7       76     54.1      0.00      0.00      86.4     0.48      1017.0     2       151         2       145        7.86     266      -75.6
   07/03/2016 00:30      62.4      61.9       75     54.0      0.00      0.00      86.6     0.48      1017.0     1       124         1       126        7.86     266      -74.9
   07/03/2016 00:20      62.5      62.4       73     53.8      0.00      0.00      86.5     0.48      1017.0     1       112         1       139        7.86     266      -76.0
   07/03/2016 00:10      62.5      62.2       72     53.4      0.00      0.00      86.4     0.48      1017.0     2       135         2       132        7.87     266      -76.7
   07/03/2016 00:00      62.6      62.3       72     53.5      0.00      0.00      86.4     0.48      1017.0     2       145         2       147        7.87     266      -77.2
   07/02/2016 23:50      63.1      62.5       73     53.9      0.00      0.00      86.5     0.48      1017.0     2       154         2       141        7.87     266      -77.2
   07/02/2016 23:40      63.8      63.0       70     53.7      0.00      0.00      86.4     0.48      1017.0     1       183         1       201        7.87     266      -77.0
   07/02/2016 23:30      64.3      63.7       69     53.4      0.00      0.00      86.5     0.48      1017.0     1       132         1       143        7.87     266      -78.1
   07/02/2016 23:20      64.3      63.8       68     53.3      0.00      0.00      86.5     0.48      1017.0     1        97         1       142        7.87     266      -79.7
   07/02/2016 23:10      63.8      63.7       67     52.6      0.00      0.00      86.2     0.48      1017.0     1       182         1       160        7.87     266      -80.5
   07/02/2016 23:00      64.5      63.8       65     52.0      0.00      0.00      86.6     0.48      1017.0     1       146         2       103        7.88     265      -81.2
   07/02/2016 22:50      64.9      64.5       65     52.6      0.00      0.00      86.6     0.48      1017.0     1       101         2       120        7.88     265      -81.4
   07/02/2016 22:40      65.3      64.7       64     52.6      0.00      0.00      86.8     0.48      1017.0     1       133         1       139        7.88     265      -82.7
   07/02/2016 22:30      66.0      65.3       63     52.9      0.00      0.00      86.5     0.48      1017.0     1       150         1       151        7.88     265      -84.1
   07/02/2016 22:20      66.6      66.1       62     52.9      0.00      0.00      86.2     0.48      1017.0     1        70         1       167        7.88     265      -83.2
   07/02/2016 22:10      67.0      66.7       61     53.0      0.00      0.00      86.8     0.48      1016.0     1       116         2       117        7.88     265      -85.2
   07/02/2016 22:00      67.2      66.9       60     52.8      0.00      0.00      86.7     0.48      1016.0     2       112         3       113        7.88     265      -86.8
   07/02/2016 21:50      67.4      67.1       59     52.5      0.00      0.00      86.7     0.48      1016.0     2        81         2        85        7.89     265      -88.0
   07/02/2016 21:40      67.3      67.2       57     51.7      0.00      0.00      86.6     0.48      1016.0     2       115         3       103        7.89     265      -87.8
   07/02/2016 21:30      68.3      67.5       56     51.7      0.00      0.00      86.8     0.48      1016.0     1       147         2       147        7.89     265      -90.8
   07/02/2016 21:20      69.1      68.3       55     51.7      0.00      0.00      86.7     0.48      1016.0     2       167         3       203        7.89     265      -92.7
   07/02/2016 21:10      69.6      69.2       53     51.5      0.00      0.00      86.7     0.48      1016.0     3       142         4       137        7.89     265      -94.3
   07/02/2016 21:00      70.0      69.6       53     51.7      0.00      0.00      86.5     0.48      1016.0     3       119         4       130        7.89     265      -96.8
   07/02/2016 20:50      70.5      70.2       52     52.0      0.00      0.00      86.8     0.48      1016.0     2        79         3        96        7.90     264      -98.2
   07/02/2016 20:40      70.8      70.4       52     52.4      0.00      0.00      86.7     0.48      1015.0     3       113         4       118        7.90     264      -99.2
   07/02/2016 20:30      71.5      70.8       51     52.1      0.00      0.00      86.7     0.48      1015.0     3       111         5       119        7.91     264      -99.7
   07/02/2016 20:20      72.2      71.6       50     52.3      0.00      0.00      86.9     0.48      1015.0     4        85         5       117        7.91     264     -100.0
   07/02/2016 20:10      73.2      72.3       49     52.4      0.00      0.00      86.8     0.48      1015.0     4        89         6        72        7.92     264      -98.5
   07/02/2016 20:00      74.3      73.2       48     52.6      0.00      0.00      86.3     0.48      1015.0     4        82         6        61        7.92     264      -96.3
   07/02/2016 19:50      75.3      74.4       46     52.7      0.00      0.00      86.8     0.48      1015.0     3        68         4        59        7.92     264      -94.9
   07/02/2016 19:40      76.4      75.5       44     52.3      0.00      0.00      86.6     0.48      1015.0     3        91         4       134        7.93     264      -79.3
   07/02/2016 19:30      77.2      76.5       40     51.0      0.00      0.00      86.5     0.48      1015.0     3        99         5       133        7.93     264      -56.1
   07/02/2016 19:20      78.5      77.5       38     50.6      0.00      0.00      86.6     0.48      1014.0     3        76         5        70        7.94     264      -38.0
   07/02/2016 19:10      78.4      77.9       35     48.4      0.00      0.00      86.4     0.48      1014.0     3       116         4       143        7.94     264      -17.8
   07/02/2016 19:00      79.3      78.5       33     47.4      0.00      0.00      86.5     0.48      1014.0     3       149         4       135        7.95     264        4.9
   07/02/2016 18:50      78.6      78.0       35     48.2      0.00      0.00      86.4     0.48      1014.0     3       191         4       152        7.95     264       26.9
   07/02/2016 18:40      79.2      78.3       34     48.1      0.00      0.00      86.3     0.48      1014.0     4       170         7       159        7.95     264       49.1
   07/02/2016 18:30      79.3      78.7       34     48.0      0.00      0.00      86.3     0.47      1014.0     4       196         6       188        7.95     264       71.5
   07/02/2016 18:20      80.4      79.0       33     48.5      0.00      0.00      86.2     0.47      1014.0     5       170         8       146        7.96     263       95.0
   07/02/2016 18:10      80.6      79.9       35     49.9      0.00      0.00      86.2     0.47      1014.0     4       162         6       128        7.96     264      118.0
   07/02/2016 18:00      80.9      80.6       34     49.5      0.00      0.00      86.2     0.47      1014.0     5       171         7       145        7.96     264      142.9
   07/02/2016 17:50      81.5      80.6       34     50.0      0.00      0.00      86.1     0.47      1014.0     5       170         8       182        7.96     263      166.9
   07/02/2016 17:40      84.0      80.9       30     48.0      0.00      0.00      86.1     0.47      1014.0     5       174         8       192        7.97     263      188.4
   07/02/2016 17:30      84.2      83.4       21     39.4      0.00      0.00      86.1     0.47      1014.0     5       140         8       161        7.97     264      208.5
   07/02/2016 17:20      84.6      83.4       20     38.9      0.00      0.00      86.1     0.47      1014.0     5       111         9       131        7.98     263      231.7
   07/02/2016 17:10      85.0      83.6       21     40.7      0.00      0.00      85.9     0.47      1014.0     5       125         7       108        7.98     263      254.1
   07/02/2016 17:00      84.6      83.7       21     39.4      0.00      0.00      85.7     0.47      1014.0     7       134        10       115        7.99     264      277.6
   07/02/2016 16:50      84.8      83.6       21     40.3      0.00      0.00      85.8     0.47      1014.0     6       135         9       142        7.99     264      299.2
   07/02/2016 16:40      85.7      84.5       20     39.5      0.00      0.00      85.7     0.47      1014.0     7       132         9        94        8.02     264      317.8
   07/02/2016 16:30      86.7      85.4       19     39.0      0.00      0.00      85.7     0.47      1014.0     5       113        10       134        8.03     264      335.9
   07/02/2016 16:20      86.7      85.7       19     38.8      0.00      0.00      85.6     0.47      1014.0     6       116         9       125        8.04     264      355.2
   07/02/2016 16:10      86.7      85.0       19     38.4      0.00      0.00      85.5     0.47      1014.0     5       114         7       158        8.05     264      370.9
   07/02/2016 16:00      86.3      85.2       24     44.7      0.00      0.00      85.4     0.47      1014.0     5       120         8       122        8.05     264      388.4
   07/02/2016 15:50      87.2      85.6       27     47.6      0.00      0.00      85.4     0.47      1014.0     6       159         9       163        8.05     264      407.4
   07/02/2016 15:40      87.4      85.7       28     49.6      0.00      0.00      85.3     0.47      1014.0     6       116         8       126        8.06     265      423.8
   07/02/2016 15:30      87.1      86.2       31     52.8      0.00      0.00      85.3     0.47      1014.0     4        55         7        66        8.07     265      435.0
   07/02/2016 15:20      86.8      86.4       32     53.1      0.00      0.00      85.2     0.47      1014.0     5        53         7        30        8.07     265      446.7
   07/02/2016 15:10      87.8      87.0       31     52.6      0.00      0.00      85.1     0.47      1014.0     5        53         8        34        8.08     265      459.9
   07/02/2016 15:00      87.6      86.6       31     52.5      0.00      0.00      85.1     0.47      1014.0     6        54        10        71        8.08     265      473.4
   07/02/2016 14:50      88.4      86.8       31     53.4      0.00      0.00      85.1     0.47      1014.0     5        51         8        90        8.08     265      485.2
   07/02/2016 14:40      89.6      88.0       29     52.3      0.00      0.00      85.1     0.47      1014.0     4        61         5        75        8.08     265      495.9
   07/02/2016 14:30      89.4      89.1       28     51.4      0.00      0.00      84.8     0.47      1014.0     5        60         9        68        8.09     265      501.4
   07/02/2016 14:20      89.2      88.2       28     51.1      0.00      0.00      84.8     0.47      1014.0     4        36         6        24        8.09     265      511.2
   07/02/2016 14:10      88.5      87.7       27     50.2      0.00      0.00      84.9     0.47      1014.0     5        43         7        85        8.09     266      522.6
   07/02/2016 14:00      88.7      88.2       26     49.3      0.00      0.00      84.9     0.47      1014.0     5        54         9        77        8.09     266      527.9
   07/02/2016 13:50      89.0      88.0       28     51.2      0.00      0.00      84.9     0.47      1014.0     4        41         5        21        8.09     266      530.0
   07/02/2016 13:40      88.9      87.3       30     52.4      0.00      0.00      84.9     0.47      1014.0     4        37         6        82        8.09     266      541.1
   07/02/2016 13:30      87.8      86.8       31     53.5      0.00      0.00      84.6     0.46      1014.0     4        42         6        30        8.09     267      545.8
   07/02/2016 13:20      87.1      85.4       33     53.6      0.00      0.00      84.8     0.47      1014.0     3        54         5        73        8.09     267      550.7
   07/02/2016 13:10      86.7      85.3       32     53.3      0.00      0.00      84.6     0.46      1015.0     4        64         6        61        8.09     267      554.7
   07/02/2016 13:00      85.3      83.8       34     53.8      0.00      0.00      84.6     0.47      1015.0     3        58         5       357        8.10     267      556.6
   07/02/2016 12:50      84.5      83.6       36     54.3      0.00      0.00      84.4     0.47      1015.0     4        63         6        99        8.10     267      557.6
   07/02/2016 12:40      84.3      83.1       37     54.7      0.00      0.00      84.4     0.47      1015.0     3        54         4        88        8.10     267      557.1
   07/02/2016 12:30      83.8      82.9       37     54.5      0.00      0.00      84.6     0.47      1015.0     5        56         7        84        8.10     267      558.2
   07/02/2016 12:20      83.0      82.0       40     56.0      0.00      0.00      84.4     0.47      1015.0     3        32         6       355        8.10     267      553.7
   07/02/2016 12:10      82.2      80.0       43     56.3      0.00      0.00      84.5     0.47      1015.0     3        58         7        67        8.10     267      551.9
   07/02/2016 12:00      80.9      79.7       44     56.7      0.00      0.00      84.7     0.47      1015.0     3        33         6        23        8.10     268      548.1
   07/02/2016 11:50      80.5      79.0       46     56.9      0.00      0.00      84.5     0.47      1015.0     3        50         8         3        8.10     268      539.6
   07/02/2016 11:40      79.4      78.8       47     57.2      0.00      0.00      84.5     0.47      1015.0     3         7         6       355        8.10     268      534.9
   07/02/2016 11:30      78.7      78.0       49     57.5      0.00      0.00      84.4     0.47      1016.0     3         9         6        23        8.10     268      528.9
   07/02/2016 11:20      78.4      77.5       49     57.5      0.00      0.00      84.7     0.47      1016.0     3        38         6       132        8.10     268      520.0
   07/02/2016 11:10      77.9      77.3       50     57.4      0.00      0.00      84.5     0.47      1016.0     3        11         5       344        8.10     268      511.5
   07/02/2016 11:00      77.1      75.1       52     57.3      0.00      0.00      84.5     0.47      1016.0     2       360         4        50        8.10     268      498.4
   07/02/2016 10:50      75.5      74.9       54     57.3      0.00      0.00      84.6     0.47      1016.0     2        39         4       317        8.10     269      487.9
   07/02/2016 10:40      74.7      73.1       56     57.3      0.00      0.00      84.8     0.47      1016.0     3        24         5        32        8.10     270      476.2
   07/02/2016 10:30      73.5      72.3       58     57.3      0.00      0.00      84.2     0.47      1016.0     3       320         6       342        8.10     268      458.0
   07/02/2016 10:20      72.8      72.3       59     57.4      0.00      0.00      84.4     0.47      1016.0     3         3         5        32        8.10     269      446.4
   07/02/2016 10:10      73.1      71.2       60     57.4      0.00      0.00      84.7     0.47      1016.0     2       342         6       359        8.11     269      432.8
   07/02/2016 10:00      72.3      71.2       60     57.4      0.00      0.00      84.6     0.47      1016.0     2       198         4       155        8.11     268      411.0
   07/02/2016 09:50      72.1      71.2       61     57.5      0.00      0.00      84.7     0.47      1016.0     2        49         3        57        8.11     269      398.5
   07/02/2016 09:40      71.4      69.5       63     57.3      0.00      0.00      84.8     0.47      1016.0     2         1         3       346        8.11     269      373.1
   07/02/2016 09:30      69.7      69.0       65     57.2      0.00      0.00      84.7     0.47      1016.0     2       357         3         4        8.11     269      361.6
   07/02/2016 09:20      69.0      67.2       69     57.3      0.00      0.00      85.2     0.47      1016.0     2       123         4       142        8.11     269      346.6
   07/02/2016 09:10      67.2      66.5       71     57.2      0.00      0.00      84.8     0.48      1016.0     3       149         5       150        8.11     269      353.3
   07/02/2016 09:00      67.3      66.4       71     57.2      0.00      0.00      84.8     0.48      1016.0     2       191         6       150        8.11     269      357.4
   07/02/2016 08:50      66.4      65.5       73     57.1      0.00      0.00      84.9     0.48      1016.0     1         8         2         9        8.11     269      212.5
   07/02/2016 08:40      65.7      64.9       75     57.1      0.00      0.00      84.9     0.48      1016.0     1        77         2        20        8.11     269      148.7
   07/02/2016 08:30      65.0      64.3       76     57.0      0.00      0.00      84.6     0.48      1016.0     3        84         4        91        8.11     269      120.2
   07/02/2016 08:20      64.7      63.5       77     57.0      0.00      0.00      85.1     0.48      1016.0     2        32         5       346        8.11     269      118.1
   07/02/2016 08:10      63.8      63.1       79     56.8      0.00      0.00      85.0     0.48      1016.0     1       154         2       165        8.12     269       85.2
   07/02/2016 08:00      63.4      62.5       81     56.7      0.00      0.00      85.2     0.48      1016.0     3        99         4        66        8.12     269       60.8
   07/02/2016 07:50      63.3      62.4       81     56.7      0.00      0.00      85.0     0.48      1016.0     3       118         6       131        8.12     269       45.3
   07/02/2016 07:40      63.3      62.7       81     57.0      0.00      0.00      84.5     0.48      1015.0     3        84         4       130        8.12     269       40.1
   07/02/2016 07:30      62.8      62.4       82     56.9      0.00      0.00      85.3     0.48      1015.0     2       120         5       123        8.12     269       28.1
   07/02/2016 07:20      63.0      62.8       81     57.0      0.00      0.00      85.2     0.48      1015.0     2        98         4        93        8.12     269       20.2
   07/02/2016 07:10      63.0      62.8       81     57.1      0.00      0.00      85.4     0.48      1015.0     2       119         4       131        8.12     269       14.4
   07/02/2016 07:00      62.9      62.7       81     57.1      0.00      0.00      85.2     0.48      1015.0     2        53         3        70        8.12     269       13.0
   07/02/2016 06:50      62.9      62.4       82     56.9      0.00      0.00      85.2     0.48      1015.0     3       132         5       137        8.12     269       10.6
   07/02/2016 06:40      62.7      62.4       81     56.8      0.00      0.00      85.3     0.48      1015.0     4       124         5       142        8.12     269        2.9
   07/02/2016 06:30      63.0      62.6       81     57.0      0.00      0.00      85.1     0.48      1015.0     2        94         3        64        8.12     269       -3.1
   07/02/2016 06:20      62.9      62.6       81     56.9      0.00      0.00      85.4     0.48      1015.0     3       115         4       128        8.12     269       -8.3
   07/02/2016 06:10      63.0      62.7       81     57.0      0.00      0.00      85.5     0.48      1014.0     3       125         4       134        8.13     269      -14.7
   07/02/2016 06:00      63.2      62.9       81     57.0      0.00      0.00      85.7     0.48      1014.0     3       129         4       148        8.13     269      -18.1
   07/02/2016 05:50      63.2      62.9       81     57.0      0.00      0.00      85.7     0.48      1014.0     2       111         3        97        8.13     269      -19.4
   07/02/2016 05:40      62.9      62.8       82     57.2      0.00      0.00      85.4     0.48      1014.0     1       319         2       323        8.13     269      -22.5
   07/02/2016 05:30      63.3      62.8       81     57.2      0.00      0.00      85.6     0.48      1014.0     2       349         3         8        8.13     269      -32.1
   07/02/2016 05:20      63.3      62.9       81     57.1      0.00      0.00      85.5     0.48      1014.0     2        98         2        33        8.13     269      -25.6
   07/02/2016 05:10      63.0      62.8       81     57.0      0.00      0.00      85.7     0.48      1014.0     1       193         1       155        8.13     269      -20.7
   07/02/2016 05:00      63.1      62.8       81     57.0      0.00      0.00      85.6     0.48      1014.0     2       104         3        77        8.13     269      -19.9
   07/02/2016 04:50      63.0      62.7       81     57.0      0.00      0.00      86.0     0.48      1014.0     1       102         2       123        8.13     269      -26.9
   07/02/2016 04:40      63.2      62.7       81     57.0      0.00      0.00      85.8     0.48      1014.0     2       132         3       127        8.13     269      -36.4
   07/02/2016 04:30      63.3      63.0       81     57.2      0.00      0.00      86.0     0.48      1014.0     1        96         3        93        8.13     269      -30.0
   07/02/2016 04:20      63.5      63.2       80     57.1      0.00      0.00      86.2     0.48      1014.0     2       102         3       101        8.13     269      -36.3
   07/02/2016 04:10      63.7      63.4       79     57.1      0.00      0.00      85.6     0.48      1014.0     2        58         4        41        8.13     269      -26.8
   07/02/2016 04:00      63.8      63.3       80     57.2      0.00      0.00      85.9     0.48      1014.0     2        11         3        13        8.14     268      -23.8
   07/02/2016 03:50      63.5      63.2       81     57.3      0.00      0.00      85.8     0.48      1014.0     2        95         3        89        8.14     268      -20.5
   07/02/2016 03:40      63.3      63.0       81     57.3      0.00      0.00      86.3     0.48      1014.0     2       111         3       120        8.14     268      -18.9
   07/02/2016 03:30      63.5      63.3       81     57.4      0.00      0.00      86.2     0.48      1014.0     2        98         3       101        8.14     268      -19.0
   07/02/2016 03:20      63.5      63.3       81     57.5      0.00      0.00      86.0     0.48      1014.0     2       110         3        78        8.14     269      -18.9
   07/02/2016 03:10      63.7      63.3       81     57.6      0.00      0.00      86.1     0.48      1014.0     2        91         3        91        8.14     269      -18.4
   07/02/2016 03:00      63.8      63.5       81     57.7      0.00      0.00      86.2     0.48      1014.0     2        32         3        26        8.14     269      -19.8
   07/02/2016 02:50      63.8      63.6       81     57.9      0.00      0.00      86.2     0.48      1014.0     2        46         3        75        8.14     268      -22.0
   07/02/2016 02:40      64.0      63.7       81     57.9      0.00      0.00      86.5     0.48      1014.0     2        40         4        37        8.14     268      -25.6
   07/02/2016 02:30      64.1      63.5       81     58.0      0.00      0.00      86.7     0.48      1014.0     2        75         5        80        8.15     268      -22.5
   07/02/2016 02:20      63.7      63.2       82     57.9      0.00      0.00      86.2     0.48      1014.0     2        91         2        59        8.15     268      -19.6
   07/02/2016 02:10      63.3      62.6       83     57.5      0.00      0.00      87.0     0.48      1015.0     2       124         4        67        8.15     268      -17.2
   07/02/2016 02:00      62.5      61.7       83     56.9      0.00      0.00      86.1     0.48      1015.0     2       153         2       151        8.15     268      -19.5
   07/02/2016 01:50      62.1      61.7       83     56.8      0.00      0.00      86.6     0.48      1015.0     1       141         1       168        8.15     268      -49.6
   07/02/2016 01:40      62.0      61.9       84     57.0      0.00      0.00      86.6     0.48      1014.0     1       167         2       167        8.15     268      -63.1
   07/02/2016 01:30      62.3      62.1       83     57.0      0.00      0.00      86.7     0.48      1014.0     1       176         2       194        8.15     268      -66.1
   07/02/2016 01:20      62.5      62.3       82     57.0      0.00      0.00      86.7     0.48      1014.0     2       182         2       198        8.15     268      -67.0
   07/02/2016 01:10      62.8      62.6       81     56.8      0.00      0.00      86.4     0.48      1014.0     2       159         3       167        8.16     268      -67.8
   07/02/2016 01:00      63.1      62.8       81     57.1      0.00      0.00      86.3     0.48      1014.0     2       138         3       164        8.16     267      -67.0
   07/02/2016 00:50      63.1      62.8       81     56.9      0.00      0.00      86.8     0.48      1014.0     1       100         2       117        8.16     267      -69.2
   07/02/2016 00:40      63.4      63.1       81     57.3      0.00      0.00      86.5     0.48      1014.0     1       115         2       105        8.16     267      -69.0
   07/02/2016 00:30      63.7      63.4       81     57.5      0.00      0.00      86.6     0.48      1014.0     1       104         1       126        8.16     267      -69.2
   07/02/2016 00:20      63.9      63.7       79     57.2      0.00      0.00      86.7     0.48      1014.0     1       105         2       124        8.16     267      -70.7
   07/02/2016 00:10      64.0      63.7       80     57.6      0.00      0.00      86.8     0.48      1014.0     1       113         3        74        8.16     267      -70.7
   07/02/2016 00:00      64.0      63.5       77     56.4      0.00      0.00      86.6     0.48      1014.0     2        99         2       105        8.16     267      -71.5
   07/01/2016 23:50      64.2      63.8       76     56.2      0.00      0.00      86.8     0.48      1014.0     1       121         1       124        8.17     267      -72.8
   07/01/2016 23:40      64.4      64.1       77     57.0      0.00      0.00      86.6     0.48      1014.0     1       171         1       207        8.17     267      -74.5
   07/01/2016 23:30      64.4      64.2       78     57.3      0.00      0.00      87.1     0.48      1014.0     1       181         2       177        8.17     267      -75.6
   07/01/2016 23:20      64.7      64.4       77     57.0      0.00      0.00      87.1     0.48      1014.0     1       152         1       189        8.17     267      -78.2
   07/01/2016 23:10      65.0      64.5       77     57.5      0.00      0.00      87.0     0.48      1014.0     2       194         2       196        8.17     267      -78.3
   07/01/2016 23:00      65.3      65.0       77     57.8      0.00      0.00      86.8     0.48      1014.0     1       179         2       181        8.17     267      -80.4
   07/01/2016 22:50      65.8      65.3       76     57.8      0.00      0.00      86.9     0.48      1014.0     2       158         2       155        8.17     267      -81.9
   07/01/2016 22:40      66.7      66.1       73     57.6      0.00      0.00      86.8     0.48      1014.0     2       157         3       203        8.18     267      -81.8
   07/01/2016 22:30      67.3      66.9       73     58.2      0.00      0.00      87.1     0.48      1014.0     2       147         3        86        8.18     267      -80.9
   07/01/2016 22:20      68.1      67.3       71     57.7      0.00      0.00      87.1     0.48      1014.0     1       153         3       117        8.18     266      -81.5
   07/01/2016 22:10      68.9      68.3       68     57.6      0.00      0.00      87.0     0.48      1014.0     1       155         2       166        8.18     266      -83.1
   07/01/2016 22:00      69.3      68.9       68     58.0      0.00      0.00      86.9     0.48      1014.0     2        71         3        78        8.18     266      -82.7
   07/01/2016 21:50      69.7      69.3       67     57.9      0.00      0.00      87.2     0.48      1013.0     2        71         3        69        8.18     266      -82.0
   07/01/2016 21:40      70.2      69.8       66     58.0      0.00      0.00      86.7     0.48      1013.0     2        95         3       125        8.19     266      -82.0
   07/01/2016 21:30      70.4      70.2       65     57.9      0.00      0.00      86.8     0.48      1013.0     2       112         2        93        8.19     266      -83.5
   07/01/2016 21:20      70.8      70.5       64     57.9      0.00      0.00      86.9     0.48      1013.0     2       148         2       135        8.19     266      -83.7
   07/01/2016 21:10      71.2      70.9       63     58.1      0.00      0.00      86.9     0.48      1013.0     2       110         3       118        8.19     266      -82.9
   07/01/2016 21:00      71.4      71.1       63     58.1      0.00      0.00      86.6     0.48      1013.0     3       132         5       132        8.19     265      -84.8
   07/01/2016 20:50      71.3      71.0       64     58.2      0.00      0.00      86.8     0.48      1013.0     3       151         4       145        8.19     265      -86.2
   07/01/2016 20:40      71.1      71.0       64     58.3      0.00      0.00      86.7     0.48      1012.0     2       177         2       187        8.19     265      -86.3
   07/01/2016 20:30      71.5      71.1       64     58.6      0.00      0.00      87.1     0.48      1012.0     3       189         3       187        8.20     265      -87.3
   07/01/2016 20:20      72.1      71.7       63     58.7      0.00      0.00      86.8     0.48      1012.0     4       144         6       133        8.20     265      -87.2
   07/01/2016 20:10      73.3      72.3       61     58.6      0.00      0.00      86.7     0.48      1012.0     5       143         7       149        8.20     265      -85.8
   07/01/2016 20:00      75.0      73.5       58     58.4      0.00      0.00      87.1     0.48      1012.0     4       157         6       151        8.20     265      -82.6
   07/01/2016 19:50      77.8      75.3       53     58.0      0.00      0.00      86.9     0.48      1012.0     4       151         6       121        8.20     265      -78.7
   07/01/2016 19:40      78.7      78.0       49     57.7      0.00      0.00      86.6     0.48      1012.0     2        76         4        93        8.21     265      -65.2
   07/01/2016 19:30      79.6      78.5       48     57.7      0.00      0.00      86.5     0.48      1012.0     3        78         5        96        8.21     265      -44.5
   07/01/2016 19:20      80.4      79.6       46     57.5      0.00      0.00      87.0     0.48      1012.0     3        57         6        88        8.21     265      -26.6
   07/01/2016 19:10      81.0      80.3       42     55.7      0.00      0.00      86.8     0.48      1012.0     2       111         6        78        8.22     264       -7.3
   07/01/2016 19:00      81.3      80.4       41     54.8      0.00      0.00      86.4     0.48      1012.0     5       138         6       146        8.22     264       15.7
   07/01/2016 18:50      82.0      81.4       39     54.0      0.00      0.00      86.8     0.48      1011.0     6       127         8       107        8.22     264       36.6
   07/01/2016 18:40      82.5      82.1       37     53.7      0.00      0.00      86.7     0.48      1011.0     5       136         7       137        8.23     264       57.0
   07/01/2016 18:30      83.1      82.0       37     53.8      0.00      0.00      86.7     0.48      1011.0     5       120         7       132        8.24     264       77.2
   07/01/2016 18:20      83.2      82.6       38     54.4      0.00      0.00      86.8     0.48      1011.0     5       142         6       122        8.24     264      101.5
   07/01/2016 18:10      83.9      82.8       38     55.2      0.00      0.00      86.3     0.48      1010.0     5       148         7       140        8.25     264      124.2
   07/01/2016 18:00      84.0      82.3       40     55.9      0.00      0.00      86.2     0.48      1010.0     3       123         5        71        8.26     264      147.7
   07/01/2016 17:50      83.5      82.6       39     55.7      0.00      0.00      86.3     0.48      1011.0     6       130         9       128        8.27     264      171.2
   07/01/2016 17:40      84.5      83.5       37     55.1      0.00      0.00      86.3     0.48      1011.0     5       134         8       138        8.28     264      194.4
   07/01/2016 17:30      83.5      82.9       39     55.7      0.00      0.00      86.2     0.48      1011.0     5       122         8       135        8.29     264      219.0
   07/01/2016 17:20      83.9      83.2       39     56.2      0.00      0.00      86.1     0.48      1011.0     6       130         9       130        8.29     264      242.6
   07/01/2016 17:10      84.3      83.5       39     56.3      0.00      0.00      86.0     0.48      1011.0     7       131        10       132        8.30     264      264.0
   07/01/2016 17:00      85.0      83.8       38     56.2      0.00      0.00      86.1     0.48      1011.0     6       126        10       108        8.31     264      285.2
   07/01/2016 16:50      84.5      84.0       37     55.1      0.00      0.00      85.9     0.48      1011.0     7       135        12       126        8.31     264      306.6
   07/01/2016 16:40      85.6      83.8       39     57.0      0.00      0.00      85.9     0.48      1011.0     7       137        12       138        8.32     264      324.8
   07/01/2016 16:30      86.2      84.6       37     56.3      0.00      0.00      85.9     0.48      1011.0     7       142        10       122        8.32     264      341.6
   07/01/2016 16:20      87.4      86.2       36     56.9      0.00      0.00      85.8     0.48      1011.0     6        93        10        72        8.33     265      355.5
   07/01/2016 16:10      87.7      86.5       36     56.8      0.00      0.00      85.7     0.47      1011.0     4        96         7       127        8.33     265      371.5
   07/01/2016 16:00      87.9      86.9       35     56.7      0.00      0.00      85.7     0.47      1011.0     4        66         7        80        8.33     265      388.5
   07/01/2016 15:50      88.4      87.9       31     53.7      0.00      0.00      85.6     0.47      1011.0     4        83         7        71        8.33     265      406.4
   07/01/2016 15:40      87.7      86.0       31     52.0      0.00      0.00      85.6     0.47      1011.0     5        79         9        89        8.34     265      423.4
   07/01/2016 15:30      86.2      85.0       37     56.4      0.00      0.00      85.6     0.47      1011.0     6       120        10       139        8.35     265      433.1
   07/01/2016 15:20      86.0      84.8       40     58.6      0.00      0.00      85.8     0.47      1011.0     5       146         9       154        8.36     265      449.7
   07/01/2016 15:10      86.6      85.7       39     58.5      0.00      0.00      85.4     0.47      1011.0     4       140         6       127        8.37     265      462.3
   07/01/2016 15:00      87.4      86.3       38     58.5      0.00      0.00      85.3     0.47      1012.0     4       128         8       118        8.38     265      473.6
   07/01/2016 14:50      87.5      86.2       39     58.9      0.00      0.00      85.4     0.47      1012.0     5       136         9       161        8.38     265      485.3
   07/01/2016 14:40      87.6      86.3       38     58.6      0.00      0.00      85.3     0.47      1012.0     3        36         5        80        8.39     265      491.4
   07/01/2016 14:30      87.3      85.9       40     59.1      0.00      0.00      85.4     0.47      1012.0     5        77        10        75        8.39     265      506.9
   07/01/2016 14:20      88.2      87.1       38     59.0      0.00      0.00      85.2     0.47      1012.0     5        46         8        35        8.39     265      513.5
   07/01/2016 14:10      88.2      86.6       39     59.5      0.00      0.00      85.1     0.47      1012.0     4        41         6        55        8.40     266      518.9
   07/01/2016 14:00      87.3      85.3       39     58.9      0.00      0.00      85.0     0.47      1012.0     5        53         7        64        8.41     266      527.2
   07/01/2016 13:50      85.9      84.7       41     59.1      0.00      0.00      84.8     0.47      1012.0     5        98         6        51        8.42     266      538.2
   07/01/2016 13:40      86.1      85.3       41     59.2      0.00      0.00      85.0     0.47      1012.0     5       117         8       136        8.42     266      542.7
   07/01/2016 13:30      86.5      85.6       41     59.7      0.00      0.00      84.9     0.47      1012.0     4       117         8        88        8.43     267      544.1
   07/01/2016 13:20      86.7      85.0       42     60.0      0.00      0.00      85.0     0.47      1012.0     4        82         8        79        8.43     267      546.5
   07/01/2016 13:10      86.7      84.6       42     59.8      0.00      0.00      84.6     0.47      1012.0     4        78         5       109        8.43     267      552.3
   07/01/2016 13:00      85.4      84.2       42     59.3      0.00      0.00      84.6     0.47      1012.0     5        73        10        70        8.43     267      555.9
   07/01/2016 12:50      86.2      84.7       42     59.8      0.00      0.00      85.0     0.47      1012.0     5        67         7       107        8.44     267      555.6
   07/01/2016 12:40      85.6      84.5       43     60.4      0.00      0.00      84.8     0.47      1012.0     4        52         7        72        8.44     267      553.7
   07/01/2016 12:30      85.7      84.3       44     60.8      0.00      0.00      84.6     0.47      1012.0     4        43         8        76        8.44     267      552.3
   07/01/2016 12:20      85.3      84.4       45     61.3      0.00      0.00      84.9     0.47      1013.0     4        35         8        80        8.44     267      549.9
   07/01/2016 12:10      85.6      84.2       45     61.2      0.00      0.00      84.9     0.47      1013.0     4        37         7       348        8.44     268      544.5
   07/01/2016 12:00      83.9      82.3       47     60.7      0.00      0.00      84.9     0.47      1013.0     3        36         7        66        8.44     268      539.4
   07/01/2016 11:50      83.3      82.3       48     60.9      0.00      0.00      84.7     0.47      1013.0     4        30         6        20        8.44     268      531.7
   07/01/2016 11:40      83.1      82.0       48     61.1      0.00      0.00      85.0     0.47      1013.0     5        37         9        13        8.45     268      527.2
   07/01/2016 11:30      82.6      81.5       50     61.4      0.00      0.00      84.9     0.47      1013.0     5        42         7        27        8.45     268      519.1
   07/01/2016 11:20      81.7      81.0       51     61.8      0.00      0.00      85.0     0.47      1013.0     5        15         8         6        8.45     268      510.7
   07/01/2016 11:10      81.7      81.1       52     61.9      0.00      0.00      84.9     0.47      1013.0     4        31         7        11        8.45     268      501.0
   07/01/2016 11:00      81.3      79.7       54     61.9      0.00      0.00      84.7     0.47      1013.0     4        41         8       336        8.45     269      489.7
   07/01/2016 10:50      80.5      79.6       54     61.9      0.00      0.00      84.9     0.47      1013.0     4        44         8        80        8.45     269      479.9
   07/01/2016 10:40      79.9      79.0       55     62.0      0.00      0.00      84.9     0.47      1013.0     5         6         6       341        8.45     270      461.6
   07/01/2016 10:30      78.8      77.8       57     61.9      0.00      0.00      85.3     0.47      1013.0     4        14         5        49        8.45     269      451.6
   07/01/2016 10:20      78.2      77.3       58     61.9      0.00      0.00      84.7     0.47      1013.0     3        20         5        31        8.45     269      439.1
   07/01/2016 10:10      77.5      76.4       59     61.8      0.00      0.00      85.3     0.48      1013.0     3        12         5         0        8.45     269      421.8
   07/01/2016 10:00      76.6      75.7       61     61.8      0.00      0.00      85.1     0.48      1013.0     4        14         6       354        8.46     269      405.9
   07/01/2016 09:50      76.4      75.0       62     61.6      0.00      0.00      85.1     0.48      1013.0     2        47         4       294        8.46     270      388.2
   07/01/2016 09:40      75.4      73.9       64     61.4      0.00      0.00      84.9     0.48      1013.0     3       101         4       345        8.46     269      370.7
   07/01/2016 09:30      74.7      73.9       64     61.4      0.00      0.00      85.1     0.48      1013.0     3        22         5         7        8.46     270      350.7
   07/01/2016 09:20      73.8      72.7       66     61.3      0.00      0.00      85.0     0.48      1013.0     3        12         6         6        8.46     270      334.2
   07/01/2016 09:10      72.7      71.8       68     60.8      0.00      0.00      85.3     0.48      1013.0     3       106         5       167        8.47     269      315.7
   07/01/2016 09:00      72.3      71.3       68     60.8      0.00      0.00      85.2     0.48      1013.0     3        59         5         2        8.47     269      309.6
   07/01/2016 08:50      70.9      69.0       72     60.6      0.00      0.00      85.1     0.48      1013.0     2        30         3        17        8.47     269      253.6
   07/01/2016 08:40      68.9      68.0       76     60.3      0.00      0.00      85.2     0.48      1013.0     3       137         5       133        8.47     269       36.5
   07/01/2016 08:30      68.3      67.6       76     60.2      0.00      0.00      85.4     0.48      1013.0     2       146         6       147        8.47     269       34.9
   07/01/2016 08:20      67.5      67.2       78     60.2      0.00      0.00      84.9     0.48      1013.0     2        88         3        89        8.47     269       40.3
   07/01/2016 08:10      67.4      66.9       78     60.2      0.00      0.00      85.1     0.48      1013.0     3       123         5       131        8.47     269       56.0
   07/01/2016 08:00      67.3      66.6       78     60.1      0.00      0.00      85.3     0.48      1013.0     1        80         2        92        8.47     270       72.3
   07/01/2016 07:50      67.0      66.5       79     60.1      0.00      0.00      85.5     0.48      1013.0     3       123         4       107        8.47     270       43.8
   07/01/2016 07:40      67.0      66.6       79     60.0      0.00      0.00      85.5     0.48      1013.0     1        14         2         5        8.47     270       45.4
   07/01/2016 07:30      66.6      66.0       80     59.9      0.00      0.00      85.3     0.48      1013.0     2        12         3        27        8.48     270       47.3
   07/01/2016 07:20      66.2      65.7       81     59.9      0.00      0.00      85.3     0.48      1013.0     3       359         3         3        8.48     270       42.5
   07/01/2016 07:10      65.8      65.3       82     59.8      0.00      0.00      85.5     0.48      1013.0     1        37         3        34        8.48     270       19.8
   07/01/2016 07:00      65.4      65.2       83     59.8      0.00      0.00      85.3     0.48      1012.0     2       136         3       133        8.48     270       12.8
   07/01/2016 06:50      65.5      65.3       82     59.8      0.00      0.00      85.3     0.48      1012.0     2       106         4        72        8.48     270       12.0
   07/01/2016 06:40      65.7      65.2       82     59.9      0.00      0.00      85.5     0.48      1012.0     2        23         3        64        8.48     270        4.1
   07/01/2016 06:30      65.3      64.9       83     59.9      0.00      0.00      85.8     0.48      1012.0     1       333         2       320        8.48     270       -3.2
   07/01/2016 06:20      65.0      64.7       84     59.9      0.00      0.00      85.6     0.48      1012.0     2         0         4        11        8.48     270       -9.2
   07/01/2016 06:10      64.9      64.4       85     59.9      0.00      0.00      85.9     0.48      1012.0     1        81         3        81        8.48     270      -11.2
   07/01/2016 06:00      64.5      64.3       85     59.9      0.00      0.00      85.7     0.48      1012.0     2       103         3        86        8.48     270      -13.8
   07/01/2016 05:50      64.6      64.3       85     59.9      0.00      0.00      86.0     0.48      1012.0     2       100         3       118        8.48     270      -15.0
   07/01/2016 05:40      64.5      64.3       85     59.9      0.00      0.00      85.9     0.48      1012.0     3       111         5       102        8.48     270      -16.3
   07/01/2016 05:30      64.6      64.4       85     59.9      0.00      0.00      86.0     0.48      1012.0     2        84         4        59        8.48     270      -16.7
   07/01/2016 05:20      64.5      64.4       85     59.8      0.00      0.00      86.1     0.48      1012.0     2        96         4        81        8.48     270      -19.5
   07/01/2016 05:10      64.5      64.3       85     59.8      0.00      0.00      85.5     0.48      1012.0     2        91         3        89        8.48     269      -22.6
   07/01/2016 05:00      64.5      64.2       85     59.8      0.00      0.00      85.9     0.48      1012.0     2        64         3        69        8.48     269      -27.4
   07/01/2016 04:50      64.5      64.2       85     59.7      0.00      0.00      86.2     0.48      1012.0     2        71         5        73        8.48     269      -21.1
   07/01/2016 04:40      64.6      64.4       85     59.7      0.00      0.00      86.0     0.48      1012.0     2        44         3        44        8.49     269      -17.3
   07/01/2016 04:30      64.5      64.3       85     59.7      0.00      0.00      86.1     0.48      1012.0     2        36         3        61        8.49     269      -19.2
   07/01/2016 04:20      64.5      64.3       85     59.6      0.00      0.00      86.1     0.48      1012.0     2        88         4        69        8.49     269      -20.3
   07/01/2016 04:10      64.4      64.3       85     59.6      0.00      0.00      86.4     0.48      1012.0     1        59         3        88        8.49     269      -21.6
   07/01/2016 04:00      64.3      64.1       85     59.6      0.00      0.00      86.5     0.48      1012.0     2        74         4        91        8.49     269      -19.7
   07/01/2016 03:50      64.3      64.1       85     59.6      0.00      0.00      86.4     0.48      1012.0     2        81         3       123        8.49     269      -17.9
   07/01/2016 03:40      64.1      63.8       86     59.6      0.00      0.00      86.1     0.48      1012.0     3        93         4        92        8.49     269      -16.5
   07/01/2016 03:30      64.2      63.9       85     59.6      0.00      0.00      86.2     0.48      1012.0     2        87         3        46        8.50     269      -16.2
   07/01/2016 03:20      64.4      64.1       85     59.6      0.00      0.00      86.6     0.48      1012.0     2        57         4        67        8.50     269      -16.6
   07/01/2016 03:10      64.3      64.0       86     59.7      0.00      0.00      86.6     0.48      1012.0     2        62         3        65        8.50     269      -15.8
   07/01/2016 03:00      64.4      64.1       85     59.8      0.00      0.00      86.7     0.48      1012.0     2        50         4        71        8.50     269      -15.3
   07/01/2016 02:50      64.4      64.1       85     59.7      0.00      0.00      86.3     0.48      1012.0     2        57         3        88        8.50     269      -14.4
   07/01/2016 02:40      64.3      64.0       85     59.6      0.00      0.00      86.1     0.48      1012.0     2        49         3        35        8.50     269      -18.2
   07/01/2016 02:30      64.3      63.8       85     59.5      0.00      0.00      86.6     0.48      1012.0     2        64         3        55        8.50     269      -43.6
   07/01/2016 02:20      64.0      63.8       85     59.5      0.00      0.00      86.4     0.48      1012.0     2        48         3        66        8.50     269      -61.6
   07/01/2016 02:10      63.9      63.7       86     59.4      0.00      0.00      86.7     0.48      1012.0     3        42         3        82        8.50     269      -64.3
   07/01/2016 02:00      63.9      63.6       86     59.4      0.00      0.00      86.7     0.48      1012.0     3        47         4        81        8.51     269      -64.2
   07/01/2016 01:50      64.0      63.7       86     59.5      0.00      0.00      86.8     0.48      1012.0     2        87         4       137        8.51     269      -64.7
   07/01/2016 01:40      64.3      64.0       85     59.5      0.00      0.00      86.5     0.48      1012.0     3        60         5        78        8.51     269      -65.8
   07/01/2016 01:30      64.5      64.3       84     59.5      0.00      0.00      86.7     0.48      1012.0     3        72         5        98        8.51     269      -66.1
   07/01/2016 01:20      64.9      64.6       83     59.6      0.00      0.00      86.9     0.48      1012.0     3        66         5        67        8.51     269      -67.2
   07/01/2016 01:10      65.0      64.8       83     59.5      0.00      0.00      86.6     0.48      1012.0     3        55         4        73        8.51     269      -67.8
   07/01/2016 01:00      65.2      65.0       82     59.6      0.00      0.00      86.8     0.48      1012.0     2        68         4        62        8.51     268      -68.3
   07/01/2016 00:50      65.6      65.3       82     59.6      0.00      0.00      86.8     0.48      1012.0     2        69         4        86        8.51     268      -69.0
   07/01/2016 00:40      65.8      65.6       81     59.7      0.00      0.00      86.9     0.48      1012.0     2        60         4        75        8.51     268      -69.2
   07/01/2016 00:30      66.3      66.0       80     59.8      0.00      0.00      87.0     0.48      1012.0     2        51         3        77        8.51     268      -69.4
   07/01/2016 00:20      66.6      66.3       79     59.7      0.00      0.00      86.9     0.48      1012.0     2        35         3        30        8.51     268      -70.3
   07/01/2016 00:10      66.9      66.6       78     59.8      0.00      0.00      86.8     0.48      1012.0     2        36         2        32        8.51     268      -70.7
   07/01/2016 00:00      67.3      66.9       77     59.8      0.00      0.00      86.8     0.48      1012.0     2        63         3        73        8.51     268      -70.7


<<Back to data home page